<?xml version="1.0" encoding="UTF-8" standalone="no" ?>
<gpx xmlns="http://www.topografix.com/GPX/1/1" xmlns:xsi="http://www.w3.org/2001/XMLSchema-instance" xsi:schemaLocation="http://www.topografix.com/GPX/1/1 http://www.topografix.com/GPX/1/1/gpx.xsd" version="1.1" creator="VisuGPX - https://www.visugpx.com">
  <metadata>
    <name>Pornichet 22/10/2020</name>
    <desc><![CDATA[Sortie VTT du jeudi 22 octobre 2020]]></desc>
  </metadata>
  <trk>
    <name><![CDATA[Pornichet Cyclisme]]></name>
    <trkseg>
      <trkpt lat="47.26402" lon="-2.31584">
        <ele>10</ele>
        <time>2020-10-22T06:55:41.000Z</time>
      </trkpt>
      <trkpt lat="47.264" lon="-2.31599">
        <ele>10</ele>
        <time>2020-10-22T06:55:44.000Z</time>
      </trkpt>
      <trkpt lat="47.264" lon="-2.31604">
        <ele>10.199999809265</ele>
        <time>2020-10-22T06:55:45.000Z</time>
      </trkpt>
      <trkpt lat="47.264" lon="-2.31613">
        <ele>10.199999809265</ele>
        <time>2020-10-22T06:55:47.000Z</time>
      </trkpt>
      <trkpt lat="47.26401" lon="-2.31655">
        <ele>10.199999809265</ele>
        <time>2020-10-22T06:55:56.000Z</time>
      </trkpt>
      <trkpt lat="47.264" lon="-2.31659">
        <ele>10.199999809265</ele>
        <time>2020-10-22T06:55:58.000Z</time>
      </trkpt>
      <trkpt lat="47.26397" lon="-2.31662">
        <ele>10.199999809265</ele>
        <time>2020-10-22T06:56:00.000Z</time>
      </trkpt>
      <trkpt lat="47.26384" lon="-2.31666">
        <ele>10.199999809265</ele>
        <time>2020-10-22T06:56:06.000Z</time>
      </trkpt>
      <trkpt lat="47.26364" lon="-2.31676">
        <ele>10.199999809265</ele>
        <time>2020-10-22T06:56:12.000Z</time>
      </trkpt>
      <trkpt lat="47.26342" lon="-2.31686">
        <ele>10.199999809265</ele>
        <time>2020-10-22T06:56:18.000Z</time>
      </trkpt>
      <trkpt lat="47.26336" lon="-2.31688">
        <ele>9.8000001907349</ele>
        <time>2020-10-22T06:56:20.000Z</time>
      </trkpt>
      <trkpt lat="47.26333" lon="-2.31689">
        <ele>9.3999996185303</ele>
        <time>2020-10-22T06:56:21.000Z</time>
      </trkpt>
      <trkpt lat="47.2633" lon="-2.31691">
        <ele>8.8000001907349</ele>
        <time>2020-10-22T06:56:22.000Z</time>
      </trkpt>
      <trkpt lat="47.26328" lon="-2.31692">
        <ele>8.3999996185303</ele>
        <time>2020-10-22T06:56:23.000Z</time>
      </trkpt>
      <trkpt lat="47.26326" lon="-2.31696">
        <ele>8</ele>
        <time>2020-10-22T06:56:24.000Z</time>
      </trkpt>
      <trkpt lat="47.26312" lon="-2.3171">
        <ele>8</ele>
        <time>2020-10-22T06:56:29.000Z</time>
      </trkpt>
      <trkpt lat="47.263" lon="-2.31713">
        <ele>7.5999999046326</ele>
        <time>2020-10-22T06:56:32.000Z</time>
      </trkpt>
      <trkpt lat="47.26296" lon="-2.31712">
        <ele>7.1999998092651</ele>
        <time>2020-10-22T06:56:33.000Z</time>
      </trkpt>
      <trkpt lat="47.26291" lon="-2.3171">
        <ele>6.8000001907349</ele>
        <time>2020-10-22T06:56:34.000Z</time>
      </trkpt>
      <trkpt lat="47.26288" lon="-2.31707">
        <ele>6.4000000953674</ele>
        <time>2020-10-22T06:56:35.000Z</time>
      </trkpt>
      <trkpt lat="47.26284" lon="-2.31704">
        <ele>6</ele>
        <time>2020-10-22T06:56:36.000Z</time>
      </trkpt>
      <trkpt lat="47.26276" lon="-2.31693">
        <ele>6</ele>
        <time>2020-10-22T06:56:39.000Z</time>
      </trkpt>
      <trkpt lat="47.26261" lon="-2.31663">
        <ele>6</ele>
        <time>2020-10-22T06:56:46.000Z</time>
      </trkpt>
      <trkpt lat="47.26246" lon="-2.31633">
        <ele>6</ele>
        <time>2020-10-22T06:56:53.000Z</time>
      </trkpt>
      <trkpt lat="47.26223" lon="-2.31609">
        <ele>6</ele>
        <time>2020-10-22T06:57:00.000Z</time>
      </trkpt>
      <trkpt lat="47.26202" lon="-2.316">
        <ele>6</ele>
        <time>2020-10-22T06:57:06.000Z</time>
      </trkpt>
      <trkpt lat="47.26177" lon="-2.31606">
        <ele>6</ele>
        <time>2020-10-22T06:57:13.000Z</time>
      </trkpt>
      <trkpt lat="47.26147" lon="-2.31614">
        <ele>6</ele>
        <time>2020-10-22T06:57:21.000Z</time>
      </trkpt>
      <trkpt lat="47.26121" lon="-2.31617">
        <ele>6</ele>
        <time>2020-10-22T06:57:28.000Z</time>
      </trkpt>
      <trkpt lat="47.26099" lon="-2.31609">
        <ele>6</ele>
        <time>2020-10-22T06:57:34.000Z</time>
      </trkpt>
      <trkpt lat="47.26086" lon="-2.31591">
        <ele>6</ele>
        <time>2020-10-22T06:57:39.000Z</time>
      </trkpt>
      <trkpt lat="47.26077" lon="-2.31579">
        <ele>6</ele>
        <time>2020-10-22T06:57:44.000Z</time>
      </trkpt>
      <trkpt lat="47.26065" lon="-2.31559">
        <ele>6</ele>
        <time>2020-10-22T06:57:50.000Z</time>
      </trkpt>
      <trkpt lat="47.26051" lon="-2.3153">
        <ele>6</ele>
        <time>2020-10-22T06:57:57.000Z</time>
      </trkpt>
      <trkpt lat="47.26034" lon="-2.31512">
        <ele>6</ele>
        <time>2020-10-22T06:58:05.000Z</time>
      </trkpt>
      <trkpt lat="47.26033" lon="-2.31514">
        <ele>6.4000000953674</ele>
        <time>2020-10-22T06:58:06.000Z</time>
      </trkpt>
      <trkpt lat="47.26031" lon="-2.31516">
        <ele>6.8000001907349</ele>
        <time>2020-10-22T06:58:07.000Z</time>
      </trkpt>
      <trkpt lat="47.2603" lon="-2.31519">
        <ele>7.1999998092651</ele>
        <time>2020-10-22T06:58:08.000Z</time>
      </trkpt>
      <trkpt lat="47.26029" lon="-2.31524">
        <ele>7.5999999046326</ele>
        <time>2020-10-22T06:58:09.000Z</time>
      </trkpt>
      <trkpt lat="47.26028" lon="-2.31529">
        <ele>8</ele>
        <time>2020-10-22T06:58:10.000Z</time>
      </trkpt>
      <trkpt lat="47.26014" lon="-2.31555">
        <ele>8</ele>
        <time>2020-10-22T06:58:17.000Z</time>
      </trkpt>
      <trkpt lat="47.26007" lon="-2.31556">
        <ele>8</ele>
        <time>2020-10-22T06:58:20.000Z</time>
      </trkpt>
      <trkpt lat="47.26004" lon="-2.31554">
        <ele>8</ele>
        <time>2020-10-22T06:58:21.000Z</time>
      </trkpt>
      <trkpt lat="47.26001" lon="-2.31551">
        <ele>8</ele>
        <time>2020-10-22T06:58:22.000Z</time>
      </trkpt>
      <trkpt lat="47.25995" lon="-2.31543">
        <ele>8</ele>
        <time>2020-10-22T06:58:24.000Z</time>
      </trkpt>
      <trkpt lat="47.25993" lon="-2.31539">
        <ele>8</ele>
        <time>2020-10-22T06:58:25.000Z</time>
      </trkpt>
      <trkpt lat="47.25977" lon="-2.31513">
        <ele>8</ele>
        <time>2020-10-22T06:58:31.000Z</time>
      </trkpt>
      <trkpt lat="47.25965" lon="-2.31485">
        <ele>8</ele>
        <time>2020-10-22T06:58:37.000Z</time>
      </trkpt>
      <trkpt lat="47.25948" lon="-2.31466">
        <ele>8</ele>
        <time>2020-10-22T06:58:43.000Z</time>
      </trkpt>
      <trkpt lat="47.25928" lon="-2.31456">
        <ele>8</ele>
        <time>2020-10-22T06:58:50.000Z</time>
      </trkpt>
      <trkpt lat="47.25925" lon="-2.3146">
        <ele>8</ele>
        <time>2020-10-22T06:58:52.000Z</time>
      </trkpt>
      <trkpt lat="47.25922" lon="-2.31465">
        <ele>8</ele>
        <time>2020-10-22T06:58:54.000Z</time>
      </trkpt>
      <trkpt lat="47.25911" lon="-2.3149">
        <ele>8.3999996185303</ele>
        <time>2020-10-22T06:59:02.000Z</time>
      </trkpt>
      <trkpt lat="47.25911" lon="-2.31493">
        <ele>8.8000001907349</ele>
        <time>2020-10-22T06:59:03.000Z</time>
      </trkpt>
      <trkpt lat="47.25911" lon="-2.31494">
        <ele>9.1999998092651</ele>
        <time>2020-10-22T06:59:04.000Z</time>
      </trkpt>
      <trkpt lat="47.25911" lon="-2.31494">
        <ele>9.6000003814697</ele>
        <time>2020-10-22T06:59:05.000Z</time>
      </trkpt>
      <trkpt lat="47.25911" lon="-2.31495">
        <ele>10</ele>
        <time>2020-10-22T06:59:06.000Z</time>
      </trkpt>
      <trkpt lat="47.25909" lon="-2.31501">
        <ele>10</ele>
        <time>2020-10-22T06:59:09.000Z</time>
      </trkpt>
      <trkpt lat="47.25908" lon="-2.31503">
        <ele>10</ele>
        <time>2020-10-22T06:59:10.000Z</time>
      </trkpt>
      <trkpt lat="47.25901" lon="-2.31517">
        <ele>10</ele>
        <time>2020-10-22T06:59:14.000Z</time>
      </trkpt>
      <trkpt lat="47.25899" lon="-2.31521">
        <ele>10</ele>
        <time>2020-10-22T06:59:15.000Z</time>
      </trkpt>
      <trkpt lat="47.25887" lon="-2.3155">
        <ele>10</ele>
        <time>2020-10-22T06:59:22.000Z</time>
      </trkpt>
      <trkpt lat="47.25871" lon="-2.31577">
        <ele>10</ele>
        <time>2020-10-22T06:59:29.000Z</time>
      </trkpt>
      <trkpt lat="47.25868" lon="-2.3158">
        <ele>10.39999961853</ele>
        <time>2020-10-22T06:59:30.000Z</time>
      </trkpt>
      <trkpt lat="47.25865" lon="-2.31583">
        <ele>10.800000190735</ele>
        <time>2020-10-22T06:59:31.000Z</time>
      </trkpt>
      <trkpt lat="47.25862" lon="-2.31585">
        <ele>11.199999809265</ele>
        <time>2020-10-22T06:59:32.000Z</time>
      </trkpt>
      <trkpt lat="47.2586" lon="-2.31588">
        <ele>11.60000038147</ele>
        <time>2020-10-22T06:59:33.000Z</time>
      </trkpt>
      <trkpt lat="47.25857" lon="-2.31591">
        <ele>12</ele>
        <time>2020-10-22T06:59:34.000Z</time>
      </trkpt>
      <trkpt lat="47.25851" lon="-2.31596">
        <ele>12</ele>
        <time>2020-10-22T06:59:36.000Z</time>
      </trkpt>
      <trkpt lat="47.25836" lon="-2.31609">
        <ele>12.39999961853</ele>
        <time>2020-10-22T06:59:42.000Z</time>
      </trkpt>
      <trkpt lat="47.25833" lon="-2.31611">
        <ele>12.800000190735</ele>
        <time>2020-10-22T06:59:43.000Z</time>
      </trkpt>
      <trkpt lat="47.2583" lon="-2.31613">
        <ele>13.199999809265</ele>
        <time>2020-10-22T06:59:44.000Z</time>
      </trkpt>
      <trkpt lat="47.25827" lon="-2.31615">
        <ele>13.800000190735</ele>
        <time>2020-10-22T06:59:45.000Z</time>
      </trkpt>
      <trkpt lat="47.25825" lon="-2.31617">
        <ele>14.199999809265</ele>
        <time>2020-10-22T06:59:46.000Z</time>
      </trkpt>
      <trkpt lat="47.25806" lon="-2.31634">
        <ele>14.199999809265</ele>
        <time>2020-10-22T06:59:52.000Z</time>
      </trkpt>
      <trkpt lat="47.25772" lon="-2.3166">
        <ele>14.199999809265</ele>
        <time>2020-10-22T07:00:01.000Z</time>
      </trkpt>
      <trkpt lat="47.25741" lon="-2.31686">
        <ele>14.199999809265</ele>
        <time>2020-10-22T07:00:08.000Z</time>
      </trkpt>
      <trkpt lat="47.25728" lon="-2.31694">
        <ele>14.199999809265</ele>
        <time>2020-10-22T07:00:11.000Z</time>
      </trkpt>
      <trkpt lat="47.25719" lon="-2.31694">
        <ele>14.199999809265</ele>
        <time>2020-10-22T07:00:13.000Z</time>
      </trkpt>
      <trkpt lat="47.25705" lon="-2.31688">
        <ele>14.199999809265</ele>
        <time>2020-10-22T07:00:17.000Z</time>
      </trkpt>
      <trkpt lat="47.25701" lon="-2.31686">
        <ele>14.199999809265</ele>
        <time>2020-10-22T07:00:18.000Z</time>
      </trkpt>
      <trkpt lat="47.2568" lon="-2.31675">
        <ele>14.199999809265</ele>
        <time>2020-10-22T07:00:24.000Z</time>
      </trkpt>
      <trkpt lat="47.25664" lon="-2.3168">
        <ele>14.199999809265</ele>
        <time>2020-10-22T07:00:29.000Z</time>
      </trkpt>
      <trkpt lat="47.25644" lon="-2.31698">
        <ele>14.199999809265</ele>
        <time>2020-10-22T07:00:36.000Z</time>
      </trkpt>
      <trkpt lat="47.25641" lon="-2.31702">
        <ele>14.60000038147</ele>
        <time>2020-10-22T07:00:37.000Z</time>
      </trkpt>
      <trkpt lat="47.25638" lon="-2.31705">
        <ele>15</ele>
        <time>2020-10-22T07:00:38.000Z</time>
      </trkpt>
      <trkpt lat="47.25635" lon="-2.31708">
        <ele>15.39999961853</ele>
        <time>2020-10-22T07:00:39.000Z</time>
      </trkpt>
      <trkpt lat="47.25633" lon="-2.3171">
        <ele>15.800000190735</ele>
        <time>2020-10-22T07:00:40.000Z</time>
      </trkpt>
      <trkpt lat="47.25631" lon="-2.31713">
        <ele>16.200000762939</ele>
        <time>2020-10-22T07:00:41.000Z</time>
      </trkpt>
      <trkpt lat="47.25627" lon="-2.31716">
        <ele>16.200000762939</ele>
        <time>2020-10-22T07:00:43.000Z</time>
      </trkpt>
      <trkpt lat="47.25625" lon="-2.31725">
        <ele>16.200000762939</ele>
        <time>2020-10-22T07:00:47.000Z</time>
      </trkpt>
      <trkpt lat="47.25625" lon="-2.31728">
        <ele>16.200000762939</ele>
        <time>2020-10-22T07:00:48.000Z</time>
      </trkpt>
      <trkpt lat="47.25621" lon="-2.31748">
        <ele>16.200000762939</ele>
        <time>2020-10-22T07:00:52.000Z</time>
      </trkpt>
      <trkpt lat="47.25618" lon="-2.31752">
        <ele>17</ele>
        <time>2020-10-22T07:00:53.000Z</time>
      </trkpt>
      <trkpt lat="47.25615" lon="-2.31756">
        <ele>17.39999961853</ele>
        <time>2020-10-22T07:00:54.000Z</time>
      </trkpt>
      <trkpt lat="47.25611" lon="-2.3176">
        <ele>17.799999237061</ele>
        <time>2020-10-22T07:00:55.000Z</time>
      </trkpt>
      <trkpt lat="47.25607" lon="-2.31763">
        <ele>18.200000762939</ele>
        <time>2020-10-22T07:00:56.000Z</time>
      </trkpt>
      <trkpt lat="47.25603" lon="-2.31765">
        <ele>18.200000762939</ele>
        <time>2020-10-22T07:00:57.000Z</time>
      </trkpt>
      <trkpt lat="47.2559" lon="-2.31764">
        <ele>18.200000762939</ele>
        <time>2020-10-22T07:01:00.000Z</time>
      </trkpt>
      <trkpt lat="47.25581" lon="-2.31766">
        <ele>18.200000762939</ele>
        <time>2020-10-22T07:01:02.000Z</time>
      </trkpt>
      <trkpt lat="47.2557" lon="-2.31772">
        <ele>18.200000762939</ele>
        <time>2020-10-22T07:01:05.000Z</time>
      </trkpt>
      <trkpt lat="47.25567" lon="-2.31776">
        <ele>18.200000762939</ele>
        <time>2020-10-22T07:01:06.000Z</time>
      </trkpt>
      <trkpt lat="47.25562" lon="-2.31784">
        <ele>18.200000762939</ele>
        <time>2020-10-22T07:01:08.000Z</time>
      </trkpt>
      <trkpt lat="47.25551" lon="-2.31801">
        <ele>18.60000038147</ele>
        <time>2020-10-22T07:01:12.000Z</time>
      </trkpt>
      <trkpt lat="47.25547" lon="-2.31803">
        <ele>19</ele>
        <time>2020-10-22T07:01:13.000Z</time>
      </trkpt>
      <trkpt lat="47.25544" lon="-2.31805">
        <ele>19.39999961853</ele>
        <time>2020-10-22T07:01:14.000Z</time>
      </trkpt>
      <trkpt lat="47.25541" lon="-2.31806">
        <ele>20</ele>
        <time>2020-10-22T07:01:15.000Z</time>
      </trkpt>
      <trkpt lat="47.25538" lon="-2.31807">
        <ele>20.39999961853</ele>
        <time>2020-10-22T07:01:16.000Z</time>
      </trkpt>
      <trkpt lat="47.25523" lon="-2.31811">
        <ele>20.39999961853</ele>
        <time>2020-10-22T07:01:22.000Z</time>
      </trkpt>
      <trkpt lat="47.25521" lon="-2.31812">
        <ele>20.39999961853</ele>
        <time>2020-10-22T07:01:23.000Z</time>
      </trkpt>
      <trkpt lat="47.2552" lon="-2.31813">
        <ele>20.799999237061</ele>
        <time>2020-10-22T07:01:24.000Z</time>
      </trkpt>
      <trkpt lat="47.25519" lon="-2.31815">
        <ele>21.200000762939</ele>
        <time>2020-10-22T07:01:25.000Z</time>
      </trkpt>
      <trkpt lat="47.25519" lon="-2.31816">
        <ele>21.60000038147</ele>
        <time>2020-10-22T07:01:26.000Z</time>
      </trkpt>
      <trkpt lat="47.25519" lon="-2.31818">
        <ele>22</ele>
        <time>2020-10-22T07:01:27.000Z</time>
      </trkpt>
      <trkpt lat="47.25519" lon="-2.31817">
        <ele>22.39999961853</ele>
        <time>2020-10-22T07:01:28.000Z</time>
      </trkpt>
      <trkpt lat="47.25521" lon="-2.31814">
        <ele>22.39999961853</ele>
        <time>2020-10-22T07:01:35.000Z</time>
      </trkpt>
      <trkpt lat="47.25522" lon="-2.31815">
        <ele>22.39999961853</ele>
        <time>2020-10-22T07:01:36.000Z</time>
      </trkpt>
      <trkpt lat="47.25526" lon="-2.31816">
        <ele>22.39999961853</ele>
        <time>2020-10-22T07:01:40.000Z</time>
      </trkpt>
      <trkpt lat="47.25526" lon="-2.31817">
        <ele>22.39999961853</ele>
        <time>2020-10-22T07:01:42.000Z</time>
      </trkpt>
      <trkpt lat="47.25526" lon="-2.31817">
        <ele>22.39999961853</ele>
        <time>2020-10-22T07:01:43.000Z</time>
      </trkpt>
      <trkpt lat="47.25523" lon="-2.31825">
        <ele>28.60000038147</ele>
        <time>2020-10-22T07:15:11.000Z</time>
      </trkpt>
      <trkpt lat="47.25521" lon="-2.31826">
        <ele>28.60000038147</ele>
        <time>2020-10-22T07:15:13.000Z</time>
      </trkpt>
      <trkpt lat="47.25511" lon="-2.31825">
        <ele>28.60000038147</ele>
        <time>2020-10-22T07:15:19.000Z</time>
      </trkpt>
      <trkpt lat="47.255" lon="-2.31822">
        <ele>28.60000038147</ele>
        <time>2020-10-22T07:15:23.000Z</time>
      </trkpt>
      <trkpt lat="47.25497" lon="-2.31823">
        <ele>29</ele>
        <time>2020-10-22T07:15:24.000Z</time>
      </trkpt>
      <trkpt lat="47.25494" lon="-2.31825">
        <ele>29.39999961853</ele>
        <time>2020-10-22T07:15:25.000Z</time>
      </trkpt>
      <trkpt lat="47.2549" lon="-2.31826">
        <ele>29.799999237061</ele>
        <time>2020-10-22T07:15:26.000Z</time>
      </trkpt>
      <trkpt lat="47.25486" lon="-2.31828">
        <ele>30.200000762939</ele>
        <time>2020-10-22T07:15:27.000Z</time>
      </trkpt>
      <trkpt lat="47.25483" lon="-2.3183">
        <ele>30.60000038147</ele>
        <time>2020-10-22T07:15:28.000Z</time>
      </trkpt>
      <trkpt lat="47.25479" lon="-2.31832">
        <ele>30.60000038147</ele>
        <time>2020-10-22T07:15:29.000Z</time>
      </trkpt>
      <trkpt lat="47.25475" lon="-2.31835">
        <ele>30.60000038147</ele>
        <time>2020-10-22T07:15:30.000Z</time>
      </trkpt>
      <trkpt lat="47.25461" lon="-2.31844">
        <ele>30.60000038147</ele>
        <time>2020-10-22T07:15:34.000Z</time>
      </trkpt>
      <trkpt lat="47.25453" lon="-2.31831">
        <ele>30.60000038147</ele>
        <time>2020-10-22T07:15:37.000Z</time>
      </trkpt>
      <trkpt lat="47.25452" lon="-2.31825">
        <ele>30.60000038147</ele>
        <time>2020-10-22T07:15:38.000Z</time>
      </trkpt>
      <trkpt lat="47.25445" lon="-2.31791">
        <ele>30.60000038147</ele>
        <time>2020-10-22T07:15:44.000Z</time>
      </trkpt>
      <trkpt lat="47.25436" lon="-2.31759">
        <ele>30.60000038147</ele>
        <time>2020-10-22T07:15:50.000Z</time>
      </trkpt>
      <trkpt lat="47.25426" lon="-2.31724">
        <ele>30.60000038147</ele>
        <time>2020-10-22T07:15:57.000Z</time>
      </trkpt>
      <trkpt lat="47.25406" lon="-2.31675">
        <ele>30.60000038147</ele>
        <time>2020-10-22T07:16:07.000Z</time>
      </trkpt>
      <trkpt lat="47.2539" lon="-2.3164">
        <ele>30.60000038147</ele>
        <time>2020-10-22T07:16:15.000Z</time>
      </trkpt>
      <trkpt lat="47.25371" lon="-2.31608">
        <ele>30.60000038147</ele>
        <time>2020-10-22T07:16:23.000Z</time>
      </trkpt>
      <trkpt lat="47.25364" lon="-2.31597">
        <ele>31</ele>
        <time>2020-10-22T07:16:26.000Z</time>
      </trkpt>
      <trkpt lat="47.25361" lon="-2.31593">
        <ele>31.39999961853</ele>
        <time>2020-10-22T07:16:27.000Z</time>
      </trkpt>
      <trkpt lat="47.25359" lon="-2.31589">
        <ele>31.799999237061</ele>
        <time>2020-10-22T07:16:28.000Z</time>
      </trkpt>
      <trkpt lat="47.25356" lon="-2.31586">
        <ele>32.200000762939</ele>
        <time>2020-10-22T07:16:29.000Z</time>
      </trkpt>
      <trkpt lat="47.25354" lon="-2.31582">
        <ele>32.599998474121</ele>
        <time>2020-10-22T07:16:30.000Z</time>
      </trkpt>
      <trkpt lat="47.25349" lon="-2.31573">
        <ele>32.599998474121</ele>
        <time>2020-10-22T07:16:32.000Z</time>
      </trkpt>
      <trkpt lat="47.25336" lon="-2.31542">
        <ele>32.599998474121</ele>
        <time>2020-10-22T07:16:39.000Z</time>
      </trkpt>
      <trkpt lat="47.25326" lon="-2.31503">
        <ele>32.599998474121</ele>
        <time>2020-10-22T07:16:47.000Z</time>
      </trkpt>
      <trkpt lat="47.25326" lon="-2.31497">
        <ele>33</ele>
        <time>2020-10-22T07:16:48.000Z</time>
      </trkpt>
      <trkpt lat="47.25325" lon="-2.31492">
        <ele>33.400001525879</ele>
        <time>2020-10-22T07:16:49.000Z</time>
      </trkpt>
      <trkpt lat="47.25325" lon="-2.31487">
        <ele>33.799999237061</ele>
        <time>2020-10-22T07:16:50.000Z</time>
      </trkpt>
      <trkpt lat="47.25324" lon="-2.31482">
        <ele>34.200000762939</ele>
        <time>2020-10-22T07:16:51.000Z</time>
      </trkpt>
      <trkpt lat="47.25324" lon="-2.31476">
        <ele>34.599998474121</ele>
        <time>2020-10-22T07:16:52.000Z</time>
      </trkpt>
      <trkpt lat="47.25322" lon="-2.31458">
        <ele>34.599998474121</ele>
        <time>2020-10-22T07:16:56.000Z</time>
      </trkpt>
      <trkpt lat="47.25314" lon="-2.31436">
        <ele>34.599998474121</ele>
        <time>2020-10-22T07:17:01.000Z</time>
      </trkpt>
      <trkpt lat="47.253" lon="-2.3143">
        <ele>34.599998474121</ele>
        <time>2020-10-22T07:17:05.000Z</time>
      </trkpt>
      <trkpt lat="47.25276" lon="-2.31438">
        <ele>34.599998474121</ele>
        <time>2020-10-22T07:17:11.000Z</time>
      </trkpt>
      <trkpt lat="47.25245" lon="-2.31452">
        <ele>34.599998474121</ele>
        <time>2020-10-22T07:17:19.000Z</time>
      </trkpt>
      <trkpt lat="47.2522" lon="-2.31471">
        <ele>34.599998474121</ele>
        <time>2020-10-22T07:17:26.000Z</time>
      </trkpt>
      <trkpt lat="47.25201" lon="-2.3149">
        <ele>34.599998474121</ele>
        <time>2020-10-22T07:17:32.000Z</time>
      </trkpt>
      <trkpt lat="47.25195" lon="-2.31496">
        <ele>35.200000762939</ele>
        <time>2020-10-22T07:17:34.000Z</time>
      </trkpt>
      <trkpt lat="47.25192" lon="-2.31499">
        <ele>35.599998474121</ele>
        <time>2020-10-22T07:17:35.000Z</time>
      </trkpt>
      <trkpt lat="47.25189" lon="-2.31502">
        <ele>36</ele>
        <time>2020-10-22T07:17:36.000Z</time>
      </trkpt>
      <trkpt lat="47.25186" lon="-2.31506">
        <ele>36.400001525879</ele>
        <time>2020-10-22T07:17:37.000Z</time>
      </trkpt>
      <trkpt lat="47.25184" lon="-2.31509">
        <ele>36.799999237061</ele>
        <time>2020-10-22T07:17:38.000Z</time>
      </trkpt>
      <trkpt lat="47.25179" lon="-2.31516">
        <ele>36.799999237061</ele>
        <time>2020-10-22T07:17:40.000Z</time>
      </trkpt>
      <trkpt lat="47.25157" lon="-2.31545">
        <ele>36.799999237061</ele>
        <time>2020-10-22T07:17:48.000Z</time>
      </trkpt>
      <trkpt lat="47.25136" lon="-2.31566">
        <ele>36.799999237061</ele>
        <time>2020-10-22T07:17:55.000Z</time>
      </trkpt>
      <trkpt lat="47.25103" lon="-2.31589">
        <ele>36.799999237061</ele>
        <time>2020-10-22T07:18:05.000Z</time>
      </trkpt>
      <trkpt lat="47.25086" lon="-2.31607">
        <ele>36.799999237061</ele>
        <time>2020-10-22T07:18:11.000Z</time>
      </trkpt>
      <trkpt lat="47.25064" lon="-2.31629">
        <ele>36.799999237061</ele>
        <time>2020-10-22T07:18:17.000Z</time>
      </trkpt>
      <trkpt lat="47.25033" lon="-2.31657">
        <ele>36.799999237061</ele>
        <time>2020-10-22T07:18:25.000Z</time>
      </trkpt>
      <trkpt lat="47.25004" lon="-2.31686">
        <ele>36.799999237061</ele>
        <time>2020-10-22T07:18:33.000Z</time>
      </trkpt>
      <trkpt lat="47.24976" lon="-2.31714">
        <ele>36.799999237061</ele>
        <time>2020-10-22T07:18:41.000Z</time>
      </trkpt>
      <trkpt lat="47.24942" lon="-2.31747">
        <ele>36.799999237061</ele>
        <time>2020-10-22T07:18:50.000Z</time>
      </trkpt>
      <trkpt lat="47.24901" lon="-2.31785">
        <ele>36.799999237061</ele>
        <time>2020-10-22T07:19:00.000Z</time>
      </trkpt>
      <trkpt lat="47.24865" lon="-2.31817">
        <ele>36.799999237061</ele>
        <time>2020-10-22T07:19:08.000Z</time>
      </trkpt>
      <trkpt lat="47.24832" lon="-2.31846">
        <ele>36.799999237061</ele>
        <time>2020-10-22T07:19:15.000Z</time>
      </trkpt>
      <trkpt lat="47.24804" lon="-2.31865">
        <ele>36.799999237061</ele>
        <time>2020-10-22T07:19:21.000Z</time>
      </trkpt>
      <trkpt lat="47.24799" lon="-2.31866">
        <ele>36.799999237061</ele>
        <time>2020-10-22T07:19:22.000Z</time>
      </trkpt>
      <trkpt lat="47.24788" lon="-2.31855">
        <ele>36.799999237061</ele>
        <time>2020-10-22T07:19:25.000Z</time>
      </trkpt>
      <trkpt lat="47.24785" lon="-2.3185">
        <ele>36.799999237061</ele>
        <time>2020-10-22T07:19:26.000Z</time>
      </trkpt>
      <trkpt lat="47.24761" lon="-2.31814">
        <ele>36.799999237061</ele>
        <time>2020-10-22T07:19:33.000Z</time>
      </trkpt>
      <trkpt lat="47.24738" lon="-2.31779">
        <ele>36.799999237061</ele>
        <time>2020-10-22T07:19:40.000Z</time>
      </trkpt>
      <trkpt lat="47.24709" lon="-2.31735">
        <ele>36.799999237061</ele>
        <time>2020-10-22T07:19:49.000Z</time>
      </trkpt>
      <trkpt lat="47.24694" lon="-2.31712">
        <ele>36.799999237061</ele>
        <time>2020-10-22T07:19:54.000Z</time>
      </trkpt>
      <trkpt lat="47.24688" lon="-2.31703">
        <ele>36.799999237061</ele>
        <time>2020-10-22T07:19:56.000Z</time>
      </trkpt>
      <trkpt lat="47.2466" lon="-2.31664">
        <ele>36.799999237061</ele>
        <time>2020-10-22T07:20:05.000Z</time>
      </trkpt>
      <trkpt lat="47.24657" lon="-2.31659">
        <ele>36.799999237061</ele>
        <time>2020-10-22T07:20:06.000Z</time>
      </trkpt>
      <trkpt lat="47.24655" lon="-2.31654">
        <ele>36.799999237061</ele>
        <time>2020-10-22T07:20:07.000Z</time>
      </trkpt>
      <trkpt lat="47.2464" lon="-2.31629">
        <ele>36.799999237061</ele>
        <time>2020-10-22T07:20:12.000Z</time>
      </trkpt>
      <trkpt lat="47.24604" lon="-2.31575">
        <ele>36.799999237061</ele>
        <time>2020-10-22T07:20:23.000Z</time>
      </trkpt>
      <trkpt lat="47.24598" lon="-2.31563">
        <ele>36.799999237061</ele>
        <time>2020-10-22T07:20:25.000Z</time>
      </trkpt>
      <trkpt lat="47.24595" lon="-2.31549">
        <ele>36.799999237061</ele>
        <time>2020-10-22T07:20:27.000Z</time>
      </trkpt>
      <trkpt lat="47.24588" lon="-2.31498">
        <ele>36.799999237061</ele>
        <time>2020-10-22T07:20:34.000Z</time>
      </trkpt>
      <trkpt lat="47.24583" lon="-2.3145">
        <ele>36.799999237061</ele>
        <time>2020-10-22T07:20:41.000Z</time>
      </trkpt>
      <trkpt lat="47.24577" lon="-2.31392">
        <ele>36.799999237061</ele>
        <time>2020-10-22T07:20:50.000Z</time>
      </trkpt>
      <trkpt lat="47.24575" lon="-2.3139">
        <ele>36.799999237061</ele>
        <time>2020-10-22T07:20:51.000Z</time>
      </trkpt>
      <trkpt lat="47.24571" lon="-2.31389">
        <ele>36.799999237061</ele>
        <time>2020-10-22T07:20:53.000Z</time>
      </trkpt>
      <trkpt lat="47.24564" lon="-2.3139">
        <ele>36.799999237061</ele>
        <time>2020-10-22T07:20:55.000Z</time>
      </trkpt>
      <trkpt lat="47.24549" lon="-2.31391">
        <ele>36.799999237061</ele>
        <time>2020-10-22T07:20:59.000Z</time>
      </trkpt>
      <trkpt lat="47.24532" lon="-2.31385">
        <ele>36.799999237061</ele>
        <time>2020-10-22T07:21:04.000Z</time>
      </trkpt>
      <trkpt lat="47.24528" lon="-2.31383">
        <ele>36.400001525879</ele>
        <time>2020-10-22T07:21:05.000Z</time>
      </trkpt>
      <trkpt lat="47.24524" lon="-2.3138">
        <ele>36</ele>
        <time>2020-10-22T07:21:06.000Z</time>
      </trkpt>
      <trkpt lat="47.24521" lon="-2.31378">
        <ele>35.599998474121</ele>
        <time>2020-10-22T07:21:07.000Z</time>
      </trkpt>
      <trkpt lat="47.24517" lon="-2.31376">
        <ele>35.200000762939</ele>
        <time>2020-10-22T07:21:08.000Z</time>
      </trkpt>
      <trkpt lat="47.24513" lon="-2.31373">
        <ele>34.799999237061</ele>
        <time>2020-10-22T07:21:09.000Z</time>
      </trkpt>
      <trkpt lat="47.24506" lon="-2.31364">
        <ele>34.799999237061</ele>
        <time>2020-10-22T07:21:11.000Z</time>
      </trkpt>
      <trkpt lat="47.24504" lon="-2.31359">
        <ele>34.200000762939</ele>
        <time>2020-10-22T07:21:12.000Z</time>
      </trkpt>
      <trkpt lat="47.24501" lon="-2.31354">
        <ele>33.799999237061</ele>
        <time>2020-10-22T07:21:13.000Z</time>
      </trkpt>
      <trkpt lat="47.24499" lon="-2.31348">
        <ele>33.400001525879</ele>
        <time>2020-10-22T07:21:14.000Z</time>
      </trkpt>
      <trkpt lat="47.24496" lon="-2.31342">
        <ele>33</ele>
        <time>2020-10-22T07:21:15.000Z</time>
      </trkpt>
      <trkpt lat="47.24494" lon="-2.31337">
        <ele>32.400001525879</ele>
        <time>2020-10-22T07:21:16.000Z</time>
      </trkpt>
      <trkpt lat="47.24485" lon="-2.31316">
        <ele>32.400001525879</ele>
        <time>2020-10-22T07:21:20.000Z</time>
      </trkpt>
      <trkpt lat="47.24483" lon="-2.31309">
        <ele>32</ele>
        <time>2020-10-22T07:21:21.000Z</time>
      </trkpt>
      <trkpt lat="47.2448" lon="-2.31301">
        <ele>31.60000038147</ele>
        <time>2020-10-22T07:21:22.000Z</time>
      </trkpt>
      <trkpt lat="47.24477" lon="-2.31293">
        <ele>31.200000762939</ele>
        <time>2020-10-22T07:21:23.000Z</time>
      </trkpt>
      <trkpt lat="47.24474" lon="-2.31286">
        <ele>30.799999237061</ele>
        <time>2020-10-22T07:21:24.000Z</time>
      </trkpt>
      <trkpt lat="47.24471" lon="-2.31278">
        <ele>30.39999961853</ele>
        <time>2020-10-22T07:21:25.000Z</time>
      </trkpt>
      <trkpt lat="47.24462" lon="-2.31259">
        <ele>30.39999961853</ele>
        <time>2020-10-22T07:21:29.000Z</time>
      </trkpt>
      <trkpt lat="47.24454" lon="-2.31236">
        <ele>30.39999961853</ele>
        <time>2020-10-22T07:21:35.000Z</time>
      </trkpt>
      <trkpt lat="47.24453" lon="-2.31234">
        <ele>29.799999237061</ele>
        <time>2020-10-22T07:21:36.000Z</time>
      </trkpt>
      <trkpt lat="47.24452" lon="-2.3123">
        <ele>29.39999961853</ele>
        <time>2020-10-22T07:21:37.000Z</time>
      </trkpt>
      <trkpt lat="47.2445" lon="-2.31227">
        <ele>29</ele>
        <time>2020-10-22T07:21:38.000Z</time>
      </trkpt>
      <trkpt lat="47.24448" lon="-2.31225">
        <ele>28.60000038147</ele>
        <time>2020-10-22T07:21:39.000Z</time>
      </trkpt>
      <trkpt lat="47.24445" lon="-2.31224">
        <ele>28.200000762939</ele>
        <time>2020-10-22T07:21:40.000Z</time>
      </trkpt>
      <trkpt lat="47.24432" lon="-2.31225">
        <ele>27.799999237061</ele>
        <time>2020-10-22T07:21:44.000Z</time>
      </trkpt>
      <trkpt lat="47.24429" lon="-2.31225">
        <ele>27.200000762939</ele>
        <time>2020-10-22T07:21:45.000Z</time>
      </trkpt>
      <trkpt lat="47.24426" lon="-2.31223">
        <ele>26.799999237061</ele>
        <time>2020-10-22T07:21:46.000Z</time>
      </trkpt>
      <trkpt lat="47.24425" lon="-2.31222">
        <ele>26.39999961853</ele>
        <time>2020-10-22T07:21:47.000Z</time>
      </trkpt>
      <trkpt lat="47.24423" lon="-2.31219">
        <ele>25.799999237061</ele>
        <time>2020-10-22T07:21:48.000Z</time>
      </trkpt>
      <trkpt lat="47.2442" lon="-2.31214">
        <ele>25.799999237061</ele>
        <time>2020-10-22T07:21:52.000Z</time>
      </trkpt>
      <trkpt lat="47.2442" lon="-2.31213">
        <ele>25.799999237061</ele>
        <time>2020-10-22T07:21:53.000Z</time>
      </trkpt>
      <trkpt lat="47.24419" lon="-2.31209">
        <ele>25.799999237061</ele>
        <time>2020-10-22T07:22:20.000Z</time>
      </trkpt>
      <trkpt lat="47.24416" lon="-2.31204">
        <ele>25.799999237061</ele>
        <time>2020-10-22T07:22:22.000Z</time>
      </trkpt>
      <trkpt lat="47.24414" lon="-2.31196">
        <ele>25.799999237061</ele>
        <time>2020-10-22T07:22:25.000Z</time>
      </trkpt>
      <trkpt lat="47.24412" lon="-2.31189">
        <ele>25.799999237061</ele>
        <time>2020-10-22T07:22:27.000Z</time>
      </trkpt>
      <trkpt lat="47.24408" lon="-2.31185">
        <ele>26.200000762939</ele>
        <time>2020-10-22T07:22:29.000Z</time>
      </trkpt>
      <trkpt lat="47.24405" lon="-2.31182">
        <ele>26.60000038147</ele>
        <time>2020-10-22T07:22:30.000Z</time>
      </trkpt>
      <trkpt lat="47.24402" lon="-2.31179">
        <ele>27.200000762939</ele>
        <time>2020-10-22T07:22:31.000Z</time>
      </trkpt>
      <trkpt lat="47.24399" lon="-2.31175">
        <ele>27.60000038147</ele>
        <time>2020-10-22T07:22:32.000Z</time>
      </trkpt>
      <trkpt lat="47.24395" lon="-2.31172">
        <ele>28</ele>
        <time>2020-10-22T07:22:33.000Z</time>
      </trkpt>
      <trkpt lat="47.2438" lon="-2.31155">
        <ele>28</ele>
        <time>2020-10-22T07:22:38.000Z</time>
      </trkpt>
      <trkpt lat="47.24364" lon="-2.31129">
        <ele>28</ele>
        <time>2020-10-22T07:22:44.000Z</time>
      </trkpt>
      <trkpt lat="47.24356" lon="-2.31114">
        <ele>28</ele>
        <time>2020-10-22T07:22:49.000Z</time>
      </trkpt>
      <trkpt lat="47.2435" lon="-2.31095">
        <ele>28</ele>
        <time>2020-10-22T07:22:54.000Z</time>
      </trkpt>
      <trkpt lat="47.24342" lon="-2.31064">
        <ele>28</ele>
        <time>2020-10-22T07:23:00.000Z</time>
      </trkpt>
      <trkpt lat="47.24323" lon="-2.31037">
        <ele>28</ele>
        <time>2020-10-22T07:23:07.000Z</time>
      </trkpt>
      <trkpt lat="47.24303" lon="-2.31032">
        <ele>28</ele>
        <time>2020-10-22T07:23:11.000Z</time>
      </trkpt>
      <trkpt lat="47.24297" lon="-2.31032">
        <ele>28</ele>
        <time>2020-10-22T07:23:12.000Z</time>
      </trkpt>
      <trkpt lat="47.24282" lon="-2.31031">
        <ele>28</ele>
        <time>2020-10-22T07:23:15.000Z</time>
      </trkpt>
      <trkpt lat="47.24277" lon="-2.31018">
        <ele>28</ele>
        <time>2020-10-22T07:23:18.000Z</time>
      </trkpt>
      <trkpt lat="47.24278" lon="-2.31007">
        <ele>28</ele>
        <time>2020-10-22T07:23:20.000Z</time>
      </trkpt>
      <trkpt lat="47.2428" lon="-2.30995">
        <ele>28</ele>
        <time>2020-10-22T07:23:22.000Z</time>
      </trkpt>
      <trkpt lat="47.24281" lon="-2.30989">
        <ele>28</ele>
        <time>2020-10-22T07:23:23.000Z</time>
      </trkpt>
      <trkpt lat="47.24285" lon="-2.30966">
        <ele>28</ele>
        <time>2020-10-22T07:23:27.000Z</time>
      </trkpt>
      <trkpt lat="47.24286" lon="-2.30954">
        <ele>28</ele>
        <time>2020-10-22T07:23:29.000Z</time>
      </trkpt>
      <trkpt lat="47.24287" lon="-2.30949">
        <ele>28.39999961853</ele>
        <time>2020-10-22T07:23:30.000Z</time>
      </trkpt>
      <trkpt lat="47.24287" lon="-2.30944">
        <ele>28.799999237061</ele>
        <time>2020-10-22T07:23:31.000Z</time>
      </trkpt>
      <trkpt lat="47.24287" lon="-2.30939">
        <ele>29.39999961853</ele>
        <time>2020-10-22T07:23:32.000Z</time>
      </trkpt>
      <trkpt lat="47.24288" lon="-2.30934">
        <ele>29.799999237061</ele>
        <time>2020-10-22T07:23:33.000Z</time>
      </trkpt>
      <trkpt lat="47.24288" lon="-2.30929">
        <ele>30.200000762939</ele>
        <time>2020-10-22T07:23:34.000Z</time>
      </trkpt>
      <trkpt lat="47.24286" lon="-2.30912">
        <ele>30.60000038147</ele>
        <time>2020-10-22T07:23:38.000Z</time>
      </trkpt>
      <trkpt lat="47.24285" lon="-2.30907">
        <ele>31</ele>
        <time>2020-10-22T07:23:39.000Z</time>
      </trkpt>
      <trkpt lat="47.24285" lon="-2.30903">
        <ele>31.60000038147</ele>
        <time>2020-10-22T07:23:40.000Z</time>
      </trkpt>
      <trkpt lat="47.24284" lon="-2.30897">
        <ele>32</ele>
        <time>2020-10-22T07:23:41.000Z</time>
      </trkpt>
      <trkpt lat="47.24283" lon="-2.30891">
        <ele>32.400001525879</ele>
        <time>2020-10-22T07:23:42.000Z</time>
      </trkpt>
      <trkpt lat="47.24281" lon="-2.3088">
        <ele>32.400001525879</ele>
        <time>2020-10-22T07:23:44.000Z</time>
      </trkpt>
      <trkpt lat="47.24283" lon="-2.3086">
        <ele>32.400001525879</ele>
        <time>2020-10-22T07:23:48.000Z</time>
      </trkpt>
      <trkpt lat="47.24288" lon="-2.30839">
        <ele>32.799999237061</ele>
        <time>2020-10-22T07:23:52.000Z</time>
      </trkpt>
      <trkpt lat="47.24289" lon="-2.30834">
        <ele>33.200000762939</ele>
        <time>2020-10-22T07:23:53.000Z</time>
      </trkpt>
      <trkpt lat="47.24291" lon="-2.30829">
        <ele>33.599998474121</ele>
        <time>2020-10-22T07:23:54.000Z</time>
      </trkpt>
      <trkpt lat="47.24292" lon="-2.30825">
        <ele>34.400001525879</ele>
        <time>2020-10-22T07:23:55.000Z</time>
      </trkpt>
      <trkpt lat="47.24305" lon="-2.30813">
        <ele>34.400001525879</ele>
        <time>2020-10-22T07:23:59.000Z</time>
      </trkpt>
      <trkpt lat="47.24331" lon="-2.30799">
        <ele>34.400001525879</ele>
        <time>2020-10-22T07:24:06.000Z</time>
      </trkpt>
      <trkpt lat="47.24353" lon="-2.30791">
        <ele>34.799999237061</ele>
        <time>2020-10-22T07:24:11.000Z</time>
      </trkpt>
      <trkpt lat="47.24357" lon="-2.30789">
        <ele>35.200000762939</ele>
        <time>2020-10-22T07:24:12.000Z</time>
      </trkpt>
      <trkpt lat="47.2436" lon="-2.30787">
        <ele>35.599998474121</ele>
        <time>2020-10-22T07:24:13.000Z</time>
      </trkpt>
      <trkpt lat="47.24364" lon="-2.30785">
        <ele>36</ele>
        <time>2020-10-22T07:24:14.000Z</time>
      </trkpt>
      <trkpt lat="47.24367" lon="-2.30782">
        <ele>36.400001525879</ele>
        <time>2020-10-22T07:24:15.000Z</time>
      </trkpt>
      <trkpt lat="47.24375" lon="-2.30772">
        <ele>36.400001525879</ele>
        <time>2020-10-22T07:24:18.000Z</time>
      </trkpt>
      <trkpt lat="47.24379" lon="-2.30765">
        <ele>37</ele>
        <time>2020-10-22T07:24:20.000Z</time>
      </trkpt>
      <trkpt lat="47.24381" lon="-2.30762">
        <ele>37.400001525879</ele>
        <time>2020-10-22T07:24:21.000Z</time>
      </trkpt>
      <trkpt lat="47.24383" lon="-2.30759">
        <ele>37.799999237061</ele>
        <time>2020-10-22T07:24:22.000Z</time>
      </trkpt>
      <trkpt lat="47.24385" lon="-2.30757">
        <ele>38.200000762939</ele>
        <time>2020-10-22T07:24:23.000Z</time>
      </trkpt>
      <trkpt lat="47.24387" lon="-2.30755">
        <ele>38.599998474121</ele>
        <time>2020-10-22T07:24:24.000Z</time>
      </trkpt>
      <trkpt lat="47.24397" lon="-2.30738">
        <ele>38.599998474121</ele>
        <time>2020-10-22T07:24:30.000Z</time>
      </trkpt>
      <trkpt lat="47.24397" lon="-2.30729">
        <ele>39</ele>
        <time>2020-10-22T07:24:32.000Z</time>
      </trkpt>
      <trkpt lat="47.24397" lon="-2.30725">
        <ele>39.400001525879</ele>
        <time>2020-10-22T07:24:33.000Z</time>
      </trkpt>
      <trkpt lat="47.24397" lon="-2.30721">
        <ele>39.799999237061</ele>
        <time>2020-10-22T07:24:34.000Z</time>
      </trkpt>
      <trkpt lat="47.24397" lon="-2.30716">
        <ele>40.200000762939</ele>
        <time>2020-10-22T07:24:35.000Z</time>
      </trkpt>
      <trkpt lat="47.24398" lon="-2.30711">
        <ele>40.799999237061</ele>
        <time>2020-10-22T07:24:36.000Z</time>
      </trkpt>
      <trkpt lat="47.24399" lon="-2.30698">
        <ele>40.799999237061</ele>
        <time>2020-10-22T07:24:38.000Z</time>
      </trkpt>
      <trkpt lat="47.24402" lon="-2.30686">
        <ele>40.799999237061</ele>
        <time>2020-10-22T07:24:40.000Z</time>
      </trkpt>
      <trkpt lat="47.24417" lon="-2.30643">
        <ele>40.799999237061</ele>
        <time>2020-10-22T07:24:47.000Z</time>
      </trkpt>
      <trkpt lat="47.24431" lon="-2.3062">
        <ele>40.799999237061</ele>
        <time>2020-10-22T07:24:52.000Z</time>
      </trkpt>
      <trkpt lat="47.24453" lon="-2.30592">
        <ele>40.799999237061</ele>
        <time>2020-10-22T07:24:58.000Z</time>
      </trkpt>
      <trkpt lat="47.24466" lon="-2.30563">
        <ele>40.200000762939</ele>
        <time>2020-10-22T07:25:02.000Z</time>
      </trkpt>
      <trkpt lat="47.24469" lon="-2.30557">
        <ele>39.799999237061</ele>
        <time>2020-10-22T07:25:03.000Z</time>
      </trkpt>
      <trkpt lat="47.2447" lon="-2.30553">
        <ele>39.400001525879</ele>
        <time>2020-10-22T07:25:04.000Z</time>
      </trkpt>
      <trkpt lat="47.24469" lon="-2.3055">
        <ele>39</ele>
        <time>2020-10-22T07:25:05.000Z</time>
      </trkpt>
      <trkpt lat="47.24467" lon="-2.30549">
        <ele>38.599998474121</ele>
        <time>2020-10-22T07:25:06.000Z</time>
      </trkpt>
      <trkpt lat="47.2446" lon="-2.30552">
        <ele>38.200000762939</ele>
        <time>2020-10-22T07:25:09.000Z</time>
      </trkpt>
      <trkpt lat="47.24456" lon="-2.30555">
        <ele>37.400001525879</ele>
        <time>2020-10-22T07:25:10.000Z</time>
      </trkpt>
      <trkpt lat="47.24453" lon="-2.30559">
        <ele>37</ele>
        <time>2020-10-22T07:25:11.000Z</time>
      </trkpt>
      <trkpt lat="47.24448" lon="-2.30563">
        <ele>36.400001525879</ele>
        <time>2020-10-22T07:25:12.000Z</time>
      </trkpt>
      <trkpt lat="47.24438" lon="-2.3057">
        <ele>36.400001525879</ele>
        <time>2020-10-22T07:25:14.000Z</time>
      </trkpt>
      <trkpt lat="47.24427" lon="-2.30575">
        <ele>36.400001525879</ele>
        <time>2020-10-22T07:25:16.000Z</time>
      </trkpt>
      <trkpt lat="47.24416" lon="-2.3058">
        <ele>36</ele>
        <time>2020-10-22T07:25:18.000Z</time>
      </trkpt>
      <trkpt lat="47.24411" lon="-2.30582">
        <ele>35.599998474121</ele>
        <time>2020-10-22T07:25:19.000Z</time>
      </trkpt>
      <trkpt lat="47.24407" lon="-2.30582">
        <ele>35</ele>
        <time>2020-10-22T07:25:20.000Z</time>
      </trkpt>
      <trkpt lat="47.24403" lon="-2.30581">
        <ele>34.599998474121</ele>
        <time>2020-10-22T07:25:21.000Z</time>
      </trkpt>
      <trkpt lat="47.24398" lon="-2.30579">
        <ele>34.200000762939</ele>
        <time>2020-10-22T07:25:22.000Z</time>
      </trkpt>
      <trkpt lat="47.24394" lon="-2.30577">
        <ele>34.200000762939</ele>
        <time>2020-10-22T07:25:23.000Z</time>
      </trkpt>
      <trkpt lat="47.24382" lon="-2.3057">
        <ele>34.200000762939</ele>
        <time>2020-10-22T07:25:26.000Z</time>
      </trkpt>
      <trkpt lat="47.24375" lon="-2.30559">
        <ele>34.200000762939</ele>
        <time>2020-10-22T07:25:28.000Z</time>
      </trkpt>
      <trkpt lat="47.24368" lon="-2.30537">
        <ele>34.200000762939</ele>
        <time>2020-10-22T07:25:32.000Z</time>
      </trkpt>
      <trkpt lat="47.24367" lon="-2.30532">
        <ele>34.200000762939</ele>
        <time>2020-10-22T07:25:33.000Z</time>
      </trkpt>
      <trkpt lat="47.24366" lon="-2.30513">
        <ele>34.200000762939</ele>
        <time>2020-10-22T07:25:37.000Z</time>
      </trkpt>
      <trkpt lat="47.2437" lon="-2.30493">
        <ele>34.599998474121</ele>
        <time>2020-10-22T07:25:42.000Z</time>
      </trkpt>
      <trkpt lat="47.24371" lon="-2.30488">
        <ele>35</ele>
        <time>2020-10-22T07:25:43.000Z</time>
      </trkpt>
      <trkpt lat="47.24372" lon="-2.30484">
        <ele>35.400001525879</ele>
        <time>2020-10-22T07:25:44.000Z</time>
      </trkpt>
      <trkpt lat="47.24373" lon="-2.30479">
        <ele>35.799999237061</ele>
        <time>2020-10-22T07:25:45.000Z</time>
      </trkpt>
      <trkpt lat="47.24374" lon="-2.30474">
        <ele>36.200000762939</ele>
        <time>2020-10-22T07:25:46.000Z</time>
      </trkpt>
      <trkpt lat="47.24374" lon="-2.30456">
        <ele>36.200000762939</ele>
        <time>2020-10-22T07:25:50.000Z</time>
      </trkpt>
      <trkpt lat="47.24374" lon="-2.30455">
        <ele>36.599998474121</ele>
        <time>2020-10-22T07:25:51.000Z</time>
      </trkpt>
      <trkpt lat="47.24373" lon="-2.30453">
        <ele>37</ele>
        <time>2020-10-22T07:25:52.000Z</time>
      </trkpt>
      <trkpt lat="47.24373" lon="-2.30453">
        <ele>37.400001525879</ele>
        <time>2020-10-22T07:25:53.000Z</time>
      </trkpt>
      <trkpt lat="47.24373" lon="-2.30452">
        <ele>37.799999237061</ele>
        <time>2020-10-22T07:25:54.000Z</time>
      </trkpt>
      <trkpt lat="47.24369" lon="-2.30451">
        <ele>38.200000762939</ele>
        <time>2020-10-22T07:26:04.000Z</time>
      </trkpt>
      <trkpt lat="47.24363" lon="-2.30451">
        <ele>38.200000762939</ele>
        <time>2020-10-22T07:26:06.000Z</time>
      </trkpt>
      <trkpt lat="47.24345" lon="-2.30447">
        <ele>38.200000762939</ele>
        <time>2020-10-22T07:26:12.000Z</time>
      </trkpt>
      <trkpt lat="47.24326" lon="-2.30438">
        <ele>38.200000762939</ele>
        <time>2020-10-22T07:26:18.000Z</time>
      </trkpt>
      <trkpt lat="47.24322" lon="-2.30435">
        <ele>38.599998474121</ele>
        <time>2020-10-22T07:26:19.000Z</time>
      </trkpt>
      <trkpt lat="47.24319" lon="-2.30432">
        <ele>39</ele>
        <time>2020-10-22T07:26:20.000Z</time>
      </trkpt>
      <trkpt lat="47.24316" lon="-2.3043">
        <ele>39.400001525879</ele>
        <time>2020-10-22T07:26:21.000Z</time>
      </trkpt>
      <trkpt lat="47.24313" lon="-2.30429">
        <ele>39.799999237061</ele>
        <time>2020-10-22T07:26:22.000Z</time>
      </trkpt>
      <trkpt lat="47.2431" lon="-2.30426">
        <ele>40.200000762939</ele>
        <time>2020-10-22T07:26:23.000Z</time>
      </trkpt>
      <trkpt lat="47.24289" lon="-2.30409">
        <ele>40.200000762939</ele>
        <time>2020-10-22T07:26:29.000Z</time>
      </trkpt>
      <trkpt lat="47.24269" lon="-2.30383">
        <ele>40.200000762939</ele>
        <time>2020-10-22T07:26:34.000Z</time>
      </trkpt>
      <trkpt lat="47.24245" lon="-2.30342">
        <ele>40.200000762939</ele>
        <time>2020-10-22T07:26:42.000Z</time>
      </trkpt>
      <trkpt lat="47.2424" lon="-2.30331">
        <ele>40.200000762939</ele>
        <time>2020-10-22T07:26:44.000Z</time>
      </trkpt>
      <trkpt lat="47.24231" lon="-2.30324">
        <ele>40.200000762939</ele>
        <time>2020-10-22T07:26:47.000Z</time>
      </trkpt>
      <trkpt lat="47.24219" lon="-2.3033">
        <ele>40.200000762939</ele>
        <time>2020-10-22T07:26:50.000Z</time>
      </trkpt>
      <trkpt lat="47.24204" lon="-2.30328">
        <ele>39.799999237061</ele>
        <time>2020-10-22T07:26:54.000Z</time>
      </trkpt>
      <trkpt lat="47.24201" lon="-2.30325">
        <ele>39.200000762939</ele>
        <time>2020-10-22T07:26:55.000Z</time>
      </trkpt>
      <trkpt lat="47.24199" lon="-2.3032">
        <ele>38.799999237061</ele>
        <time>2020-10-22T07:26:56.000Z</time>
      </trkpt>
      <trkpt lat="47.24198" lon="-2.30314">
        <ele>38.200000762939</ele>
        <time>2020-10-22T07:26:57.000Z</time>
      </trkpt>
      <trkpt lat="47.24197" lon="-2.30306">
        <ele>37.799999237061</ele>
        <time>2020-10-22T07:26:58.000Z</time>
      </trkpt>
      <trkpt lat="47.24196" lon="-2.30298">
        <ele>37.799999237061</ele>
        <time>2020-10-22T07:26:59.000Z</time>
      </trkpt>
      <trkpt lat="47.2419" lon="-2.30254">
        <ele>37.400001525879</ele>
        <time>2020-10-22T07:27:05.000Z</time>
      </trkpt>
      <trkpt lat="47.24189" lon="-2.30247">
        <ele>37</ele>
        <time>2020-10-22T07:27:06.000Z</time>
      </trkpt>
      <trkpt lat="47.24187" lon="-2.30242">
        <ele>36.599998474121</ele>
        <time>2020-10-22T07:27:07.000Z</time>
      </trkpt>
      <trkpt lat="47.24185" lon="-2.3024">
        <ele>36</ele>
        <time>2020-10-22T07:27:08.000Z</time>
      </trkpt>
      <trkpt lat="47.24182" lon="-2.30243">
        <ele>35.599998474121</ele>
        <time>2020-10-22T07:27:09.000Z</time>
      </trkpt>
      <trkpt lat="47.24167" lon="-2.30246">
        <ele>35.599998474121</ele>
        <time>2020-10-22T07:27:13.000Z</time>
      </trkpt>
      <trkpt lat="47.24156" lon="-2.30233">
        <ele>35.599998474121</ele>
        <time>2020-10-22T07:27:17.000Z</time>
      </trkpt>
      <trkpt lat="47.24153" lon="-2.30229">
        <ele>35.599998474121</ele>
        <time>2020-10-22T07:27:18.000Z</time>
      </trkpt>
      <trkpt lat="47.24149" lon="-2.30211">
        <ele>35.599998474121</ele>
        <time>2020-10-22T07:27:22.000Z</time>
      </trkpt>
      <trkpt lat="47.24146" lon="-2.30204">
        <ele>36</ele>
        <time>2020-10-22T07:27:24.000Z</time>
      </trkpt>
      <trkpt lat="47.24145" lon="-2.30201">
        <ele>36.599998474121</ele>
        <time>2020-10-22T07:27:25.000Z</time>
      </trkpt>
      <trkpt lat="47.24144" lon="-2.30198">
        <ele>37</ele>
        <time>2020-10-22T07:27:26.000Z</time>
      </trkpt>
      <trkpt lat="47.24144" lon="-2.30195">
        <ele>37.400001525879</ele>
        <time>2020-10-22T07:27:27.000Z</time>
      </trkpt>
      <trkpt lat="47.24144" lon="-2.30192">
        <ele>37.799999237061</ele>
        <time>2020-10-22T07:27:28.000Z</time>
      </trkpt>
      <trkpt lat="47.24134" lon="-2.30172">
        <ele>38.200000762939</ele>
        <time>2020-10-22T07:27:35.000Z</time>
      </trkpt>
      <trkpt lat="47.24133" lon="-2.30171">
        <ele>38.599998474121</ele>
        <time>2020-10-22T07:27:36.000Z</time>
      </trkpt>
      <trkpt lat="47.24132" lon="-2.30169">
        <ele>39.200000762939</ele>
        <time>2020-10-22T07:27:37.000Z</time>
      </trkpt>
      <trkpt lat="47.24131" lon="-2.30168">
        <ele>40</ele>
        <time>2020-10-22T07:27:38.000Z</time>
      </trkpt>
      <trkpt lat="47.2413" lon="-2.30167">
        <ele>40.400001525879</ele>
        <time>2020-10-22T07:27:39.000Z</time>
      </trkpt>
      <trkpt lat="47.24129" lon="-2.30166">
        <ele>40.799999237061</ele>
        <time>2020-10-22T07:27:40.000Z</time>
      </trkpt>
      <trkpt lat="47.24128" lon="-2.30166">
        <ele>41.200000762939</ele>
        <time>2020-10-22T07:27:41.000Z</time>
      </trkpt>
      <trkpt lat="47.24127" lon="-2.30165">
        <ele>41.599998474121</ele>
        <time>2020-10-22T07:27:42.000Z</time>
      </trkpt>
      <trkpt lat="47.24124" lon="-2.30166">
        <ele>42</ele>
        <time>2020-10-22T07:28:22.000Z</time>
      </trkpt>
      <trkpt lat="47.2412" lon="-2.30169">
        <ele>42</ele>
        <time>2020-10-22T07:28:24.000Z</time>
      </trkpt>
      <trkpt lat="47.24114" lon="-2.30169">
        <ele>42</ele>
        <time>2020-10-22T07:28:26.000Z</time>
      </trkpt>
      <trkpt lat="47.24108" lon="-2.30167">
        <ele>42</ele>
        <time>2020-10-22T07:28:28.000Z</time>
      </trkpt>
      <trkpt lat="47.24098" lon="-2.30166">
        <ele>42</ele>
        <time>2020-10-22T07:28:33.000Z</time>
      </trkpt>
      <trkpt lat="47.24095" lon="-2.30166">
        <ele>42.599998474121</ele>
        <time>2020-10-22T07:28:35.000Z</time>
      </trkpt>
      <trkpt lat="47.24093" lon="-2.30165">
        <ele>43</ele>
        <time>2020-10-22T07:28:36.000Z</time>
      </trkpt>
      <trkpt lat="47.24091" lon="-2.30166">
        <ele>43.400001525879</ele>
        <time>2020-10-22T07:28:37.000Z</time>
      </trkpt>
      <trkpt lat="47.24089" lon="-2.30167">
        <ele>43.799999237061</ele>
        <time>2020-10-22T07:28:38.000Z</time>
      </trkpt>
      <trkpt lat="47.24087" lon="-2.30169">
        <ele>44.200000762939</ele>
        <time>2020-10-22T07:28:39.000Z</time>
      </trkpt>
      <trkpt lat="47.24078" lon="-2.30176">
        <ele>44.200000762939</ele>
        <time>2020-10-22T07:28:44.000Z</time>
      </trkpt>
      <trkpt lat="47.24064" lon="-2.30182">
        <ele>44.200000762939</ele>
        <time>2020-10-22T07:28:49.000Z</time>
      </trkpt>
      <trkpt lat="47.24044" lon="-2.30192">
        <ele>44.200000762939</ele>
        <time>2020-10-22T07:28:56.000Z</time>
      </trkpt>
      <trkpt lat="47.24033" lon="-2.30185">
        <ele>44.200000762939</ele>
        <time>2020-10-22T07:29:00.000Z</time>
      </trkpt>
      <trkpt lat="47.24021" lon="-2.30172">
        <ele>44.200000762939</ele>
        <time>2020-10-22T07:29:05.000Z</time>
      </trkpt>
      <trkpt lat="47.24" lon="-2.3016">
        <ele>44.200000762939</ele>
        <time>2020-10-22T07:29:11.000Z</time>
      </trkpt>
      <trkpt lat="47.2398" lon="-2.30147">
        <ele>44.200000762939</ele>
        <time>2020-10-22T07:29:17.000Z</time>
      </trkpt>
      <trkpt lat="47.23962" lon="-2.30138">
        <ele>44.200000762939</ele>
        <time>2020-10-22T07:29:21.000Z</time>
      </trkpt>
      <trkpt lat="47.2394" lon="-2.30135">
        <ele>44.200000762939</ele>
        <time>2020-10-22T07:29:26.000Z</time>
      </trkpt>
      <trkpt lat="47.23928" lon="-2.30126">
        <ele>44.200000762939</ele>
        <time>2020-10-22T07:29:30.000Z</time>
      </trkpt>
      <trkpt lat="47.23911" lon="-2.30119">
        <ele>43.799999237061</ele>
        <time>2020-10-22T07:29:35.000Z</time>
      </trkpt>
      <trkpt lat="47.23908" lon="-2.30114">
        <ele>43.400001525879</ele>
        <time>2020-10-22T07:29:36.000Z</time>
      </trkpt>
      <trkpt lat="47.23908" lon="-2.3011">
        <ele>43</ele>
        <time>2020-10-22T07:29:37.000Z</time>
      </trkpt>
      <trkpt lat="47.23908" lon="-2.30107">
        <ele>42.599998474121</ele>
        <time>2020-10-22T07:29:38.000Z</time>
      </trkpt>
      <trkpt lat="47.23909" lon="-2.30103">
        <ele>42.200000762939</ele>
        <time>2020-10-22T07:29:39.000Z</time>
      </trkpt>
      <trkpt lat="47.23917" lon="-2.30099">
        <ele>42.200000762939</ele>
        <time>2020-10-22T07:29:42.000Z</time>
      </trkpt>
      <trkpt lat="47.23925" lon="-2.30098">
        <ele>42.200000762939</ele>
        <time>2020-10-22T07:29:44.000Z</time>
      </trkpt>
      <trkpt lat="47.23937" lon="-2.30097">
        <ele>42.200000762939</ele>
        <time>2020-10-22T07:29:47.000Z</time>
      </trkpt>
      <trkpt lat="47.23955" lon="-2.30092">
        <ele>42.200000762939</ele>
        <time>2020-10-22T07:29:52.000Z</time>
      </trkpt>
      <trkpt lat="47.23956" lon="-2.30087">
        <ele>42.200000762939</ele>
        <time>2020-10-22T07:29:53.000Z</time>
      </trkpt>
      <trkpt lat="47.23958" lon="-2.30078">
        <ele>42.599998474121</ele>
        <time>2020-10-22T07:29:55.000Z</time>
      </trkpt>
      <trkpt lat="47.23959" lon="-2.30073">
        <ele>43</ele>
        <time>2020-10-22T07:29:56.000Z</time>
      </trkpt>
      <trkpt lat="47.23961" lon="-2.30068">
        <ele>43.400001525879</ele>
        <time>2020-10-22T07:29:57.000Z</time>
      </trkpt>
      <trkpt lat="47.23962" lon="-2.30064">
        <ele>43.799999237061</ele>
        <time>2020-10-22T07:29:58.000Z</time>
      </trkpt>
      <trkpt lat="47.23963" lon="-2.30061">
        <ele>44.200000762939</ele>
        <time>2020-10-22T07:29:59.000Z</time>
      </trkpt>
      <trkpt lat="47.23967" lon="-2.30048">
        <ele>44.200000762939</ele>
        <time>2020-10-22T07:30:03.000Z</time>
      </trkpt>
      <trkpt lat="47.23975" lon="-2.3002">
        <ele>44.200000762939</ele>
        <time>2020-10-22T07:30:11.000Z</time>
      </trkpt>
      <trkpt lat="47.2398" lon="-2.30007">
        <ele>44.200000762939</ele>
        <time>2020-10-22T07:30:16.000Z</time>
      </trkpt>
      <trkpt lat="47.23984" lon="-2.29993">
        <ele>44.599998474121</ele>
        <time>2020-10-22T07:30:20.000Z</time>
      </trkpt>
      <trkpt lat="47.23985" lon="-2.2999">
        <ele>45</ele>
        <time>2020-10-22T07:30:21.000Z</time>
      </trkpt>
      <trkpt lat="47.23986" lon="-2.29986">
        <ele>45.400001525879</ele>
        <time>2020-10-22T07:30:22.000Z</time>
      </trkpt>
      <trkpt lat="47.23987" lon="-2.29982">
        <ele>45.799999237061</ele>
        <time>2020-10-22T07:30:23.000Z</time>
      </trkpt>
      <trkpt lat="47.23988" lon="-2.29978">
        <ele>46.200000762939</ele>
        <time>2020-10-22T07:30:24.000Z</time>
      </trkpt>
      <trkpt lat="47.23991" lon="-2.29963">
        <ele>46.200000762939</ele>
        <time>2020-10-22T07:30:28.000Z</time>
      </trkpt>
      <trkpt lat="47.23999" lon="-2.29932">
        <ele>46.200000762939</ele>
        <time>2020-10-22T07:30:36.000Z</time>
      </trkpt>
      <trkpt lat="47.24003" lon="-2.29917">
        <ele>46.599998474121</ele>
        <time>2020-10-22T07:30:40.000Z</time>
      </trkpt>
      <trkpt lat="47.24004" lon="-2.29914">
        <ele>47</ele>
        <time>2020-10-22T07:30:41.000Z</time>
      </trkpt>
      <trkpt lat="47.24005" lon="-2.29911">
        <ele>47.400001525879</ele>
        <time>2020-10-22T07:30:42.000Z</time>
      </trkpt>
      <trkpt lat="47.24006" lon="-2.29908">
        <ele>47.799999237061</ele>
        <time>2020-10-22T07:30:43.000Z</time>
      </trkpt>
      <trkpt lat="47.24007" lon="-2.29906">
        <ele>48.200000762939</ele>
        <time>2020-10-22T07:30:44.000Z</time>
      </trkpt>
      <trkpt lat="47.24009" lon="-2.29906">
        <ele>48.200000762939</ele>
        <time>2020-10-22T07:30:45.000Z</time>
      </trkpt>
      <trkpt lat="47.24013" lon="-2.29903">
        <ele>48.200000762939</ele>
        <time>2020-10-22T07:30:48.000Z</time>
      </trkpt>
      <trkpt lat="47.24025" lon="-2.29906">
        <ele>48.200000762939</ele>
        <time>2020-10-22T07:30:53.000Z</time>
      </trkpt>
      <trkpt lat="47.2404" lon="-2.29897">
        <ele>48.200000762939</ele>
        <time>2020-10-22T07:30:58.000Z</time>
      </trkpt>
      <trkpt lat="47.24044" lon="-2.29897">
        <ele>48.200000762939</ele>
        <time>2020-10-22T07:31:00.000Z</time>
      </trkpt>
      <trkpt lat="47.24048" lon="-2.299">
        <ele>48.200000762939</ele>
        <time>2020-10-22T07:31:02.000Z</time>
      </trkpt>
      <trkpt lat="47.2406" lon="-2.29917">
        <ele>48.200000762939</ele>
        <time>2020-10-22T07:31:08.000Z</time>
      </trkpt>
      <trkpt lat="47.24068" lon="-2.29925">
        <ele>48.200000762939</ele>
        <time>2020-10-22T07:31:12.000Z</time>
      </trkpt>
      <trkpt lat="47.24068" lon="-2.29928">
        <ele>48.200000762939</ele>
        <time>2020-10-22T07:31:13.000Z</time>
      </trkpt>
      <trkpt lat="47.24067" lon="-2.2994">
        <ele>48.200000762939</ele>
        <time>2020-10-22T07:31:17.000Z</time>
      </trkpt>
      <trkpt lat="47.24073" lon="-2.29946">
        <ele>48.200000762939</ele>
        <time>2020-10-22T07:31:21.000Z</time>
      </trkpt>
      <trkpt lat="47.24076" lon="-2.29946">
        <ele>48.200000762939</ele>
        <time>2020-10-22T07:31:22.000Z</time>
      </trkpt>
      <trkpt lat="47.24086" lon="-2.29948">
        <ele>48.200000762939</ele>
        <time>2020-10-22T07:31:27.000Z</time>
      </trkpt>
      <trkpt lat="47.24094" lon="-2.29957">
        <ele>48.200000762939</ele>
        <time>2020-10-22T07:31:31.000Z</time>
      </trkpt>
      <trkpt lat="47.24095" lon="-2.29964">
        <ele>48.200000762939</ele>
        <time>2020-10-22T07:31:33.000Z</time>
      </trkpt>
      <trkpt lat="47.24106" lon="-2.29981">
        <ele>48.200000762939</ele>
        <time>2020-10-22T07:31:39.000Z</time>
      </trkpt>
      <trkpt lat="47.24108" lon="-2.29982">
        <ele>48.200000762939</ele>
        <time>2020-10-22T07:31:40.000Z</time>
      </trkpt>
      <trkpt lat="47.24125" lon="-2.29982">
        <ele>48.200000762939</ele>
        <time>2020-10-22T07:31:45.000Z</time>
      </trkpt>
      <trkpt lat="47.24146" lon="-2.29986">
        <ele>48.200000762939</ele>
        <time>2020-10-22T07:31:51.000Z</time>
      </trkpt>
      <trkpt lat="47.24148" lon="-2.29988">
        <ele>48.200000762939</ele>
        <time>2020-10-22T07:31:52.000Z</time>
      </trkpt>
      <trkpt lat="47.24151" lon="-2.30002">
        <ele>48.200000762939</ele>
        <time>2020-10-22T07:31:56.000Z</time>
      </trkpt>
      <trkpt lat="47.24155" lon="-2.30017">
        <ele>47.799999237061</ele>
        <time>2020-10-22T07:31:59.000Z</time>
      </trkpt>
      <trkpt lat="47.24156" lon="-2.3002">
        <ele>47.400001525879</ele>
        <time>2020-10-22T07:32:00.000Z</time>
      </trkpt>
      <trkpt lat="47.24157" lon="-2.30022">
        <ele>47</ele>
        <time>2020-10-22T07:32:01.000Z</time>
      </trkpt>
      <trkpt lat="47.24159" lon="-2.30024">
        <ele>46.599998474121</ele>
        <time>2020-10-22T07:32:02.000Z</time>
      </trkpt>
      <trkpt lat="47.2416" lon="-2.30025">
        <ele>46.200000762939</ele>
        <time>2020-10-22T07:32:03.000Z</time>
      </trkpt>
      <trkpt lat="47.24167" lon="-2.30031">
        <ele>46.200000762939</ele>
        <time>2020-10-22T07:32:06.000Z</time>
      </trkpt>
      <trkpt lat="47.24172" lon="-2.30033">
        <ele>46.200000762939</ele>
        <time>2020-10-22T07:32:08.000Z</time>
      </trkpt>
      <trkpt lat="47.24178" lon="-2.30028">
        <ele>46.200000762939</ele>
        <time>2020-10-22T07:32:11.000Z</time>
      </trkpt>
      <trkpt lat="47.24179" lon="-2.30019">
        <ele>46.200000762939</ele>
        <time>2020-10-22T07:32:15.000Z</time>
      </trkpt>
      <trkpt lat="47.24178" lon="-2.30018">
        <ele>46.200000762939</ele>
        <time>2020-10-22T07:32:16.000Z</time>
      </trkpt>
      <trkpt lat="47.24177" lon="-2.30016">
        <ele>46.200000762939</ele>
        <time>2020-10-22T07:32:17.000Z</time>
      </trkpt>
      <trkpt lat="47.24173" lon="-2.30001">
        <ele>46.200000762939</ele>
        <time>2020-10-22T07:32:22.000Z</time>
      </trkpt>
      <trkpt lat="47.24165" lon="-2.29989">
        <ele>46.599998474121</ele>
        <time>2020-10-22T07:32:27.000Z</time>
      </trkpt>
      <trkpt lat="47.24164" lon="-2.29987">
        <ele>47</ele>
        <time>2020-10-22T07:32:28.000Z</time>
      </trkpt>
      <trkpt lat="47.24162" lon="-2.29984">
        <ele>47.400001525879</ele>
        <time>2020-10-22T07:32:29.000Z</time>
      </trkpt>
      <trkpt lat="47.2416" lon="-2.29981">
        <ele>47.799999237061</ele>
        <time>2020-10-22T07:32:30.000Z</time>
      </trkpt>
      <trkpt lat="47.2416" lon="-2.29976">
        <ele>48.400001525879</ele>
        <time>2020-10-22T07:32:31.000Z</time>
      </trkpt>
      <trkpt lat="47.2416" lon="-2.29965">
        <ele>48.400001525879</ele>
        <time>2020-10-22T07:32:33.000Z</time>
      </trkpt>
      <trkpt lat="47.24164" lon="-2.29941">
        <ele>48.400001525879</ele>
        <time>2020-10-22T07:32:38.000Z</time>
      </trkpt>
      <trkpt lat="47.24167" lon="-2.2993">
        <ele>48.400001525879</ele>
        <time>2020-10-22T07:32:43.000Z</time>
      </trkpt>
      <trkpt lat="47.24177" lon="-2.29903">
        <ele>48.400001525879</ele>
        <time>2020-10-22T07:32:51.000Z</time>
      </trkpt>
      <trkpt lat="47.24177" lon="-2.29896">
        <ele>48.400001525879</ele>
        <time>2020-10-22T07:32:53.000Z</time>
      </trkpt>
      <trkpt lat="47.24176" lon="-2.29882">
        <ele>48.400001525879</ele>
        <time>2020-10-22T07:32:57.000Z</time>
      </trkpt>
      <trkpt lat="47.24175" lon="-2.2987">
        <ele>48.400001525879</ele>
        <time>2020-10-22T07:33:01.000Z</time>
      </trkpt>
      <trkpt lat="47.24175" lon="-2.29865">
        <ele>48.400001525879</ele>
        <time>2020-10-22T07:33:02.000Z</time>
      </trkpt>
      <trkpt lat="47.24175" lon="-2.29838">
        <ele>48.400001525879</ele>
        <time>2020-10-22T07:33:07.000Z</time>
      </trkpt>
      <trkpt lat="47.24166" lon="-2.29837">
        <ele>48.400001525879</ele>
        <time>2020-10-22T07:33:10.000Z</time>
      </trkpt>
      <trkpt lat="47.24159" lon="-2.2984">
        <ele>48.400001525879</ele>
        <time>2020-10-22T07:33:12.000Z</time>
      </trkpt>
      <trkpt lat="47.24147" lon="-2.29842">
        <ele>48.400001525879</ele>
        <time>2020-10-22T07:33:15.000Z</time>
      </trkpt>
      <trkpt lat="47.24126" lon="-2.29847">
        <ele>48.400001525879</ele>
        <time>2020-10-22T07:33:21.000Z</time>
      </trkpt>
      <trkpt lat="47.24111" lon="-2.29847">
        <ele>48.400001525879</ele>
        <time>2020-10-22T07:33:26.000Z</time>
      </trkpt>
      <trkpt lat="47.24096" lon="-2.29845">
        <ele>48.400001525879</ele>
        <time>2020-10-22T07:33:31.000Z</time>
      </trkpt>
      <trkpt lat="47.24072" lon="-2.29838">
        <ele>48.400001525879</ele>
        <time>2020-10-22T07:33:39.000Z</time>
      </trkpt>
      <trkpt lat="47.24053" lon="-2.29831">
        <ele>48.400001525879</ele>
        <time>2020-10-22T07:33:46.000Z</time>
      </trkpt>
      <trkpt lat="47.24048" lon="-2.29827">
        <ele>48.400001525879</ele>
        <time>2020-10-22T07:33:48.000Z</time>
      </trkpt>
      <trkpt lat="47.24043" lon="-2.29819">
        <ele>48.400001525879</ele>
        <time>2020-10-22T07:33:51.000Z</time>
      </trkpt>
      <trkpt lat="47.24035" lon="-2.29809">
        <ele>48.400001525879</ele>
        <time>2020-10-22T07:33:55.000Z</time>
      </trkpt>
      <trkpt lat="47.24029" lon="-2.2981">
        <ele>48.400001525879</ele>
        <time>2020-10-22T07:33:57.000Z</time>
      </trkpt>
      <trkpt lat="47.24023" lon="-2.29804">
        <ele>48.400001525879</ele>
        <time>2020-10-22T07:33:59.000Z</time>
      </trkpt>
      <trkpt lat="47.24019" lon="-2.29794">
        <ele>48.400001525879</ele>
        <time>2020-10-22T07:34:01.000Z</time>
      </trkpt>
      <trkpt lat="47.24016" lon="-2.29785">
        <ele>48.400001525879</ele>
        <time>2020-10-22T07:34:03.000Z</time>
      </trkpt>
      <trkpt lat="47.24012" lon="-2.29763">
        <ele>48.400001525879</ele>
        <time>2020-10-22T07:34:07.000Z</time>
      </trkpt>
      <trkpt lat="47.24009" lon="-2.29736">
        <ele>48.799999237061</ele>
        <time>2020-10-22T07:34:11.000Z</time>
      </trkpt>
      <trkpt lat="47.24008" lon="-2.2973">
        <ele>49.200000762939</ele>
        <time>2020-10-22T07:34:12.000Z</time>
      </trkpt>
      <trkpt lat="47.24008" lon="-2.29725">
        <ele>50</ele>
        <time>2020-10-22T07:34:13.000Z</time>
      </trkpt>
      <trkpt lat="47.24008" lon="-2.29721">
        <ele>50.400001525879</ele>
        <time>2020-10-22T07:34:14.000Z</time>
      </trkpt>
      <trkpt lat="47.24007" lon="-2.29688">
        <ele>50.400001525879</ele>
        <time>2020-10-22T07:34:19.000Z</time>
      </trkpt>
      <trkpt lat="47.24003" lon="-2.29651">
        <ele>50.400001525879</ele>
        <time>2020-10-22T07:34:25.000Z</time>
      </trkpt>
      <trkpt lat="47.24002" lon="-2.29618">
        <ele>50.400001525879</ele>
        <time>2020-10-22T07:34:31.000Z</time>
      </trkpt>
      <trkpt lat="47.23999" lon="-2.29584">
        <ele>50.400001525879</ele>
        <time>2020-10-22T07:34:36.000Z</time>
      </trkpt>
      <trkpt lat="47.23996" lon="-2.29537">
        <ele>50.400001525879</ele>
        <time>2020-10-22T07:34:42.000Z</time>
      </trkpt>
      <trkpt lat="47.23993" lon="-2.29498">
        <ele>50.400001525879</ele>
        <time>2020-10-22T07:34:47.000Z</time>
      </trkpt>
      <trkpt lat="47.23988" lon="-2.29486">
        <ele>50.400001525879</ele>
        <time>2020-10-22T07:34:49.000Z</time>
      </trkpt>
      <trkpt lat="47.23982" lon="-2.29474">
        <ele>50.400001525879</ele>
        <time>2020-10-22T07:34:51.000Z</time>
      </trkpt>
      <trkpt lat="47.23974" lon="-2.29458">
        <ele>50.400001525879</ele>
        <time>2020-10-22T07:34:54.000Z</time>
      </trkpt>
      <trkpt lat="47.2395" lon="-2.29408">
        <ele>50.400001525879</ele>
        <time>2020-10-22T07:35:02.000Z</time>
      </trkpt>
      <trkpt lat="47.23925" lon="-2.29361">
        <ele>50.400001525879</ele>
        <time>2020-10-22T07:35:10.000Z</time>
      </trkpt>
      <trkpt lat="47.23922" lon="-2.29356">
        <ele>50</ele>
        <time>2020-10-22T07:35:11.000Z</time>
      </trkpt>
      <trkpt lat="47.23919" lon="-2.29351">
        <ele>49.599998474121</ele>
        <time>2020-10-22T07:35:12.000Z</time>
      </trkpt>
      <trkpt lat="47.23916" lon="-2.29345">
        <ele>49.200000762939</ele>
        <time>2020-10-22T07:35:13.000Z</time>
      </trkpt>
      <trkpt lat="47.23913" lon="-2.2934">
        <ele>48.799999237061</ele>
        <time>2020-10-22T07:35:14.000Z</time>
      </trkpt>
      <trkpt lat="47.23911" lon="-2.29335">
        <ele>48.400001525879</ele>
        <time>2020-10-22T07:35:15.000Z</time>
      </trkpt>
      <trkpt lat="47.23908" lon="-2.29331">
        <ele>48.400001525879</ele>
        <time>2020-10-22T07:35:16.000Z</time>
      </trkpt>
      <trkpt lat="47.23904" lon="-2.2933">
        <ele>48.400001525879</ele>
        <time>2020-10-22T07:35:17.000Z</time>
      </trkpt>
      <trkpt lat="47.23894" lon="-2.29331">
        <ele>48.400001525879</ele>
        <time>2020-10-22T07:35:19.000Z</time>
      </trkpt>
      <trkpt lat="47.23878" lon="-2.2933">
        <ele>48.400001525879</ele>
        <time>2020-10-22T07:35:22.000Z</time>
      </trkpt>
      <trkpt lat="47.23873" lon="-2.29332">
        <ele>48.400001525879</ele>
        <time>2020-10-22T07:35:23.000Z</time>
      </trkpt>
      <trkpt lat="47.23868" lon="-2.29335">
        <ele>48.400001525879</ele>
        <time>2020-10-22T07:35:24.000Z</time>
      </trkpt>
      <trkpt lat="47.23857" lon="-2.29352">
        <ele>48.400001525879</ele>
        <time>2020-10-22T07:35:27.000Z</time>
      </trkpt>
      <trkpt lat="47.23854" lon="-2.29358">
        <ele>48.400001525879</ele>
        <time>2020-10-22T07:35:28.000Z</time>
      </trkpt>
      <trkpt lat="47.23842" lon="-2.29386">
        <ele>48.400001525879</ele>
        <time>2020-10-22T07:35:32.000Z</time>
      </trkpt>
      <trkpt lat="47.23828" lon="-2.29418">
        <ele>48.400001525879</ele>
        <time>2020-10-22T07:35:37.000Z</time>
      </trkpt>
      <trkpt lat="47.23824" lon="-2.2943">
        <ele>48.400001525879</ele>
        <time>2020-10-22T07:35:39.000Z</time>
      </trkpt>
      <trkpt lat="47.23821" lon="-2.2944">
        <ele>48.400001525879</ele>
        <time>2020-10-22T07:35:42.000Z</time>
      </trkpt>
      <trkpt lat="47.2382" lon="-2.2946">
        <ele>48.400001525879</ele>
        <time>2020-10-22T07:35:46.000Z</time>
      </trkpt>
      <trkpt lat="47.23821" lon="-2.29467">
        <ele>48.400001525879</ele>
        <time>2020-10-22T07:35:47.000Z</time>
      </trkpt>
      <trkpt lat="47.23821" lon="-2.29501">
        <ele>48.400001525879</ele>
        <time>2020-10-22T07:35:52.000Z</time>
      </trkpt>
      <trkpt lat="47.2382" lon="-2.29544">
        <ele>48.400001525879</ele>
        <time>2020-10-22T07:35:59.000Z</time>
      </trkpt>
      <trkpt lat="47.2382" lon="-2.29563">
        <ele>48.400001525879</ele>
        <time>2020-10-22T07:36:02.000Z</time>
      </trkpt>
      <trkpt lat="47.23819" lon="-2.29583">
        <ele>48.400001525879</ele>
        <time>2020-10-22T07:36:05.000Z</time>
      </trkpt>
      <trkpt lat="47.2382" lon="-2.2959">
        <ele>48.400001525879</ele>
        <time>2020-10-22T07:36:06.000Z</time>
      </trkpt>
      <trkpt lat="47.23819" lon="-2.29645">
        <ele>48.400001525879</ele>
        <time>2020-10-22T07:36:14.000Z</time>
      </trkpt>
      <trkpt lat="47.23814" lon="-2.29705">
        <ele>48.400001525879</ele>
        <time>2020-10-22T07:36:22.000Z</time>
      </trkpt>
      <trkpt lat="47.23812" lon="-2.29728">
        <ele>48.400001525879</ele>
        <time>2020-10-22T07:36:25.000Z</time>
      </trkpt>
      <trkpt lat="47.23812" lon="-2.29743">
        <ele>48.400001525879</ele>
        <time>2020-10-22T07:36:27.000Z</time>
      </trkpt>
      <trkpt lat="47.23812" lon="-2.29795">
        <ele>48.400001525879</ele>
        <time>2020-10-22T07:36:34.000Z</time>
      </trkpt>
      <trkpt lat="47.23812" lon="-2.2984">
        <ele>48.400001525879</ele>
        <time>2020-10-22T07:36:40.000Z</time>
      </trkpt>
      <trkpt lat="47.23813" lon="-2.29847">
        <ele>48.400001525879</ele>
        <time>2020-10-22T07:36:41.000Z</time>
      </trkpt>
      <trkpt lat="47.23824" lon="-2.29909">
        <ele>48.400001525879</ele>
        <time>2020-10-22T07:36:49.000Z</time>
      </trkpt>
      <trkpt lat="47.23838" lon="-2.29986">
        <ele>48.400001525879</ele>
        <time>2020-10-22T07:36:58.000Z</time>
      </trkpt>
      <trkpt lat="47.2384" lon="-2.29994">
        <ele>48.400001525879</ele>
        <time>2020-10-22T07:36:59.000Z</time>
      </trkpt>
      <trkpt lat="47.23844" lon="-2.30015">
        <ele>48</ele>
        <time>2020-10-22T07:37:02.000Z</time>
      </trkpt>
      <trkpt lat="47.23845" lon="-2.30022">
        <ele>47.599998474121</ele>
        <time>2020-10-22T07:37:03.000Z</time>
      </trkpt>
      <trkpt lat="47.23845" lon="-2.30029">
        <ele>47.200000762939</ele>
        <time>2020-10-22T07:37:04.000Z</time>
      </trkpt>
      <trkpt lat="47.23846" lon="-2.30033">
        <ele>46.799999237061</ele>
        <time>2020-10-22T07:37:05.000Z</time>
      </trkpt>
      <trkpt lat="47.23846" lon="-2.30036">
        <ele>46.200000762939</ele>
        <time>2020-10-22T07:37:06.000Z</time>
      </trkpt>
      <trkpt lat="47.23847" lon="-2.30041">
        <ele>45.799999237061</ele>
        <time>2020-10-22T07:37:08.000Z</time>
      </trkpt>
      <trkpt lat="47.23846" lon="-2.30042">
        <ele>45.400001525879</ele>
        <time>2020-10-22T07:37:09.000Z</time>
      </trkpt>
      <trkpt lat="47.23846" lon="-2.30044">
        <ele>44.200000762939</ele>
        <time>2020-10-22T07:37:13.000Z</time>
      </trkpt>
      <trkpt lat="47.23846" lon="-2.30046">
        <ele>44.200000762939</ele>
        <time>2020-10-22T07:37:14.000Z</time>
      </trkpt>
      <trkpt lat="47.23836" lon="-2.30056">
        <ele>44.200000762939</ele>
        <time>2020-10-22T07:37:18.000Z</time>
      </trkpt>
      <trkpt lat="47.23816" lon="-2.3007">
        <ele>44.200000762939</ele>
        <time>2020-10-22T07:37:24.000Z</time>
      </trkpt>
      <trkpt lat="47.23796" lon="-2.30084">
        <ele>44.200000762939</ele>
        <time>2020-10-22T07:37:30.000Z</time>
      </trkpt>
      <trkpt lat="47.2379" lon="-2.30083">
        <ele>44.200000762939</ele>
        <time>2020-10-22T07:37:32.000Z</time>
      </trkpt>
      <trkpt lat="47.23788" lon="-2.30081">
        <ele>44.200000762939</ele>
        <time>2020-10-22T07:37:33.000Z</time>
      </trkpt>
      <trkpt lat="47.23777" lon="-2.30064">
        <ele>44.200000762939</ele>
        <time>2020-10-22T07:37:38.000Z</time>
      </trkpt>
      <trkpt lat="47.23768" lon="-2.30052">
        <ele>44.200000762939</ele>
        <time>2020-10-22T07:37:41.000Z</time>
      </trkpt>
      <trkpt lat="47.2376" lon="-2.30042">
        <ele>44.200000762939</ele>
        <time>2020-10-22T07:37:44.000Z</time>
      </trkpt>
      <trkpt lat="47.23754" lon="-2.30025">
        <ele>44.200000762939</ele>
        <time>2020-10-22T07:37:48.000Z</time>
      </trkpt>
      <trkpt lat="47.23741" lon="-2.30008">
        <ele>44.200000762939</ele>
        <time>2020-10-22T07:37:54.000Z</time>
      </trkpt>
      <trkpt lat="47.23732" lon="-2.30001">
        <ele>44.200000762939</ele>
        <time>2020-10-22T07:37:57.000Z</time>
      </trkpt>
      <trkpt lat="47.23729" lon="-2.30002">
        <ele>44.200000762939</ele>
        <time>2020-10-22T07:37:58.000Z</time>
      </trkpt>
      <trkpt lat="47.23713" lon="-2.30016">
        <ele>44.200000762939</ele>
        <time>2020-10-22T07:38:02.000Z</time>
      </trkpt>
      <trkpt lat="47.2371" lon="-2.30021">
        <ele>43.799999237061</ele>
        <time>2020-10-22T07:38:03.000Z</time>
      </trkpt>
      <trkpt lat="47.23707" lon="-2.30028">
        <ele>43.400001525879</ele>
        <time>2020-10-22T07:38:04.000Z</time>
      </trkpt>
      <trkpt lat="47.23704" lon="-2.30033">
        <ele>43</ele>
        <time>2020-10-22T07:38:05.000Z</time>
      </trkpt>
      <trkpt lat="47.23702" lon="-2.30038">
        <ele>42.599998474121</ele>
        <time>2020-10-22T07:38:06.000Z</time>
      </trkpt>
      <trkpt lat="47.237" lon="-2.30042">
        <ele>42.200000762939</ele>
        <time>2020-10-22T07:38:07.000Z</time>
      </trkpt>
      <trkpt lat="47.23695" lon="-2.30046">
        <ele>41.799999237061</ele>
        <time>2020-10-22T07:38:09.000Z</time>
      </trkpt>
      <trkpt lat="47.23692" lon="-2.30047">
        <ele>41.200000762939</ele>
        <time>2020-10-22T07:38:10.000Z</time>
      </trkpt>
      <trkpt lat="47.23689" lon="-2.30045">
        <ele>40.799999237061</ele>
        <time>2020-10-22T07:38:11.000Z</time>
      </trkpt>
      <trkpt lat="47.23686" lon="-2.30041">
        <ele>40.400001525879</ele>
        <time>2020-10-22T07:38:12.000Z</time>
      </trkpt>
      <trkpt lat="47.23683" lon="-2.30037">
        <ele>40</ele>
        <time>2020-10-22T07:38:13.000Z</time>
      </trkpt>
      <trkpt lat="47.23681" lon="-2.30032">
        <ele>40</ele>
        <time>2020-10-22T07:38:14.000Z</time>
      </trkpt>
      <trkpt lat="47.23665" lon="-2.29989">
        <ele>40.400001525879</ele>
        <time>2020-10-22T07:38:22.000Z</time>
      </trkpt>
      <trkpt lat="47.23663" lon="-2.29984">
        <ele>40.799999237061</ele>
        <time>2020-10-22T07:38:23.000Z</time>
      </trkpt>
      <trkpt lat="47.23661" lon="-2.29979">
        <ele>41.200000762939</ele>
        <time>2020-10-22T07:38:24.000Z</time>
      </trkpt>
      <trkpt lat="47.23659" lon="-2.29974">
        <ele>41.599998474121</ele>
        <time>2020-10-22T07:38:25.000Z</time>
      </trkpt>
      <trkpt lat="47.23658" lon="-2.29969">
        <ele>42</ele>
        <time>2020-10-22T07:38:26.000Z</time>
      </trkpt>
      <trkpt lat="47.23652" lon="-2.29956">
        <ele>42</ele>
        <time>2020-10-22T07:38:29.000Z</time>
      </trkpt>
      <trkpt lat="47.23642" lon="-2.29926">
        <ele>42.400001525879</ele>
        <time>2020-10-22T07:38:35.000Z</time>
      </trkpt>
      <trkpt lat="47.2364" lon="-2.29922">
        <ele>42.799999237061</ele>
        <time>2020-10-22T07:38:36.000Z</time>
      </trkpt>
      <trkpt lat="47.23639" lon="-2.29917">
        <ele>43.200000762939</ele>
        <time>2020-10-22T07:38:37.000Z</time>
      </trkpt>
      <trkpt lat="47.23637" lon="-2.29912">
        <ele>43.599998474121</ele>
        <time>2020-10-22T07:38:38.000Z</time>
      </trkpt>
      <trkpt lat="47.23635" lon="-2.29906">
        <ele>44.200000762939</ele>
        <time>2020-10-22T07:38:39.000Z</time>
      </trkpt>
      <trkpt lat="47.23625" lon="-2.29879">
        <ele>44.200000762939</ele>
        <time>2020-10-22T07:38:44.000Z</time>
      </trkpt>
      <trkpt lat="47.23606" lon="-2.29829">
        <ele>44.200000762939</ele>
        <time>2020-10-22T07:38:52.000Z</time>
      </trkpt>
      <trkpt lat="47.23597" lon="-2.29803">
        <ele>44.200000762939</ele>
        <time>2020-10-22T07:38:56.000Z</time>
      </trkpt>
      <trkpt lat="47.23594" lon="-2.29799">
        <ele>44.200000762939</ele>
        <time>2020-10-22T07:38:57.000Z</time>
      </trkpt>
      <trkpt lat="47.23581" lon="-2.298">
        <ele>44.200000762939</ele>
        <time>2020-10-22T07:39:00.000Z</time>
      </trkpt>
      <trkpt lat="47.23568" lon="-2.29804">
        <ele>44.200000762939</ele>
        <time>2020-10-22T07:39:03.000Z</time>
      </trkpt>
      <trkpt lat="47.23555" lon="-2.2981">
        <ele>44.200000762939</ele>
        <time>2020-10-22T07:39:06.000Z</time>
      </trkpt>
      <trkpt lat="47.23546" lon="-2.29813">
        <ele>43.799999237061</ele>
        <time>2020-10-22T07:39:08.000Z</time>
      </trkpt>
      <trkpt lat="47.23541" lon="-2.29815">
        <ele>43.400001525879</ele>
        <time>2020-10-22T07:39:09.000Z</time>
      </trkpt>
      <trkpt lat="47.23536" lon="-2.29816">
        <ele>42.599998474121</ele>
        <time>2020-10-22T07:39:10.000Z</time>
      </trkpt>
      <trkpt lat="47.23531" lon="-2.29818">
        <ele>42.200000762939</ele>
        <time>2020-10-22T07:39:11.000Z</time>
      </trkpt>
      <trkpt lat="47.2352" lon="-2.29822">
        <ele>42.200000762939</ele>
        <time>2020-10-22T07:39:13.000Z</time>
      </trkpt>
      <trkpt lat="47.23493" lon="-2.29832">
        <ele>42.200000762939</ele>
        <time>2020-10-22T07:39:18.000Z</time>
      </trkpt>
      <trkpt lat="47.23487" lon="-2.29835">
        <ele>42.200000762939</ele>
        <time>2020-10-22T07:39:19.000Z</time>
      </trkpt>
      <trkpt lat="47.23479" lon="-2.2984">
        <ele>41.599998474121</ele>
        <time>2020-10-22T07:39:21.000Z</time>
      </trkpt>
      <trkpt lat="47.23476" lon="-2.29842">
        <ele>41.200000762939</ele>
        <time>2020-10-22T07:39:22.000Z</time>
      </trkpt>
      <trkpt lat="47.23474" lon="-2.29842">
        <ele>40.799999237061</ele>
        <time>2020-10-22T07:39:23.000Z</time>
      </trkpt>
      <trkpt lat="47.23472" lon="-2.29843">
        <ele>40.400001525879</ele>
        <time>2020-10-22T07:39:24.000Z</time>
      </trkpt>
      <trkpt lat="47.23471" lon="-2.29842">
        <ele>40</ele>
        <time>2020-10-22T07:39:25.000Z</time>
      </trkpt>
      <trkpt lat="47.23469" lon="-2.29841">
        <ele>40</ele>
        <time>2020-10-22T07:39:26.000Z</time>
      </trkpt>
      <trkpt lat="47.23467" lon="-2.29835">
        <ele>40</ele>
        <time>2020-10-22T07:39:28.000Z</time>
      </trkpt>
      <trkpt lat="47.23466" lon="-2.29824">
        <ele>40</ele>
        <time>2020-10-22T07:39:30.000Z</time>
      </trkpt>
      <trkpt lat="47.23465" lon="-2.29817">
        <ele>40</ele>
        <time>2020-10-22T07:39:31.000Z</time>
      </trkpt>
      <trkpt lat="47.23465" lon="-2.29811">
        <ele>40</ele>
        <time>2020-10-22T07:39:32.000Z</time>
      </trkpt>
      <trkpt lat="47.23471" lon="-2.29795">
        <ele>40</ele>
        <time>2020-10-22T07:39:35.000Z</time>
      </trkpt>
      <trkpt lat="47.23475" lon="-2.2979">
        <ele>40</ele>
        <time>2020-10-22T07:39:36.000Z</time>
      </trkpt>
      <trkpt lat="47.23485" lon="-2.29765">
        <ele>40</ele>
        <time>2020-10-22T07:39:41.000Z</time>
      </trkpt>
      <trkpt lat="47.23486" lon="-2.29754">
        <ele>39.599998474121</ele>
        <time>2020-10-22T07:39:43.000Z</time>
      </trkpt>
      <trkpt lat="47.23488" lon="-2.29749">
        <ele>39</ele>
        <time>2020-10-22T07:39:44.000Z</time>
      </trkpt>
      <trkpt lat="47.2349" lon="-2.29742">
        <ele>38.599998474121</ele>
        <time>2020-10-22T07:39:45.000Z</time>
      </trkpt>
      <trkpt lat="47.23493" lon="-2.29736">
        <ele>38.200000762939</ele>
        <time>2020-10-22T07:39:46.000Z</time>
      </trkpt>
      <trkpt lat="47.23497" lon="-2.29732">
        <ele>37.599998474121</ele>
        <time>2020-10-22T07:39:47.000Z</time>
      </trkpt>
      <trkpt lat="47.23502" lon="-2.29724">
        <ele>37.599998474121</ele>
        <time>2020-10-22T07:39:49.000Z</time>
      </trkpt>
      <trkpt lat="47.23505" lon="-2.29715">
        <ele>37.200000762939</ele>
        <time>2020-10-22T07:39:51.000Z</time>
      </trkpt>
      <trkpt lat="47.23506" lon="-2.29711">
        <ele>36.799999237061</ele>
        <time>2020-10-22T07:39:52.000Z</time>
      </trkpt>
      <trkpt lat="47.23507" lon="-2.29705">
        <ele>36.400001525879</ele>
        <time>2020-10-22T07:39:53.000Z</time>
      </trkpt>
      <trkpt lat="47.23508" lon="-2.297">
        <ele>36</ele>
        <time>2020-10-22T07:39:54.000Z</time>
      </trkpt>
      <trkpt lat="47.23509" lon="-2.29696">
        <ele>35.599998474121</ele>
        <time>2020-10-22T07:39:55.000Z</time>
      </trkpt>
      <trkpt lat="47.23508" lon="-2.29669">
        <ele>35.599998474121</ele>
        <time>2020-10-22T07:40:01.000Z</time>
      </trkpt>
      <trkpt lat="47.23505" lon="-2.29648">
        <ele>35.599998474121</ele>
        <time>2020-10-22T07:40:06.000Z</time>
      </trkpt>
      <trkpt lat="47.23499" lon="-2.29631">
        <ele>35.200000762939</ele>
        <time>2020-10-22T07:40:09.000Z</time>
      </trkpt>
      <trkpt lat="47.23498" lon="-2.29625">
        <ele>34.799999237061</ele>
        <time>2020-10-22T07:40:10.000Z</time>
      </trkpt>
      <trkpt lat="47.23498" lon="-2.29618">
        <ele>34.200000762939</ele>
        <time>2020-10-22T07:40:11.000Z</time>
      </trkpt>
      <trkpt lat="47.235" lon="-2.29611">
        <ele>33.799999237061</ele>
        <time>2020-10-22T07:40:12.000Z</time>
      </trkpt>
      <trkpt lat="47.23502" lon="-2.29605">
        <ele>33.400001525879</ele>
        <time>2020-10-22T07:40:13.000Z</time>
      </trkpt>
      <trkpt lat="47.23508" lon="-2.29598">
        <ele>33.400001525879</ele>
        <time>2020-10-22T07:40:15.000Z</time>
      </trkpt>
      <trkpt lat="47.23511" lon="-2.29595">
        <ele>33</ele>
        <time>2020-10-22T07:40:16.000Z</time>
      </trkpt>
      <trkpt lat="47.23516" lon="-2.29592">
        <ele>32.599998474121</ele>
        <time>2020-10-22T07:40:17.000Z</time>
      </trkpt>
      <trkpt lat="47.2352" lon="-2.2959">
        <ele>32</ele>
        <time>2020-10-22T07:40:18.000Z</time>
      </trkpt>
      <trkpt lat="47.23524" lon="-2.29589">
        <ele>31.60000038147</ele>
        <time>2020-10-22T07:40:19.000Z</time>
      </trkpt>
      <trkpt lat="47.23528" lon="-2.29587">
        <ele>31.200000762939</ele>
        <time>2020-10-22T07:40:20.000Z</time>
      </trkpt>
      <trkpt lat="47.23547" lon="-2.29592">
        <ele>31.200000762939</ele>
        <time>2020-10-22T07:40:24.000Z</time>
      </trkpt>
      <trkpt lat="47.23551" lon="-2.29595">
        <ele>31.200000762939</ele>
        <time>2020-10-22T07:40:25.000Z</time>
      </trkpt>
      <trkpt lat="47.23568" lon="-2.29604">
        <ele>31.200000762939</ele>
        <time>2020-10-22T07:40:29.000Z</time>
      </trkpt>
      <trkpt lat="47.23572" lon="-2.29605">
        <ele>31.60000038147</ele>
        <time>2020-10-22T07:40:30.000Z</time>
      </trkpt>
      <trkpt lat="47.23576" lon="-2.29604">
        <ele>32.200000762939</ele>
        <time>2020-10-22T07:40:31.000Z</time>
      </trkpt>
      <trkpt lat="47.2358" lon="-2.29604">
        <ele>32.599998474121</ele>
        <time>2020-10-22T07:40:32.000Z</time>
      </trkpt>
      <trkpt lat="47.23583" lon="-2.29603">
        <ele>33</ele>
        <time>2020-10-22T07:40:33.000Z</time>
      </trkpt>
      <trkpt lat="47.23586" lon="-2.29602">
        <ele>33.400001525879</ele>
        <time>2020-10-22T07:40:34.000Z</time>
      </trkpt>
      <trkpt lat="47.23589" lon="-2.29597">
        <ele>33.799999237061</ele>
        <time>2020-10-22T07:40:36.000Z</time>
      </trkpt>
      <trkpt lat="47.2359" lon="-2.29591">
        <ele>34.400001525879</ele>
        <time>2020-10-22T07:40:37.000Z</time>
      </trkpt>
      <trkpt lat="47.2359" lon="-2.29586">
        <ele>34.799999237061</ele>
        <time>2020-10-22T07:40:38.000Z</time>
      </trkpt>
      <trkpt lat="47.2359" lon="-2.2958">
        <ele>35.200000762939</ele>
        <time>2020-10-22T07:40:39.000Z</time>
      </trkpt>
      <trkpt lat="47.2359" lon="-2.29574">
        <ele>35.599998474121</ele>
        <time>2020-10-22T07:40:40.000Z</time>
      </trkpt>
      <trkpt lat="47.2359" lon="-2.29563">
        <ele>35.599998474121</ele>
        <time>2020-10-22T07:40:42.000Z</time>
      </trkpt>
      <trkpt lat="47.2359" lon="-2.29535">
        <ele>35.599998474121</ele>
        <time>2020-10-22T07:40:47.000Z</time>
      </trkpt>
      <trkpt lat="47.2359" lon="-2.29507">
        <ele>35.599998474121</ele>
        <time>2020-10-22T07:40:52.000Z</time>
      </trkpt>
      <trkpt lat="47.2359" lon="-2.29468">
        <ele>35.599998474121</ele>
        <time>2020-10-22T07:40:59.000Z</time>
      </trkpt>
      <trkpt lat="47.23591" lon="-2.29462">
        <ele>36</ele>
        <time>2020-10-22T07:41:00.000Z</time>
      </trkpt>
      <trkpt lat="47.23591" lon="-2.29457">
        <ele>36.400001525879</ele>
        <time>2020-10-22T07:41:01.000Z</time>
      </trkpt>
      <trkpt lat="47.23591" lon="-2.29452">
        <ele>36.799999237061</ele>
        <time>2020-10-22T07:41:02.000Z</time>
      </trkpt>
      <trkpt lat="47.23591" lon="-2.29447">
        <ele>37.200000762939</ele>
        <time>2020-10-22T07:41:03.000Z</time>
      </trkpt>
      <trkpt lat="47.23591" lon="-2.29442">
        <ele>37.599998474121</ele>
        <time>2020-10-22T07:41:04.000Z</time>
      </trkpt>
      <trkpt lat="47.23591" lon="-2.29432">
        <ele>37.599998474121</ele>
        <time>2020-10-22T07:41:06.000Z</time>
      </trkpt>
      <trkpt lat="47.23589" lon="-2.29399">
        <ele>37.599998474121</ele>
        <time>2020-10-22T07:41:12.000Z</time>
      </trkpt>
      <trkpt lat="47.23589" lon="-2.29359">
        <ele>37.599998474121</ele>
        <time>2020-10-22T07:41:18.000Z</time>
      </trkpt>
      <trkpt lat="47.23588" lon="-2.29309">
        <ele>37.599998474121</ele>
        <time>2020-10-22T07:41:24.000Z</time>
      </trkpt>
      <trkpt lat="47.23587" lon="-2.29281">
        <ele>37.200000762939</ele>
        <time>2020-10-22T07:41:27.000Z</time>
      </trkpt>
      <trkpt lat="47.23587" lon="-2.29273">
        <ele>36.799999237061</ele>
        <time>2020-10-22T07:41:28.000Z</time>
      </trkpt>
      <trkpt lat="47.23588" lon="-2.29265">
        <ele>36.400001525879</ele>
        <time>2020-10-22T07:41:29.000Z</time>
      </trkpt>
      <trkpt lat="47.23588" lon="-2.29257">
        <ele>36</ele>
        <time>2020-10-22T07:41:30.000Z</time>
      </trkpt>
      <trkpt lat="47.23588" lon="-2.29251">
        <ele>35.400001525879</ele>
        <time>2020-10-22T07:41:31.000Z</time>
      </trkpt>
      <trkpt lat="47.23591" lon="-2.29236">
        <ele>35.400001525879</ele>
        <time>2020-10-22T07:41:34.000Z</time>
      </trkpt>
      <trkpt lat="47.23596" lon="-2.29224">
        <ele>36</ele>
        <time>2020-10-22T07:41:37.000Z</time>
      </trkpt>
      <trkpt lat="47.23599" lon="-2.2922">
        <ele>36.400001525879</ele>
        <time>2020-10-22T07:41:38.000Z</time>
      </trkpt>
      <trkpt lat="47.23601" lon="-2.29216">
        <ele>37.200000762939</ele>
        <time>2020-10-22T07:41:39.000Z</time>
      </trkpt>
      <trkpt lat="47.23603" lon="-2.29211">
        <ele>37.799999237061</ele>
        <time>2020-10-22T07:41:40.000Z</time>
      </trkpt>
      <trkpt lat="47.23611" lon="-2.29207">
        <ele>37.799999237061</ele>
        <time>2020-10-22T07:41:42.000Z</time>
      </trkpt>
      <trkpt lat="47.23622" lon="-2.29206">
        <ele>37.799999237061</ele>
        <time>2020-10-22T07:41:44.000Z</time>
      </trkpt>
      <trkpt lat="47.23637" lon="-2.29202">
        <ele>37.799999237061</ele>
        <time>2020-10-22T07:41:47.000Z</time>
      </trkpt>
      <trkpt lat="47.23646" lon="-2.292">
        <ele>38.200000762939</ele>
        <time>2020-10-22T07:41:49.000Z</time>
      </trkpt>
      <trkpt lat="47.23651" lon="-2.29199">
        <ele>38.599998474121</ele>
        <time>2020-10-22T07:41:50.000Z</time>
      </trkpt>
      <trkpt lat="47.23655" lon="-2.29197">
        <ele>39</ele>
        <time>2020-10-22T07:41:51.000Z</time>
      </trkpt>
      <trkpt lat="47.23659" lon="-2.29196">
        <ele>39.400001525879</ele>
        <time>2020-10-22T07:41:52.000Z</time>
      </trkpt>
      <trkpt lat="47.23663" lon="-2.29194">
        <ele>39.799999237061</ele>
        <time>2020-10-22T07:41:53.000Z</time>
      </trkpt>
      <trkpt lat="47.23671" lon="-2.29189">
        <ele>39.799999237061</ele>
        <time>2020-10-22T07:41:55.000Z</time>
      </trkpt>
      <trkpt lat="47.23707" lon="-2.29179">
        <ele>40.599998474121</ele>
        <time>2020-10-22T07:42:03.000Z</time>
      </trkpt>
      <trkpt lat="47.23712" lon="-2.29178">
        <ele>41</ele>
        <time>2020-10-22T07:42:04.000Z</time>
      </trkpt>
      <trkpt lat="47.23716" lon="-2.29177">
        <ele>41.400001525879</ele>
        <time>2020-10-22T07:42:05.000Z</time>
      </trkpt>
      <trkpt lat="47.23721" lon="-2.29175">
        <ele>41.799999237061</ele>
        <time>2020-10-22T07:42:06.000Z</time>
      </trkpt>
      <trkpt lat="47.23738" lon="-2.29169">
        <ele>41.799999237061</ele>
        <time>2020-10-22T07:42:10.000Z</time>
      </trkpt>
      <trkpt lat="47.2376" lon="-2.29153">
        <ele>41.799999237061</ele>
        <time>2020-10-22T07:42:16.000Z</time>
      </trkpt>
      <trkpt lat="47.23775" lon="-2.29148">
        <ele>42.400001525879</ele>
        <time>2020-10-22T07:42:20.000Z</time>
      </trkpt>
      <trkpt lat="47.23778" lon="-2.29145">
        <ele>42.799999237061</ele>
        <time>2020-10-22T07:42:21.000Z</time>
      </trkpt>
      <trkpt lat="47.2378" lon="-2.29143">
        <ele>43.200000762939</ele>
        <time>2020-10-22T07:42:22.000Z</time>
      </trkpt>
      <trkpt lat="47.23783" lon="-2.29139">
        <ele>43.599998474121</ele>
        <time>2020-10-22T07:42:23.000Z</time>
      </trkpt>
      <trkpt lat="47.23785" lon="-2.29135">
        <ele>44</ele>
        <time>2020-10-22T07:42:24.000Z</time>
      </trkpt>
      <trkpt lat="47.23787" lon="-2.29129">
        <ele>44</ele>
        <time>2020-10-22T07:42:25.000Z</time>
      </trkpt>
      <trkpt lat="47.23788" lon="-2.29124">
        <ele>44</ele>
        <time>2020-10-22T07:42:26.000Z</time>
      </trkpt>
      <trkpt lat="47.23794" lon="-2.29086">
        <ele>44</ele>
        <time>2020-10-22T07:42:31.000Z</time>
      </trkpt>
      <trkpt lat="47.238" lon="-2.29036">
        <ele>44</ele>
        <time>2020-10-22T07:42:37.000Z</time>
      </trkpt>
      <trkpt lat="47.23807" lon="-2.2897">
        <ele>44</ele>
        <time>2020-10-22T07:42:44.000Z</time>
      </trkpt>
      <trkpt lat="47.23817" lon="-2.28917">
        <ele>44</ele>
        <time>2020-10-22T07:42:50.000Z</time>
      </trkpt>
      <trkpt lat="47.23823" lon="-2.28892">
        <ele>43</ele>
        <time>2020-10-22T07:42:53.000Z</time>
      </trkpt>
      <trkpt lat="47.23825" lon="-2.28885">
        <ele>42.599998474121</ele>
        <time>2020-10-22T07:42:54.000Z</time>
      </trkpt>
      <trkpt lat="47.23827" lon="-2.28877">
        <ele>42.200000762939</ele>
        <time>2020-10-22T07:42:55.000Z</time>
      </trkpt>
      <trkpt lat="47.23829" lon="-2.2887">
        <ele>41.599998474121</ele>
        <time>2020-10-22T07:42:56.000Z</time>
      </trkpt>
      <trkpt lat="47.23831" lon="-2.28864">
        <ele>41.599998474121</ele>
        <time>2020-10-22T07:42:57.000Z</time>
      </trkpt>
      <trkpt lat="47.23841" lon="-2.28817">
        <ele>41.599998474121</ele>
        <time>2020-10-22T07:43:04.000Z</time>
      </trkpt>
      <trkpt lat="47.23851" lon="-2.28773">
        <ele>41.599998474121</ele>
        <time>2020-10-22T07:43:11.000Z</time>
      </trkpt>
      <trkpt lat="47.23857" lon="-2.28741">
        <ele>41.599998474121</ele>
        <time>2020-10-22T07:43:16.000Z</time>
      </trkpt>
      <trkpt lat="47.23859" lon="-2.28728">
        <ele>41.599998474121</ele>
        <time>2020-10-22T07:43:18.000Z</time>
      </trkpt>
      <trkpt lat="47.23867" lon="-2.28675">
        <ele>41.599998474121</ele>
        <time>2020-10-22T07:43:26.000Z</time>
      </trkpt>
      <trkpt lat="47.23873" lon="-2.28626">
        <ele>41.599998474121</ele>
        <time>2020-10-22T07:43:33.000Z</time>
      </trkpt>
      <trkpt lat="47.23885" lon="-2.28575">
        <ele>41.599998474121</ele>
        <time>2020-10-22T07:43:40.000Z</time>
      </trkpt>
      <trkpt lat="47.239" lon="-2.28515">
        <ele>41.200000762939</ele>
        <time>2020-10-22T07:43:47.000Z</time>
      </trkpt>
      <trkpt lat="47.23901" lon="-2.28505">
        <ele>40.799999237061</ele>
        <time>2020-10-22T07:43:48.000Z</time>
      </trkpt>
      <trkpt lat="47.23903" lon="-2.28495">
        <ele>40.400001525879</ele>
        <time>2020-10-22T07:43:49.000Z</time>
      </trkpt>
      <trkpt lat="47.23905" lon="-2.28485">
        <ele>40</ele>
        <time>2020-10-22T07:43:50.000Z</time>
      </trkpt>
      <trkpt lat="47.23908" lon="-2.28474">
        <ele>39.400001525879</ele>
        <time>2020-10-22T07:43:51.000Z</time>
      </trkpt>
      <trkpt lat="47.23911" lon="-2.28464">
        <ele>39.400001525879</ele>
        <time>2020-10-22T07:43:52.000Z</time>
      </trkpt>
      <trkpt lat="47.2392" lon="-2.2843">
        <ele>39</ele>
        <time>2020-10-22T07:43:55.000Z</time>
      </trkpt>
      <trkpt lat="47.23923" lon="-2.28418">
        <ele>38.599998474121</ele>
        <time>2020-10-22T07:43:56.000Z</time>
      </trkpt>
      <trkpt lat="47.23926" lon="-2.28406">
        <ele>38.200000762939</ele>
        <time>2020-10-22T07:43:57.000Z</time>
      </trkpt>
      <trkpt lat="47.23929" lon="-2.28393">
        <ele>37.799999237061</ele>
        <time>2020-10-22T07:43:58.000Z</time>
      </trkpt>
      <trkpt lat="47.23932" lon="-2.2838">
        <ele>37.400001525879</ele>
        <time>2020-10-22T07:43:59.000Z</time>
      </trkpt>
      <trkpt lat="47.23935" lon="-2.28368">
        <ele>37</ele>
        <time>2020-10-22T07:44:00.000Z</time>
      </trkpt>
      <trkpt lat="47.23939" lon="-2.28354">
        <ele>36.400001525879</ele>
        <time>2020-10-22T07:44:01.000Z</time>
      </trkpt>
      <trkpt lat="47.23942" lon="-2.2834">
        <ele>35.799999237061</ele>
        <time>2020-10-22T07:44:02.000Z</time>
      </trkpt>
      <trkpt lat="47.23947" lon="-2.28327">
        <ele>35.200000762939</ele>
        <time>2020-10-22T07:44:03.000Z</time>
      </trkpt>
      <trkpt lat="47.23951" lon="-2.28314">
        <ele>34.400001525879</ele>
        <time>2020-10-22T07:44:04.000Z</time>
      </trkpt>
      <trkpt lat="47.23955" lon="-2.283">
        <ele>33.799999237061</ele>
        <time>2020-10-22T07:44:05.000Z</time>
      </trkpt>
      <trkpt lat="47.23958" lon="-2.28286">
        <ele>33</ele>
        <time>2020-10-22T07:44:06.000Z</time>
      </trkpt>
      <trkpt lat="47.2396" lon="-2.28272">
        <ele>31.799999237061</ele>
        <time>2020-10-22T07:44:07.000Z</time>
      </trkpt>
      <trkpt lat="47.23961" lon="-2.28257">
        <ele>31.200000762939</ele>
        <time>2020-10-22T07:44:08.000Z</time>
      </trkpt>
      <trkpt lat="47.23961" lon="-2.28242">
        <ele>30.39999961853</ele>
        <time>2020-10-22T07:44:09.000Z</time>
      </trkpt>
      <trkpt lat="47.23959" lon="-2.28227">
        <ele>29.799999237061</ele>
        <time>2020-10-22T07:44:10.000Z</time>
      </trkpt>
      <trkpt lat="47.23957" lon="-2.28214">
        <ele>29.200000762939</ele>
        <time>2020-10-22T07:44:11.000Z</time>
      </trkpt>
      <trkpt lat="47.23954" lon="-2.28202">
        <ele>28.60000038147</ele>
        <time>2020-10-22T07:44:12.000Z</time>
      </trkpt>
      <trkpt lat="47.23952" lon="-2.28189">
        <ele>27.799999237061</ele>
        <time>2020-10-22T07:44:13.000Z</time>
      </trkpt>
      <trkpt lat="47.23945" lon="-2.2815">
        <ele>27.39999961853</ele>
        <time>2020-10-22T07:44:16.000Z</time>
      </trkpt>
      <trkpt lat="47.23944" lon="-2.28136">
        <ele>27</ele>
        <time>2020-10-22T07:44:17.000Z</time>
      </trkpt>
      <trkpt lat="47.23943" lon="-2.28123">
        <ele>26.60000038147</ele>
        <time>2020-10-22T07:44:18.000Z</time>
      </trkpt>
      <trkpt lat="47.23942" lon="-2.28111">
        <ele>26</ele>
        <time>2020-10-22T07:44:19.000Z</time>
      </trkpt>
      <trkpt lat="47.23942" lon="-2.28098">
        <ele>25.60000038147</ele>
        <time>2020-10-22T07:44:20.000Z</time>
      </trkpt>
      <trkpt lat="47.23942" lon="-2.28086">
        <ele>25.60000038147</ele>
        <time>2020-10-22T07:44:21.000Z</time>
      </trkpt>
      <trkpt lat="47.23942" lon="-2.28073">
        <ele>25.200000762939</ele>
        <time>2020-10-22T07:44:22.000Z</time>
      </trkpt>
      <trkpt lat="47.23943" lon="-2.28061">
        <ele>24.799999237061</ele>
        <time>2020-10-22T07:44:23.000Z</time>
      </trkpt>
      <trkpt lat="47.23944" lon="-2.28049">
        <ele>24.200000762939</ele>
        <time>2020-10-22T07:44:24.000Z</time>
      </trkpt>
      <trkpt lat="47.23945" lon="-2.28036">
        <ele>23.799999237061</ele>
        <time>2020-10-22T07:44:25.000Z</time>
      </trkpt>
      <trkpt lat="47.23946" lon="-2.28024">
        <ele>23.39999961853</ele>
        <time>2020-10-22T07:44:26.000Z</time>
      </trkpt>
      <trkpt lat="47.23951" lon="-2.27986">
        <ele>23.39999961853</ele>
        <time>2020-10-22T07:44:29.000Z</time>
      </trkpt>
      <trkpt lat="47.23957" lon="-2.27962">
        <ele>23.39999961853</ele>
        <time>2020-10-22T07:44:31.000Z</time>
      </trkpt>
      <trkpt lat="47.23972" lon="-2.27919">
        <ele>23</ele>
        <time>2020-10-22T07:44:35.000Z</time>
      </trkpt>
      <trkpt lat="47.23976" lon="-2.2791">
        <ele>22.60000038147</ele>
        <time>2020-10-22T07:44:36.000Z</time>
      </trkpt>
      <trkpt lat="47.23979" lon="-2.279">
        <ele>22.200000762939</ele>
        <time>2020-10-22T07:44:37.000Z</time>
      </trkpt>
      <trkpt lat="47.23983" lon="-2.27891">
        <ele>21.60000038147</ele>
        <time>2020-10-22T07:44:38.000Z</time>
      </trkpt>
      <trkpt lat="47.23986" lon="-2.27882">
        <ele>21.200000762939</ele>
        <time>2020-10-22T07:44:39.000Z</time>
      </trkpt>
      <trkpt lat="47.2399" lon="-2.27875">
        <ele>21.200000762939</ele>
        <time>2020-10-22T07:44:40.000Z</time>
      </trkpt>
      <trkpt lat="47.23994" lon="-2.27869">
        <ele>21.200000762939</ele>
        <time>2020-10-22T07:44:41.000Z</time>
      </trkpt>
      <trkpt lat="47.24003" lon="-2.27855">
        <ele>21.200000762939</ele>
        <time>2020-10-22T07:44:44.000Z</time>
      </trkpt>
      <trkpt lat="47.24003" lon="-2.2784">
        <ele>21.200000762939</ele>
        <time>2020-10-22T07:44:47.000Z</time>
      </trkpt>
      <trkpt lat="47.24003" lon="-2.27836">
        <ele>21.200000762939</ele>
        <time>2020-10-22T07:44:48.000Z</time>
      </trkpt>
      <trkpt lat="47.24002" lon="-2.27823">
        <ele>21.200000762939</ele>
        <time>2020-10-22T07:44:53.000Z</time>
      </trkpt>
      <trkpt lat="47.24002" lon="-2.2782">
        <ele>21.200000762939</ele>
        <time>2020-10-22T07:44:55.000Z</time>
      </trkpt>
      <trkpt lat="47.24" lon="-2.27816">
        <ele>21.200000762939</ele>
        <time>2020-10-22T07:44:59.000Z</time>
      </trkpt>
      <trkpt lat="47.24" lon="-2.27809">
        <ele>21.200000762939</ele>
        <time>2020-10-22T07:45:03.000Z</time>
      </trkpt>
      <trkpt lat="47.23999" lon="-2.27807">
        <ele>21.200000762939</ele>
        <time>2020-10-22T07:45:04.000Z</time>
      </trkpt>
      <trkpt lat="47.23998" lon="-2.27806">
        <ele>21.200000762939</ele>
        <time>2020-10-22T07:45:05.000Z</time>
      </trkpt>
      <trkpt lat="47.2399" lon="-2.27808">
        <ele>21.200000762939</ele>
        <time>2020-10-22T07:45:10.000Z</time>
      </trkpt>
      <trkpt lat="47.23985" lon="-2.27803">
        <ele>21.200000762939</ele>
        <time>2020-10-22T07:45:14.000Z</time>
      </trkpt>
      <trkpt lat="47.23985" lon="-2.27797">
        <ele>21.200000762939</ele>
        <time>2020-10-22T07:45:16.000Z</time>
      </trkpt>
      <trkpt lat="47.23985" lon="-2.27794">
        <ele>21.60000038147</ele>
        <time>2020-10-22T07:45:17.000Z</time>
      </trkpt>
      <trkpt lat="47.23984" lon="-2.27791">
        <ele>22.200000762939</ele>
        <time>2020-10-22T07:45:18.000Z</time>
      </trkpt>
      <trkpt lat="47.23983" lon="-2.27788">
        <ele>22.60000038147</ele>
        <time>2020-10-22T07:45:19.000Z</time>
      </trkpt>
      <trkpt lat="47.23982" lon="-2.27784">
        <ele>23</ele>
        <time>2020-10-22T07:45:20.000Z</time>
      </trkpt>
      <trkpt lat="47.23981" lon="-2.27781">
        <ele>23.39999961853</ele>
        <time>2020-10-22T07:45:21.000Z</time>
      </trkpt>
      <trkpt lat="47.2398" lon="-2.27775">
        <ele>23.799999237061</ele>
        <time>2020-10-22T07:45:23.000Z</time>
      </trkpt>
      <trkpt lat="47.23979" lon="-2.27772">
        <ele>24.200000762939</ele>
        <time>2020-10-22T07:45:24.000Z</time>
      </trkpt>
      <trkpt lat="47.23978" lon="-2.27769">
        <ele>24.60000038147</ele>
        <time>2020-10-22T07:45:25.000Z</time>
      </trkpt>
      <trkpt lat="47.23978" lon="-2.27767">
        <ele>25</ele>
        <time>2020-10-22T07:45:26.000Z</time>
      </trkpt>
      <trkpt lat="47.23977" lon="-2.27764">
        <ele>25.39999961853</ele>
        <time>2020-10-22T07:45:27.000Z</time>
      </trkpt>
      <trkpt lat="47.23977" lon="-2.27759">
        <ele>25.799999237061</ele>
        <time>2020-10-22T07:45:29.000Z</time>
      </trkpt>
      <trkpt lat="47.23976" lon="-2.27756">
        <ele>26.200000762939</ele>
        <time>2020-10-22T07:45:30.000Z</time>
      </trkpt>
      <trkpt lat="47.23976" lon="-2.27754">
        <ele>26.60000038147</ele>
        <time>2020-10-22T07:45:31.000Z</time>
      </trkpt>
      <trkpt lat="47.23975" lon="-2.27752">
        <ele>27</ele>
        <time>2020-10-22T07:45:32.000Z</time>
      </trkpt>
      <trkpt lat="47.23975" lon="-2.27749">
        <ele>27.39999961853</ele>
        <time>2020-10-22T07:45:33.000Z</time>
      </trkpt>
      <trkpt lat="47.23973" lon="-2.2774">
        <ele>27.799999237061</ele>
        <time>2020-10-22T07:45:37.000Z</time>
      </trkpt>
      <trkpt lat="47.23973" lon="-2.27738">
        <ele>28.39999961853</ele>
        <time>2020-10-22T07:45:38.000Z</time>
      </trkpt>
      <trkpt lat="47.23972" lon="-2.27736">
        <ele>28.799999237061</ele>
        <time>2020-10-22T07:45:39.000Z</time>
      </trkpt>
      <trkpt lat="47.23972" lon="-2.27734">
        <ele>29.200000762939</ele>
        <time>2020-10-22T07:45:40.000Z</time>
      </trkpt>
      <trkpt lat="47.23972" lon="-2.27733">
        <ele>29.60000038147</ele>
        <time>2020-10-22T07:45:41.000Z</time>
      </trkpt>
      <trkpt lat="47.2397" lon="-2.27727">
        <ele>30</ele>
        <time>2020-10-22T07:45:45.000Z</time>
      </trkpt>
      <trkpt lat="47.2397" lon="-2.27726">
        <ele>30.39999961853</ele>
        <time>2020-10-22T07:45:46.000Z</time>
      </trkpt>
      <trkpt lat="47.2397" lon="-2.27725">
        <ele>30.799999237061</ele>
        <time>2020-10-22T07:45:47.000Z</time>
      </trkpt>
      <trkpt lat="47.23964" lon="-2.27708">
        <ele>33.599998474121</ele>
        <time>2020-10-22T07:46:34.000Z</time>
      </trkpt>
      <trkpt lat="47.23955" lon="-2.27713">
        <ele>33.599998474121</ele>
        <time>2020-10-22T07:46:38.000Z</time>
      </trkpt>
      <trkpt lat="47.23952" lon="-2.27714">
        <ele>33.599998474121</ele>
        <time>2020-10-22T07:46:39.000Z</time>
      </trkpt>
      <trkpt lat="47.23936" lon="-2.27724">
        <ele>33.599998474121</ele>
        <time>2020-10-22T07:46:44.000Z</time>
      </trkpt>
      <trkpt lat="47.23915" lon="-2.27734">
        <ele>33.599998474121</ele>
        <time>2020-10-22T07:46:51.000Z</time>
      </trkpt>
      <trkpt lat="47.23896" lon="-2.27744">
        <ele>34.200000762939</ele>
        <time>2020-10-22T07:46:57.000Z</time>
      </trkpt>
      <trkpt lat="47.23893" lon="-2.27745">
        <ele>34.599998474121</ele>
        <time>2020-10-22T07:46:58.000Z</time>
      </trkpt>
      <trkpt lat="47.2389" lon="-2.27746">
        <ele>35</ele>
        <time>2020-10-22T07:46:59.000Z</time>
      </trkpt>
      <trkpt lat="47.23886" lon="-2.27747">
        <ele>35.799999237061</ele>
        <time>2020-10-22T07:47:00.000Z</time>
      </trkpt>
      <trkpt lat="47.23866" lon="-2.27753">
        <ele>35.799999237061</ele>
        <time>2020-10-22T07:47:07.000Z</time>
      </trkpt>
      <trkpt lat="47.23849" lon="-2.27757">
        <ele>35.799999237061</ele>
        <time>2020-10-22T07:47:13.000Z</time>
      </trkpt>
      <trkpt lat="47.23844" lon="-2.27762">
        <ele>35.799999237061</ele>
        <time>2020-10-22T07:47:20.000Z</time>
      </trkpt>
      <trkpt lat="47.23842" lon="-2.27763">
        <ele>35.799999237061</ele>
        <time>2020-10-22T07:47:21.000Z</time>
      </trkpt>
      <trkpt lat="47.23836" lon="-2.27766">
        <ele>35.799999237061</ele>
        <time>2020-10-22T07:47:24.000Z</time>
      </trkpt>
      <trkpt lat="47.23818" lon="-2.27775">
        <ele>35.799999237061</ele>
        <time>2020-10-22T07:47:30.000Z</time>
      </trkpt>
      <trkpt lat="47.23802" lon="-2.27781">
        <ele>35.799999237061</ele>
        <time>2020-10-22T07:47:36.000Z</time>
      </trkpt>
      <trkpt lat="47.23795" lon="-2.27785">
        <ele>35.799999237061</ele>
        <time>2020-10-22T07:47:42.000Z</time>
      </trkpt>
      <trkpt lat="47.23792" lon="-2.27786">
        <ele>35.400001525879</ele>
        <time>2020-10-22T07:47:44.000Z</time>
      </trkpt>
      <trkpt lat="47.23791" lon="-2.27786">
        <ele>34.799999237061</ele>
        <time>2020-10-22T07:47:45.000Z</time>
      </trkpt>
      <trkpt lat="47.2379" lon="-2.27786">
        <ele>34.400001525879</ele>
        <time>2020-10-22T07:47:46.000Z</time>
      </trkpt>
      <trkpt lat="47.23789" lon="-2.27786">
        <ele>34</ele>
        <time>2020-10-22T07:47:47.000Z</time>
      </trkpt>
      <trkpt lat="47.23789" lon="-2.27785">
        <ele>33.599998474121</ele>
        <time>2020-10-22T07:47:48.000Z</time>
      </trkpt>
      <trkpt lat="47.2378" lon="-2.27769">
        <ele>33.599998474121</ele>
        <time>2020-10-22T07:48:44.000Z</time>
      </trkpt>
      <trkpt lat="47.23781" lon="-2.27765">
        <ele>33.599998474121</ele>
        <time>2020-10-22T07:48:47.000Z</time>
      </trkpt>
      <trkpt lat="47.23784" lon="-2.2776">
        <ele>33.599998474121</ele>
        <time>2020-10-22T07:48:51.000Z</time>
      </trkpt>
      <trkpt lat="47.23784" lon="-2.27756">
        <ele>33.599998474121</ele>
        <time>2020-10-22T07:48:53.000Z</time>
      </trkpt>
      <trkpt lat="47.2378" lon="-2.27745">
        <ele>33.599998474121</ele>
        <time>2020-10-22T07:49:00.000Z</time>
      </trkpt>
      <trkpt lat="47.23779" lon="-2.27743">
        <ele>34</ele>
        <time>2020-10-22T07:49:02.000Z</time>
      </trkpt>
      <trkpt lat="47.23777" lon="-2.27737">
        <ele>35.599998474121</ele>
        <time>2020-10-22T07:49:06.000Z</time>
      </trkpt>
      <trkpt lat="47.23776" lon="-2.27734">
        <ele>35.599998474121</ele>
        <time>2020-10-22T07:49:07.000Z</time>
      </trkpt>
      <trkpt lat="47.23777" lon="-2.27718">
        <ele>35.599998474121</ele>
        <time>2020-10-22T07:49:11.000Z</time>
      </trkpt>
      <trkpt lat="47.2378" lon="-2.27708">
        <ele>35.599998474121</ele>
        <time>2020-10-22T07:49:14.000Z</time>
      </trkpt>
      <trkpt lat="47.23782" lon="-2.27706">
        <ele>35.599998474121</ele>
        <time>2020-10-22T07:49:15.000Z</time>
      </trkpt>
      <trkpt lat="47.2379" lon="-2.27684">
        <ele>35.599998474121</ele>
        <time>2020-10-22T07:49:21.000Z</time>
      </trkpt>
      <trkpt lat="47.23792" lon="-2.27678">
        <ele>35.599998474121</ele>
        <time>2020-10-22T07:49:22.000Z</time>
      </trkpt>
      <trkpt lat="47.238" lon="-2.27662">
        <ele>35.599998474121</ele>
        <time>2020-10-22T07:49:25.000Z</time>
      </trkpt>
      <trkpt lat="47.23806" lon="-2.27657">
        <ele>35.599998474121</ele>
        <time>2020-10-22T07:49:29.000Z</time>
      </trkpt>
      <trkpt lat="47.23808" lon="-2.27657">
        <ele>35.599998474121</ele>
        <time>2020-10-22T07:49:30.000Z</time>
      </trkpt>
      <trkpt lat="47.23813" lon="-2.2766">
        <ele>35.599998474121</ele>
        <time>2020-10-22T07:49:33.000Z</time>
      </trkpt>
      <trkpt lat="47.23813" lon="-2.27662">
        <ele>35.599998474121</ele>
        <time>2020-10-22T07:49:34.000Z</time>
      </trkpt>
      <trkpt lat="47.23813" lon="-2.27668">
        <ele>35.599998474121</ele>
        <time>2020-10-22T07:49:38.000Z</time>
      </trkpt>
      <trkpt lat="47.23811" lon="-2.27679">
        <ele>36</ele>
        <time>2020-10-22T07:49:44.000Z</time>
      </trkpt>
      <trkpt lat="47.2381" lon="-2.2768">
        <ele>36.400001525879</ele>
        <time>2020-10-22T07:49:45.000Z</time>
      </trkpt>
      <trkpt lat="47.2381" lon="-2.27681">
        <ele>37</ele>
        <time>2020-10-22T07:49:46.000Z</time>
      </trkpt>
      <trkpt lat="47.23807" lon="-2.27679">
        <ele>37.799999237061</ele>
        <time>2020-10-22T07:49:56.000Z</time>
      </trkpt>
      <trkpt lat="47.23803" lon="-2.27671">
        <ele>37.799999237061</ele>
        <time>2020-10-22T07:49:59.000Z</time>
      </trkpt>
      <trkpt lat="47.23803" lon="-2.27664">
        <ele>37.200000762939</ele>
        <time>2020-10-22T07:50:01.000Z</time>
      </trkpt>
      <trkpt lat="47.23804" lon="-2.27662">
        <ele>36.799999237061</ele>
        <time>2020-10-22T07:50:02.000Z</time>
      </trkpt>
      <trkpt lat="47.23805" lon="-2.2766">
        <ele>36.400001525879</ele>
        <time>2020-10-22T07:50:03.000Z</time>
      </trkpt>
      <trkpt lat="47.23806" lon="-2.27659">
        <ele>35.799999237061</ele>
        <time>2020-10-22T07:50:04.000Z</time>
      </trkpt>
      <trkpt lat="47.23807" lon="-2.27658">
        <ele>35.400001525879</ele>
        <time>2020-10-22T07:50:05.000Z</time>
      </trkpt>
      <trkpt lat="47.23811" lon="-2.27655">
        <ele>35.400001525879</ele>
        <time>2020-10-22T07:50:08.000Z</time>
      </trkpt>
      <trkpt lat="47.23812" lon="-2.27655">
        <ele>35.400001525879</ele>
        <time>2020-10-22T07:50:09.000Z</time>
      </trkpt>
      <trkpt lat="47.23815" lon="-2.27655">
        <ele>35.400001525879</ele>
        <time>2020-10-22T07:50:12.000Z</time>
      </trkpt>
      <trkpt lat="47.23817" lon="-2.27654">
        <ele>35.400001525879</ele>
        <time>2020-10-22T07:50:13.000Z</time>
      </trkpt>
      <trkpt lat="47.23823" lon="-2.27652">
        <ele>35.400001525879</ele>
        <time>2020-10-22T07:50:16.000Z</time>
      </trkpt>
      <trkpt lat="47.23827" lon="-2.27651">
        <ele>35.400001525879</ele>
        <time>2020-10-22T07:50:19.000Z</time>
      </trkpt>
      <trkpt lat="47.23838" lon="-2.27646">
        <ele>35.400001525879</ele>
        <time>2020-10-22T07:50:25.000Z</time>
      </trkpt>
      <trkpt lat="47.23852" lon="-2.2764">
        <ele>35.400001525879</ele>
        <time>2020-10-22T07:50:32.000Z</time>
      </trkpt>
      <trkpt lat="47.23867" lon="-2.27634">
        <ele>35.400001525879</ele>
        <time>2020-10-22T07:50:40.000Z</time>
      </trkpt>
      <trkpt lat="47.23877" lon="-2.27627">
        <ele>35.400001525879</ele>
        <time>2020-10-22T07:50:46.000Z</time>
      </trkpt>
      <trkpt lat="47.23878" lon="-2.27627">
        <ele>35.400001525879</ele>
        <time>2020-10-22T07:50:47.000Z</time>
      </trkpt>
      <trkpt lat="47.23887" lon="-2.27628">
        <ele>35.400001525879</ele>
        <time>2020-10-22T07:50:51.000Z</time>
      </trkpt>
      <trkpt lat="47.23894" lon="-2.27628">
        <ele>35.799999237061</ele>
        <time>2020-10-22T07:50:54.000Z</time>
      </trkpt>
      <trkpt lat="47.23896" lon="-2.27628">
        <ele>36.200000762939</ele>
        <time>2020-10-22T07:50:55.000Z</time>
      </trkpt>
      <trkpt lat="47.23899" lon="-2.27629">
        <ele>36.599998474121</ele>
        <time>2020-10-22T07:50:56.000Z</time>
      </trkpt>
      <trkpt lat="47.23901" lon="-2.27629">
        <ele>37</ele>
        <time>2020-10-22T07:50:57.000Z</time>
      </trkpt>
      <trkpt lat="47.23903" lon="-2.27629">
        <ele>37.400001525879</ele>
        <time>2020-10-22T07:50:58.000Z</time>
      </trkpt>
      <trkpt lat="47.23908" lon="-2.2763">
        <ele>37.400001525879</ele>
        <time>2020-10-22T07:51:00.000Z</time>
      </trkpt>
      <trkpt lat="47.23921" lon="-2.27642">
        <ele>37.400001525879</ele>
        <time>2020-10-22T07:51:06.000Z</time>
      </trkpt>
      <trkpt lat="47.23932" lon="-2.27653">
        <ele>37.400001525879</ele>
        <time>2020-10-22T07:51:12.000Z</time>
      </trkpt>
      <trkpt lat="47.23944" lon="-2.27662">
        <ele>37.400001525879</ele>
        <time>2020-10-22T07:51:17.000Z</time>
      </trkpt>
      <trkpt lat="47.23948" lon="-2.27661">
        <ele>37.400001525879</ele>
        <time>2020-10-22T07:51:21.000Z</time>
      </trkpt>
      <trkpt lat="47.2395" lon="-2.27662">
        <ele>37.400001525879</ele>
        <time>2020-10-22T07:52:06.000Z</time>
      </trkpt>
      <trkpt lat="47.23955" lon="-2.27665">
        <ele>37.400001525879</ele>
        <time>2020-10-22T07:52:09.000Z</time>
      </trkpt>
      <trkpt lat="47.2397" lon="-2.27671">
        <ele>37.400001525879</ele>
        <time>2020-10-22T07:52:14.000Z</time>
      </trkpt>
      <trkpt lat="47.23978" lon="-2.27674">
        <ele>37.400001525879</ele>
        <time>2020-10-22T07:52:18.000Z</time>
      </trkpt>
      <trkpt lat="47.23983" lon="-2.27672">
        <ele>37.400001525879</ele>
        <time>2020-10-22T07:52:24.000Z</time>
      </trkpt>
      <trkpt lat="47.23984" lon="-2.27672">
        <ele>37.400001525879</ele>
        <time>2020-10-22T07:52:26.000Z</time>
      </trkpt>
      <trkpt lat="47.23988" lon="-2.27668">
        <ele>37.400001525879</ele>
        <time>2020-10-22T07:52:54.000Z</time>
      </trkpt>
      <trkpt lat="47.23993" lon="-2.27663">
        <ele>37.400001525879</ele>
        <time>2020-10-22T07:52:57.000Z</time>
      </trkpt>
      <trkpt lat="47.2401" lon="-2.27654">
        <ele>37.400001525879</ele>
        <time>2020-10-22T07:53:03.000Z</time>
      </trkpt>
      <trkpt lat="47.24018" lon="-2.27652">
        <ele>37.400001525879</ele>
        <time>2020-10-22T07:53:05.000Z</time>
      </trkpt>
      <trkpt lat="47.24031" lon="-2.27649">
        <ele>37</ele>
        <time>2020-10-22T07:53:08.000Z</time>
      </trkpt>
      <trkpt lat="47.24036" lon="-2.27648">
        <ele>36.599998474121</ele>
        <time>2020-10-22T07:53:09.000Z</time>
      </trkpt>
      <trkpt lat="47.2404" lon="-2.27646">
        <ele>35.799999237061</ele>
        <time>2020-10-22T07:53:10.000Z</time>
      </trkpt>
      <trkpt lat="47.24042" lon="-2.27642">
        <ele>35.400001525879</ele>
        <time>2020-10-22T07:53:11.000Z</time>
      </trkpt>
      <trkpt lat="47.24043" lon="-2.27638">
        <ele>35.400001525879</ele>
        <time>2020-10-22T07:53:12.000Z</time>
      </trkpt>
      <trkpt lat="47.24039" lon="-2.27625">
        <ele>35.400001525879</ele>
        <time>2020-10-22T07:53:15.000Z</time>
      </trkpt>
      <trkpt lat="47.24038" lon="-2.2762">
        <ele>35.400001525879</ele>
        <time>2020-10-22T07:53:16.000Z</time>
      </trkpt>
      <trkpt lat="47.24033" lon="-2.27594">
        <ele>35.400001525879</ele>
        <time>2020-10-22T07:53:21.000Z</time>
      </trkpt>
      <trkpt lat="47.24033" lon="-2.27571">
        <ele>35.400001525879</ele>
        <time>2020-10-22T07:53:25.000Z</time>
      </trkpt>
      <trkpt lat="47.24034" lon="-2.27565">
        <ele>35.400001525879</ele>
        <time>2020-10-22T07:53:26.000Z</time>
      </trkpt>
      <trkpt lat="47.24037" lon="-2.27547">
        <ele>35.400001525879</ele>
        <time>2020-10-22T07:53:29.000Z</time>
      </trkpt>
      <trkpt lat="47.24038" lon="-2.2753">
        <ele>35.400001525879</ele>
        <time>2020-10-22T07:53:32.000Z</time>
      </trkpt>
      <trkpt lat="47.24043" lon="-2.27492">
        <ele>35.400001525879</ele>
        <time>2020-10-22T07:53:38.000Z</time>
      </trkpt>
      <trkpt lat="47.24045" lon="-2.27484">
        <ele>35.799999237061</ele>
        <time>2020-10-22T07:53:39.000Z</time>
      </trkpt>
      <trkpt lat="47.24046" lon="-2.27477">
        <ele>36.200000762939</ele>
        <time>2020-10-22T07:53:40.000Z</time>
      </trkpt>
      <trkpt lat="47.24049" lon="-2.2747">
        <ele>36.599998474121</ele>
        <time>2020-10-22T07:53:41.000Z</time>
      </trkpt>
      <trkpt lat="47.24051" lon="-2.27463">
        <ele>37</ele>
        <time>2020-10-22T07:53:42.000Z</time>
      </trkpt>
      <trkpt lat="47.24054" lon="-2.27455">
        <ele>37.400001525879</ele>
        <time>2020-10-22T07:53:43.000Z</time>
      </trkpt>
      <trkpt lat="47.24061" lon="-2.27441">
        <ele>37.400001525879</ele>
        <time>2020-10-22T07:53:45.000Z</time>
      </trkpt>
      <trkpt lat="47.2407" lon="-2.27427">
        <ele>37</ele>
        <time>2020-10-22T07:53:47.000Z</time>
      </trkpt>
      <trkpt lat="47.24074" lon="-2.27422">
        <ele>36.599998474121</ele>
        <time>2020-10-22T07:53:48.000Z</time>
      </trkpt>
      <trkpt lat="47.24077" lon="-2.27417">
        <ele>36.200000762939</ele>
        <time>2020-10-22T07:53:49.000Z</time>
      </trkpt>
      <trkpt lat="47.24081" lon="-2.27412">
        <ele>35.799999237061</ele>
        <time>2020-10-22T07:53:50.000Z</time>
      </trkpt>
      <trkpt lat="47.24084" lon="-2.27406">
        <ele>35.400001525879</ele>
        <time>2020-10-22T07:53:51.000Z</time>
      </trkpt>
      <trkpt lat="47.24087" lon="-2.27399">
        <ele>35</ele>
        <time>2020-10-22T07:53:52.000Z</time>
      </trkpt>
      <trkpt lat="47.24089" lon="-2.27392">
        <ele>34.400001525879</ele>
        <time>2020-10-22T07:53:53.000Z</time>
      </trkpt>
      <trkpt lat="47.24091" lon="-2.27384">
        <ele>34</ele>
        <time>2020-10-22T07:53:54.000Z</time>
      </trkpt>
      <trkpt lat="47.24093" lon="-2.27376">
        <ele>33.599998474121</ele>
        <time>2020-10-22T07:53:55.000Z</time>
      </trkpt>
      <trkpt lat="47.24094" lon="-2.27368">
        <ele>33.200000762939</ele>
        <time>2020-10-22T07:53:56.000Z</time>
      </trkpt>
      <trkpt lat="47.24096" lon="-2.27333">
        <ele>32.400001525879</ele>
        <time>2020-10-22T07:54:00.000Z</time>
      </trkpt>
      <trkpt lat="47.24096" lon="-2.27324">
        <ele>32</ele>
        <time>2020-10-22T07:54:01.000Z</time>
      </trkpt>
      <trkpt lat="47.24096" lon="-2.27315">
        <ele>31.60000038147</ele>
        <time>2020-10-22T07:54:02.000Z</time>
      </trkpt>
      <trkpt lat="47.24096" lon="-2.27306">
        <ele>31.200000762939</ele>
        <time>2020-10-22T07:54:03.000Z</time>
      </trkpt>
      <trkpt lat="47.24097" lon="-2.27267">
        <ele>31.200000762939</ele>
        <time>2020-10-22T07:54:08.000Z</time>
      </trkpt>
      <trkpt lat="47.24097" lon="-2.27252">
        <ele>31.200000762939</ele>
        <time>2020-10-22T07:54:10.000Z</time>
      </trkpt>
      <trkpt lat="47.24097" lon="-2.27245">
        <ele>31.60000038147</ele>
        <time>2020-10-22T07:54:11.000Z</time>
      </trkpt>
      <trkpt lat="47.24096" lon="-2.27237">
        <ele>32</ele>
        <time>2020-10-22T07:54:12.000Z</time>
      </trkpt>
      <trkpt lat="47.24097" lon="-2.2723">
        <ele>32.400001525879</ele>
        <time>2020-10-22T07:54:13.000Z</time>
      </trkpt>
      <trkpt lat="47.24097" lon="-2.27222">
        <ele>32.799999237061</ele>
        <time>2020-10-22T07:54:14.000Z</time>
      </trkpt>
      <trkpt lat="47.24098" lon="-2.27215">
        <ele>33.200000762939</ele>
        <time>2020-10-22T07:54:15.000Z</time>
      </trkpt>
      <trkpt lat="47.24099" lon="-2.27193">
        <ele>33.599998474121</ele>
        <time>2020-10-22T07:54:18.000Z</time>
      </trkpt>
      <trkpt lat="47.24099" lon="-2.27186">
        <ele>34</ele>
        <time>2020-10-22T07:54:19.000Z</time>
      </trkpt>
      <trkpt lat="47.24099" lon="-2.27179">
        <ele>34.400001525879</ele>
        <time>2020-10-22T07:54:20.000Z</time>
      </trkpt>
      <trkpt lat="47.241" lon="-2.27172">
        <ele>34.799999237061</ele>
        <time>2020-10-22T07:54:21.000Z</time>
      </trkpt>
      <trkpt lat="47.241" lon="-2.27166">
        <ele>35.200000762939</ele>
        <time>2020-10-22T07:54:22.000Z</time>
      </trkpt>
      <trkpt lat="47.241" lon="-2.27152">
        <ele>35.200000762939</ele>
        <time>2020-10-22T07:54:24.000Z</time>
      </trkpt>
      <trkpt lat="47.241" lon="-2.2713">
        <ele>35.200000762939</ele>
        <time>2020-10-22T07:54:27.000Z</time>
      </trkpt>
      <trkpt lat="47.241" lon="-2.27064">
        <ele>35.200000762939</ele>
        <time>2020-10-22T07:54:35.000Z</time>
      </trkpt>
      <trkpt lat="47.24101" lon="-2.26994">
        <ele>35.200000762939</ele>
        <time>2020-10-22T07:54:43.000Z</time>
      </trkpt>
      <trkpt lat="47.241" lon="-2.2696">
        <ele>35.200000762939</ele>
        <time>2020-10-22T07:54:48.000Z</time>
      </trkpt>
      <trkpt lat="47.241" lon="-2.26947">
        <ele>35.200000762939</ele>
        <time>2020-10-22T07:54:50.000Z</time>
      </trkpt>
      <trkpt lat="47.241" lon="-2.26928">
        <ele>35.599998474121</ele>
        <time>2020-10-22T07:54:53.000Z</time>
      </trkpt>
      <trkpt lat="47.241" lon="-2.26921">
        <ele>36.200000762939</ele>
        <time>2020-10-22T07:54:54.000Z</time>
      </trkpt>
      <trkpt lat="47.241" lon="-2.26916">
        <ele>36.599998474121</ele>
        <time>2020-10-22T07:54:55.000Z</time>
      </trkpt>
      <trkpt lat="47.241" lon="-2.26909">
        <ele>37</ele>
        <time>2020-10-22T07:54:56.000Z</time>
      </trkpt>
      <trkpt lat="47.241" lon="-2.26903">
        <ele>37.400001525879</ele>
        <time>2020-10-22T07:54:57.000Z</time>
      </trkpt>
      <trkpt lat="47.241" lon="-2.26876">
        <ele>37.799999237061</ele>
        <time>2020-10-22T07:55:02.000Z</time>
      </trkpt>
      <trkpt lat="47.24101" lon="-2.26871">
        <ele>38.200000762939</ele>
        <time>2020-10-22T07:55:03.000Z</time>
      </trkpt>
      <trkpt lat="47.24101" lon="-2.26867">
        <ele>38.599998474121</ele>
        <time>2020-10-22T07:55:04.000Z</time>
      </trkpt>
      <trkpt lat="47.24101" lon="-2.26863">
        <ele>39.200000762939</ele>
        <time>2020-10-22T07:55:05.000Z</time>
      </trkpt>
      <trkpt lat="47.24102" lon="-2.26859">
        <ele>39.599998474121</ele>
        <time>2020-10-22T07:55:06.000Z</time>
      </trkpt>
      <trkpt lat="47.24102" lon="-2.26844">
        <ele>39.599998474121</ele>
        <time>2020-10-22T07:55:11.000Z</time>
      </trkpt>
      <trkpt lat="47.24097" lon="-2.26837">
        <ele>39.599998474121</ele>
        <time>2020-10-22T07:55:15.000Z</time>
      </trkpt>
      <trkpt lat="47.24095" lon="-2.26836">
        <ele>39.599998474121</ele>
        <time>2020-10-22T07:55:16.000Z</time>
      </trkpt>
      <trkpt lat="47.24088" lon="-2.26838">
        <ele>40</ele>
        <time>2020-10-22T07:55:18.000Z</time>
      </trkpt>
      <trkpt lat="47.24085" lon="-2.26839">
        <ele>40.400001525879</ele>
        <time>2020-10-22T07:55:19.000Z</time>
      </trkpt>
      <trkpt lat="47.24081" lon="-2.26839">
        <ele>40.799999237061</ele>
        <time>2020-10-22T07:55:20.000Z</time>
      </trkpt>
      <trkpt lat="47.24078" lon="-2.2684">
        <ele>41.200000762939</ele>
        <time>2020-10-22T07:55:21.000Z</time>
      </trkpt>
      <trkpt lat="47.24074" lon="-2.2684">
        <ele>41.599998474121</ele>
        <time>2020-10-22T07:55:22.000Z</time>
      </trkpt>
      <trkpt lat="47.2406" lon="-2.26847">
        <ele>41.599998474121</ele>
        <time>2020-10-22T07:55:27.000Z</time>
      </trkpt>
      <trkpt lat="47.24058" lon="-2.26863">
        <ele>41.599998474121</ele>
        <time>2020-10-22T07:55:31.000Z</time>
      </trkpt>
      <trkpt lat="47.24054" lon="-2.26881">
        <ele>41.599998474121</ele>
        <time>2020-10-22T07:55:37.000Z</time>
      </trkpt>
      <trkpt lat="47.24054" lon="-2.26893">
        <ele>41.599998474121</ele>
        <time>2020-10-22T07:55:39.000Z</time>
      </trkpt>
      <trkpt lat="47.24053" lon="-2.26899">
        <ele>41.599998474121</ele>
        <time>2020-10-22T07:55:40.000Z</time>
      </trkpt>
      <trkpt lat="47.24049" lon="-2.26919">
        <ele>41.200000762939</ele>
        <time>2020-10-22T07:55:43.000Z</time>
      </trkpt>
      <trkpt lat="47.24048" lon="-2.26925">
        <ele>40.799999237061</ele>
        <time>2020-10-22T07:55:44.000Z</time>
      </trkpt>
      <trkpt lat="47.24047" lon="-2.26933">
        <ele>40.200000762939</ele>
        <time>2020-10-22T07:55:45.000Z</time>
      </trkpt>
      <trkpt lat="47.24047" lon="-2.2694">
        <ele>39.799999237061</ele>
        <time>2020-10-22T07:55:46.000Z</time>
      </trkpt>
      <trkpt lat="47.24047" lon="-2.26946">
        <ele>39.400001525879</ele>
        <time>2020-10-22T07:55:47.000Z</time>
      </trkpt>
      <trkpt lat="47.24048" lon="-2.26953">
        <ele>39</ele>
        <time>2020-10-22T07:55:48.000Z</time>
      </trkpt>
      <trkpt lat="47.24047" lon="-2.26961">
        <ele>38.599998474121</ele>
        <time>2020-10-22T07:55:49.000Z</time>
      </trkpt>
      <trkpt lat="47.24047" lon="-2.26968">
        <ele>38</ele>
        <time>2020-10-22T07:55:50.000Z</time>
      </trkpt>
      <trkpt lat="47.24048" lon="-2.26976">
        <ele>37.599998474121</ele>
        <time>2020-10-22T07:55:51.000Z</time>
      </trkpt>
      <trkpt lat="47.24048" lon="-2.26981">
        <ele>37.200000762939</ele>
        <time>2020-10-22T07:55:52.000Z</time>
      </trkpt>
      <trkpt lat="47.24048" lon="-2.26987">
        <ele>36.599998474121</ele>
        <time>2020-10-22T07:55:53.000Z</time>
      </trkpt>
      <trkpt lat="47.24046" lon="-2.26991">
        <ele>36.200000762939</ele>
        <time>2020-10-22T07:55:54.000Z</time>
      </trkpt>
      <trkpt lat="47.24044" lon="-2.26995">
        <ele>35.799999237061</ele>
        <time>2020-10-22T07:55:55.000Z</time>
      </trkpt>
      <trkpt lat="47.24041" lon="-2.26998">
        <ele>35.200000762939</ele>
        <time>2020-10-22T07:55:56.000Z</time>
      </trkpt>
      <trkpt lat="47.24037" lon="-2.27">
        <ele>34.799999237061</ele>
        <time>2020-10-22T07:55:57.000Z</time>
      </trkpt>
      <trkpt lat="47.24033" lon="-2.27002">
        <ele>34.200000762939</ele>
        <time>2020-10-22T07:55:58.000Z</time>
      </trkpt>
      <trkpt lat="47.24028" lon="-2.27004">
        <ele>33.599998474121</ele>
        <time>2020-10-22T07:55:59.000Z</time>
      </trkpt>
      <trkpt lat="47.24024" lon="-2.27005">
        <ele>33</ele>
        <time>2020-10-22T07:56:00.000Z</time>
      </trkpt>
      <trkpt lat="47.24021" lon="-2.27005">
        <ele>32.400001525879</ele>
        <time>2020-10-22T07:56:01.000Z</time>
      </trkpt>
      <trkpt lat="47.24018" lon="-2.27003">
        <ele>32.400001525879</ele>
        <time>2020-10-22T07:56:02.000Z</time>
      </trkpt>
      <trkpt lat="47.24014" lon="-2.26997">
        <ele>32.400001525879</ele>
        <time>2020-10-22T07:56:04.000Z</time>
      </trkpt>
      <trkpt lat="47.24013" lon="-2.26993">
        <ele>32.400001525879</ele>
        <time>2020-10-22T07:56:05.000Z</time>
      </trkpt>
      <trkpt lat="47.24008" lon="-2.26983">
        <ele>32.400001525879</ele>
        <time>2020-10-22T07:56:08.000Z</time>
      </trkpt>
      <trkpt lat="47.24006" lon="-2.2698">
        <ele>32.400001525879</ele>
        <time>2020-10-22T07:56:09.000Z</time>
      </trkpt>
      <trkpt lat="47.23997" lon="-2.26971">
        <ele>32.400001525879</ele>
        <time>2020-10-22T07:56:12.000Z</time>
      </trkpt>
      <trkpt lat="47.23988" lon="-2.26965">
        <ele>32.400001525879</ele>
        <time>2020-10-22T07:56:14.000Z</time>
      </trkpt>
      <trkpt lat="47.23963" lon="-2.26953">
        <ele>32.400001525879</ele>
        <time>2020-10-22T07:56:20.000Z</time>
      </trkpt>
      <trkpt lat="47.23959" lon="-2.26951">
        <ele>32.400001525879</ele>
        <time>2020-10-22T07:56:21.000Z</time>
      </trkpt>
      <trkpt lat="47.23952" lon="-2.26945">
        <ele>32.400001525879</ele>
        <time>2020-10-22T07:56:23.000Z</time>
      </trkpt>
      <trkpt lat="47.23949" lon="-2.26936">
        <ele>32.400001525879</ele>
        <time>2020-10-22T07:56:25.000Z</time>
      </trkpt>
      <trkpt lat="47.23948" lon="-2.2692">
        <ele>32.400001525879</ele>
        <time>2020-10-22T07:56:29.000Z</time>
      </trkpt>
      <trkpt lat="47.23946" lon="-2.2691">
        <ele>32.400001525879</ele>
        <time>2020-10-22T07:56:32.000Z</time>
      </trkpt>
      <trkpt lat="47.23945" lon="-2.26899">
        <ele>33</ele>
        <time>2020-10-22T07:56:35.000Z</time>
      </trkpt>
      <trkpt lat="47.23945" lon="-2.26897">
        <ele>33.400001525879</ele>
        <time>2020-10-22T07:56:36.000Z</time>
      </trkpt>
      <trkpt lat="47.23946" lon="-2.26894">
        <ele>33.799999237061</ele>
        <time>2020-10-22T07:56:37.000Z</time>
      </trkpt>
      <trkpt lat="47.23946" lon="-2.2689">
        <ele>34.200000762939</ele>
        <time>2020-10-22T07:56:38.000Z</time>
      </trkpt>
      <trkpt lat="47.23946" lon="-2.26886">
        <ele>34.599998474121</ele>
        <time>2020-10-22T07:56:39.000Z</time>
      </trkpt>
      <trkpt lat="47.23945" lon="-2.26883">
        <ele>34.599998474121</ele>
        <time>2020-10-22T07:56:40.000Z</time>
      </trkpt>
      <trkpt lat="47.23944" lon="-2.26874">
        <ele>35</ele>
        <time>2020-10-22T07:56:42.000Z</time>
      </trkpt>
      <trkpt lat="47.23943" lon="-2.2687">
        <ele>35.400001525879</ele>
        <time>2020-10-22T07:56:43.000Z</time>
      </trkpt>
      <trkpt lat="47.23942" lon="-2.26866">
        <ele>35.799999237061</ele>
        <time>2020-10-22T07:56:44.000Z</time>
      </trkpt>
      <trkpt lat="47.23941" lon="-2.26862">
        <ele>36.200000762939</ele>
        <time>2020-10-22T07:56:45.000Z</time>
      </trkpt>
      <trkpt lat="47.2394" lon="-2.26857">
        <ele>36.599998474121</ele>
        <time>2020-10-22T07:56:46.000Z</time>
      </trkpt>
      <trkpt lat="47.23935" lon="-2.26829">
        <ele>36.599998474121</ele>
        <time>2020-10-22T07:56:52.000Z</time>
      </trkpt>
      <trkpt lat="47.23933" lon="-2.2681">
        <ele>36.599998474121</ele>
        <time>2020-10-22T07:56:57.000Z</time>
      </trkpt>
      <trkpt lat="47.23932" lon="-2.26789">
        <ele>36.599998474121</ele>
        <time>2020-10-22T07:57:03.000Z</time>
      </trkpt>
      <trkpt lat="47.23934" lon="-2.26765">
        <ele>36.599998474121</ele>
        <time>2020-10-22T07:57:10.000Z</time>
      </trkpt>
      <trkpt lat="47.23934" lon="-2.2676">
        <ele>36.599998474121</ele>
        <time>2020-10-22T07:57:12.000Z</time>
      </trkpt>
      <trkpt lat="47.23933" lon="-2.26756">
        <ele>36.599998474121</ele>
        <time>2020-10-22T07:57:14.000Z</time>
      </trkpt>
      <trkpt lat="47.23932" lon="-2.26754">
        <ele>36.599998474121</ele>
        <time>2020-10-22T07:57:17.000Z</time>
      </trkpt>
      <trkpt lat="47.23935" lon="-2.26749">
        <ele>36.599998474121</ele>
        <time>2020-10-22T08:03:18.000Z</time>
      </trkpt>
      <trkpt lat="47.23936" lon="-2.26748">
        <ele>36.599998474121</ele>
        <time>2020-10-22T08:03:19.000Z</time>
      </trkpt>
      <trkpt lat="47.23947" lon="-2.2674">
        <ele>36.599998474121</ele>
        <time>2020-10-22T08:03:24.000Z</time>
      </trkpt>
      <trkpt lat="47.23963" lon="-2.26735">
        <ele>36.599998474121</ele>
        <time>2020-10-22T08:03:29.000Z</time>
      </trkpt>
      <trkpt lat="47.23966" lon="-2.26735">
        <ele>36.599998474121</ele>
        <time>2020-10-22T08:03:30.000Z</time>
      </trkpt>
      <trkpt lat="47.23984" lon="-2.26738">
        <ele>36.599998474121</ele>
        <time>2020-10-22T08:03:36.000Z</time>
      </trkpt>
      <trkpt lat="47.24001" lon="-2.26739">
        <ele>37</ele>
        <time>2020-10-22T08:03:41.000Z</time>
      </trkpt>
      <trkpt lat="47.24004" lon="-2.26739">
        <ele>37.400001525879</ele>
        <time>2020-10-22T08:03:42.000Z</time>
      </trkpt>
      <trkpt lat="47.24006" lon="-2.26739">
        <ele>37.799999237061</ele>
        <time>2020-10-22T08:03:43.000Z</time>
      </trkpt>
      <trkpt lat="47.2401" lon="-2.26739">
        <ele>38.400001525879</ele>
        <time>2020-10-22T08:03:44.000Z</time>
      </trkpt>
      <trkpt lat="47.24013" lon="-2.26738">
        <ele>38.799999237061</ele>
        <time>2020-10-22T08:03:45.000Z</time>
      </trkpt>
      <trkpt lat="47.24027" lon="-2.26735">
        <ele>38.799999237061</ele>
        <time>2020-10-22T08:03:49.000Z</time>
      </trkpt>
      <trkpt lat="47.24033" lon="-2.26732">
        <ele>39.200000762939</ele>
        <time>2020-10-22T08:03:51.000Z</time>
      </trkpt>
      <trkpt lat="47.24037" lon="-2.26729">
        <ele>40</ele>
        <time>2020-10-22T08:03:52.000Z</time>
      </trkpt>
      <trkpt lat="47.24041" lon="-2.26728">
        <ele>40.400001525879</ele>
        <time>2020-10-22T08:03:53.000Z</time>
      </trkpt>
      <trkpt lat="47.24044" lon="-2.26725">
        <ele>40.799999237061</ele>
        <time>2020-10-22T08:03:54.000Z</time>
      </trkpt>
      <trkpt lat="47.24061" lon="-2.26709">
        <ele>40.799999237061</ele>
        <time>2020-10-22T08:04:00.000Z</time>
      </trkpt>
      <trkpt lat="47.24065" lon="-2.26705">
        <ele>41.400001525879</ele>
        <time>2020-10-22T08:04:02.000Z</time>
      </trkpt>
      <trkpt lat="47.24066" lon="-2.26702">
        <ele>41.799999237061</ele>
        <time>2020-10-22T08:04:03.000Z</time>
      </trkpt>
      <trkpt lat="47.24068" lon="-2.267">
        <ele>42.200000762939</ele>
        <time>2020-10-22T08:04:04.000Z</time>
      </trkpt>
      <trkpt lat="47.24069" lon="-2.26698">
        <ele>42.799999237061</ele>
        <time>2020-10-22T08:04:05.000Z</time>
      </trkpt>
      <trkpt lat="47.24071" lon="-2.26695">
        <ele>43.200000762939</ele>
        <time>2020-10-22T08:04:06.000Z</time>
      </trkpt>
      <trkpt lat="47.24083" lon="-2.26671">
        <ele>43.200000762939</ele>
        <time>2020-10-22T08:04:14.000Z</time>
      </trkpt>
      <trkpt lat="47.24084" lon="-2.26668">
        <ele>43.599998474121</ele>
        <time>2020-10-22T08:04:15.000Z</time>
      </trkpt>
      <trkpt lat="47.24086" lon="-2.26665">
        <ele>44</ele>
        <time>2020-10-22T08:04:16.000Z</time>
      </trkpt>
      <trkpt lat="47.24087" lon="-2.26662">
        <ele>44.400001525879</ele>
        <time>2020-10-22T08:04:17.000Z</time>
      </trkpt>
      <trkpt lat="47.24089" lon="-2.26659">
        <ele>45.200000762939</ele>
        <time>2020-10-22T08:04:18.000Z</time>
      </trkpt>
      <trkpt lat="47.24095" lon="-2.26651">
        <ele>45.200000762939</ele>
        <time>2020-10-22T08:04:21.000Z</time>
      </trkpt>
      <trkpt lat="47.24098" lon="-2.26651">
        <ele>45.200000762939</ele>
        <time>2020-10-22T08:04:23.000Z</time>
      </trkpt>
      <trkpt lat="47.24101" lon="-2.26653">
        <ele>45.200000762939</ele>
        <time>2020-10-22T08:04:25.000Z</time>
      </trkpt>
      <trkpt lat="47.24104" lon="-2.26653">
        <ele>45.200000762939</ele>
        <time>2020-10-22T08:04:26.000Z</time>
      </trkpt>
      <trkpt lat="47.24109" lon="-2.26646">
        <ele>45.200000762939</ele>
        <time>2020-10-22T08:04:29.000Z</time>
      </trkpt>
      <trkpt lat="47.24112" lon="-2.26639">
        <ele>45.200000762939</ele>
        <time>2020-10-22T08:04:32.000Z</time>
      </trkpt>
      <trkpt lat="47.24114" lon="-2.26638">
        <ele>45.200000762939</ele>
        <time>2020-10-22T08:04:34.000Z</time>
      </trkpt>
      <trkpt lat="47.24118" lon="-2.26639">
        <ele>44.799999237061</ele>
        <time>2020-10-22T08:04:38.000Z</time>
      </trkpt>
      <trkpt lat="47.24119" lon="-2.26635">
        <ele>44.400001525879</ele>
        <time>2020-10-22T08:04:39.000Z</time>
      </trkpt>
      <trkpt lat="47.2412" lon="-2.26631">
        <ele>44</ele>
        <time>2020-10-22T08:04:40.000Z</time>
      </trkpt>
      <trkpt lat="47.24122" lon="-2.26626">
        <ele>43.599998474121</ele>
        <time>2020-10-22T08:04:41.000Z</time>
      </trkpt>
      <trkpt lat="47.24125" lon="-2.26621">
        <ele>43.200000762939</ele>
        <time>2020-10-22T08:04:42.000Z</time>
      </trkpt>
      <trkpt lat="47.24127" lon="-2.26614">
        <ele>43.200000762939</ele>
        <time>2020-10-22T08:04:43.000Z</time>
      </trkpt>
      <trkpt lat="47.24134" lon="-2.26595">
        <ele>43.200000762939</ele>
        <time>2020-10-22T08:04:47.000Z</time>
      </trkpt>
      <trkpt lat="47.24137" lon="-2.26594">
        <ele>43.200000762939</ele>
        <time>2020-10-22T08:04:48.000Z</time>
      </trkpt>
      <trkpt lat="47.24138" lon="-2.26591">
        <ele>42.599998474121</ele>
        <time>2020-10-22T08:04:49.000Z</time>
      </trkpt>
      <trkpt lat="47.24137" lon="-2.26588">
        <ele>42.200000762939</ele>
        <time>2020-10-22T08:04:50.000Z</time>
      </trkpt>
      <trkpt lat="47.24137" lon="-2.26586">
        <ele>41.799999237061</ele>
        <time>2020-10-22T08:04:51.000Z</time>
      </trkpt>
      <trkpt lat="47.24137" lon="-2.26584">
        <ele>41.400001525879</ele>
        <time>2020-10-22T08:04:52.000Z</time>
      </trkpt>
      <trkpt lat="47.24138" lon="-2.26582">
        <ele>41</ele>
        <time>2020-10-22T08:04:53.000Z</time>
      </trkpt>
      <trkpt lat="47.24139" lon="-2.2658">
        <ele>41</ele>
        <time>2020-10-22T08:04:54.000Z</time>
      </trkpt>
      <trkpt lat="47.24141" lon="-2.26578">
        <ele>41</ele>
        <time>2020-10-22T08:04:55.000Z</time>
      </trkpt>
      <trkpt lat="47.24152" lon="-2.26578">
        <ele>41</ele>
        <time>2020-10-22T08:04:59.000Z</time>
      </trkpt>
      <trkpt lat="47.24161" lon="-2.26582">
        <ele>41</ele>
        <time>2020-10-22T08:05:04.000Z</time>
      </trkpt>
      <trkpt lat="47.24162" lon="-2.26583">
        <ele>41</ele>
        <time>2020-10-22T08:05:05.000Z</time>
      </trkpt>
      <trkpt lat="47.24162" lon="-2.26588">
        <ele>41.400001525879</ele>
        <time>2020-10-22T08:05:08.000Z</time>
      </trkpt>
      <trkpt lat="47.24162" lon="-2.26592">
        <ele>41.799999237061</ele>
        <time>2020-10-22T08:05:09.000Z</time>
      </trkpt>
      <trkpt lat="47.24161" lon="-2.26594">
        <ele>42.200000762939</ele>
        <time>2020-10-22T08:05:10.000Z</time>
      </trkpt>
      <trkpt lat="47.24161" lon="-2.26598">
        <ele>42.599998474121</ele>
        <time>2020-10-22T08:05:11.000Z</time>
      </trkpt>
      <trkpt lat="47.2416" lon="-2.266">
        <ele>43</ele>
        <time>2020-10-22T08:05:12.000Z</time>
      </trkpt>
      <trkpt lat="47.24159" lon="-2.26602">
        <ele>43</ele>
        <time>2020-10-22T08:05:13.000Z</time>
      </trkpt>
      <trkpt lat="47.24157" lon="-2.26606">
        <ele>43</ele>
        <time>2020-10-22T08:05:15.000Z</time>
      </trkpt>
      <trkpt lat="47.24157" lon="-2.2661">
        <ele>43.400001525879</ele>
        <time>2020-10-22T08:05:16.000Z</time>
      </trkpt>
      <trkpt lat="47.24157" lon="-2.26613">
        <ele>43.799999237061</ele>
        <time>2020-10-22T08:05:17.000Z</time>
      </trkpt>
      <trkpt lat="47.24156" lon="-2.26617">
        <ele>44.200000762939</ele>
        <time>2020-10-22T08:05:18.000Z</time>
      </trkpt>
      <trkpt lat="47.24155" lon="-2.2662">
        <ele>44.599998474121</ele>
        <time>2020-10-22T08:05:19.000Z</time>
      </trkpt>
      <trkpt lat="47.24153" lon="-2.26623">
        <ele>45.200000762939</ele>
        <time>2020-10-22T08:05:20.000Z</time>
      </trkpt>
      <trkpt lat="47.2415" lon="-2.26627">
        <ele>45.200000762939</ele>
        <time>2020-10-22T08:05:21.000Z</time>
      </trkpt>
      <trkpt lat="47.24136" lon="-2.2665">
        <ele>45.200000762939</ele>
        <time>2020-10-22T08:05:27.000Z</time>
      </trkpt>
      <trkpt lat="47.24129" lon="-2.26677">
        <ele>45.200000762939</ele>
        <time>2020-10-22T08:05:33.000Z</time>
      </trkpt>
      <trkpt lat="47.2413" lon="-2.2668">
        <ele>45.200000762939</ele>
        <time>2020-10-22T08:05:34.000Z</time>
      </trkpt>
      <trkpt lat="47.24134" lon="-2.26683">
        <ele>45.200000762939</ele>
        <time>2020-10-22T08:05:36.000Z</time>
      </trkpt>
      <trkpt lat="47.24139" lon="-2.26686">
        <ele>45.599998474121</ele>
        <time>2020-10-22T08:05:39.000Z</time>
      </trkpt>
      <trkpt lat="47.2414" lon="-2.26687">
        <ele>46</ele>
        <time>2020-10-22T08:05:40.000Z</time>
      </trkpt>
      <trkpt lat="47.2414" lon="-2.26687">
        <ele>46.400001525879</ele>
        <time>2020-10-22T08:05:41.000Z</time>
      </trkpt>
      <trkpt lat="47.24141" lon="-2.26689">
        <ele>47</ele>
        <time>2020-10-22T08:05:42.000Z</time>
      </trkpt>
      <trkpt lat="47.24142" lon="-2.2669">
        <ele>47.400001525879</ele>
        <time>2020-10-22T08:05:43.000Z</time>
      </trkpt>
      <trkpt lat="47.2414" lon="-2.26702">
        <ele>47.400001525879</ele>
        <time>2020-10-22T08:05:47.000Z</time>
      </trkpt>
      <trkpt lat="47.24133" lon="-2.26715">
        <ele>47.400001525879</ele>
        <time>2020-10-22T08:05:49.000Z</time>
      </trkpt>
      <trkpt lat="47.24127" lon="-2.26728">
        <ele>47.400001525879</ele>
        <time>2020-10-22T08:05:51.000Z</time>
      </trkpt>
      <trkpt lat="47.24116" lon="-2.26751">
        <ele>47.400001525879</ele>
        <time>2020-10-22T08:05:56.000Z</time>
      </trkpt>
      <trkpt lat="47.24112" lon="-2.2677">
        <ele>47</ele>
        <time>2020-10-22T08:05:59.000Z</time>
      </trkpt>
      <trkpt lat="47.24111" lon="-2.26778">
        <ele>46.599998474121</ele>
        <time>2020-10-22T08:06:00.000Z</time>
      </trkpt>
      <trkpt lat="47.2411" lon="-2.26786">
        <ele>46.200000762939</ele>
        <time>2020-10-22T08:06:01.000Z</time>
      </trkpt>
      <trkpt lat="47.2411" lon="-2.26794">
        <ele>45.599998474121</ele>
        <time>2020-10-22T08:06:02.000Z</time>
      </trkpt>
      <trkpt lat="47.2411" lon="-2.26803">
        <ele>45.200000762939</ele>
        <time>2020-10-22T08:06:03.000Z</time>
      </trkpt>
      <trkpt lat="47.24111" lon="-2.26822">
        <ele>45.200000762939</ele>
        <time>2020-10-22T08:06:05.000Z</time>
      </trkpt>
      <trkpt lat="47.24109" lon="-2.26842">
        <ele>45.200000762939</ele>
        <time>2020-10-22T08:06:07.000Z</time>
      </trkpt>
      <trkpt lat="47.24106" lon="-2.26866">
        <ele>44.799999237061</ele>
        <time>2020-10-22T08:06:09.000Z</time>
      </trkpt>
      <trkpt lat="47.24106" lon="-2.26878">
        <ele>44.400001525879</ele>
        <time>2020-10-22T08:06:10.000Z</time>
      </trkpt>
      <trkpt lat="47.24106" lon="-2.26891">
        <ele>43.799999237061</ele>
        <time>2020-10-22T08:06:11.000Z</time>
      </trkpt>
      <trkpt lat="47.24106" lon="-2.26905">
        <ele>43.400001525879</ele>
        <time>2020-10-22T08:06:12.000Z</time>
      </trkpt>
      <trkpt lat="47.24105" lon="-2.26918">
        <ele>42.799999237061</ele>
        <time>2020-10-22T08:06:13.000Z</time>
      </trkpt>
      <trkpt lat="47.24106" lon="-2.26933">
        <ele>42.200000762939</ele>
        <time>2020-10-22T08:06:14.000Z</time>
      </trkpt>
      <trkpt lat="47.24106" lon="-2.26948">
        <ele>41.599998474121</ele>
        <time>2020-10-22T08:06:15.000Z</time>
      </trkpt>
      <trkpt lat="47.24105" lon="-2.26964">
        <ele>41</ele>
        <time>2020-10-22T08:06:16.000Z</time>
      </trkpt>
      <trkpt lat="47.24105" lon="-2.27012">
        <ele>41</ele>
        <time>2020-10-22T08:06:19.000Z</time>
      </trkpt>
      <trkpt lat="47.24104" lon="-2.27046">
        <ele>40.599998474121</ele>
        <time>2020-10-22T08:06:21.000Z</time>
      </trkpt>
      <trkpt lat="47.24104" lon="-2.27062">
        <ele>40</ele>
        <time>2020-10-22T08:06:22.000Z</time>
      </trkpt>
      <trkpt lat="47.24105" lon="-2.27078">
        <ele>39.599998474121</ele>
        <time>2020-10-22T08:06:23.000Z</time>
      </trkpt>
      <trkpt lat="47.24105" lon="-2.27092">
        <ele>39.200000762939</ele>
        <time>2020-10-22T08:06:24.000Z</time>
      </trkpt>
      <trkpt lat="47.24106" lon="-2.27106">
        <ele>38.799999237061</ele>
        <time>2020-10-22T08:06:25.000Z</time>
      </trkpt>
      <trkpt lat="47.24106" lon="-2.27118">
        <ele>38.799999237061</ele>
        <time>2020-10-22T08:06:26.000Z</time>
      </trkpt>
      <trkpt lat="47.24105" lon="-2.27161">
        <ele>38.799999237061</ele>
        <time>2020-10-22T08:06:30.000Z</time>
      </trkpt>
      <trkpt lat="47.24106" lon="-2.27187">
        <ele>38.799999237061</ele>
        <time>2020-10-22T08:06:33.000Z</time>
      </trkpt>
      <trkpt lat="47.24108" lon="-2.27192">
        <ele>38.799999237061</ele>
        <time>2020-10-22T08:06:34.000Z</time>
      </trkpt>
      <trkpt lat="47.24116" lon="-2.27195">
        <ele>38.400001525879</ele>
        <time>2020-10-22T08:06:36.000Z</time>
      </trkpt>
      <trkpt lat="47.24121" lon="-2.27193">
        <ele>38</ele>
        <time>2020-10-22T08:06:37.000Z</time>
      </trkpt>
      <trkpt lat="47.24126" lon="-2.27191">
        <ele>37.599998474121</ele>
        <time>2020-10-22T08:06:38.000Z</time>
      </trkpt>
      <trkpt lat="47.24131" lon="-2.27188">
        <ele>37.200000762939</ele>
        <time>2020-10-22T08:06:39.000Z</time>
      </trkpt>
      <trkpt lat="47.24136" lon="-2.27186">
        <ele>36.799999237061</ele>
        <time>2020-10-22T08:06:40.000Z</time>
      </trkpt>
      <trkpt lat="47.24146" lon="-2.27181">
        <ele>36.799999237061</ele>
        <time>2020-10-22T08:06:42.000Z</time>
      </trkpt>
      <trkpt lat="47.24182" lon="-2.27163">
        <ele>36.799999237061</ele>
        <time>2020-10-22T08:06:50.000Z</time>
      </trkpt>
      <trkpt lat="47.24207" lon="-2.27152">
        <ele>36.799999237061</ele>
        <time>2020-10-22T08:06:56.000Z</time>
      </trkpt>
      <trkpt lat="47.24216" lon="-2.27146">
        <ele>36.799999237061</ele>
        <time>2020-10-22T08:06:58.000Z</time>
      </trkpt>
      <trkpt lat="47.24232" lon="-2.27132">
        <ele>36.799999237061</ele>
        <time>2020-10-22T08:07:02.000Z</time>
      </trkpt>
      <trkpt lat="47.24236" lon="-2.2713">
        <ele>36.799999237061</ele>
        <time>2020-10-22T08:07:03.000Z</time>
      </trkpt>
      <trkpt lat="47.24244" lon="-2.27125">
        <ele>37.200000762939</ele>
        <time>2020-10-22T08:07:05.000Z</time>
      </trkpt>
      <trkpt lat="47.24247" lon="-2.27122">
        <ele>37.599998474121</ele>
        <time>2020-10-22T08:07:06.000Z</time>
      </trkpt>
      <trkpt lat="47.24251" lon="-2.27119">
        <ele>38</ele>
        <time>2020-10-22T08:07:07.000Z</time>
      </trkpt>
      <trkpt lat="47.24255" lon="-2.27117">
        <ele>38.400001525879</ele>
        <time>2020-10-22T08:07:08.000Z</time>
      </trkpt>
      <trkpt lat="47.24258" lon="-2.27115">
        <ele>38.799999237061</ele>
        <time>2020-10-22T08:07:09.000Z</time>
      </trkpt>
      <trkpt lat="47.24262" lon="-2.27114">
        <ele>38.799999237061</ele>
        <time>2020-10-22T08:07:10.000Z</time>
      </trkpt>
      <trkpt lat="47.24271" lon="-2.27112">
        <ele>38.799999237061</ele>
        <time>2020-10-22T08:07:12.000Z</time>
      </trkpt>
      <trkpt lat="47.24283" lon="-2.27113">
        <ele>38.799999237061</ele>
        <time>2020-10-22T08:07:15.000Z</time>
      </trkpt>
      <trkpt lat="47.24292" lon="-2.27113">
        <ele>38.799999237061</ele>
        <time>2020-10-22T08:07:17.000Z</time>
      </trkpt>
      <trkpt lat="47.24308" lon="-2.27099">
        <ele>38.799999237061</ele>
        <time>2020-10-22T08:07:21.000Z</time>
      </trkpt>
      <trkpt lat="47.24321" lon="-2.27079">
        <ele>38.799999237061</ele>
        <time>2020-10-22T08:07:25.000Z</time>
      </trkpt>
      <trkpt lat="47.24325" lon="-2.27075">
        <ele>38.799999237061</ele>
        <time>2020-10-22T08:07:26.000Z</time>
      </trkpt>
      <trkpt lat="47.24342" lon="-2.2706">
        <ele>38.799999237061</ele>
        <time>2020-10-22T08:07:30.000Z</time>
      </trkpt>
      <trkpt lat="47.24354" lon="-2.27042">
        <ele>38.799999237061</ele>
        <time>2020-10-22T08:07:34.000Z</time>
      </trkpt>
      <trkpt lat="47.24358" lon="-2.27038">
        <ele>38.799999237061</ele>
        <time>2020-10-22T08:07:35.000Z</time>
      </trkpt>
      <trkpt lat="47.24362" lon="-2.27033">
        <ele>39.599998474121</ele>
        <time>2020-10-22T08:07:36.000Z</time>
      </trkpt>
      <trkpt lat="47.24365" lon="-2.27028">
        <ele>40</ele>
        <time>2020-10-22T08:07:37.000Z</time>
      </trkpt>
      <trkpt lat="47.24368" lon="-2.27021">
        <ele>40.400001525879</ele>
        <time>2020-10-22T08:07:38.000Z</time>
      </trkpt>
      <trkpt lat="47.24371" lon="-2.27016">
        <ele>40.799999237061</ele>
        <time>2020-10-22T08:07:39.000Z</time>
      </trkpt>
      <trkpt lat="47.24392" lon="-2.26984">
        <ele>40.799999237061</ele>
        <time>2020-10-22T08:07:45.000Z</time>
      </trkpt>
      <trkpt lat="47.24411" lon="-2.26954">
        <ele>40.799999237061</ele>
        <time>2020-10-22T08:07:50.000Z</time>
      </trkpt>
      <trkpt lat="47.24415" lon="-2.2695">
        <ele>40.799999237061</ele>
        <time>2020-10-22T08:07:51.000Z</time>
      </trkpt>
      <trkpt lat="47.24439" lon="-2.26932">
        <ele>40.799999237061</ele>
        <time>2020-10-22T08:07:56.000Z</time>
      </trkpt>
      <trkpt lat="47.24455" lon="-2.26933">
        <ele>41.200000762939</ele>
        <time>2020-10-22T08:07:59.000Z</time>
      </trkpt>
      <trkpt lat="47.24461" lon="-2.26934">
        <ele>41.599998474121</ele>
        <time>2020-10-22T08:08:00.000Z</time>
      </trkpt>
      <trkpt lat="47.24466" lon="-2.26938">
        <ele>42.400001525879</ele>
        <time>2020-10-22T08:08:01.000Z</time>
      </trkpt>
      <trkpt lat="47.24471" lon="-2.2694">
        <ele>42.799999237061</ele>
        <time>2020-10-22T08:08:02.000Z</time>
      </trkpt>
      <trkpt lat="47.24476" lon="-2.26941">
        <ele>42.799999237061</ele>
        <time>2020-10-22T08:08:03.000Z</time>
      </trkpt>
      <trkpt lat="47.24496" lon="-2.26935">
        <ele>42.799999237061</ele>
        <time>2020-10-22T08:08:07.000Z</time>
      </trkpt>
      <trkpt lat="47.24504" lon="-2.26929">
        <ele>42.799999237061</ele>
        <time>2020-10-22T08:08:09.000Z</time>
      </trkpt>
      <trkpt lat="47.24512" lon="-2.26921">
        <ele>42.799999237061</ele>
        <time>2020-10-22T08:08:11.000Z</time>
      </trkpt>
      <trkpt lat="47.2452" lon="-2.26905">
        <ele>42.799999237061</ele>
        <time>2020-10-22T08:08:14.000Z</time>
      </trkpt>
      <trkpt lat="47.24523" lon="-2.26899">
        <ele>42.799999237061</ele>
        <time>2020-10-22T08:08:15.000Z</time>
      </trkpt>
      <trkpt lat="47.24533" lon="-2.26885">
        <ele>42.799999237061</ele>
        <time>2020-10-22T08:08:19.000Z</time>
      </trkpt>
      <trkpt lat="47.24556" lon="-2.26864">
        <ele>42.799999237061</ele>
        <time>2020-10-22T08:08:25.000Z</time>
      </trkpt>
      <trkpt lat="47.24579" lon="-2.26844">
        <ele>42.799999237061</ele>
        <time>2020-10-22T08:08:32.000Z</time>
      </trkpt>
      <trkpt lat="47.24597" lon="-2.26842">
        <ele>42.799999237061</ele>
        <time>2020-10-22T08:08:37.000Z</time>
      </trkpt>
      <trkpt lat="47.24602" lon="-2.26841">
        <ele>43.200000762939</ele>
        <time>2020-10-22T08:08:38.000Z</time>
      </trkpt>
      <trkpt lat="47.24606" lon="-2.2684">
        <ele>43.599998474121</ele>
        <time>2020-10-22T08:08:39.000Z</time>
      </trkpt>
      <trkpt lat="47.24609" lon="-2.26837">
        <ele>44</ele>
        <time>2020-10-22T08:08:40.000Z</time>
      </trkpt>
      <trkpt lat="47.24613" lon="-2.26835">
        <ele>44.400001525879</ele>
        <time>2020-10-22T08:08:41.000Z</time>
      </trkpt>
      <trkpt lat="47.24616" lon="-2.26832">
        <ele>44.799999237061</ele>
        <time>2020-10-22T08:08:42.000Z</time>
      </trkpt>
      <trkpt lat="47.24634" lon="-2.2681">
        <ele>44.799999237061</ele>
        <time>2020-10-22T08:08:47.000Z</time>
      </trkpt>
      <trkpt lat="47.24638" lon="-2.26808">
        <ele>44.799999237061</ele>
        <time>2020-10-22T08:08:48.000Z</time>
      </trkpt>
      <trkpt lat="47.24648" lon="-2.26808">
        <ele>45.799999237061</ele>
        <time>2020-10-22T08:08:50.000Z</time>
      </trkpt>
      <trkpt lat="47.24652" lon="-2.26809">
        <ele>46.200000762939</ele>
        <time>2020-10-22T08:08:51.000Z</time>
      </trkpt>
      <trkpt lat="47.24656" lon="-2.26805">
        <ele>46.599998474121</ele>
        <time>2020-10-22T08:08:52.000Z</time>
      </trkpt>
      <trkpt lat="47.2466" lon="-2.26802">
        <ele>47.200000762939</ele>
        <time>2020-10-22T08:08:53.000Z</time>
      </trkpt>
      <trkpt lat="47.24663" lon="-2.268">
        <ele>47.200000762939</ele>
        <time>2020-10-22T08:08:54.000Z</time>
      </trkpt>
      <trkpt lat="47.24672" lon="-2.26791">
        <ele>47.200000762939</ele>
        <time>2020-10-22T08:08:57.000Z</time>
      </trkpt>
      <trkpt lat="47.24676" lon="-2.26787">
        <ele>47.200000762939</ele>
        <time>2020-10-22T08:08:58.000Z</time>
      </trkpt>
      <trkpt lat="47.24682" lon="-2.26778">
        <ele>47.599998474121</ele>
        <time>2020-10-22T08:09:00.000Z</time>
      </trkpt>
      <trkpt lat="47.24686" lon="-2.26776">
        <ele>48</ele>
        <time>2020-10-22T08:09:01.000Z</time>
      </trkpt>
      <trkpt lat="47.24691" lon="-2.26775">
        <ele>48.400001525879</ele>
        <time>2020-10-22T08:09:02.000Z</time>
      </trkpt>
      <trkpt lat="47.24696" lon="-2.26775">
        <ele>48.799999237061</ele>
        <time>2020-10-22T08:09:03.000Z</time>
      </trkpt>
      <trkpt lat="47.247" lon="-2.26775">
        <ele>49.200000762939</ele>
        <time>2020-10-22T08:09:04.000Z</time>
      </trkpt>
      <trkpt lat="47.2472" lon="-2.26774">
        <ele>49.200000762939</ele>
        <time>2020-10-22T08:09:08.000Z</time>
      </trkpt>
      <trkpt lat="47.24751" lon="-2.26776">
        <ele>49.200000762939</ele>
        <time>2020-10-22T08:09:15.000Z</time>
      </trkpt>
      <trkpt lat="47.24776" lon="-2.2678">
        <ele>49.599998474121</ele>
        <time>2020-10-22T08:09:21.000Z</time>
      </trkpt>
      <trkpt lat="47.24779" lon="-2.26782">
        <ele>50</ele>
        <time>2020-10-22T08:09:22.000Z</time>
      </trkpt>
      <trkpt lat="47.24783" lon="-2.26784">
        <ele>50.400001525879</ele>
        <time>2020-10-22T08:09:23.000Z</time>
      </trkpt>
      <trkpt lat="47.24786" lon="-2.26786">
        <ele>51</ele>
        <time>2020-10-22T08:09:24.000Z</time>
      </trkpt>
      <trkpt lat="47.2479" lon="-2.26788">
        <ele>51.400001525879</ele>
        <time>2020-10-22T08:09:25.000Z</time>
      </trkpt>
      <trkpt lat="47.24794" lon="-2.26789">
        <ele>51.400001525879</ele>
        <time>2020-10-22T08:09:26.000Z</time>
      </trkpt>
      <trkpt lat="47.24807" lon="-2.26794">
        <ele>51.400001525879</ele>
        <time>2020-10-22T08:09:29.000Z</time>
      </trkpt>
      <trkpt lat="47.24829" lon="-2.26802">
        <ele>51.400001525879</ele>
        <time>2020-10-22T08:09:34.000Z</time>
      </trkpt>
      <trkpt lat="47.24833" lon="-2.26802">
        <ele>51.400001525879</ele>
        <time>2020-10-22T08:09:35.000Z</time>
      </trkpt>
      <trkpt lat="47.24838" lon="-2.26802">
        <ele>51.400001525879</ele>
        <time>2020-10-22T08:09:36.000Z</time>
      </trkpt>
      <trkpt lat="47.24846" lon="-2.26802">
        <ele>51.799999237061</ele>
        <time>2020-10-22T08:09:38.000Z</time>
      </trkpt>
      <trkpt lat="47.24851" lon="-2.26803">
        <ele>52.200000762939</ele>
        <time>2020-10-22T08:09:39.000Z</time>
      </trkpt>
      <trkpt lat="47.24855" lon="-2.26803">
        <ele>53</ele>
        <time>2020-10-22T08:09:40.000Z</time>
      </trkpt>
      <trkpt lat="47.24859" lon="-2.26806">
        <ele>53.400001525879</ele>
        <time>2020-10-22T08:09:41.000Z</time>
      </trkpt>
      <trkpt lat="47.2487" lon="-2.26814">
        <ele>53.400001525879</ele>
        <time>2020-10-22T08:09:44.000Z</time>
      </trkpt>
      <trkpt lat="47.24891" lon="-2.26822">
        <ele>53.400001525879</ele>
        <time>2020-10-22T08:09:49.000Z</time>
      </trkpt>
      <trkpt lat="47.24895" lon="-2.26824">
        <ele>53.400001525879</ele>
        <time>2020-10-22T08:09:50.000Z</time>
      </trkpt>
      <trkpt lat="47.24908" lon="-2.26827">
        <ele>53.400001525879</ele>
        <time>2020-10-22T08:09:53.000Z</time>
      </trkpt>
      <trkpt lat="47.24912" lon="-2.26828">
        <ele>53.400001525879</ele>
        <time>2020-10-22T08:09:54.000Z</time>
      </trkpt>
      <trkpt lat="47.24916" lon="-2.26831">
        <ele>53.400001525879</ele>
        <time>2020-10-22T08:09:55.000Z</time>
      </trkpt>
      <trkpt lat="47.24926" lon="-2.26835">
        <ele>53.400001525879</ele>
        <time>2020-10-22T08:09:57.000Z</time>
      </trkpt>
      <trkpt lat="47.24931" lon="-2.26837">
        <ele>53.799999237061</ele>
        <time>2020-10-22T08:09:58.000Z</time>
      </trkpt>
      <trkpt lat="47.24935" lon="-2.26841">
        <ele>54.200000762939</ele>
        <time>2020-10-22T08:09:59.000Z</time>
      </trkpt>
      <trkpt lat="47.24939" lon="-2.26845">
        <ele>54.599998474121</ele>
        <time>2020-10-22T08:10:00.000Z</time>
      </trkpt>
      <trkpt lat="47.24945" lon="-2.26848">
        <ele>55</ele>
        <time>2020-10-22T08:10:01.000Z</time>
      </trkpt>
      <trkpt lat="47.2495" lon="-2.26849">
        <ele>55.400001525879</ele>
        <time>2020-10-22T08:10:02.000Z</time>
      </trkpt>
      <trkpt lat="47.2496" lon="-2.26854">
        <ele>55.400001525879</ele>
        <time>2020-10-22T08:10:04.000Z</time>
      </trkpt>
      <trkpt lat="47.24969" lon="-2.26864">
        <ele>55.400001525879</ele>
        <time>2020-10-22T08:10:06.000Z</time>
      </trkpt>
      <trkpt lat="47.24979" lon="-2.26872">
        <ele>55.400001525879</ele>
        <time>2020-10-22T08:10:08.000Z</time>
      </trkpt>
      <trkpt lat="47.2499" lon="-2.26873">
        <ele>55.400001525879</ele>
        <time>2020-10-22T08:10:10.000Z</time>
      </trkpt>
      <trkpt lat="47.2501" lon="-2.26868">
        <ele>55.400001525879</ele>
        <time>2020-10-22T08:10:14.000Z</time>
      </trkpt>
      <trkpt lat="47.25015" lon="-2.26866">
        <ele>55.799999237061</ele>
        <time>2020-10-22T08:10:15.000Z</time>
      </trkpt>
      <trkpt lat="47.2502" lon="-2.26865">
        <ele>56.200000762939</ele>
        <time>2020-10-22T08:10:16.000Z</time>
      </trkpt>
      <trkpt lat="47.25025" lon="-2.26865">
        <ele>56.599998474121</ele>
        <time>2020-10-22T08:10:17.000Z</time>
      </trkpt>
      <trkpt lat="47.2503" lon="-2.26864">
        <ele>57</ele>
        <time>2020-10-22T08:10:18.000Z</time>
      </trkpt>
      <trkpt lat="47.25034" lon="-2.26863">
        <ele>57.599998474121</ele>
        <time>2020-10-22T08:10:19.000Z</time>
      </trkpt>
      <trkpt lat="47.25039" lon="-2.26862">
        <ele>57.599998474121</ele>
        <time>2020-10-22T08:10:21.000Z</time>
      </trkpt>
      <trkpt lat="47.25054" lon="-2.26859">
        <ele>57.599998474121</ele>
        <time>2020-10-22T08:10:27.000Z</time>
      </trkpt>
      <trkpt lat="47.25073" lon="-2.26864">
        <ele>57.599998474121</ele>
        <time>2020-10-22T08:10:32.000Z</time>
      </trkpt>
      <trkpt lat="47.2509" lon="-2.26874">
        <ele>57.599998474121</ele>
        <time>2020-10-22T08:10:37.000Z</time>
      </trkpt>
      <trkpt lat="47.25093" lon="-2.26878">
        <ele>57.599998474121</ele>
        <time>2020-10-22T08:10:38.000Z</time>
      </trkpt>
      <trkpt lat="47.25102" lon="-2.26892">
        <ele>57.599998474121</ele>
        <time>2020-10-22T08:10:41.000Z</time>
      </trkpt>
      <trkpt lat="47.25109" lon="-2.26898">
        <ele>57.599998474121</ele>
        <time>2020-10-22T08:10:43.000Z</time>
      </trkpt>
      <trkpt lat="47.25113" lon="-2.269">
        <ele>57.599998474121</ele>
        <time>2020-10-22T08:10:44.000Z</time>
      </trkpt>
      <trkpt lat="47.25125" lon="-2.26902">
        <ele>57.599998474121</ele>
        <time>2020-10-22T08:10:47.000Z</time>
      </trkpt>
      <trkpt lat="47.2513" lon="-2.26911">
        <ele>57.599998474121</ele>
        <time>2020-10-22T08:10:49.000Z</time>
      </trkpt>
      <trkpt lat="47.25137" lon="-2.26935">
        <ele>57.599998474121</ele>
        <time>2020-10-22T08:10:55.000Z</time>
      </trkpt>
      <trkpt lat="47.25143" lon="-2.26938">
        <ele>57.599998474121</ele>
        <time>2020-10-22T08:10:58.000Z</time>
      </trkpt>
      <trkpt lat="47.25145" lon="-2.26938">
        <ele>57.599998474121</ele>
        <time>2020-10-22T08:10:59.000Z</time>
      </trkpt>
      <trkpt lat="47.25147" lon="-2.26933">
        <ele>57.599998474121</ele>
        <time>2020-10-22T08:11:00.000Z</time>
      </trkpt>
      <trkpt lat="47.2515" lon="-2.26921">
        <ele>57.599998474121</ele>
        <time>2020-10-22T08:11:02.000Z</time>
      </trkpt>
      <trkpt lat="47.25151" lon="-2.26915">
        <ele>57.599998474121</ele>
        <time>2020-10-22T08:11:03.000Z</time>
      </trkpt>
      <trkpt lat="47.25152" lon="-2.269">
        <ele>57.599998474121</ele>
        <time>2020-10-22T08:11:05.000Z</time>
      </trkpt>
      <trkpt lat="47.25151" lon="-2.26882">
        <ele>57.599998474121</ele>
        <time>2020-10-22T08:11:08.000Z</time>
      </trkpt>
      <trkpt lat="47.25152" lon="-2.26858">
        <ele>57.599998474121</ele>
        <time>2020-10-22T08:11:12.000Z</time>
      </trkpt>
      <trkpt lat="47.25155" lon="-2.26852">
        <ele>57.599998474121</ele>
        <time>2020-10-22T08:11:13.000Z</time>
      </trkpt>
      <trkpt lat="47.25162" lon="-2.26819">
        <ele>57.599998474121</ele>
        <time>2020-10-22T08:11:19.000Z</time>
      </trkpt>
      <trkpt lat="47.25173" lon="-2.26797">
        <ele>57.599998474121</ele>
        <time>2020-10-22T08:11:24.000Z</time>
      </trkpt>
      <trkpt lat="47.25182" lon="-2.26783">
        <ele>57.599998474121</ele>
        <time>2020-10-22T08:11:27.000Z</time>
      </trkpt>
      <trkpt lat="47.25191" lon="-2.26778">
        <ele>57.599998474121</ele>
        <time>2020-10-22T08:11:29.000Z</time>
      </trkpt>
      <trkpt lat="47.25195" lon="-2.26775">
        <ele>57.599998474121</ele>
        <time>2020-10-22T08:11:30.000Z</time>
      </trkpt>
      <trkpt lat="47.25224" lon="-2.26754">
        <ele>57.599998474121</ele>
        <time>2020-10-22T08:11:36.000Z</time>
      </trkpt>
      <trkpt lat="47.25256" lon="-2.26728">
        <ele>57.599998474121</ele>
        <time>2020-10-22T08:11:43.000Z</time>
      </trkpt>
      <trkpt lat="47.25267" lon="-2.26723">
        <ele>57.599998474121</ele>
        <time>2020-10-22T08:11:45.000Z</time>
      </trkpt>
      <trkpt lat="47.25285" lon="-2.26721">
        <ele>57.599998474121</ele>
        <time>2020-10-22T08:11:48.000Z</time>
      </trkpt>
      <trkpt lat="47.25297" lon="-2.2672">
        <ele>57.599998474121</ele>
        <time>2020-10-22T08:11:50.000Z</time>
      </trkpt>
      <trkpt lat="47.25314" lon="-2.26719">
        <ele>57.599998474121</ele>
        <time>2020-10-22T08:11:53.000Z</time>
      </trkpt>
      <trkpt lat="47.25323" lon="-2.26721">
        <ele>57.599998474121</ele>
        <time>2020-10-22T08:11:55.000Z</time>
      </trkpt>
      <trkpt lat="47.25338" lon="-2.26726">
        <ele>57.599998474121</ele>
        <time>2020-10-22T08:11:58.000Z</time>
      </trkpt>
      <trkpt lat="47.25348" lon="-2.26729">
        <ele>57.599998474121</ele>
        <time>2020-10-22T08:12:00.000Z</time>
      </trkpt>
      <trkpt lat="47.2537" lon="-2.2673">
        <ele>57.599998474121</ele>
        <time>2020-10-22T08:12:04.000Z</time>
      </trkpt>
      <trkpt lat="47.25406" lon="-2.26735">
        <ele>57.599998474121</ele>
        <time>2020-10-22T08:12:11.000Z</time>
      </trkpt>
      <trkpt lat="47.25411" lon="-2.26736">
        <ele>57</ele>
        <time>2020-10-22T08:12:12.000Z</time>
      </trkpt>
      <trkpt lat="47.25416" lon="-2.26737">
        <ele>56.599998474121</ele>
        <time>2020-10-22T08:12:13.000Z</time>
      </trkpt>
      <trkpt lat="47.25421" lon="-2.26738">
        <ele>56.200000762939</ele>
        <time>2020-10-22T08:12:14.000Z</time>
      </trkpt>
      <trkpt lat="47.25426" lon="-2.26739">
        <ele>55.799999237061</ele>
        <time>2020-10-22T08:12:15.000Z</time>
      </trkpt>
      <trkpt lat="47.2543" lon="-2.26741">
        <ele>55.400001525879</ele>
        <time>2020-10-22T08:12:16.000Z</time>
      </trkpt>
      <trkpt lat="47.25438" lon="-2.26743">
        <ele>55.400001525879</ele>
        <time>2020-10-22T08:12:18.000Z</time>
      </trkpt>
      <trkpt lat="47.25447" lon="-2.26748">
        <ele>55.400001525879</ele>
        <time>2020-10-22T08:12:23.000Z</time>
      </trkpt>
      <trkpt lat="47.25447" lon="-2.26748">
        <ele>55.400001525879</ele>
        <time>2020-10-22T08:12:24.000Z</time>
      </trkpt>
      <trkpt lat="47.2545" lon="-2.26746">
        <ele>55.400001525879</ele>
        <time>2020-10-22T08:14:10.000Z</time>
      </trkpt>
      <trkpt lat="47.25452" lon="-2.26743">
        <ele>55.400001525879</ele>
        <time>2020-10-22T08:14:12.000Z</time>
      </trkpt>
      <trkpt lat="47.25453" lon="-2.26742">
        <ele>55</ele>
        <time>2020-10-22T08:14:13.000Z</time>
      </trkpt>
      <trkpt lat="47.25454" lon="-2.26741">
        <ele>54.599998474121</ele>
        <time>2020-10-22T08:14:14.000Z</time>
      </trkpt>
      <trkpt lat="47.25455" lon="-2.2674">
        <ele>54.200000762939</ele>
        <time>2020-10-22T08:14:15.000Z</time>
      </trkpt>
      <trkpt lat="47.25455" lon="-2.26739">
        <ele>53.799999237061</ele>
        <time>2020-10-22T08:14:16.000Z</time>
      </trkpt>
      <trkpt lat="47.25462" lon="-2.26741">
        <ele>53.400001525879</ele>
        <time>2020-10-22T08:19:34.000Z</time>
      </trkpt>
      <trkpt lat="47.25457" lon="-2.26749">
        <ele>53.400001525879</ele>
        <time>2020-10-22T08:19:38.000Z</time>
      </trkpt>
      <trkpt lat="47.25454" lon="-2.2675">
        <ele>53.400001525879</ele>
        <time>2020-10-22T08:19:39.000Z</time>
      </trkpt>
      <trkpt lat="47.25443" lon="-2.2675">
        <ele>53.400001525879</ele>
        <time>2020-10-22T08:19:43.000Z</time>
      </trkpt>
      <trkpt lat="47.25431" lon="-2.26747">
        <ele>53.400001525879</ele>
        <time>2020-10-22T08:19:46.000Z</time>
      </trkpt>
      <trkpt lat="47.25422" lon="-2.26744">
        <ele>53.799999237061</ele>
        <time>2020-10-22T08:19:48.000Z</time>
      </trkpt>
      <trkpt lat="47.25418" lon="-2.26743">
        <ele>54.200000762939</ele>
        <time>2020-10-22T08:19:49.000Z</time>
      </trkpt>
      <trkpt lat="47.25414" lon="-2.26742">
        <ele>54.599998474121</ele>
        <time>2020-10-22T08:19:50.000Z</time>
      </trkpt>
      <trkpt lat="47.2541" lon="-2.26742">
        <ele>55</ele>
        <time>2020-10-22T08:19:51.000Z</time>
      </trkpt>
      <trkpt lat="47.25406" lon="-2.26742">
        <ele>55.400001525879</ele>
        <time>2020-10-22T08:19:52.000Z</time>
      </trkpt>
      <trkpt lat="47.25399" lon="-2.2674">
        <ele>55.400001525879</ele>
        <time>2020-10-22T08:19:54.000Z</time>
      </trkpt>
      <trkpt lat="47.25373" lon="-2.26736">
        <ele>55.400001525879</ele>
        <time>2020-10-22T08:20:01.000Z</time>
      </trkpt>
      <trkpt lat="47.25351" lon="-2.26734">
        <ele>55.400001525879</ele>
        <time>2020-10-22T08:20:08.000Z</time>
      </trkpt>
      <trkpt lat="47.25338" lon="-2.26732">
        <ele>55.400001525879</ele>
        <time>2020-10-22T08:20:14.000Z</time>
      </trkpt>
      <trkpt lat="47.25333" lon="-2.2673">
        <ele>55.400001525879</ele>
        <time>2020-10-22T08:20:18.000Z</time>
      </trkpt>
      <trkpt lat="47.25332" lon="-2.26732">
        <ele>55.400001525879</ele>
        <time>2020-10-22T08:20:20.000Z</time>
      </trkpt>
      <trkpt lat="47.25331" lon="-2.26732">
        <ele>55.400001525879</ele>
        <time>2020-10-22T08:20:21.000Z</time>
      </trkpt>
      <trkpt lat="47.25335" lon="-2.26733">
        <ele>55.400001525879</ele>
        <time>2020-10-22T08:21:17.000Z</time>
      </trkpt>
      <trkpt lat="47.25339" lon="-2.26733">
        <ele>55.400001525879</ele>
        <time>2020-10-22T08:21:19.000Z</time>
      </trkpt>
      <trkpt lat="47.25355" lon="-2.26733">
        <ele>55.400001525879</ele>
        <time>2020-10-22T08:21:24.000Z</time>
      </trkpt>
      <trkpt lat="47.25374" lon="-2.26733">
        <ele>55.400001525879</ele>
        <time>2020-10-22T08:21:29.000Z</time>
      </trkpt>
      <trkpt lat="47.25395" lon="-2.26736">
        <ele>55.400001525879</ele>
        <time>2020-10-22T08:21:34.000Z</time>
      </trkpt>
      <trkpt lat="47.25424" lon="-2.26741">
        <ele>55.400001525879</ele>
        <time>2020-10-22T08:21:42.000Z</time>
      </trkpt>
      <trkpt lat="47.25443" lon="-2.26747">
        <ele>55.400001525879</ele>
        <time>2020-10-22T08:21:48.000Z</time>
      </trkpt>
      <trkpt lat="47.25456" lon="-2.26744">
        <ele>55.400001525879</ele>
        <time>2020-10-22T08:21:53.000Z</time>
      </trkpt>
      <trkpt lat="47.2547" lon="-2.2673">
        <ele>55.400001525879</ele>
        <time>2020-10-22T08:21:58.000Z</time>
      </trkpt>
      <trkpt lat="47.25474" lon="-2.26727">
        <ele>54.599998474121</ele>
        <time>2020-10-22T08:22:01.000Z</time>
      </trkpt>
      <trkpt lat="47.25475" lon="-2.26727">
        <ele>54.200000762939</ele>
        <time>2020-10-22T08:22:02.000Z</time>
      </trkpt>
      <trkpt lat="47.25475" lon="-2.26725">
        <ele>53.799999237061</ele>
        <time>2020-10-22T08:22:03.000Z</time>
      </trkpt>
      <trkpt lat="47.25475" lon="-2.26725">
        <ele>53.400001525879</ele>
        <time>2020-10-22T08:22:04.000Z</time>
      </trkpt>
      <trkpt lat="47.25477" lon="-2.2672">
        <ele>53.400001525879</ele>
        <time>2020-10-22T08:22:09.000Z</time>
      </trkpt>
      <trkpt lat="47.25478" lon="-2.26715">
        <ele>53.400001525879</ele>
        <time>2020-10-22T08:23:55.000Z</time>
      </trkpt>
      <trkpt lat="47.25477" lon="-2.26711">
        <ele>53.400001525879</ele>
        <time>2020-10-22T08:23:56.000Z</time>
      </trkpt>
      <trkpt lat="47.25472" lon="-2.26697">
        <ele>53.400001525879</ele>
        <time>2020-10-22T08:23:59.000Z</time>
      </trkpt>
      <trkpt lat="47.2547" lon="-2.26693">
        <ele>53.400001525879</ele>
        <time>2020-10-22T08:24:00.000Z</time>
      </trkpt>
      <trkpt lat="47.25454" lon="-2.26669">
        <ele>53.400001525879</ele>
        <time>2020-10-22T08:24:06.000Z</time>
      </trkpt>
      <trkpt lat="47.25443" lon="-2.26638">
        <ele>53.400001525879</ele>
        <time>2020-10-22T08:24:12.000Z</time>
      </trkpt>
      <trkpt lat="47.25441" lon="-2.26617">
        <ele>53.400001525879</ele>
        <time>2020-10-22T08:24:15.000Z</time>
      </trkpt>
      <trkpt lat="47.25439" lon="-2.26602">
        <ele>53.400001525879</ele>
        <time>2020-10-22T08:24:17.000Z</time>
      </trkpt>
      <trkpt lat="47.25429" lon="-2.2657">
        <ele>53</ele>
        <time>2020-10-22T08:24:21.000Z</time>
      </trkpt>
      <trkpt lat="47.25426" lon="-2.26563">
        <ele>52.400001525879</ele>
        <time>2020-10-22T08:24:22.000Z</time>
      </trkpt>
      <trkpt lat="47.25424" lon="-2.26556">
        <ele>52</ele>
        <time>2020-10-22T08:24:23.000Z</time>
      </trkpt>
      <trkpt lat="47.25422" lon="-2.2655">
        <ele>51.599998474121</ele>
        <time>2020-10-22T08:24:24.000Z</time>
      </trkpt>
      <trkpt lat="47.25421" lon="-2.26543">
        <ele>51.200000762939</ele>
        <time>2020-10-22T08:24:25.000Z</time>
      </trkpt>
      <trkpt lat="47.25419" lon="-2.26515">
        <ele>51.200000762939</ele>
        <time>2020-10-22T08:24:30.000Z</time>
      </trkpt>
      <trkpt lat="47.25413" lon="-2.26494">
        <ele>51.200000762939</ele>
        <time>2020-10-22T08:24:35.000Z</time>
      </trkpt>
      <trkpt lat="47.25407" lon="-2.26463">
        <ele>51.200000762939</ele>
        <time>2020-10-22T08:24:39.000Z</time>
      </trkpt>
      <trkpt lat="47.25404" lon="-2.26447">
        <ele>51.200000762939</ele>
        <time>2020-10-22T08:24:41.000Z</time>
      </trkpt>
      <trkpt lat="47.25403" lon="-2.26422">
        <ele>51.200000762939</ele>
        <time>2020-10-22T08:24:44.000Z</time>
      </trkpt>
      <trkpt lat="47.25402" lon="-2.26413">
        <ele>51.200000762939</ele>
        <time>2020-10-22T08:24:45.000Z</time>
      </trkpt>
      <trkpt lat="47.25401" lon="-2.26397">
        <ele>50.799999237061</ele>
        <time>2020-10-22T08:24:47.000Z</time>
      </trkpt>
      <trkpt lat="47.254" lon="-2.26388">
        <ele>50.400001525879</ele>
        <time>2020-10-22T08:24:48.000Z</time>
      </trkpt>
      <trkpt lat="47.25399" lon="-2.2638">
        <ele>49.799999237061</ele>
        <time>2020-10-22T08:24:49.000Z</time>
      </trkpt>
      <trkpt lat="47.25399" lon="-2.26372">
        <ele>49.400001525879</ele>
        <time>2020-10-22T08:24:50.000Z</time>
      </trkpt>
      <trkpt lat="47.25399" lon="-2.26364">
        <ele>49</ele>
        <time>2020-10-22T08:24:51.000Z</time>
      </trkpt>
      <trkpt lat="47.25399" lon="-2.26341">
        <ele>49</ele>
        <time>2020-10-22T08:24:55.000Z</time>
      </trkpt>
      <trkpt lat="47.25401" lon="-2.26327">
        <ele>49</ele>
        <time>2020-10-22T08:25:00.000Z</time>
      </trkpt>
      <trkpt lat="47.254" lon="-2.26314">
        <ele>49</ele>
        <time>2020-10-22T08:25:04.000Z</time>
      </trkpt>
      <trkpt lat="47.25394" lon="-2.26293">
        <ele>49</ele>
        <time>2020-10-22T08:25:09.000Z</time>
      </trkpt>
      <trkpt lat="47.2539" lon="-2.26268">
        <ele>49</ele>
        <time>2020-10-22T08:25:15.000Z</time>
      </trkpt>
      <trkpt lat="47.2539" lon="-2.26253">
        <ele>48</ele>
        <time>2020-10-22T08:25:17.000Z</time>
      </trkpt>
      <trkpt lat="47.2539" lon="-2.26245">
        <ele>47.599998474121</ele>
        <time>2020-10-22T08:25:18.000Z</time>
      </trkpt>
      <trkpt lat="47.25388" lon="-2.26239">
        <ele>47.200000762939</ele>
        <time>2020-10-22T08:25:19.000Z</time>
      </trkpt>
      <trkpt lat="47.25386" lon="-2.26232">
        <ele>46.599998474121</ele>
        <time>2020-10-22T08:25:20.000Z</time>
      </trkpt>
      <trkpt lat="47.25381" lon="-2.26221">
        <ele>46.599998474121</ele>
        <time>2020-10-22T08:25:22.000Z</time>
      </trkpt>
      <trkpt lat="47.25375" lon="-2.26211">
        <ele>46.599998474121</ele>
        <time>2020-10-22T08:25:24.000Z</time>
      </trkpt>
      <trkpt lat="47.25373" lon="-2.26205">
        <ele>46.599998474121</ele>
        <time>2020-10-22T08:25:25.000Z</time>
      </trkpt>
      <trkpt lat="47.25369" lon="-2.26193">
        <ele>46.599998474121</ele>
        <time>2020-10-22T08:25:27.000Z</time>
      </trkpt>
      <trkpt lat="47.25366" lon="-2.26179">
        <ele>46.599998474121</ele>
        <time>2020-10-22T08:25:29.000Z</time>
      </trkpt>
      <trkpt lat="47.25364" lon="-2.26174">
        <ele>46.200000762939</ele>
        <time>2020-10-22T08:25:30.000Z</time>
      </trkpt>
      <trkpt lat="47.25363" lon="-2.2617">
        <ele>45.599998474121</ele>
        <time>2020-10-22T08:25:31.000Z</time>
      </trkpt>
      <trkpt lat="47.25361" lon="-2.26168">
        <ele>45.200000762939</ele>
        <time>2020-10-22T08:25:32.000Z</time>
      </trkpt>
      <trkpt lat="47.2536" lon="-2.26167">
        <ele>44.599998474121</ele>
        <time>2020-10-22T08:25:33.000Z</time>
      </trkpt>
      <trkpt lat="47.25358" lon="-2.26166">
        <ele>44.200000762939</ele>
        <time>2020-10-22T08:25:34.000Z</time>
      </trkpt>
      <trkpt lat="47.25355" lon="-2.26164">
        <ele>44.200000762939</ele>
        <time>2020-10-22T08:25:36.000Z</time>
      </trkpt>
      <trkpt lat="47.25348" lon="-2.26163">
        <ele>44.599998474121</ele>
        <time>2020-10-22T08:25:43.000Z</time>
      </trkpt>
      <trkpt lat="47.25348" lon="-2.26164">
        <ele>45</ele>
        <time>2020-10-22T08:25:44.000Z</time>
      </trkpt>
      <trkpt lat="47.25348" lon="-2.26165">
        <ele>45.400001525879</ele>
        <time>2020-10-22T08:25:45.000Z</time>
      </trkpt>
      <trkpt lat="47.25348" lon="-2.26166">
        <ele>46</ele>
        <time>2020-10-22T08:25:46.000Z</time>
      </trkpt>
      <trkpt lat="47.25348" lon="-2.26167">
        <ele>46.400001525879</ele>
        <time>2020-10-22T08:25:47.000Z</time>
      </trkpt>
      <trkpt lat="47.25346" lon="-2.26171">
        <ele>46.400001525879</ele>
        <time>2020-10-22T08:25:50.000Z</time>
      </trkpt>
      <trkpt lat="47.25341" lon="-2.26171">
        <ele>46.400001525879</ele>
        <time>2020-10-22T08:25:55.000Z</time>
      </trkpt>
      <trkpt lat="47.25339" lon="-2.26163">
        <ele>46.400001525879</ele>
        <time>2020-10-22T08:26:00.000Z</time>
      </trkpt>
      <trkpt lat="47.2534" lon="-2.26161">
        <ele>46.400001525879</ele>
        <time>2020-10-22T08:26:01.000Z</time>
      </trkpt>
      <trkpt lat="47.25341" lon="-2.26156">
        <ele>46.400001525879</ele>
        <time>2020-10-22T08:26:04.000Z</time>
      </trkpt>
      <trkpt lat="47.25343" lon="-2.26154">
        <ele>46.400001525879</ele>
        <time>2020-10-22T08:26:07.000Z</time>
      </trkpt>
      <trkpt lat="47.25352" lon="-2.2615">
        <ele>46</ele>
        <time>2020-10-22T08:26:13.000Z</time>
      </trkpt>
      <trkpt lat="47.25354" lon="-2.2615">
        <ele>45.599998474121</ele>
        <time>2020-10-22T08:26:14.000Z</time>
      </trkpt>
      <trkpt lat="47.25358" lon="-2.2615">
        <ele>45.200000762939</ele>
        <time>2020-10-22T08:26:15.000Z</time>
      </trkpt>
      <trkpt lat="47.25362" lon="-2.2615">
        <ele>44.599998474121</ele>
        <time>2020-10-22T08:26:16.000Z</time>
      </trkpt>
      <trkpt lat="47.25365" lon="-2.2615">
        <ele>44.200000762939</ele>
        <time>2020-10-22T08:26:17.000Z</time>
      </trkpt>
      <trkpt lat="47.25368" lon="-2.26149">
        <ele>44.200000762939</ele>
        <time>2020-10-22T08:26:18.000Z</time>
      </trkpt>
      <trkpt lat="47.25375" lon="-2.26138">
        <ele>43.799999237061</ele>
        <time>2020-10-22T08:26:22.000Z</time>
      </trkpt>
      <trkpt lat="47.25376" lon="-2.26137">
        <ele>43.400001525879</ele>
        <time>2020-10-22T08:26:23.000Z</time>
      </trkpt>
      <trkpt lat="47.25377" lon="-2.26135">
        <ele>43</ele>
        <time>2020-10-22T08:26:24.000Z</time>
      </trkpt>
      <trkpt lat="47.25377" lon="-2.26134">
        <ele>42.599998474121</ele>
        <time>2020-10-22T08:26:25.000Z</time>
      </trkpt>
      <trkpt lat="47.25378" lon="-2.26132">
        <ele>42</ele>
        <time>2020-10-22T08:26:26.000Z</time>
      </trkpt>
      <trkpt lat="47.25379" lon="-2.26128">
        <ele>42</ele>
        <time>2020-10-22T08:26:29.000Z</time>
      </trkpt>
      <trkpt lat="47.25382" lon="-2.26121">
        <ele>42</ele>
        <time>2020-10-22T08:26:36.000Z</time>
      </trkpt>
      <trkpt lat="47.25385" lon="-2.26123">
        <ele>42</ele>
        <time>2020-10-22T08:26:39.000Z</time>
      </trkpt>
      <trkpt lat="47.25391" lon="-2.26129">
        <ele>41.599998474121</ele>
        <time>2020-10-22T08:26:41.000Z</time>
      </trkpt>
      <trkpt lat="47.25396" lon="-2.26131">
        <ele>41</ele>
        <time>2020-10-22T08:26:42.000Z</time>
      </trkpt>
      <trkpt lat="47.254" lon="-2.26134">
        <ele>40.599998474121</ele>
        <time>2020-10-22T08:26:43.000Z</time>
      </trkpt>
      <trkpt lat="47.25404" lon="-2.26138">
        <ele>40</ele>
        <time>2020-10-22T08:26:44.000Z</time>
      </trkpt>
      <trkpt lat="47.25408" lon="-2.26142">
        <ele>39.599998474121</ele>
        <time>2020-10-22T08:26:45.000Z</time>
      </trkpt>
      <trkpt lat="47.25412" lon="-2.26148">
        <ele>39</ele>
        <time>2020-10-22T08:26:46.000Z</time>
      </trkpt>
      <trkpt lat="47.25416" lon="-2.26155">
        <ele>38.599998474121</ele>
        <time>2020-10-22T08:26:47.000Z</time>
      </trkpt>
      <trkpt lat="47.25418" lon="-2.26163">
        <ele>38</ele>
        <time>2020-10-22T08:26:48.000Z</time>
      </trkpt>
      <trkpt lat="47.2542" lon="-2.2617">
        <ele>37.599998474121</ele>
        <time>2020-10-22T08:26:49.000Z</time>
      </trkpt>
      <trkpt lat="47.25421" lon="-2.26178">
        <ele>37.599998474121</ele>
        <time>2020-10-22T08:26:50.000Z</time>
      </trkpt>
      <trkpt lat="47.25422" lon="-2.2619">
        <ele>37.599998474121</ele>
        <time>2020-10-22T08:26:52.000Z</time>
      </trkpt>
      <trkpt lat="47.25423" lon="-2.26209">
        <ele>37.599998474121</ele>
        <time>2020-10-22T08:26:55.000Z</time>
      </trkpt>
      <trkpt lat="47.2542" lon="-2.26227">
        <ele>37.599998474121</ele>
        <time>2020-10-22T08:26:59.000Z</time>
      </trkpt>
      <trkpt lat="47.25419" lon="-2.26241">
        <ele>38</ele>
        <time>2020-10-22T08:27:02.000Z</time>
      </trkpt>
      <trkpt lat="47.25419" lon="-2.26246">
        <ele>38.400001525879</ele>
        <time>2020-10-22T08:27:03.000Z</time>
      </trkpt>
      <trkpt lat="47.25419" lon="-2.26252">
        <ele>38.799999237061</ele>
        <time>2020-10-22T08:27:04.000Z</time>
      </trkpt>
      <trkpt lat="47.25419" lon="-2.26257">
        <ele>39.200000762939</ele>
        <time>2020-10-22T08:27:05.000Z</time>
      </trkpt>
      <trkpt lat="47.25418" lon="-2.26262">
        <ele>39.799999237061</ele>
        <time>2020-10-22T08:27:06.000Z</time>
      </trkpt>
      <trkpt lat="47.25417" lon="-2.26276">
        <ele>39.799999237061</ele>
        <time>2020-10-22T08:27:09.000Z</time>
      </trkpt>
      <trkpt lat="47.25421" lon="-2.26297">
        <ele>39.799999237061</ele>
        <time>2020-10-22T08:27:14.000Z</time>
      </trkpt>
      <trkpt lat="47.25424" lon="-2.26304">
        <ele>40.200000762939</ele>
        <time>2020-10-22T08:27:17.000Z</time>
      </trkpt>
      <trkpt lat="47.25425" lon="-2.26306">
        <ele>40.599998474121</ele>
        <time>2020-10-22T08:27:18.000Z</time>
      </trkpt>
      <trkpt lat="47.25424" lon="-2.26308">
        <ele>41</ele>
        <time>2020-10-22T08:27:19.000Z</time>
      </trkpt>
      <trkpt lat="47.25424" lon="-2.2631">
        <ele>41.400001525879</ele>
        <time>2020-10-22T08:27:20.000Z</time>
      </trkpt>
      <trkpt lat="47.25424" lon="-2.2631">
        <ele>41.799999237061</ele>
        <time>2020-10-22T08:27:21.000Z</time>
      </trkpt>
      <trkpt lat="47.25422" lon="-2.2631">
        <ele>41.799999237061</ele>
        <time>2020-10-22T08:27:30.000Z</time>
      </trkpt>
      <trkpt lat="47.25418" lon="-2.26313">
        <ele>41.799999237061</ele>
        <time>2020-10-22T08:27:34.000Z</time>
      </trkpt>
      <trkpt lat="47.25417" lon="-2.26312">
        <ele>41.799999237061</ele>
        <time>2020-10-22T08:27:36.000Z</time>
      </trkpt>
      <trkpt lat="47.25403" lon="-2.26313">
        <ele>46.200000762939</ele>
        <time>2020-10-22T08:27:47.000Z</time>
      </trkpt>
      <trkpt lat="47.25402" lon="-2.26311">
        <ele>46.200000762939</ele>
        <time>2020-10-22T08:27:48.000Z</time>
      </trkpt>
      <trkpt lat="47.25396" lon="-2.26295">
        <ele>46.200000762939</ele>
        <time>2020-10-22T08:27:54.000Z</time>
      </trkpt>
      <trkpt lat="47.25394" lon="-2.26286">
        <ele>46.599998474121</ele>
        <time>2020-10-22T08:28:00.000Z</time>
      </trkpt>
      <trkpt lat="47.25393" lon="-2.26285">
        <ele>47</ele>
        <time>2020-10-22T08:28:01.000Z</time>
      </trkpt>
      <trkpt lat="47.25393" lon="-2.26283">
        <ele>47.400001525879</ele>
        <time>2020-10-22T08:28:02.000Z</time>
      </trkpt>
      <trkpt lat="47.25393" lon="-2.26281">
        <ele>47.799999237061</ele>
        <time>2020-10-22T08:28:03.000Z</time>
      </trkpt>
      <trkpt lat="47.25393" lon="-2.26281">
        <ele>48.200000762939</ele>
        <time>2020-10-22T08:28:04.000Z</time>
      </trkpt>
      <trkpt lat="47.25394" lon="-2.26279">
        <ele>48.200000762939</ele>
        <time>2020-10-22T08:28:06.000Z</time>
      </trkpt>
      <trkpt lat="47.25395" lon="-2.26279">
        <ele>48.200000762939</ele>
        <time>2020-10-22T08:28:07.000Z</time>
      </trkpt>
      <trkpt lat="47.25389" lon="-2.26271">
        <ele>48.200000762939</ele>
        <time>2020-10-22T08:28:29.000Z</time>
      </trkpt>
      <trkpt lat="47.25391" lon="-2.26265">
        <ele>48.200000762939</ele>
        <time>2020-10-22T08:28:31.000Z</time>
      </trkpt>
      <trkpt lat="47.25393" lon="-2.26248">
        <ele>48.200000762939</ele>
        <time>2020-10-22T08:28:35.000Z</time>
      </trkpt>
      <trkpt lat="47.25393" lon="-2.26242">
        <ele>47.200000762939</ele>
        <time>2020-10-22T08:28:36.000Z</time>
      </trkpt>
      <trkpt lat="47.25392" lon="-2.26235">
        <ele>46.799999237061</ele>
        <time>2020-10-22T08:28:37.000Z</time>
      </trkpt>
      <trkpt lat="47.2539" lon="-2.2623">
        <ele>46.200000762939</ele>
        <time>2020-10-22T08:28:38.000Z</time>
      </trkpt>
      <trkpt lat="47.25389" lon="-2.26224">
        <ele>45.799999237061</ele>
        <time>2020-10-22T08:28:39.000Z</time>
      </trkpt>
      <trkpt lat="47.25385" lon="-2.26217">
        <ele>45.799999237061</ele>
        <time>2020-10-22T08:28:41.000Z</time>
      </trkpt>
      <trkpt lat="47.25377" lon="-2.26206">
        <ele>45.799999237061</ele>
        <time>2020-10-22T08:28:46.000Z</time>
      </trkpt>
      <trkpt lat="47.25374" lon="-2.26198">
        <ele>45.799999237061</ele>
        <time>2020-10-22T08:28:48.000Z</time>
      </trkpt>
      <trkpt lat="47.25372" lon="-2.26186">
        <ele>45.799999237061</ele>
        <time>2020-10-22T08:28:50.000Z</time>
      </trkpt>
      <trkpt lat="47.2537" lon="-2.26179">
        <ele>45.799999237061</ele>
        <time>2020-10-22T08:28:51.000Z</time>
      </trkpt>
      <trkpt lat="47.25373" lon="-2.26158">
        <ele>45.799999237061</ele>
        <time>2020-10-22T08:28:54.000Z</time>
      </trkpt>
      <trkpt lat="47.25378" lon="-2.26142">
        <ele>45.400001525879</ele>
        <time>2020-10-22T08:28:56.000Z</time>
      </trkpt>
      <trkpt lat="47.25379" lon="-2.26137">
        <ele>44.799999237061</ele>
        <time>2020-10-22T08:28:57.000Z</time>
      </trkpt>
      <trkpt lat="47.2538" lon="-2.26132">
        <ele>44.400001525879</ele>
        <time>2020-10-22T08:28:58.000Z</time>
      </trkpt>
      <trkpt lat="47.25382" lon="-2.26127">
        <ele>44</ele>
        <time>2020-10-22T08:28:59.000Z</time>
      </trkpt>
      <trkpt lat="47.25384" lon="-2.26125">
        <ele>43.400001525879</ele>
        <time>2020-10-22T08:29:00.000Z</time>
      </trkpt>
      <trkpt lat="47.25387" lon="-2.26123">
        <ele>42.599998474121</ele>
        <time>2020-10-22T08:29:01.000Z</time>
      </trkpt>
      <trkpt lat="47.25389" lon="-2.2612">
        <ele>42</ele>
        <time>2020-10-22T08:29:02.000Z</time>
      </trkpt>
      <trkpt lat="47.25391" lon="-2.26117">
        <ele>41.599998474121</ele>
        <time>2020-10-22T08:29:03.000Z</time>
      </trkpt>
      <trkpt lat="47.25392" lon="-2.26114">
        <ele>41.200000762939</ele>
        <time>2020-10-22T08:29:04.000Z</time>
      </trkpt>
      <trkpt lat="47.25393" lon="-2.26112">
        <ele>40.799999237061</ele>
        <time>2020-10-22T08:29:05.000Z</time>
      </trkpt>
      <trkpt lat="47.25394" lon="-2.26112">
        <ele>40.200000762939</ele>
        <time>2020-10-22T08:29:06.000Z</time>
      </trkpt>
      <trkpt lat="47.25395" lon="-2.26113">
        <ele>39.799999237061</ele>
        <time>2020-10-22T08:29:07.000Z</time>
      </trkpt>
      <trkpt lat="47.25396" lon="-2.26117">
        <ele>39.400001525879</ele>
        <time>2020-10-22T08:29:08.000Z</time>
      </trkpt>
      <trkpt lat="47.25397" lon="-2.26121">
        <ele>38.799999237061</ele>
        <time>2020-10-22T08:29:09.000Z</time>
      </trkpt>
      <trkpt lat="47.25401" lon="-2.26133">
        <ele>38.799999237061</ele>
        <time>2020-10-22T08:29:11.000Z</time>
      </trkpt>
      <trkpt lat="47.25412" lon="-2.26155">
        <ele>38.400001525879</ele>
        <time>2020-10-22T08:29:14.000Z</time>
      </trkpt>
      <trkpt lat="47.25414" lon="-2.26159">
        <ele>38</ele>
        <time>2020-10-22T08:29:15.000Z</time>
      </trkpt>
      <trkpt lat="47.25416" lon="-2.26162">
        <ele>37.599998474121</ele>
        <time>2020-10-22T08:29:16.000Z</time>
      </trkpt>
      <trkpt lat="47.25418" lon="-2.26165">
        <ele>37.200000762939</ele>
        <time>2020-10-22T08:29:17.000Z</time>
      </trkpt>
      <trkpt lat="47.25419" lon="-2.26169">
        <ele>36.599998474121</ele>
        <time>2020-10-22T08:29:18.000Z</time>
      </trkpt>
      <trkpt lat="47.25419" lon="-2.26172">
        <ele>36.599998474121</ele>
        <time>2020-10-22T08:29:19.000Z</time>
      </trkpt>
      <trkpt lat="47.2542" lon="-2.26175">
        <ele>36.599998474121</ele>
        <time>2020-10-22T08:29:23.000Z</time>
      </trkpt>
      <trkpt lat="47.2542" lon="-2.26172">
        <ele>36.599998474121</ele>
        <time>2020-10-22T08:29:29.000Z</time>
      </trkpt>
      <trkpt lat="47.25418" lon="-2.26166">
        <ele>36.599998474121</ele>
        <time>2020-10-22T08:29:31.000Z</time>
      </trkpt>
      <trkpt lat="47.25414" lon="-2.26154">
        <ele>36.599998474121</ele>
        <time>2020-10-22T08:29:34.000Z</time>
      </trkpt>
      <trkpt lat="47.25411" lon="-2.26145">
        <ele>36.599998474121</ele>
        <time>2020-10-22T08:29:36.000Z</time>
      </trkpt>
      <trkpt lat="47.25401" lon="-2.26118">
        <ele>36.599998474121</ele>
        <time>2020-10-22T08:29:43.000Z</time>
      </trkpt>
      <trkpt lat="47.25394" lon="-2.26101">
        <ele>37.200000762939</ele>
        <time>2020-10-22T08:29:48.000Z</time>
      </trkpt>
      <trkpt lat="47.25394" lon="-2.26098">
        <ele>37.599998474121</ele>
        <time>2020-10-22T08:29:49.000Z</time>
      </trkpt>
      <trkpt lat="47.25394" lon="-2.26094">
        <ele>38.400001525879</ele>
        <time>2020-10-22T08:29:50.000Z</time>
      </trkpt>
      <trkpt lat="47.25394" lon="-2.2609">
        <ele>39</ele>
        <time>2020-10-22T08:29:51.000Z</time>
      </trkpt>
      <trkpt lat="47.25392" lon="-2.26067">
        <ele>39</ele>
        <time>2020-10-22T08:29:55.000Z</time>
      </trkpt>
      <trkpt lat="47.25389" lon="-2.26046">
        <ele>39</ele>
        <time>2020-10-22T08:30:00.000Z</time>
      </trkpt>
      <trkpt lat="47.25381" lon="-2.26034">
        <ele>39</ele>
        <time>2020-10-22T08:30:04.000Z</time>
      </trkpt>
      <trkpt lat="47.25376" lon="-2.26031">
        <ele>39.400001525879</ele>
        <time>2020-10-22T08:30:06.000Z</time>
      </trkpt>
      <trkpt lat="47.25374" lon="-2.26031">
        <ele>39.799999237061</ele>
        <time>2020-10-22T08:30:07.000Z</time>
      </trkpt>
      <trkpt lat="47.25372" lon="-2.2603">
        <ele>40.200000762939</ele>
        <time>2020-10-22T08:30:08.000Z</time>
      </trkpt>
      <trkpt lat="47.25369" lon="-2.26029">
        <ele>40.799999237061</ele>
        <time>2020-10-22T08:30:09.000Z</time>
      </trkpt>
      <trkpt lat="47.25367" lon="-2.26028">
        <ele>41.200000762939</ele>
        <time>2020-10-22T08:30:10.000Z</time>
      </trkpt>
      <trkpt lat="47.25361" lon="-2.26025">
        <ele>41.200000762939</ele>
        <time>2020-10-22T08:30:14.000Z</time>
      </trkpt>
      <trkpt lat="47.25358" lon="-2.26024">
        <ele>41.599998474121</ele>
        <time>2020-10-22T08:30:16.000Z</time>
      </trkpt>
      <trkpt lat="47.25358" lon="-2.26024">
        <ele>42</ele>
        <time>2020-10-22T08:30:17.000Z</time>
      </trkpt>
      <trkpt lat="47.25358" lon="-2.26025">
        <ele>42.400001525879</ele>
        <time>2020-10-22T08:30:18.000Z</time>
      </trkpt>
      <trkpt lat="47.25357" lon="-2.26025">
        <ele>42.799999237061</ele>
        <time>2020-10-22T08:30:19.000Z</time>
      </trkpt>
      <trkpt lat="47.25357" lon="-2.26027">
        <ele>43.200000762939</ele>
        <time>2020-10-22T08:30:20.000Z</time>
      </trkpt>
      <trkpt lat="47.25356" lon="-2.26027">
        <ele>43.200000762939</ele>
        <time>2020-10-22T08:30:21.000Z</time>
      </trkpt>
      <trkpt lat="47.25355" lon="-2.26028">
        <ele>43.200000762939</ele>
        <time>2020-10-22T08:30:22.000Z</time>
      </trkpt>
      <trkpt lat="47.25351" lon="-2.26033">
        <ele>43.200000762939</ele>
        <time>2020-10-22T08:30:27.000Z</time>
      </trkpt>
      <trkpt lat="47.25339" lon="-2.26039">
        <ele>43.200000762939</ele>
        <time>2020-10-22T08:30:31.000Z</time>
      </trkpt>
      <trkpt lat="47.25337" lon="-2.26033">
        <ele>43.599998474121</ele>
        <time>2020-10-22T08:30:33.000Z</time>
      </trkpt>
      <trkpt lat="47.25337" lon="-2.26031">
        <ele>44</ele>
        <time>2020-10-22T08:30:34.000Z</time>
      </trkpt>
      <trkpt lat="47.25336" lon="-2.2603">
        <ele>44.400001525879</ele>
        <time>2020-10-22T08:30:35.000Z</time>
      </trkpt>
      <trkpt lat="47.25336" lon="-2.26029">
        <ele>44.799999237061</ele>
        <time>2020-10-22T08:30:36.000Z</time>
      </trkpt>
      <trkpt lat="47.25336" lon="-2.26028">
        <ele>45.200000762939</ele>
        <time>2020-10-22T08:30:37.000Z</time>
      </trkpt>
      <trkpt lat="47.25337" lon="-2.26027">
        <ele>45.200000762939</ele>
        <time>2020-10-22T08:30:40.000Z</time>
      </trkpt>
      <trkpt lat="47.25337" lon="-2.26027">
        <ele>45.200000762939</ele>
        <time>2020-10-22T08:30:41.000Z</time>
      </trkpt>
      <trkpt lat="47.25337" lon="-2.26024">
        <ele>45.200000762939</ele>
        <time>2020-10-22T08:30:50.000Z</time>
      </trkpt>
      <trkpt lat="47.2534" lon="-2.26022">
        <ele>45.200000762939</ele>
        <time>2020-10-22T08:30:52.000Z</time>
      </trkpt>
      <trkpt lat="47.25348" lon="-2.26017">
        <ele>45.200000762939</ele>
        <time>2020-10-22T08:30:56.000Z</time>
      </trkpt>
      <trkpt lat="47.25351" lon="-2.26016">
        <ele>45.200000762939</ele>
        <time>2020-10-22T08:30:57.000Z</time>
      </trkpt>
      <trkpt lat="47.25363" lon="-2.26014">
        <ele>44.799999237061</ele>
        <time>2020-10-22T08:31:01.000Z</time>
      </trkpt>
      <trkpt lat="47.25367" lon="-2.26014">
        <ele>44.400001525879</ele>
        <time>2020-10-22T08:31:02.000Z</time>
      </trkpt>
      <trkpt lat="47.25372" lon="-2.26016">
        <ele>44</ele>
        <time>2020-10-22T08:31:03.000Z</time>
      </trkpt>
      <trkpt lat="47.25376" lon="-2.26019">
        <ele>43.200000762939</ele>
        <time>2020-10-22T08:31:04.000Z</time>
      </trkpt>
      <trkpt lat="47.2538" lon="-2.26021">
        <ele>42.599998474121</ele>
        <time>2020-10-22T08:31:05.000Z</time>
      </trkpt>
      <trkpt lat="47.25384" lon="-2.26022">
        <ele>42.200000762939</ele>
        <time>2020-10-22T08:31:06.000Z</time>
      </trkpt>
      <trkpt lat="47.25385" lon="-2.26022">
        <ele>41.599998474121</ele>
        <time>2020-10-22T08:31:07.000Z</time>
      </trkpt>
      <trkpt lat="47.25386" lon="-2.26021">
        <ele>41.200000762939</ele>
        <time>2020-10-22T08:31:08.000Z</time>
      </trkpt>
      <trkpt lat="47.25388" lon="-2.2602">
        <ele>40.599998474121</ele>
        <time>2020-10-22T08:31:09.000Z</time>
      </trkpt>
      <trkpt lat="47.25389" lon="-2.26016">
        <ele>40.200000762939</ele>
        <time>2020-10-22T08:31:10.000Z</time>
      </trkpt>
      <trkpt lat="47.2539" lon="-2.26011">
        <ele>39.599998474121</ele>
        <time>2020-10-22T08:31:11.000Z</time>
      </trkpt>
      <trkpt lat="47.2539" lon="-2.26005">
        <ele>39.200000762939</ele>
        <time>2020-10-22T08:31:12.000Z</time>
      </trkpt>
      <trkpt lat="47.2539" lon="-2.26">
        <ele>38.599998474121</ele>
        <time>2020-10-22T08:31:13.000Z</time>
      </trkpt>
      <trkpt lat="47.25391" lon="-2.25997">
        <ele>38</ele>
        <time>2020-10-22T08:31:14.000Z</time>
      </trkpt>
      <trkpt lat="47.25394" lon="-2.25994">
        <ele>37.400001525879</ele>
        <time>2020-10-22T08:31:15.000Z</time>
      </trkpt>
      <trkpt lat="47.25396" lon="-2.25992">
        <ele>36.799999237061</ele>
        <time>2020-10-22T08:31:16.000Z</time>
      </trkpt>
      <trkpt lat="47.25398" lon="-2.25988">
        <ele>36.200000762939</ele>
        <time>2020-10-22T08:31:17.000Z</time>
      </trkpt>
      <trkpt lat="47.25401" lon="-2.25984">
        <ele>35.599998474121</ele>
        <time>2020-10-22T08:31:18.000Z</time>
      </trkpt>
      <trkpt lat="47.25403" lon="-2.25979">
        <ele>35</ele>
        <time>2020-10-22T08:31:19.000Z</time>
      </trkpt>
      <trkpt lat="47.25406" lon="-2.25974">
        <ele>34.400001525879</ele>
        <time>2020-10-22T08:31:20.000Z</time>
      </trkpt>
      <trkpt lat="47.25408" lon="-2.25969">
        <ele>33.799999237061</ele>
        <time>2020-10-22T08:31:21.000Z</time>
      </trkpt>
      <trkpt lat="47.25418" lon="-2.25953">
        <ele>33.799999237061</ele>
        <time>2020-10-22T08:31:25.000Z</time>
      </trkpt>
      <trkpt lat="47.25429" lon="-2.25936">
        <ele>33.799999237061</ele>
        <time>2020-10-22T08:31:30.000Z</time>
      </trkpt>
      <trkpt lat="47.25428" lon="-2.25917">
        <ele>33.799999237061</ele>
        <time>2020-10-22T08:31:34.000Z</time>
      </trkpt>
      <trkpt lat="47.25422" lon="-2.25882">
        <ele>33.799999237061</ele>
        <time>2020-10-22T08:31:39.000Z</time>
      </trkpt>
      <trkpt lat="47.25422" lon="-2.25874">
        <ele>33.799999237061</ele>
        <time>2020-10-22T08:31:40.000Z</time>
      </trkpt>
      <trkpt lat="47.25423" lon="-2.25854">
        <ele>33.799999237061</ele>
        <time>2020-10-22T08:31:43.000Z</time>
      </trkpt>
      <trkpt lat="47.25428" lon="-2.25835">
        <ele>33.799999237061</ele>
        <time>2020-10-22T08:31:47.000Z</time>
      </trkpt>
      <trkpt lat="47.25433" lon="-2.25809">
        <ele>33.799999237061</ele>
        <time>2020-10-22T08:31:52.000Z</time>
      </trkpt>
      <trkpt lat="47.25436" lon="-2.25781">
        <ele>33.799999237061</ele>
        <time>2020-10-22T08:31:57.000Z</time>
      </trkpt>
      <trkpt lat="47.25437" lon="-2.25765">
        <ele>33.799999237061</ele>
        <time>2020-10-22T08:32:01.000Z</time>
      </trkpt>
      <trkpt lat="47.25427" lon="-2.2576">
        <ele>33.799999237061</ele>
        <time>2020-10-22T08:32:05.000Z</time>
      </trkpt>
      <trkpt lat="47.25422" lon="-2.2576">
        <ele>33.799999237061</ele>
        <time>2020-10-22T08:32:06.000Z</time>
      </trkpt>
      <trkpt lat="47.25412" lon="-2.25758">
        <ele>33.400001525879</ele>
        <time>2020-10-22T08:32:08.000Z</time>
      </trkpt>
      <trkpt lat="47.25406" lon="-2.25758">
        <ele>33</ele>
        <time>2020-10-22T08:32:09.000Z</time>
      </trkpt>
      <trkpt lat="47.25401" lon="-2.25758">
        <ele>32.400001525879</ele>
        <time>2020-10-22T08:32:10.000Z</time>
      </trkpt>
      <trkpt lat="47.25398" lon="-2.25757">
        <ele>31.799999237061</ele>
        <time>2020-10-22T08:32:11.000Z</time>
      </trkpt>
      <trkpt lat="47.25395" lon="-2.25755">
        <ele>31.200000762939</ele>
        <time>2020-10-22T08:32:12.000Z</time>
      </trkpt>
      <trkpt lat="47.25393" lon="-2.25751">
        <ele>30.60000038147</ele>
        <time>2020-10-22T08:32:13.000Z</time>
      </trkpt>
      <trkpt lat="47.25391" lon="-2.25746">
        <ele>29.799999237061</ele>
        <time>2020-10-22T08:32:14.000Z</time>
      </trkpt>
      <trkpt lat="47.25391" lon="-2.2574">
        <ele>29.200000762939</ele>
        <time>2020-10-22T08:32:15.000Z</time>
      </trkpt>
      <trkpt lat="47.25393" lon="-2.25724">
        <ele>29.200000762939</ele>
        <time>2020-10-22T08:32:17.000Z</time>
      </trkpt>
      <trkpt lat="47.25394" lon="-2.25711">
        <ele>28.799999237061</ele>
        <time>2020-10-22T08:32:19.000Z</time>
      </trkpt>
      <trkpt lat="47.25394" lon="-2.25705">
        <ele>28.39999961853</ele>
        <time>2020-10-22T08:32:20.000Z</time>
      </trkpt>
      <trkpt lat="47.25395" lon="-2.25698">
        <ele>28</ele>
        <time>2020-10-22T08:32:21.000Z</time>
      </trkpt>
      <trkpt lat="47.25395" lon="-2.25693">
        <ele>27.39999961853</ele>
        <time>2020-10-22T08:32:22.000Z</time>
      </trkpt>
      <trkpt lat="47.25394" lon="-2.25689">
        <ele>27</ele>
        <time>2020-10-22T08:32:23.000Z</time>
      </trkpt>
      <trkpt lat="47.25391" lon="-2.2568">
        <ele>27</ele>
        <time>2020-10-22T08:32:25.000Z</time>
      </trkpt>
      <trkpt lat="47.25389" lon="-2.25674">
        <ele>27</ele>
        <time>2020-10-22T08:32:26.000Z</time>
      </trkpt>
      <trkpt lat="47.25384" lon="-2.25648">
        <ele>27</ele>
        <time>2020-10-22T08:32:30.000Z</time>
      </trkpt>
      <trkpt lat="47.25382" lon="-2.25633">
        <ele>27</ele>
        <time>2020-10-22T08:32:34.000Z</time>
      </trkpt>
      <trkpt lat="47.25382" lon="-2.25632">
        <ele>27</ele>
        <time>2020-10-22T08:32:35.000Z</time>
      </trkpt>
      <trkpt lat="47.2538" lon="-2.25625">
        <ele>25</ele>
        <time>2020-10-22T08:33:11.000Z</time>
      </trkpt>
      <trkpt lat="47.25378" lon="-2.25621">
        <ele>25</ele>
        <time>2020-10-22T08:33:13.000Z</time>
      </trkpt>
      <trkpt lat="47.25371" lon="-2.2561">
        <ele>25</ele>
        <time>2020-10-22T08:33:17.000Z</time>
      </trkpt>
      <trkpt lat="47.25369" lon="-2.25594">
        <ele>25</ele>
        <time>2020-10-22T08:33:21.000Z</time>
      </trkpt>
      <trkpt lat="47.25368" lon="-2.25589">
        <ele>25</ele>
        <time>2020-10-22T08:33:22.000Z</time>
      </trkpt>
      <trkpt lat="47.25366" lon="-2.2556">
        <ele>25</ele>
        <time>2020-10-22T08:33:28.000Z</time>
      </trkpt>
      <trkpt lat="47.25362" lon="-2.2552">
        <ele>25</ele>
        <time>2020-10-22T08:33:34.000Z</time>
      </trkpt>
      <trkpt lat="47.25361" lon="-2.25515">
        <ele>25</ele>
        <time>2020-10-22T08:33:35.000Z</time>
      </trkpt>
      <trkpt lat="47.25357" lon="-2.255">
        <ele>25</ele>
        <time>2020-10-22T08:33:37.000Z</time>
      </trkpt>
      <trkpt lat="47.25345" lon="-2.25459">
        <ele>25</ele>
        <time>2020-10-22T08:33:43.000Z</time>
      </trkpt>
      <trkpt lat="47.25342" lon="-2.25429">
        <ele>25</ele>
        <time>2020-10-22T08:33:48.000Z</time>
      </trkpt>
      <trkpt lat="47.25346" lon="-2.25413">
        <ele>25</ele>
        <time>2020-10-22T08:33:50.000Z</time>
      </trkpt>
      <trkpt lat="47.25348" lon="-2.25405">
        <ele>24.60000038147</ele>
        <time>2020-10-22T08:33:51.000Z</time>
      </trkpt>
      <trkpt lat="47.25351" lon="-2.25397">
        <ele>24</ele>
        <time>2020-10-22T08:33:52.000Z</time>
      </trkpt>
      <trkpt lat="47.25355" lon="-2.25391">
        <ele>23.60000038147</ele>
        <time>2020-10-22T08:33:53.000Z</time>
      </trkpt>
      <trkpt lat="47.25359" lon="-2.25387">
        <ele>23.200000762939</ele>
        <time>2020-10-22T08:33:54.000Z</time>
      </trkpt>
      <trkpt lat="47.25364" lon="-2.25386">
        <ele>22.60000038147</ele>
        <time>2020-10-22T08:33:55.000Z</time>
      </trkpt>
      <trkpt lat="47.25372" lon="-2.25384">
        <ele>22.60000038147</ele>
        <time>2020-10-22T08:33:57.000Z</time>
      </trkpt>
      <trkpt lat="47.25377" lon="-2.25383">
        <ele>22.60000038147</ele>
        <time>2020-10-22T08:33:59.000Z</time>
      </trkpt>
      <trkpt lat="47.25385" lon="-2.25378">
        <ele>22.60000038147</ele>
        <time>2020-10-22T08:34:04.000Z</time>
      </trkpt>
      <trkpt lat="47.25387" lon="-2.25377">
        <ele>22.60000038147</ele>
        <time>2020-10-22T08:34:05.000Z</time>
      </trkpt>
      <trkpt lat="47.25389" lon="-2.2538">
        <ele>22.60000038147</ele>
        <time>2020-10-22T08:34:08.000Z</time>
      </trkpt>
      <trkpt lat="47.2539" lon="-2.25386">
        <ele>22.60000038147</ele>
        <time>2020-10-22T08:34:12.000Z</time>
      </trkpt>
      <trkpt lat="47.25392" lon="-2.25389">
        <ele>22.60000038147</ele>
        <time>2020-10-22T08:34:14.000Z</time>
      </trkpt>
      <trkpt lat="47.25396" lon="-2.25391">
        <ele>22.60000038147</ele>
        <time>2020-10-22T08:34:17.000Z</time>
      </trkpt>
      <trkpt lat="47.25398" lon="-2.25391">
        <ele>22.60000038147</ele>
        <time>2020-10-22T08:34:19.000Z</time>
      </trkpt>
      <trkpt lat="47.25399" lon="-2.25393">
        <ele>22.60000038147</ele>
        <time>2020-10-22T08:34:20.000Z</time>
      </trkpt>
      <trkpt lat="47.25401" lon="-2.25394">
        <ele>23.200000762939</ele>
        <time>2020-10-22T08:34:21.000Z</time>
      </trkpt>
      <trkpt lat="47.25402" lon="-2.25395">
        <ele>23.60000038147</ele>
        <time>2020-10-22T08:34:22.000Z</time>
      </trkpt>
      <trkpt lat="47.25404" lon="-2.25396">
        <ele>24</ele>
        <time>2020-10-22T08:34:23.000Z</time>
      </trkpt>
      <trkpt lat="47.25406" lon="-2.25397">
        <ele>24.39999961853</ele>
        <time>2020-10-22T08:34:24.000Z</time>
      </trkpt>
      <trkpt lat="47.25408" lon="-2.25397">
        <ele>24.799999237061</ele>
        <time>2020-10-22T08:34:25.000Z</time>
      </trkpt>
      <trkpt lat="47.25413" lon="-2.25397">
        <ele>24.799999237061</ele>
        <time>2020-10-22T08:34:27.000Z</time>
      </trkpt>
      <trkpt lat="47.25417" lon="-2.254">
        <ele>24.799999237061</ele>
        <time>2020-10-22T08:34:29.000Z</time>
      </trkpt>
      <trkpt lat="47.25421" lon="-2.25403">
        <ele>25.200000762939</ele>
        <time>2020-10-22T08:34:31.000Z</time>
      </trkpt>
      <trkpt lat="47.25423" lon="-2.25403">
        <ele>25.60000038147</ele>
        <time>2020-10-22T08:34:32.000Z</time>
      </trkpt>
      <trkpt lat="47.25424" lon="-2.25403">
        <ele>26.200000762939</ele>
        <time>2020-10-22T08:34:33.000Z</time>
      </trkpt>
      <trkpt lat="47.25425" lon="-2.25402">
        <ele>26.60000038147</ele>
        <time>2020-10-22T08:34:34.000Z</time>
      </trkpt>
      <trkpt lat="47.25425" lon="-2.25402">
        <ele>27</ele>
        <time>2020-10-22T08:34:35.000Z</time>
      </trkpt>
      <trkpt lat="47.25427" lon="-2.25401">
        <ele>27</ele>
        <time>2020-10-22T08:34:40.000Z</time>
      </trkpt>
      <trkpt lat="47.2543" lon="-2.25398">
        <ele>27</ele>
        <time>2020-10-22T08:34:47.000Z</time>
      </trkpt>
      <trkpt lat="47.25433" lon="-2.254">
        <ele>27.39999961853</ele>
        <time>2020-10-22T08:34:49.000Z</time>
      </trkpt>
      <trkpt lat="47.25434" lon="-2.25401">
        <ele>27.799999237061</ele>
        <time>2020-10-22T08:34:50.000Z</time>
      </trkpt>
      <trkpt lat="47.25435" lon="-2.25402">
        <ele>28.200000762939</ele>
        <time>2020-10-22T08:34:51.000Z</time>
      </trkpt>
      <trkpt lat="47.25436" lon="-2.25402">
        <ele>28.60000038147</ele>
        <time>2020-10-22T08:34:52.000Z</time>
      </trkpt>
      <trkpt lat="47.25437" lon="-2.25403">
        <ele>29</ele>
        <time>2020-10-22T08:34:53.000Z</time>
      </trkpt>
      <trkpt lat="47.25439" lon="-2.25405">
        <ele>29</ele>
        <time>2020-10-22T08:34:54.000Z</time>
      </trkpt>
      <trkpt lat="47.25446" lon="-2.25406">
        <ele>29</ele>
        <time>2020-10-22T08:35:00.000Z</time>
      </trkpt>
      <trkpt lat="47.25448" lon="-2.25405">
        <ele>29.60000038147</ele>
        <time>2020-10-22T08:35:02.000Z</time>
      </trkpt>
      <trkpt lat="47.2545" lon="-2.25405">
        <ele>30</ele>
        <time>2020-10-22T08:35:03.000Z</time>
      </trkpt>
      <trkpt lat="47.25452" lon="-2.25404">
        <ele>30.39999961853</ele>
        <time>2020-10-22T08:35:04.000Z</time>
      </trkpt>
      <trkpt lat="47.25453" lon="-2.25404">
        <ele>30.799999237061</ele>
        <time>2020-10-22T08:35:05.000Z</time>
      </trkpt>
      <trkpt lat="47.25455" lon="-2.25404">
        <ele>31.200000762939</ele>
        <time>2020-10-22T08:35:06.000Z</time>
      </trkpt>
      <trkpt lat="47.25464" lon="-2.25407">
        <ele>31.200000762939</ele>
        <time>2020-10-22T08:35:13.000Z</time>
      </trkpt>
      <trkpt lat="47.25471" lon="-2.25412">
        <ele>31.200000762939</ele>
        <time>2020-10-22T08:35:17.000Z</time>
      </trkpt>
      <trkpt lat="47.25484" lon="-2.25421">
        <ele>35.599998474121</ele>
        <time>2020-10-22T08:35:44.000Z</time>
      </trkpt>
      <trkpt lat="47.25486" lon="-2.25424">
        <ele>35.799999237061</ele>
        <time>2020-10-22T08:35:45.000Z</time>
      </trkpt>
      <trkpt lat="47.25488" lon="-2.25426">
        <ele>36</ele>
        <time>2020-10-22T08:35:46.000Z</time>
      </trkpt>
      <trkpt lat="47.25496" lon="-2.2543">
        <ele>36</ele>
        <time>2020-10-22T08:35:49.000Z</time>
      </trkpt>
      <trkpt lat="47.25513" lon="-2.25443">
        <ele>36</ele>
        <time>2020-10-22T08:35:56.000Z</time>
      </trkpt>
      <trkpt lat="47.25518" lon="-2.25447">
        <ele>36.400001525879</ele>
        <time>2020-10-22T08:35:58.000Z</time>
      </trkpt>
      <trkpt lat="47.2552" lon="-2.25448">
        <ele>37.200000762939</ele>
        <time>2020-10-22T08:35:59.000Z</time>
      </trkpt>
      <trkpt lat="47.25522" lon="-2.2545">
        <ele>37.599998474121</ele>
        <time>2020-10-22T08:36:00.000Z</time>
      </trkpt>
      <trkpt lat="47.25523" lon="-2.25452">
        <ele>38</ele>
        <time>2020-10-22T08:36:01.000Z</time>
      </trkpt>
      <trkpt lat="47.25525" lon="-2.25453">
        <ele>38</ele>
        <time>2020-10-22T08:36:02.000Z</time>
      </trkpt>
      <trkpt lat="47.2553" lon="-2.25462">
        <ele>38.400001525879</ele>
        <time>2020-10-22T08:36:06.000Z</time>
      </trkpt>
      <trkpt lat="47.25532" lon="-2.25463">
        <ele>39</ele>
        <time>2020-10-22T08:36:07.000Z</time>
      </trkpt>
      <trkpt lat="47.25533" lon="-2.25465">
        <ele>39.400001525879</ele>
        <time>2020-10-22T08:36:08.000Z</time>
      </trkpt>
      <trkpt lat="47.25535" lon="-2.25468">
        <ele>39.799999237061</ele>
        <time>2020-10-22T08:36:09.000Z</time>
      </trkpt>
      <trkpt lat="47.25536" lon="-2.2547">
        <ele>40.200000762939</ele>
        <time>2020-10-22T08:36:10.000Z</time>
      </trkpt>
      <trkpt lat="47.25541" lon="-2.25474">
        <ele>40.200000762939</ele>
        <time>2020-10-22T08:36:13.000Z</time>
      </trkpt>
      <trkpt lat="47.25547" lon="-2.25478">
        <ele>40.599998474121</ele>
        <time>2020-10-22T08:36:16.000Z</time>
      </trkpt>
      <trkpt lat="47.25549" lon="-2.25479">
        <ele>41.200000762939</ele>
        <time>2020-10-22T08:36:17.000Z</time>
      </trkpt>
      <trkpt lat="47.2555" lon="-2.2548">
        <ele>41.599998474121</ele>
        <time>2020-10-22T08:36:18.000Z</time>
      </trkpt>
      <trkpt lat="47.25551" lon="-2.25481">
        <ele>42</ele>
        <time>2020-10-22T08:36:19.000Z</time>
      </trkpt>
      <trkpt lat="47.25552" lon="-2.25483">
        <ele>42.400001525879</ele>
        <time>2020-10-22T08:36:20.000Z</time>
      </trkpt>
      <trkpt lat="47.25556" lon="-2.25485">
        <ele>42.799999237061</ele>
        <time>2020-10-22T08:36:22.000Z</time>
      </trkpt>
      <trkpt lat="47.25557" lon="-2.25486">
        <ele>43.200000762939</ele>
        <time>2020-10-22T08:36:23.000Z</time>
      </trkpt>
      <trkpt lat="47.25558" lon="-2.25486">
        <ele>44</ele>
        <time>2020-10-22T08:36:24.000Z</time>
      </trkpt>
      <trkpt lat="47.2556" lon="-2.25485">
        <ele>44.400001525879</ele>
        <time>2020-10-22T08:36:25.000Z</time>
      </trkpt>
      <trkpt lat="47.25566" lon="-2.25485">
        <ele>44.400001525879</ele>
        <time>2020-10-22T08:36:30.000Z</time>
      </trkpt>
      <trkpt lat="47.25566" lon="-2.25485">
        <ele>44.400001525879</ele>
        <time>2020-10-22T08:36:31.000Z</time>
      </trkpt>
      <trkpt lat="47.25568" lon="-2.2549">
        <ele>44.400001525879</ele>
        <time>2020-10-22T08:37:36.000Z</time>
      </trkpt>
      <trkpt lat="47.25566" lon="-2.25495">
        <ele>44.400001525879</ele>
        <time>2020-10-22T08:37:38.000Z</time>
      </trkpt>
      <trkpt lat="47.2556" lon="-2.25516">
        <ele>44.400001525879</ele>
        <time>2020-10-22T08:37:44.000Z</time>
      </trkpt>
      <trkpt lat="47.25546" lon="-2.25538">
        <ele>44.400001525879</ele>
        <time>2020-10-22T08:37:48.000Z</time>
      </trkpt>
      <trkpt lat="47.25528" lon="-2.25572">
        <ele>44.400001525879</ele>
        <time>2020-10-22T08:37:52.000Z</time>
      </trkpt>
      <trkpt lat="47.25525" lon="-2.25581">
        <ele>44</ele>
        <time>2020-10-22T08:37:53.000Z</time>
      </trkpt>
      <trkpt lat="47.25522" lon="-2.2559">
        <ele>43.599998474121</ele>
        <time>2020-10-22T08:37:54.000Z</time>
      </trkpt>
      <trkpt lat="47.25519" lon="-2.25601">
        <ele>43.200000762939</ele>
        <time>2020-10-22T08:37:55.000Z</time>
      </trkpt>
      <trkpt lat="47.25516" lon="-2.25611">
        <ele>42.799999237061</ele>
        <time>2020-10-22T08:37:56.000Z</time>
      </trkpt>
      <trkpt lat="47.25514" lon="-2.25622">
        <ele>42.200000762939</ele>
        <time>2020-10-22T08:37:57.000Z</time>
      </trkpt>
      <trkpt lat="47.25511" lon="-2.25634">
        <ele>41.599998474121</ele>
        <time>2020-10-22T08:37:58.000Z</time>
      </trkpt>
      <trkpt lat="47.25509" lon="-2.25646">
        <ele>41.200000762939</ele>
        <time>2020-10-22T08:37:59.000Z</time>
      </trkpt>
      <trkpt lat="47.25508" lon="-2.25658">
        <ele>40.599998474121</ele>
        <time>2020-10-22T08:38:00.000Z</time>
      </trkpt>
      <trkpt lat="47.25506" lon="-2.25671">
        <ele>40</ele>
        <time>2020-10-22T08:38:01.000Z</time>
      </trkpt>
      <trkpt lat="47.25506" lon="-2.25683">
        <ele>39.400001525879</ele>
        <time>2020-10-22T08:38:02.000Z</time>
      </trkpt>
      <trkpt lat="47.25505" lon="-2.25694">
        <ele>38.400001525879</ele>
        <time>2020-10-22T08:38:03.000Z</time>
      </trkpt>
      <trkpt lat="47.25505" lon="-2.25705">
        <ele>37.799999237061</ele>
        <time>2020-10-22T08:38:04.000Z</time>
      </trkpt>
      <trkpt lat="47.25505" lon="-2.25731">
        <ele>37.799999237061</ele>
        <time>2020-10-22T08:38:07.000Z</time>
      </trkpt>
      <trkpt lat="47.25504" lon="-2.25737">
        <ele>37.799999237061</ele>
        <time>2020-10-22T08:38:08.000Z</time>
      </trkpt>
      <trkpt lat="47.25501" lon="-2.2575">
        <ele>37.799999237061</ele>
        <time>2020-10-22T08:38:11.000Z</time>
      </trkpt>
      <trkpt lat="47.25489" lon="-2.25766">
        <ele>37.799999237061</ele>
        <time>2020-10-22T08:38:16.000Z</time>
      </trkpt>
      <trkpt lat="47.25483" lon="-2.25785">
        <ele>37.799999237061</ele>
        <time>2020-10-22T08:38:20.000Z</time>
      </trkpt>
      <trkpt lat="47.25471" lon="-2.2581">
        <ele>38.200000762939</ele>
        <time>2020-10-22T08:38:26.000Z</time>
      </trkpt>
      <trkpt lat="47.25468" lon="-2.25814">
        <ele>38.599998474121</ele>
        <time>2020-10-22T08:38:27.000Z</time>
      </trkpt>
      <trkpt lat="47.25467" lon="-2.25819">
        <ele>39.400001525879</ele>
        <time>2020-10-22T08:38:28.000Z</time>
      </trkpt>
      <trkpt lat="47.25466" lon="-2.25825">
        <ele>39.799999237061</ele>
        <time>2020-10-22T08:38:29.000Z</time>
      </trkpt>
      <trkpt lat="47.25465" lon="-2.25831">
        <ele>39.799999237061</ele>
        <time>2020-10-22T08:38:30.000Z</time>
      </trkpt>
      <trkpt lat="47.25459" lon="-2.2587">
        <ele>39.799999237061</ele>
        <time>2020-10-22T08:38:37.000Z</time>
      </trkpt>
      <trkpt lat="47.25456" lon="-2.25882">
        <ele>39.799999237061</ele>
        <time>2020-10-22T08:38:39.000Z</time>
      </trkpt>
      <trkpt lat="47.25452" lon="-2.2589">
        <ele>39.799999237061</ele>
        <time>2020-10-22T08:38:41.000Z</time>
      </trkpt>
      <trkpt lat="47.25449" lon="-2.25904">
        <ele>39.799999237061</ele>
        <time>2020-10-22T08:38:44.000Z</time>
      </trkpt>
      <trkpt lat="47.25446" lon="-2.25923">
        <ele>39.799999237061</ele>
        <time>2020-10-22T08:38:48.000Z</time>
      </trkpt>
      <trkpt lat="47.25451" lon="-2.25945">
        <ele>39.799999237061</ele>
        <time>2020-10-22T08:38:53.000Z</time>
      </trkpt>
      <trkpt lat="47.25457" lon="-2.2597">
        <ele>39.799999237061</ele>
        <time>2020-10-22T08:38:59.000Z</time>
      </trkpt>
      <trkpt lat="47.25464" lon="-2.2599">
        <ele>39.799999237061</ele>
        <time>2020-10-22T08:39:05.000Z</time>
      </trkpt>
      <trkpt lat="47.25463" lon="-2.2599">
        <ele>39.799999237061</ele>
        <time>2020-10-22T08:39:07.000Z</time>
      </trkpt>
      <trkpt lat="47.25464" lon="-2.25997">
        <ele>39.799999237061</ele>
        <time>2020-10-22T08:39:21.000Z</time>
      </trkpt>
      <trkpt lat="47.2547" lon="-2.26018">
        <ele>39.799999237061</ele>
        <time>2020-10-22T08:39:25.000Z</time>
      </trkpt>
      <trkpt lat="47.2547" lon="-2.26026">
        <ele>39.799999237061</ele>
        <time>2020-10-22T08:39:26.000Z</time>
      </trkpt>
      <trkpt lat="47.25469" lon="-2.26057">
        <ele>39.799999237061</ele>
        <time>2020-10-22T08:39:30.000Z</time>
      </trkpt>
      <trkpt lat="47.25468" lon="-2.26064">
        <ele>39.799999237061</ele>
        <time>2020-10-22T08:39:31.000Z</time>
      </trkpt>
      <trkpt lat="47.25465" lon="-2.26079">
        <ele>39.799999237061</ele>
        <time>2020-10-22T08:39:33.000Z</time>
      </trkpt>
      <trkpt lat="47.25459" lon="-2.261">
        <ele>39.799999237061</ele>
        <time>2020-10-22T08:39:36.000Z</time>
      </trkpt>
      <trkpt lat="47.2545" lon="-2.26138">
        <ele>39.799999237061</ele>
        <time>2020-10-22T08:39:42.000Z</time>
      </trkpt>
      <trkpt lat="47.25449" lon="-2.26144">
        <ele>39.799999237061</ele>
        <time>2020-10-22T08:39:43.000Z</time>
      </trkpt>
      <trkpt lat="47.25445" lon="-2.26183">
        <ele>39.799999237061</ele>
        <time>2020-10-22T08:39:49.000Z</time>
      </trkpt>
      <trkpt lat="47.25444" lon="-2.26189">
        <ele>39.799999237061</ele>
        <time>2020-10-22T08:39:50.000Z</time>
      </trkpt>
      <trkpt lat="47.25445" lon="-2.26218">
        <ele>39.799999237061</ele>
        <time>2020-10-22T08:39:55.000Z</time>
      </trkpt>
      <trkpt lat="47.25449" lon="-2.26222">
        <ele>40.200000762939</ele>
        <time>2020-10-22T08:39:57.000Z</time>
      </trkpt>
      <trkpt lat="47.25452" lon="-2.26223">
        <ele>40.599998474121</ele>
        <time>2020-10-22T08:39:58.000Z</time>
      </trkpt>
      <trkpt lat="47.25455" lon="-2.26223">
        <ele>41</ele>
        <time>2020-10-22T08:39:59.000Z</time>
      </trkpt>
      <trkpt lat="47.25458" lon="-2.26223">
        <ele>41.400001525879</ele>
        <time>2020-10-22T08:40:00.000Z</time>
      </trkpt>
      <trkpt lat="47.2546" lon="-2.26224">
        <ele>41.799999237061</ele>
        <time>2020-10-22T08:40:01.000Z</time>
      </trkpt>
      <trkpt lat="47.25464" lon="-2.26229">
        <ele>41.799999237061</ele>
        <time>2020-10-22T08:40:03.000Z</time>
      </trkpt>
      <trkpt lat="47.25469" lon="-2.26238">
        <ele>42.200000762939</ele>
        <time>2020-10-22T08:40:06.000Z</time>
      </trkpt>
      <trkpt lat="47.2547" lon="-2.26242">
        <ele>42.799999237061</ele>
        <time>2020-10-22T08:40:07.000Z</time>
      </trkpt>
      <trkpt lat="47.25471" lon="-2.26245">
        <ele>43.599998474121</ele>
        <time>2020-10-22T08:40:08.000Z</time>
      </trkpt>
      <trkpt lat="47.25471" lon="-2.26248">
        <ele>44</ele>
        <time>2020-10-22T08:40:09.000Z</time>
      </trkpt>
      <trkpt lat="47.25468" lon="-2.26271">
        <ele>44</ele>
        <time>2020-10-22T08:40:14.000Z</time>
      </trkpt>
      <trkpt lat="47.25469" lon="-2.26278">
        <ele>44</ele>
        <time>2020-10-22T08:40:16.000Z</time>
      </trkpt>
      <trkpt lat="47.2547" lon="-2.26282">
        <ele>44</ele>
        <time>2020-10-22T08:40:18.000Z</time>
      </trkpt>
      <trkpt lat="47.25471" lon="-2.26284">
        <ele>44.400001525879</ele>
        <time>2020-10-22T08:40:19.000Z</time>
      </trkpt>
      <trkpt lat="47.25471" lon="-2.26286">
        <ele>44.799999237061</ele>
        <time>2020-10-22T08:40:20.000Z</time>
      </trkpt>
      <trkpt lat="47.25472" lon="-2.26288">
        <ele>45.400001525879</ele>
        <time>2020-10-22T08:40:21.000Z</time>
      </trkpt>
      <trkpt lat="47.25472" lon="-2.26289">
        <ele>45.799999237061</ele>
        <time>2020-10-22T08:40:22.000Z</time>
      </trkpt>
      <trkpt lat="47.25473" lon="-2.26292">
        <ele>46.200000762939</ele>
        <time>2020-10-22T08:40:23.000Z</time>
      </trkpt>
      <trkpt lat="47.25473" lon="-2.26297">
        <ele>46.200000762939</ele>
        <time>2020-10-22T08:40:24.000Z</time>
      </trkpt>
      <trkpt lat="47.25476" lon="-2.2631">
        <ele>46.200000762939</ele>
        <time>2020-10-22T08:40:28.000Z</time>
      </trkpt>
      <trkpt lat="47.25477" lon="-2.26314">
        <ele>46.200000762939</ele>
        <time>2020-10-22T08:40:29.000Z</time>
      </trkpt>
      <trkpt lat="47.25476" lon="-2.26334">
        <ele>46.200000762939</ele>
        <time>2020-10-22T08:40:34.000Z</time>
      </trkpt>
      <trkpt lat="47.25476" lon="-2.26365">
        <ele>46.200000762939</ele>
        <time>2020-10-22T08:40:41.000Z</time>
      </trkpt>
      <trkpt lat="47.25481" lon="-2.26375">
        <ele>46.200000762939</ele>
        <time>2020-10-22T08:40:45.000Z</time>
      </trkpt>
      <trkpt lat="47.25482" lon="-2.26378">
        <ele>46.599998474121</ele>
        <time>2020-10-22T08:40:46.000Z</time>
      </trkpt>
      <trkpt lat="47.25484" lon="-2.2638">
        <ele>47.200000762939</ele>
        <time>2020-10-22T08:40:47.000Z</time>
      </trkpt>
      <trkpt lat="47.25485" lon="-2.26382">
        <ele>47.599998474121</ele>
        <time>2020-10-22T08:40:48.000Z</time>
      </trkpt>
      <trkpt lat="47.25486" lon="-2.26385">
        <ele>48</ele>
        <time>2020-10-22T08:40:49.000Z</time>
      </trkpt>
      <trkpt lat="47.25486" lon="-2.26388">
        <ele>48.599998474121</ele>
        <time>2020-10-22T08:40:50.000Z</time>
      </trkpt>
      <trkpt lat="47.25485" lon="-2.264">
        <ele>49</ele>
        <time>2020-10-22T08:40:54.000Z</time>
      </trkpt>
      <trkpt lat="47.25485" lon="-2.26403">
        <ele>49.400001525879</ele>
        <time>2020-10-22T08:40:55.000Z</time>
      </trkpt>
      <trkpt lat="47.25485" lon="-2.26406">
        <ele>49.799999237061</ele>
        <time>2020-10-22T08:40:56.000Z</time>
      </trkpt>
      <trkpt lat="47.25485" lon="-2.26409">
        <ele>50.599998474121</ele>
        <time>2020-10-22T08:40:57.000Z</time>
      </trkpt>
      <trkpt lat="47.25482" lon="-2.26426">
        <ele>50.599998474121</ele>
        <time>2020-10-22T08:41:01.000Z</time>
      </trkpt>
      <trkpt lat="47.25478" lon="-2.26464">
        <ele>50.599998474121</ele>
        <time>2020-10-22T08:41:07.000Z</time>
      </trkpt>
      <trkpt lat="47.25484" lon="-2.26489">
        <ele>50.599998474121</ele>
        <time>2020-10-22T08:41:11.000Z</time>
      </trkpt>
      <trkpt lat="47.25485" lon="-2.26508">
        <ele>50.599998474121</ele>
        <time>2020-10-22T08:41:16.000Z</time>
      </trkpt>
      <trkpt lat="47.25487" lon="-2.26519">
        <ele>50.599998474121</ele>
        <time>2020-10-22T08:41:21.000Z</time>
      </trkpt>
      <trkpt lat="47.25489" lon="-2.2653">
        <ele>50.599998474121</ele>
        <time>2020-10-22T08:41:26.000Z</time>
      </trkpt>
      <trkpt lat="47.25489" lon="-2.26532">
        <ele>50.599998474121</ele>
        <time>2020-10-22T08:41:27.000Z</time>
      </trkpt>
      <trkpt lat="47.25485" lon="-2.26543">
        <ele>50.599998474121</ele>
        <time>2020-10-22T08:51:18.000Z</time>
      </trkpt>
      <trkpt lat="47.25485" lon="-2.26549">
        <ele>50.599998474121</ele>
        <time>2020-10-22T08:51:20.000Z</time>
      </trkpt>
      <trkpt lat="47.25488" lon="-2.26563">
        <ele>50.599998474121</ele>
        <time>2020-10-22T08:51:24.000Z</time>
      </trkpt>
      <trkpt lat="47.25489" lon="-2.26572">
        <ele>50.599998474121</ele>
        <time>2020-10-22T08:51:26.000Z</time>
      </trkpt>
      <trkpt lat="47.2549" lon="-2.2659">
        <ele>50.599998474121</ele>
        <time>2020-10-22T08:51:30.000Z</time>
      </trkpt>
      <trkpt lat="47.25489" lon="-2.26626">
        <ele>50.599998474121</ele>
        <time>2020-10-22T08:51:36.000Z</time>
      </trkpt>
      <trkpt lat="47.25491" lon="-2.26646">
        <ele>50.599998474121</ele>
        <time>2020-10-22T08:51:40.000Z</time>
      </trkpt>
      <trkpt lat="47.25493" lon="-2.26649">
        <ele>50.599998474121</ele>
        <time>2020-10-22T08:51:41.000Z</time>
      </trkpt>
      <trkpt lat="47.25503" lon="-2.26667">
        <ele>50.599998474121</ele>
        <time>2020-10-22T08:51:47.000Z</time>
      </trkpt>
      <trkpt lat="47.25504" lon="-2.26669">
        <ele>51</ele>
        <time>2020-10-22T08:51:48.000Z</time>
      </trkpt>
      <trkpt lat="47.25506" lon="-2.26669">
        <ele>51.400001525879</ele>
        <time>2020-10-22T08:51:49.000Z</time>
      </trkpt>
      <trkpt lat="47.25507" lon="-2.2667">
        <ele>51.799999237061</ele>
        <time>2020-10-22T08:51:50.000Z</time>
      </trkpt>
      <trkpt lat="47.25509" lon="-2.2667">
        <ele>52.200000762939</ele>
        <time>2020-10-22T08:51:51.000Z</time>
      </trkpt>
      <trkpt lat="47.2551" lon="-2.2667">
        <ele>52.599998474121</ele>
        <time>2020-10-22T08:51:52.000Z</time>
      </trkpt>
      <trkpt lat="47.25522" lon="-2.26663">
        <ele>52.599998474121</ele>
        <time>2020-10-22T08:51:57.000Z</time>
      </trkpt>
      <trkpt lat="47.25524" lon="-2.2666">
        <ele>53</ele>
        <time>2020-10-22T08:51:58.000Z</time>
      </trkpt>
      <trkpt lat="47.25527" lon="-2.26658">
        <ele>53.400001525879</ele>
        <time>2020-10-22T08:51:59.000Z</time>
      </trkpt>
      <trkpt lat="47.2553" lon="-2.26658">
        <ele>53.799999237061</ele>
        <time>2020-10-22T08:52:00.000Z</time>
      </trkpt>
      <trkpt lat="47.25534" lon="-2.26658">
        <ele>54.200000762939</ele>
        <time>2020-10-22T08:52:01.000Z</time>
      </trkpt>
      <trkpt lat="47.25537" lon="-2.26659">
        <ele>54.599998474121</ele>
        <time>2020-10-22T08:52:02.000Z</time>
      </trkpt>
      <trkpt lat="47.2554" lon="-2.26662">
        <ele>54.599998474121</ele>
        <time>2020-10-22T08:52:03.000Z</time>
      </trkpt>
      <trkpt lat="47.25551" lon="-2.26681">
        <ele>54.599998474121</ele>
        <time>2020-10-22T08:52:09.000Z</time>
      </trkpt>
      <trkpt lat="47.25556" lon="-2.26687">
        <ele>55</ele>
        <time>2020-10-22T08:52:11.000Z</time>
      </trkpt>
      <trkpt lat="47.25558" lon="-2.2669">
        <ele>55.400001525879</ele>
        <time>2020-10-22T08:52:12.000Z</time>
      </trkpt>
      <trkpt lat="47.25561" lon="-2.26693">
        <ele>56</ele>
        <time>2020-10-22T08:52:13.000Z</time>
      </trkpt>
      <trkpt lat="47.25563" lon="-2.26695">
        <ele>56.400001525879</ele>
        <time>2020-10-22T08:52:14.000Z</time>
      </trkpt>
      <trkpt lat="47.25565" lon="-2.26698">
        <ele>56.799999237061</ele>
        <time>2020-10-22T08:52:15.000Z</time>
      </trkpt>
      <trkpt lat="47.2557" lon="-2.26705">
        <ele>56.799999237061</ele>
        <time>2020-10-22T08:52:17.000Z</time>
      </trkpt>
      <trkpt lat="47.25588" lon="-2.2673">
        <ele>56.799999237061</ele>
        <time>2020-10-22T08:52:25.000Z</time>
      </trkpt>
      <trkpt lat="47.256" lon="-2.26748">
        <ele>57.200000762939</ele>
        <time>2020-10-22T08:52:30.000Z</time>
      </trkpt>
      <trkpt lat="47.25602" lon="-2.26752">
        <ele>57.599998474121</ele>
        <time>2020-10-22T08:52:31.000Z</time>
      </trkpt>
      <trkpt lat="47.25604" lon="-2.26755">
        <ele>58</ele>
        <time>2020-10-22T08:52:32.000Z</time>
      </trkpt>
      <trkpt lat="47.25607" lon="-2.26758">
        <ele>58.400001525879</ele>
        <time>2020-10-22T08:52:33.000Z</time>
      </trkpt>
      <trkpt lat="47.25609" lon="-2.26761">
        <ele>58.799999237061</ele>
        <time>2020-10-22T08:52:34.000Z</time>
      </trkpt>
      <trkpt lat="47.25624" lon="-2.26782">
        <ele>58.799999237061</ele>
        <time>2020-10-22T08:52:42.000Z</time>
      </trkpt>
      <trkpt lat="47.25626" lon="-2.26791">
        <ele>58.799999237061</ele>
        <time>2020-10-22T08:52:46.000Z</time>
      </trkpt>
      <trkpt lat="47.25626" lon="-2.26798">
        <ele>58.799999237061</ele>
        <time>2020-10-22T08:52:51.000Z</time>
      </trkpt>
      <trkpt lat="47.25627" lon="-2.26799">
        <ele>58.799999237061</ele>
        <time>2020-10-22T08:52:52.000Z</time>
      </trkpt>
      <trkpt lat="47.2563" lon="-2.26802">
        <ele>58.799999237061</ele>
        <time>2020-10-22T08:52:55.000Z</time>
      </trkpt>
      <trkpt lat="47.25629" lon="-2.26807">
        <ele>58.799999237061</ele>
        <time>2020-10-22T08:53:03.000Z</time>
      </trkpt>
      <trkpt lat="47.25628" lon="-2.26808">
        <ele>58.799999237061</ele>
        <time>2020-10-22T08:53:04.000Z</time>
      </trkpt>
      <trkpt lat="47.25628" lon="-2.26808">
        <ele>58.799999237061</ele>
        <time>2020-10-22T08:53:05.000Z</time>
      </trkpt>
      <trkpt lat="47.25626" lon="-2.26811">
        <ele>58.799999237061</ele>
        <time>2020-10-22T08:53:10.000Z</time>
      </trkpt>
      <trkpt lat="47.25625" lon="-2.26815">
        <ele>58.799999237061</ele>
        <time>2020-10-22T08:53:12.000Z</time>
      </trkpt>
      <trkpt lat="47.25625" lon="-2.26817">
        <ele>58.799999237061</ele>
        <time>2020-10-22T08:53:13.000Z</time>
      </trkpt>
      <trkpt lat="47.25625" lon="-2.26819">
        <ele>59.200000762939</ele>
        <time>2020-10-22T08:53:14.000Z</time>
      </trkpt>
      <trkpt lat="47.25627" lon="-2.26821">
        <ele>59.599998474121</ele>
        <time>2020-10-22T08:53:15.000Z</time>
      </trkpt>
      <trkpt lat="47.25628" lon="-2.26824">
        <ele>60</ele>
        <time>2020-10-22T08:53:16.000Z</time>
      </trkpt>
      <trkpt lat="47.25629" lon="-2.26826">
        <ele>60.799999237061</ele>
        <time>2020-10-22T08:53:17.000Z</time>
      </trkpt>
      <trkpt lat="47.25631" lon="-2.26829">
        <ele>60.799999237061</ele>
        <time>2020-10-22T08:53:18.000Z</time>
      </trkpt>
      <trkpt lat="47.25636" lon="-2.26833">
        <ele>60.799999237061</ele>
        <time>2020-10-22T08:53:20.000Z</time>
      </trkpt>
      <trkpt lat="47.25639" lon="-2.26834">
        <ele>60.799999237061</ele>
        <time>2020-10-22T08:53:21.000Z</time>
      </trkpt>
      <trkpt lat="47.25653" lon="-2.26828">
        <ele>60.799999237061</ele>
        <time>2020-10-22T08:53:26.000Z</time>
      </trkpt>
      <trkpt lat="47.25674" lon="-2.26815">
        <ele>60.799999237061</ele>
        <time>2020-10-22T08:53:33.000Z</time>
      </trkpt>
      <trkpt lat="47.2569" lon="-2.26815">
        <ele>60.799999237061</ele>
        <time>2020-10-22T08:53:37.000Z</time>
      </trkpt>
      <trkpt lat="47.25694" lon="-2.26816">
        <ele>60.799999237061</ele>
        <time>2020-10-22T08:53:38.000Z</time>
      </trkpt>
      <trkpt lat="47.25713" lon="-2.26824">
        <ele>60.799999237061</ele>
        <time>2020-10-22T08:53:44.000Z</time>
      </trkpt>
      <trkpt lat="47.25722" lon="-2.26833">
        <ele>60.799999237061</ele>
        <time>2020-10-22T08:53:49.000Z</time>
      </trkpt>
      <trkpt lat="47.25733" lon="-2.26847">
        <ele>60.799999237061</ele>
        <time>2020-10-22T08:53:53.000Z</time>
      </trkpt>
      <trkpt lat="47.25745" lon="-2.26878">
        <ele>60.799999237061</ele>
        <time>2020-10-22T08:53:59.000Z</time>
      </trkpt>
      <trkpt lat="47.25751" lon="-2.269">
        <ele>60.799999237061</ele>
        <time>2020-10-22T08:54:04.000Z</time>
      </trkpt>
      <trkpt lat="47.25755" lon="-2.26901">
        <ele>60.799999237061</ele>
        <time>2020-10-22T08:54:05.000Z</time>
      </trkpt>
      <trkpt lat="47.2577" lon="-2.26896">
        <ele>60.799999237061</ele>
        <time>2020-10-22T08:54:10.000Z</time>
      </trkpt>
      <trkpt lat="47.25773" lon="-2.26892">
        <ele>60.799999237061</ele>
        <time>2020-10-22T08:54:11.000Z</time>
      </trkpt>
      <trkpt lat="47.25777" lon="-2.26889">
        <ele>60.799999237061</ele>
        <time>2020-10-22T08:54:12.000Z</time>
      </trkpt>
      <trkpt lat="47.25795" lon="-2.2688">
        <ele>60.799999237061</ele>
        <time>2020-10-22T08:54:16.000Z</time>
      </trkpt>
      <trkpt lat="47.25829" lon="-2.26862">
        <ele>60.799999237061</ele>
        <time>2020-10-22T08:54:23.000Z</time>
      </trkpt>
      <trkpt lat="47.25835" lon="-2.26861">
        <ele>60.799999237061</ele>
        <time>2020-10-22T08:54:24.000Z</time>
      </trkpt>
      <trkpt lat="47.25857" lon="-2.26855">
        <ele>60.799999237061</ele>
        <time>2020-10-22T08:54:28.000Z</time>
      </trkpt>
      <trkpt lat="47.25876" lon="-2.26845">
        <ele>60.400001525879</ele>
        <time>2020-10-22T08:54:32.000Z</time>
      </trkpt>
      <trkpt lat="47.25879" lon="-2.26844">
        <ele>60</ele>
        <time>2020-10-22T08:54:33.000Z</time>
      </trkpt>
      <trkpt lat="47.25881" lon="-2.26843">
        <ele>59.599998474121</ele>
        <time>2020-10-22T08:54:34.000Z</time>
      </trkpt>
      <trkpt lat="47.25883" lon="-2.26842">
        <ele>59.200000762939</ele>
        <time>2020-10-22T08:54:35.000Z</time>
      </trkpt>
      <trkpt lat="47.25885" lon="-2.26841">
        <ele>58.799999237061</ele>
        <time>2020-10-22T08:54:36.000Z</time>
      </trkpt>
      <trkpt lat="47.25891" lon="-2.26838">
        <ele>58.799999237061</ele>
        <time>2020-10-22T08:54:39.000Z</time>
      </trkpt>
      <trkpt lat="47.25912" lon="-2.26826">
        <ele>58.799999237061</ele>
        <time>2020-10-22T08:54:47.000Z</time>
      </trkpt>
      <trkpt lat="47.25929" lon="-2.26815">
        <ele>58.799999237061</ele>
        <time>2020-10-22T08:54:52.000Z</time>
      </trkpt>
      <trkpt lat="47.25949" lon="-2.26816">
        <ele>58.400001525879</ele>
        <time>2020-10-22T08:54:57.000Z</time>
      </trkpt>
      <trkpt lat="47.25953" lon="-2.26815">
        <ele>58</ele>
        <time>2020-10-22T08:54:58.000Z</time>
      </trkpt>
      <trkpt lat="47.25957" lon="-2.26815">
        <ele>57.599998474121</ele>
        <time>2020-10-22T08:54:59.000Z</time>
      </trkpt>
      <trkpt lat="47.25961" lon="-2.26815">
        <ele>57.200000762939</ele>
        <time>2020-10-22T08:55:00.000Z</time>
      </trkpt>
      <trkpt lat="47.25965" lon="-2.26816">
        <ele>56.599998474121</ele>
        <time>2020-10-22T08:55:01.000Z</time>
      </trkpt>
      <trkpt lat="47.2597" lon="-2.26818">
        <ele>56.599998474121</ele>
        <time>2020-10-22T08:55:02.000Z</time>
      </trkpt>
      <trkpt lat="47.25984" lon="-2.2682">
        <ele>56.599998474121</ele>
        <time>2020-10-22T08:55:06.000Z</time>
      </trkpt>
      <trkpt lat="47.25988" lon="-2.26833">
        <ele>56.599998474121</ele>
        <time>2020-10-22T08:55:09.000Z</time>
      </trkpt>
      <trkpt lat="47.25988" lon="-2.26843">
        <ele>56.599998474121</ele>
        <time>2020-10-22T08:55:11.000Z</time>
      </trkpt>
      <trkpt lat="47.2599" lon="-2.2686">
        <ele>56.599998474121</ele>
        <time>2020-10-22T08:55:14.000Z</time>
      </trkpt>
      <trkpt lat="47.25993" lon="-2.26885">
        <ele>56.599998474121</ele>
        <time>2020-10-22T08:55:18.000Z</time>
      </trkpt>
      <trkpt lat="47.25997" lon="-2.26898">
        <ele>56.599998474121</ele>
        <time>2020-10-22T08:55:20.000Z</time>
      </trkpt>
      <trkpt lat="47.26003" lon="-2.26911">
        <ele>56.599998474121</ele>
        <time>2020-10-22T08:55:22.000Z</time>
      </trkpt>
      <trkpt lat="47.26017" lon="-2.26935">
        <ele>56.599998474121</ele>
        <time>2020-10-22T08:55:26.000Z</time>
      </trkpt>
      <trkpt lat="47.26021" lon="-2.26939">
        <ele>56.599998474121</ele>
        <time>2020-10-22T08:55:27.000Z</time>
      </trkpt>
      <trkpt lat="47.26036" lon="-2.2696">
        <ele>56.599998474121</ele>
        <time>2020-10-22T08:55:31.000Z</time>
      </trkpt>
      <trkpt lat="47.2606" lon="-2.26999">
        <ele>56.599998474121</ele>
        <time>2020-10-22T08:55:37.000Z</time>
      </trkpt>
      <trkpt lat="47.26078" lon="-2.2705">
        <ele>56.599998474121</ele>
        <time>2020-10-22T08:55:43.000Z</time>
      </trkpt>
      <trkpt lat="47.2609" lon="-2.27108">
        <ele>56.599998474121</ele>
        <time>2020-10-22T08:55:49.000Z</time>
      </trkpt>
      <trkpt lat="47.26096" lon="-2.27145">
        <ele>56.599998474121</ele>
        <time>2020-10-22T08:55:53.000Z</time>
      </trkpt>
      <trkpt lat="47.26099" lon="-2.27154">
        <ele>56.599998474121</ele>
        <time>2020-10-22T08:55:54.000Z</time>
      </trkpt>
      <trkpt lat="47.26102" lon="-2.27162">
        <ele>56.599998474121</ele>
        <time>2020-10-22T08:55:55.000Z</time>
      </trkpt>
      <trkpt lat="47.26117" lon="-2.27203">
        <ele>56.599998474121</ele>
        <time>2020-10-22T08:56:00.000Z</time>
      </trkpt>
      <trkpt lat="47.26135" lon="-2.2725">
        <ele>56.599998474121</ele>
        <time>2020-10-22T08:56:06.000Z</time>
      </trkpt>
      <trkpt lat="47.26141" lon="-2.27274">
        <ele>56.599998474121</ele>
        <time>2020-10-22T08:56:09.000Z</time>
      </trkpt>
      <trkpt lat="47.26146" lon="-2.273">
        <ele>56.599998474121</ele>
        <time>2020-10-22T08:56:12.000Z</time>
      </trkpt>
      <trkpt lat="47.26148" lon="-2.27308">
        <ele>56.599998474121</ele>
        <time>2020-10-22T08:56:13.000Z</time>
      </trkpt>
      <trkpt lat="47.26158" lon="-2.2732">
        <ele>56.599998474121</ele>
        <time>2020-10-22T08:56:16.000Z</time>
      </trkpt>
      <trkpt lat="47.26168" lon="-2.2732">
        <ele>56.599998474121</ele>
        <time>2020-10-22T08:56:18.000Z</time>
      </trkpt>
      <trkpt lat="47.26179" lon="-2.27318">
        <ele>56.599998474121</ele>
        <time>2020-10-22T08:56:20.000Z</time>
      </trkpt>
      <trkpt lat="47.26202" lon="-2.27313">
        <ele>56.599998474121</ele>
        <time>2020-10-22T08:56:24.000Z</time>
      </trkpt>
      <trkpt lat="47.26208" lon="-2.27313">
        <ele>56.599998474121</ele>
        <time>2020-10-22T08:56:25.000Z</time>
      </trkpt>
      <trkpt lat="47.26236" lon="-2.27318">
        <ele>56.599998474121</ele>
        <time>2020-10-22T08:56:30.000Z</time>
      </trkpt>
      <trkpt lat="47.26266" lon="-2.27321">
        <ele>56.599998474121</ele>
        <time>2020-10-22T08:56:35.000Z</time>
      </trkpt>
      <trkpt lat="47.26285" lon="-2.27322">
        <ele>56.599998474121</ele>
        <time>2020-10-22T08:56:38.000Z</time>
      </trkpt>
      <trkpt lat="47.26305" lon="-2.27325">
        <ele>56.599998474121</ele>
        <time>2020-10-22T08:56:41.000Z</time>
      </trkpt>
      <trkpt lat="47.26338" lon="-2.27328">
        <ele>56.599998474121</ele>
        <time>2020-10-22T08:56:46.000Z</time>
      </trkpt>
      <trkpt lat="47.26351" lon="-2.27329">
        <ele>56.599998474121</ele>
        <time>2020-10-22T08:56:48.000Z</time>
      </trkpt>
      <trkpt lat="47.26382" lon="-2.27331">
        <ele>56.200000762939</ele>
        <time>2020-10-22T08:56:53.000Z</time>
      </trkpt>
      <trkpt lat="47.26388" lon="-2.27331">
        <ele>55.799999237061</ele>
        <time>2020-10-22T08:56:54.000Z</time>
      </trkpt>
      <trkpt lat="47.26394" lon="-2.27331">
        <ele>55.400001525879</ele>
        <time>2020-10-22T08:56:55.000Z</time>
      </trkpt>
      <trkpt lat="47.264" lon="-2.27331">
        <ele>55</ele>
        <time>2020-10-22T08:56:56.000Z</time>
      </trkpt>
      <trkpt lat="47.26405" lon="-2.27332">
        <ele>54.599998474121</ele>
        <time>2020-10-22T08:56:57.000Z</time>
      </trkpt>
      <trkpt lat="47.26422" lon="-2.27336">
        <ele>54.599998474121</ele>
        <time>2020-10-22T08:57:00.000Z</time>
      </trkpt>
      <trkpt lat="47.26432" lon="-2.27352">
        <ele>54.599998474121</ele>
        <time>2020-10-22T08:57:03.000Z</time>
      </trkpt>
      <trkpt lat="47.26435" lon="-2.27359">
        <ele>54.599998474121</ele>
        <time>2020-10-22T08:57:04.000Z</time>
      </trkpt>
      <trkpt lat="47.26446" lon="-2.27387">
        <ele>54.599998474121</ele>
        <time>2020-10-22T08:57:08.000Z</time>
      </trkpt>
      <trkpt lat="47.26448" lon="-2.27395">
        <ele>54.200000762939</ele>
        <time>2020-10-22T08:57:09.000Z</time>
      </trkpt>
      <trkpt lat="47.2645" lon="-2.27402">
        <ele>53.799999237061</ele>
        <time>2020-10-22T08:57:10.000Z</time>
      </trkpt>
      <trkpt lat="47.26453" lon="-2.2741">
        <ele>53.400001525879</ele>
        <time>2020-10-22T08:57:11.000Z</time>
      </trkpt>
      <trkpt lat="47.26456" lon="-2.27419">
        <ele>53</ele>
        <time>2020-10-22T08:57:12.000Z</time>
      </trkpt>
      <trkpt lat="47.26459" lon="-2.27427">
        <ele>52.599998474121</ele>
        <time>2020-10-22T08:57:13.000Z</time>
      </trkpt>
      <trkpt lat="47.26465" lon="-2.27444">
        <ele>52.599998474121</ele>
        <time>2020-10-22T08:57:15.000Z</time>
      </trkpt>
      <trkpt lat="47.26475" lon="-2.27478">
        <ele>52.599998474121</ele>
        <time>2020-10-22T08:57:19.000Z</time>
      </trkpt>
      <trkpt lat="47.2648" lon="-2.27496">
        <ele>52.599998474121</ele>
        <time>2020-10-22T08:57:21.000Z</time>
      </trkpt>
      <trkpt lat="47.26488" lon="-2.27534">
        <ele>52.200000762939</ele>
        <time>2020-10-22T08:57:25.000Z</time>
      </trkpt>
      <trkpt lat="47.26489" lon="-2.27545">
        <ele>51.799999237061</ele>
        <time>2020-10-22T08:57:26.000Z</time>
      </trkpt>
      <trkpt lat="47.26491" lon="-2.27555">
        <ele>51.400001525879</ele>
        <time>2020-10-22T08:57:27.000Z</time>
      </trkpt>
      <trkpt lat="47.26492" lon="-2.27564">
        <ele>51</ele>
        <time>2020-10-22T08:57:28.000Z</time>
      </trkpt>
      <trkpt lat="47.26494" lon="-2.27571">
        <ele>50.599998474121</ele>
        <time>2020-10-22T08:57:29.000Z</time>
      </trkpt>
      <trkpt lat="47.26497" lon="-2.27575">
        <ele>50.599998474121</ele>
        <time>2020-10-22T08:57:30.000Z</time>
      </trkpt>
      <trkpt lat="47.26501" lon="-2.27577">
        <ele>50.200000762939</ele>
        <time>2020-10-22T08:57:31.000Z</time>
      </trkpt>
      <trkpt lat="47.26505" lon="-2.27578">
        <ele>49.799999237061</ele>
        <time>2020-10-22T08:57:32.000Z</time>
      </trkpt>
      <trkpt lat="47.2651" lon="-2.27577">
        <ele>49.400001525879</ele>
        <time>2020-10-22T08:57:33.000Z</time>
      </trkpt>
      <trkpt lat="47.26514" lon="-2.27576">
        <ele>48.799999237061</ele>
        <time>2020-10-22T08:57:34.000Z</time>
      </trkpt>
      <trkpt lat="47.2652" lon="-2.27576">
        <ele>48.400001525879</ele>
        <time>2020-10-22T08:57:35.000Z</time>
      </trkpt>
      <trkpt lat="47.26531" lon="-2.2758">
        <ele>48.400001525879</ele>
        <time>2020-10-22T08:57:37.000Z</time>
      </trkpt>
      <trkpt lat="47.26537" lon="-2.27583">
        <ele>48.400001525879</ele>
        <time>2020-10-22T08:57:38.000Z</time>
      </trkpt>
      <trkpt lat="47.26555" lon="-2.27585">
        <ele>48.400001525879</ele>
        <time>2020-10-22T08:57:41.000Z</time>
      </trkpt>
      <trkpt lat="47.26562" lon="-2.27584">
        <ele>48.400001525879</ele>
        <time>2020-10-22T08:57:42.000Z</time>
      </trkpt>
      <trkpt lat="47.26583" lon="-2.27587">
        <ele>48.400001525879</ele>
        <time>2020-10-22T08:57:45.000Z</time>
      </trkpt>
      <trkpt lat="47.2659" lon="-2.2759">
        <ele>48.400001525879</ele>
        <time>2020-10-22T08:57:46.000Z</time>
      </trkpt>
      <trkpt lat="47.26631" lon="-2.27612">
        <ele>48.400001525879</ele>
        <time>2020-10-22T08:57:53.000Z</time>
      </trkpt>
      <trkpt lat="47.26637" lon="-2.27615">
        <ele>48.400001525879</ele>
        <time>2020-10-22T08:57:54.000Z</time>
      </trkpt>
      <trkpt lat="47.26661" lon="-2.27626">
        <ele>48.400001525879</ele>
        <time>2020-10-22T08:57:58.000Z</time>
      </trkpt>
      <trkpt lat="47.26672" lon="-2.2763">
        <ele>48.400001525879</ele>
        <time>2020-10-22T08:58:00.000Z</time>
      </trkpt>
      <trkpt lat="47.26688" lon="-2.27632">
        <ele>48.400001525879</ele>
        <time>2020-10-22T08:58:03.000Z</time>
      </trkpt>
      <trkpt lat="47.26693" lon="-2.27634">
        <ele>48.400001525879</ele>
        <time>2020-10-22T08:58:04.000Z</time>
      </trkpt>
      <trkpt lat="47.26714" lon="-2.27642">
        <ele>48.400001525879</ele>
        <time>2020-10-22T08:58:08.000Z</time>
      </trkpt>
      <trkpt lat="47.26719" lon="-2.27642">
        <ele>48.400001525879</ele>
        <time>2020-10-22T08:58:09.000Z</time>
      </trkpt>
      <trkpt lat="47.26747" lon="-2.27651">
        <ele>48.400001525879</ele>
        <time>2020-10-22T08:58:15.000Z</time>
      </trkpt>
      <trkpt lat="47.2676" lon="-2.27643">
        <ele>48.400001525879</ele>
        <time>2020-10-22T08:58:19.000Z</time>
      </trkpt>
      <trkpt lat="47.26761" lon="-2.27638">
        <ele>48.400001525879</ele>
        <time>2020-10-22T08:58:20.000Z</time>
      </trkpt>
      <trkpt lat="47.26759" lon="-2.27626">
        <ele>48.400001525879</ele>
        <time>2020-10-22T08:58:22.000Z</time>
      </trkpt>
      <trkpt lat="47.26753" lon="-2.27582">
        <ele>48.400001525879</ele>
        <time>2020-10-22T08:58:29.000Z</time>
      </trkpt>
      <trkpt lat="47.26751" lon="-2.27551">
        <ele>48.400001525879</ele>
        <time>2020-10-22T08:58:34.000Z</time>
      </trkpt>
      <trkpt lat="47.26751" lon="-2.27538">
        <ele>48.400001525879</ele>
        <time>2020-10-22T08:58:36.000Z</time>
      </trkpt>
      <trkpt lat="47.26752" lon="-2.27496">
        <ele>48.400001525879</ele>
        <time>2020-10-22T08:58:43.000Z</time>
      </trkpt>
      <trkpt lat="47.26752" lon="-2.27441">
        <ele>48.400001525879</ele>
        <time>2020-10-22T08:58:51.000Z</time>
      </trkpt>
      <trkpt lat="47.2675" lon="-2.27411">
        <ele>48.400001525879</ele>
        <time>2020-10-22T08:58:56.000Z</time>
      </trkpt>
      <trkpt lat="47.26751" lon="-2.27407">
        <ele>48.400001525879</ele>
        <time>2020-10-22T08:58:58.000Z</time>
      </trkpt>
      <trkpt lat="47.26755" lon="-2.2741">
        <ele>48.400001525879</ele>
        <time>2020-10-22T08:59:00.000Z</time>
      </trkpt>
      <trkpt lat="47.26769" lon="-2.27411">
        <ele>48.400001525879</ele>
        <time>2020-10-22T08:59:04.000Z</time>
      </trkpt>
      <trkpt lat="47.26792" lon="-2.2741">
        <ele>48.400001525879</ele>
        <time>2020-10-22T08:59:10.000Z</time>
      </trkpt>
      <trkpt lat="47.26796" lon="-2.2741">
        <ele>48.400001525879</ele>
        <time>2020-10-22T08:59:11.000Z</time>
      </trkpt>
      <trkpt lat="47.26819" lon="-2.27408">
        <ele>48.400001525879</ele>
        <time>2020-10-22T08:59:17.000Z</time>
      </trkpt>
      <trkpt lat="47.26847" lon="-2.27397">
        <ele>48.400001525879</ele>
        <time>2020-10-22T08:59:24.000Z</time>
      </trkpt>
      <trkpt lat="47.2686" lon="-2.2739">
        <ele>48</ele>
        <time>2020-10-22T08:59:27.000Z</time>
      </trkpt>
      <trkpt lat="47.26865" lon="-2.27388">
        <ele>47.599998474121</ele>
        <time>2020-10-22T08:59:28.000Z</time>
      </trkpt>
      <trkpt lat="47.26869" lon="-2.27386">
        <ele>47.200000762939</ele>
        <time>2020-10-22T08:59:29.000Z</time>
      </trkpt>
      <trkpt lat="47.26874" lon="-2.27385">
        <ele>46.799999237061</ele>
        <time>2020-10-22T08:59:30.000Z</time>
      </trkpt>
      <trkpt lat="47.26878" lon="-2.27383">
        <ele>46.400001525879</ele>
        <time>2020-10-22T08:59:31.000Z</time>
      </trkpt>
      <trkpt lat="47.26882" lon="-2.27381">
        <ele>46.400001525879</ele>
        <time>2020-10-22T08:59:32.000Z</time>
      </trkpt>
      <trkpt lat="47.26892" lon="-2.27377">
        <ele>46</ele>
        <time>2020-10-22T08:59:34.000Z</time>
      </trkpt>
      <trkpt lat="47.26896" lon="-2.27374">
        <ele>45.599998474121</ele>
        <time>2020-10-22T08:59:35.000Z</time>
      </trkpt>
      <trkpt lat="47.269" lon="-2.27371">
        <ele>45.200000762939</ele>
        <time>2020-10-22T08:59:36.000Z</time>
      </trkpt>
      <trkpt lat="47.26902" lon="-2.27368">
        <ele>44.799999237061</ele>
        <time>2020-10-22T08:59:37.000Z</time>
      </trkpt>
      <trkpt lat="47.26905" lon="-2.27365">
        <ele>44.400001525879</ele>
        <time>2020-10-22T08:59:38.000Z</time>
      </trkpt>
      <trkpt lat="47.2691" lon="-2.27352">
        <ele>44.400001525879</ele>
        <time>2020-10-22T08:59:42.000Z</time>
      </trkpt>
      <trkpt lat="47.26919" lon="-2.27332">
        <ele>44.400001525879</ele>
        <time>2020-10-22T08:59:48.000Z</time>
      </trkpt>
      <trkpt lat="47.2692" lon="-2.27329">
        <ele>44.400001525879</ele>
        <time>2020-10-22T08:59:49.000Z</time>
      </trkpt>
      <trkpt lat="47.26924" lon="-2.27318">
        <ele>44.400001525879</ele>
        <time>2020-10-22T08:59:54.000Z</time>
      </trkpt>
      <trkpt lat="47.26928" lon="-2.27297">
        <ele>44.400001525879</ele>
        <time>2020-10-22T09:00:00.000Z</time>
      </trkpt>
      <trkpt lat="47.26927" lon="-2.27294">
        <ele>44.400001525879</ele>
        <time>2020-10-22T09:00:01.000Z</time>
      </trkpt>
      <trkpt lat="47.26925" lon="-2.27286">
        <ele>44.400001525879</ele>
        <time>2020-10-22T09:00:04.000Z</time>
      </trkpt>
      <trkpt lat="47.26925" lon="-2.27283">
        <ele>44.400001525879</ele>
        <time>2020-10-22T09:00:05.000Z</time>
      </trkpt>
      <trkpt lat="47.26926" lon="-2.2728">
        <ele>44.400001525879</ele>
        <time>2020-10-22T09:00:06.000Z</time>
      </trkpt>
      <trkpt lat="47.26928" lon="-2.27268">
        <ele>44.400001525879</ele>
        <time>2020-10-22T09:00:10.000Z</time>
      </trkpt>
      <trkpt lat="47.26939" lon="-2.27257">
        <ele>44.400001525879</ele>
        <time>2020-10-22T09:00:15.000Z</time>
      </trkpt>
      <trkpt lat="47.26943" lon="-2.27259">
        <ele>44.400001525879</ele>
        <time>2020-10-22T09:00:16.000Z</time>
      </trkpt>
      <trkpt lat="47.26955" lon="-2.27249">
        <ele>44.400001525879</ele>
        <time>2020-10-22T09:00:20.000Z</time>
      </trkpt>
      <trkpt lat="47.2696" lon="-2.27242">
        <ele>44.400001525879</ele>
        <time>2020-10-22T09:00:22.000Z</time>
      </trkpt>
      <trkpt lat="47.26965" lon="-2.27223">
        <ele>44.400001525879</ele>
        <time>2020-10-22T09:00:26.000Z</time>
      </trkpt>
      <trkpt lat="47.26965" lon="-2.27207">
        <ele>44.400001525879</ele>
        <time>2020-10-22T09:00:31.000Z</time>
      </trkpt>
      <trkpt lat="47.26967" lon="-2.27205">
        <ele>44.400001525879</ele>
        <time>2020-10-22T09:00:32.000Z</time>
      </trkpt>
      <trkpt lat="47.26973" lon="-2.27198">
        <ele>44.400001525879</ele>
        <time>2020-10-22T09:00:36.000Z</time>
      </trkpt>
      <trkpt lat="47.26976" lon="-2.27188">
        <ele>44.400001525879</ele>
        <time>2020-10-22T09:00:40.000Z</time>
      </trkpt>
      <trkpt lat="47.26978" lon="-2.27188">
        <ele>44.400001525879</ele>
        <time>2020-10-22T09:00:42.000Z</time>
      </trkpt>
      <trkpt lat="47.26984" lon="-2.27189">
        <ele>44.400001525879</ele>
        <time>2020-10-22T09:00:47.000Z</time>
      </trkpt>
      <trkpt lat="47.26985" lon="-2.27186">
        <ele>44.400001525879</ele>
        <time>2020-10-22T09:00:48.000Z</time>
      </trkpt>
      <trkpt lat="47.26991" lon="-2.27182">
        <ele>44.400001525879</ele>
        <time>2020-10-22T09:00:52.000Z</time>
      </trkpt>
      <trkpt lat="47.26996" lon="-2.27175">
        <ele>44.400001525879</ele>
        <time>2020-10-22T09:00:55.000Z</time>
      </trkpt>
      <trkpt lat="47.26999" lon="-2.27177">
        <ele>44.400001525879</ele>
        <time>2020-10-22T09:00:58.000Z</time>
      </trkpt>
      <trkpt lat="47.27003" lon="-2.2718">
        <ele>43.599998474121</ele>
        <time>2020-10-22T09:01:01.000Z</time>
      </trkpt>
      <trkpt lat="47.27005" lon="-2.27179">
        <ele>43.200000762939</ele>
        <time>2020-10-22T09:01:02.000Z</time>
      </trkpt>
      <trkpt lat="47.27007" lon="-2.27178">
        <ele>42.799999237061</ele>
        <time>2020-10-22T09:01:03.000Z</time>
      </trkpt>
      <trkpt lat="47.27009" lon="-2.27177">
        <ele>42.400001525879</ele>
        <time>2020-10-22T09:01:04.000Z</time>
      </trkpt>
      <trkpt lat="47.2701" lon="-2.27173">
        <ele>42.400001525879</ele>
        <time>2020-10-22T09:01:06.000Z</time>
      </trkpt>
      <trkpt lat="47.27014" lon="-2.27168">
        <ele>42.400001525879</ele>
        <time>2020-10-22T09:01:09.000Z</time>
      </trkpt>
      <trkpt lat="47.27015" lon="-2.27166">
        <ele>42.400001525879</ele>
        <time>2020-10-22T09:01:10.000Z</time>
      </trkpt>
      <trkpt lat="47.27016" lon="-2.27165">
        <ele>42.400001525879</ele>
        <time>2020-10-22T09:01:11.000Z</time>
      </trkpt>
      <trkpt lat="47.27022" lon="-2.27159">
        <ele>42</ele>
        <time>2020-10-22T09:01:15.000Z</time>
      </trkpt>
      <trkpt lat="47.27024" lon="-2.27156">
        <ele>41.400001525879</ele>
        <time>2020-10-22T09:01:16.000Z</time>
      </trkpt>
      <trkpt lat="47.27025" lon="-2.27152">
        <ele>41</ele>
        <time>2020-10-22T09:01:17.000Z</time>
      </trkpt>
      <trkpt lat="47.27026" lon="-2.2715">
        <ele>40.599998474121</ele>
        <time>2020-10-22T09:01:18.000Z</time>
      </trkpt>
      <trkpt lat="47.27027" lon="-2.27147">
        <ele>40.200000762939</ele>
        <time>2020-10-22T09:01:19.000Z</time>
      </trkpt>
      <trkpt lat="47.27026" lon="-2.27143">
        <ele>40.200000762939</ele>
        <time>2020-10-22T09:01:20.000Z</time>
      </trkpt>
      <trkpt lat="47.2702" lon="-2.27129">
        <ele>40.200000762939</ele>
        <time>2020-10-22T09:01:25.000Z</time>
      </trkpt>
      <trkpt lat="47.27015" lon="-2.2712">
        <ele>40.599998474121</ele>
        <time>2020-10-22T09:01:29.000Z</time>
      </trkpt>
      <trkpt lat="47.27014" lon="-2.27118">
        <ele>41</ele>
        <time>2020-10-22T09:01:30.000Z</time>
      </trkpt>
      <trkpt lat="47.27013" lon="-2.27116">
        <ele>41.400001525879</ele>
        <time>2020-10-22T09:01:31.000Z</time>
      </trkpt>
      <trkpt lat="47.27012" lon="-2.27112">
        <ele>41.799999237061</ele>
        <time>2020-10-22T09:01:32.000Z</time>
      </trkpt>
      <trkpt lat="47.27012" lon="-2.27109">
        <ele>42.200000762939</ele>
        <time>2020-10-22T09:01:33.000Z</time>
      </trkpt>
      <trkpt lat="47.27011" lon="-2.27096">
        <ele>42.200000762939</ele>
        <time>2020-10-22T09:01:37.000Z</time>
      </trkpt>
      <trkpt lat="47.2701" lon="-2.27091">
        <ele>42.200000762939</ele>
        <time>2020-10-22T09:01:41.000Z</time>
      </trkpt>
      <trkpt lat="47.2701" lon="-2.2709">
        <ele>42.200000762939</ele>
        <time>2020-10-22T09:01:43.000Z</time>
      </trkpt>
      <trkpt lat="47.2701" lon="-2.27088">
        <ele>42.200000762939</ele>
        <time>2020-10-22T09:01:44.000Z</time>
      </trkpt>
      <trkpt lat="47.27008" lon="-2.27078">
        <ele>42.200000762939</ele>
        <time>2020-10-22T09:01:48.000Z</time>
      </trkpt>
      <trkpt lat="47.27003" lon="-2.27064">
        <ele>42.200000762939</ele>
        <time>2020-10-22T09:01:54.000Z</time>
      </trkpt>
      <trkpt lat="47.26994" lon="-2.27042">
        <ele>42.200000762939</ele>
        <time>2020-10-22T09:02:00.000Z</time>
      </trkpt>
      <trkpt lat="47.26983" lon="-2.27023">
        <ele>42.200000762939</ele>
        <time>2020-10-22T09:02:05.000Z</time>
      </trkpt>
      <trkpt lat="47.26967" lon="-2.27001">
        <ele>42.200000762939</ele>
        <time>2020-10-22T09:02:10.000Z</time>
      </trkpt>
      <trkpt lat="47.26965" lon="-2.26995">
        <ele>42.200000762939</ele>
        <time>2020-10-22T09:02:11.000Z</time>
      </trkpt>
      <trkpt lat="47.26963" lon="-2.2697">
        <ele>42.200000762939</ele>
        <time>2020-10-22T09:02:14.000Z</time>
      </trkpt>
      <trkpt lat="47.26965" lon="-2.26953">
        <ele>42.200000762939</ele>
        <time>2020-10-22T09:02:16.000Z</time>
      </trkpt>
      <trkpt lat="47.26968" lon="-2.26925">
        <ele>42.200000762939</ele>
        <time>2020-10-22T09:02:19.000Z</time>
      </trkpt>
      <trkpt lat="47.26969" lon="-2.26915">
        <ele>42.200000762939</ele>
        <time>2020-10-22T09:02:20.000Z</time>
      </trkpt>
      <trkpt lat="47.26965" lon="-2.26886">
        <ele>42.200000762939</ele>
        <time>2020-10-22T09:02:23.000Z</time>
      </trkpt>
      <trkpt lat="47.26961" lon="-2.26869">
        <ele>42.200000762939</ele>
        <time>2020-10-22T09:02:25.000Z</time>
      </trkpt>
      <trkpt lat="47.2696" lon="-2.2686">
        <ele>42.200000762939</ele>
        <time>2020-10-22T09:02:26.000Z</time>
      </trkpt>
      <trkpt lat="47.2696" lon="-2.26853">
        <ele>41.799999237061</ele>
        <time>2020-10-22T09:02:27.000Z</time>
      </trkpt>
      <trkpt lat="47.26959" lon="-2.26847">
        <ele>41.400001525879</ele>
        <time>2020-10-22T09:02:28.000Z</time>
      </trkpt>
      <trkpt lat="47.26958" lon="-2.26841">
        <ele>40.799999237061</ele>
        <time>2020-10-22T09:02:29.000Z</time>
      </trkpt>
      <trkpt lat="47.26958" lon="-2.26835">
        <ele>40.400001525879</ele>
        <time>2020-10-22T09:02:30.000Z</time>
      </trkpt>
      <trkpt lat="47.26958" lon="-2.2683">
        <ele>40</ele>
        <time>2020-10-22T09:02:31.000Z</time>
      </trkpt>
      <trkpt lat="47.2696" lon="-2.26826">
        <ele>40</ele>
        <time>2020-10-22T09:02:32.000Z</time>
      </trkpt>
      <trkpt lat="47.26962" lon="-2.26821">
        <ele>40</ele>
        <time>2020-10-22T09:02:33.000Z</time>
      </trkpt>
      <trkpt lat="47.26973" lon="-2.26807">
        <ele>40</ele>
        <time>2020-10-22T09:02:36.000Z</time>
      </trkpt>
      <trkpt lat="47.26977" lon="-2.26803">
        <ele>40</ele>
        <time>2020-10-22T09:02:37.000Z</time>
      </trkpt>
      <trkpt lat="47.26991" lon="-2.26791">
        <ele>40</ele>
        <time>2020-10-22T09:02:42.000Z</time>
      </trkpt>
      <trkpt lat="47.26994" lon="-2.26791">
        <ele>40</ele>
        <time>2020-10-22T09:02:43.000Z</time>
      </trkpt>
      <trkpt lat="47.26998" lon="-2.2679">
        <ele>39.599998474121</ele>
        <time>2020-10-22T09:02:45.000Z</time>
      </trkpt>
      <trkpt lat="47.27" lon="-2.26788">
        <ele>39.200000762939</ele>
        <time>2020-10-22T09:02:46.000Z</time>
      </trkpt>
      <trkpt lat="47.27002" lon="-2.26785">
        <ele>38.799999237061</ele>
        <time>2020-10-22T09:02:47.000Z</time>
      </trkpt>
      <trkpt lat="47.27004" lon="-2.26783">
        <ele>38.400001525879</ele>
        <time>2020-10-22T09:02:48.000Z</time>
      </trkpt>
      <trkpt lat="47.27005" lon="-2.26781">
        <ele>38</ele>
        <time>2020-10-22T09:02:49.000Z</time>
      </trkpt>
      <trkpt lat="47.27009" lon="-2.26778">
        <ele>38</ele>
        <time>2020-10-22T09:02:51.000Z</time>
      </trkpt>
      <trkpt lat="47.27015" lon="-2.26767">
        <ele>38</ele>
        <time>2020-10-22T09:02:55.000Z</time>
      </trkpt>
      <trkpt lat="47.27023" lon="-2.2676">
        <ele>38</ele>
        <time>2020-10-22T09:02:59.000Z</time>
      </trkpt>
      <trkpt lat="47.27033" lon="-2.2675">
        <ele>38</ele>
        <time>2020-10-22T09:03:05.000Z</time>
      </trkpt>
      <trkpt lat="47.27034" lon="-2.26747">
        <ele>38</ele>
        <time>2020-10-22T09:03:07.000Z</time>
      </trkpt>
      <trkpt lat="47.27035" lon="-2.26736">
        <ele>38</ele>
        <time>2020-10-22T09:03:10.000Z</time>
      </trkpt>
      <trkpt lat="47.27036" lon="-2.26703">
        <ele>38</ele>
        <time>2020-10-22T09:03:15.000Z</time>
      </trkpt>
      <trkpt lat="47.27033" lon="-2.26678">
        <ele>38</ele>
        <time>2020-10-22T09:03:19.000Z</time>
      </trkpt>
      <trkpt lat="47.27035" lon="-2.26664">
        <ele>38</ele>
        <time>2020-10-22T09:03:21.000Z</time>
      </trkpt>
      <trkpt lat="47.27034" lon="-2.26649">
        <ele>38</ele>
        <time>2020-10-22T09:03:23.000Z</time>
      </trkpt>
      <trkpt lat="47.27031" lon="-2.26636">
        <ele>38</ele>
        <time>2020-10-22T09:03:25.000Z</time>
      </trkpt>
      <trkpt lat="47.27026" lon="-2.26627">
        <ele>38</ele>
        <time>2020-10-22T09:03:27.000Z</time>
      </trkpt>
      <trkpt lat="47.27007" lon="-2.26597">
        <ele>38</ele>
        <time>2020-10-22T09:03:33.000Z</time>
      </trkpt>
      <trkpt lat="47.27003" lon="-2.26592">
        <ele>38.400001525879</ele>
        <time>2020-10-22T09:03:34.000Z</time>
      </trkpt>
      <trkpt lat="47.27" lon="-2.26588">
        <ele>38.799999237061</ele>
        <time>2020-10-22T09:03:35.000Z</time>
      </trkpt>
      <trkpt lat="47.26996" lon="-2.26584">
        <ele>39.200000762939</ele>
        <time>2020-10-22T09:03:36.000Z</time>
      </trkpt>
      <trkpt lat="47.26992" lon="-2.26579">
        <ele>39.599998474121</ele>
        <time>2020-10-22T09:03:37.000Z</time>
      </trkpt>
      <trkpt lat="47.26988" lon="-2.26574">
        <ele>40</ele>
        <time>2020-10-22T09:03:38.000Z</time>
      </trkpt>
      <trkpt lat="47.26986" lon="-2.26567">
        <ele>40</ele>
        <time>2020-10-22T09:03:39.000Z</time>
      </trkpt>
      <trkpt lat="47.2698" lon="-2.26554">
        <ele>40</ele>
        <time>2020-10-22T09:03:41.000Z</time>
      </trkpt>
      <trkpt lat="47.26978" lon="-2.26548">
        <ele>40</ele>
        <time>2020-10-22T09:03:42.000Z</time>
      </trkpt>
      <trkpt lat="47.26973" lon="-2.2653">
        <ele>40</ele>
        <time>2020-10-22T09:03:45.000Z</time>
      </trkpt>
      <trkpt lat="47.26969" lon="-2.26516">
        <ele>40.400001525879</ele>
        <time>2020-10-22T09:03:48.000Z</time>
      </trkpt>
      <trkpt lat="47.26968" lon="-2.26511">
        <ele>40.799999237061</ele>
        <time>2020-10-22T09:03:49.000Z</time>
      </trkpt>
      <trkpt lat="47.26969" lon="-2.26507">
        <ele>41.200000762939</ele>
        <time>2020-10-22T09:03:50.000Z</time>
      </trkpt>
      <trkpt lat="47.2697" lon="-2.26503">
        <ele>41.599998474121</ele>
        <time>2020-10-22T09:03:51.000Z</time>
      </trkpt>
      <trkpt lat="47.26972" lon="-2.26499">
        <ele>42</ele>
        <time>2020-10-22T09:03:52.000Z</time>
      </trkpt>
      <trkpt lat="47.2698" lon="-2.26487">
        <ele>42</ele>
        <time>2020-10-22T09:03:55.000Z</time>
      </trkpt>
      <trkpt lat="47.26995" lon="-2.26467">
        <ele>42</ele>
        <time>2020-10-22T09:04:00.000Z</time>
      </trkpt>
      <trkpt lat="47.27001" lon="-2.26458">
        <ele>42</ele>
        <time>2020-10-22T09:04:02.000Z</time>
      </trkpt>
      <trkpt lat="47.27024" lon="-2.26423">
        <ele>42</ele>
        <time>2020-10-22T09:04:09.000Z</time>
      </trkpt>
      <trkpt lat="47.27044" lon="-2.26393">
        <ele>42</ele>
        <time>2020-10-22T09:04:16.000Z</time>
      </trkpt>
      <trkpt lat="47.27075" lon="-2.26352">
        <ele>42</ele>
        <time>2020-10-22T09:04:26.000Z</time>
      </trkpt>
      <trkpt lat="47.27098" lon="-2.26322">
        <ele>42</ele>
        <time>2020-10-22T09:04:33.000Z</time>
      </trkpt>
      <trkpt lat="47.27117" lon="-2.26294">
        <ele>42</ele>
        <time>2020-10-22T09:04:40.000Z</time>
      </trkpt>
      <trkpt lat="47.2712" lon="-2.26288">
        <ele>42</ele>
        <time>2020-10-22T09:04:41.000Z</time>
      </trkpt>
      <trkpt lat="47.27127" lon="-2.26276">
        <ele>42</ele>
        <time>2020-10-22T09:04:43.000Z</time>
      </trkpt>
      <trkpt lat="47.27144" lon="-2.26252">
        <ele>42</ele>
        <time>2020-10-22T09:04:47.000Z</time>
      </trkpt>
      <trkpt lat="47.27171" lon="-2.26219">
        <ele>42</ele>
        <time>2020-10-22T09:04:52.000Z</time>
      </trkpt>
      <trkpt lat="47.2721" lon="-2.26185">
        <ele>42</ele>
        <time>2020-10-22T09:04:58.000Z</time>
      </trkpt>
      <trkpt lat="47.27223" lon="-2.26176">
        <ele>41.599998474121</ele>
        <time>2020-10-22T09:05:00.000Z</time>
      </trkpt>
      <trkpt lat="47.27229" lon="-2.26172">
        <ele>41.200000762939</ele>
        <time>2020-10-22T09:05:01.000Z</time>
      </trkpt>
      <trkpt lat="47.27235" lon="-2.26169">
        <ele>40.799999237061</ele>
        <time>2020-10-22T09:05:02.000Z</time>
      </trkpt>
      <trkpt lat="47.2724" lon="-2.26166">
        <ele>40.400001525879</ele>
        <time>2020-10-22T09:05:03.000Z</time>
      </trkpt>
      <trkpt lat="47.27246" lon="-2.26163">
        <ele>40</ele>
        <time>2020-10-22T09:05:04.000Z</time>
      </trkpt>
      <trkpt lat="47.27269" lon="-2.26151">
        <ele>40</ele>
        <time>2020-10-22T09:05:09.000Z</time>
      </trkpt>
      <trkpt lat="47.27291" lon="-2.2614">
        <ele>40</ele>
        <time>2020-10-22T09:05:15.000Z</time>
      </trkpt>
      <trkpt lat="47.27324" lon="-2.26129">
        <ele>40</ele>
        <time>2020-10-22T09:05:22.000Z</time>
      </trkpt>
      <trkpt lat="47.27344" lon="-2.26118">
        <ele>40</ele>
        <time>2020-10-22T09:05:27.000Z</time>
      </trkpt>
      <trkpt lat="47.27345" lon="-2.26112">
        <ele>40</ele>
        <time>2020-10-22T09:05:28.000Z</time>
      </trkpt>
      <trkpt lat="47.27338" lon="-2.26095">
        <ele>40</ele>
        <time>2020-10-22T09:05:31.000Z</time>
      </trkpt>
      <trkpt lat="47.27335" lon="-2.26089">
        <ele>40</ele>
        <time>2020-10-22T09:05:32.000Z</time>
      </trkpt>
      <trkpt lat="47.2732" lon="-2.26059">
        <ele>38.799999237061</ele>
        <time>2020-10-22T09:05:35.000Z</time>
      </trkpt>
      <trkpt lat="47.27317" lon="-2.26053">
        <ele>38.400001525879</ele>
        <time>2020-10-22T09:05:38.000Z</time>
      </trkpt>
      <trkpt lat="47.27314" lon="-2.26048">
        <ele>38</ele>
        <time>2020-10-22T09:05:39.000Z</time>
      </trkpt>
      <trkpt lat="47.27311" lon="-2.26042">
        <ele>38</ele>
        <time>2020-10-22T09:05:40.000Z</time>
      </trkpt>
      <trkpt lat="47.27307" lon="-2.26032">
        <ele>38</ele>
        <time>2020-10-22T09:05:42.000Z</time>
      </trkpt>
      <trkpt lat="47.27299" lon="-2.26018">
        <ele>38</ele>
        <time>2020-10-22T09:05:45.000Z</time>
      </trkpt>
      <trkpt lat="47.2729" lon="-2.26">
        <ele>38</ele>
        <time>2020-10-22T09:05:49.000Z</time>
      </trkpt>
      <trkpt lat="47.27291" lon="-2.25997">
        <ele>38</ele>
        <time>2020-10-22T09:05:50.000Z</time>
      </trkpt>
      <trkpt lat="47.27295" lon="-2.25992">
        <ele>38</ele>
        <time>2020-10-22T09:05:53.000Z</time>
      </trkpt>
      <trkpt lat="47.27303" lon="-2.25982">
        <ele>38</ele>
        <time>2020-10-22T09:05:57.000Z</time>
      </trkpt>
      <trkpt lat="47.27309" lon="-2.25977">
        <ele>38</ele>
        <time>2020-10-22T09:05:59.000Z</time>
      </trkpt>
      <trkpt lat="47.27321" lon="-2.2597">
        <ele>38</ele>
        <time>2020-10-22T09:06:02.000Z</time>
      </trkpt>
      <trkpt lat="47.2735" lon="-2.25957">
        <ele>38</ele>
        <time>2020-10-22T09:06:08.000Z</time>
      </trkpt>
      <trkpt lat="47.27365" lon="-2.25944">
        <ele>38</ele>
        <time>2020-10-22T09:06:11.000Z</time>
      </trkpt>
      <trkpt lat="47.27369" lon="-2.25938">
        <ele>38</ele>
        <time>2020-10-22T09:06:12.000Z</time>
      </trkpt>
      <trkpt lat="47.27399" lon="-2.25896">
        <ele>38</ele>
        <time>2020-10-22T09:06:19.000Z</time>
      </trkpt>
      <trkpt lat="47.27406" lon="-2.25882">
        <ele>38</ele>
        <time>2020-10-22T09:06:21.000Z</time>
      </trkpt>
      <trkpt lat="47.27418" lon="-2.25861">
        <ele>38</ele>
        <time>2020-10-22T09:06:24.000Z</time>
      </trkpt>
      <trkpt lat="47.2744" lon="-2.25819">
        <ele>38</ele>
        <time>2020-10-22T09:06:30.000Z</time>
      </trkpt>
      <trkpt lat="47.27444" lon="-2.25812">
        <ele>38</ele>
        <time>2020-10-22T09:06:31.000Z</time>
      </trkpt>
      <trkpt lat="47.2746" lon="-2.258">
        <ele>38</ele>
        <time>2020-10-22T09:06:34.000Z</time>
      </trkpt>
      <trkpt lat="47.27465" lon="-2.25795">
        <ele>38</ele>
        <time>2020-10-22T09:06:35.000Z</time>
      </trkpt>
      <trkpt lat="47.27479" lon="-2.25782">
        <ele>38</ele>
        <time>2020-10-22T09:06:38.000Z</time>
      </trkpt>
      <trkpt lat="47.27498" lon="-2.2576">
        <ele>38</ele>
        <time>2020-10-22T09:06:43.000Z</time>
      </trkpt>
      <trkpt lat="47.27513" lon="-2.2574">
        <ele>38</ele>
        <time>2020-10-22T09:06:48.000Z</time>
      </trkpt>
      <trkpt lat="47.2753" lon="-2.25711">
        <ele>37.400001525879</ele>
        <time>2020-10-22T09:06:53.000Z</time>
      </trkpt>
      <trkpt lat="47.27533" lon="-2.25705">
        <ele>37</ele>
        <time>2020-10-22T09:06:54.000Z</time>
      </trkpt>
      <trkpt lat="47.27537" lon="-2.25698">
        <ele>36.599998474121</ele>
        <time>2020-10-22T09:06:55.000Z</time>
      </trkpt>
      <trkpt lat="47.2754" lon="-2.25692">
        <ele>36.200000762939</ele>
        <time>2020-10-22T09:06:56.000Z</time>
      </trkpt>
      <trkpt lat="47.27544" lon="-2.25686">
        <ele>35.799999237061</ele>
        <time>2020-10-22T09:06:57.000Z</time>
      </trkpt>
      <trkpt lat="47.2755" lon="-2.25674">
        <ele>35.799999237061</ele>
        <time>2020-10-22T09:06:59.000Z</time>
      </trkpt>
      <trkpt lat="47.27554" lon="-2.25669">
        <ele>35.799999237061</ele>
        <time>2020-10-22T09:07:00.000Z</time>
      </trkpt>
      <trkpt lat="47.27561" lon="-2.2566">
        <ele>35.400001525879</ele>
        <time>2020-10-22T09:07:02.000Z</time>
      </trkpt>
      <trkpt lat="47.27565" lon="-2.25655">
        <ele>35</ele>
        <time>2020-10-22T09:07:03.000Z</time>
      </trkpt>
      <trkpt lat="47.27567" lon="-2.25651">
        <ele>34.599998474121</ele>
        <time>2020-10-22T09:07:04.000Z</time>
      </trkpt>
      <trkpt lat="47.27569" lon="-2.25647">
        <ele>34</ele>
        <time>2020-10-22T09:07:05.000Z</time>
      </trkpt>
      <trkpt lat="47.27569" lon="-2.25643">
        <ele>33.599998474121</ele>
        <time>2020-10-22T09:07:06.000Z</time>
      </trkpt>
      <trkpt lat="47.2757" lon="-2.25635">
        <ele>33.599998474121</ele>
        <time>2020-10-22T09:07:08.000Z</time>
      </trkpt>
      <trkpt lat="47.27581" lon="-2.25621">
        <ele>33.599998474121</ele>
        <time>2020-10-22T09:07:12.000Z</time>
      </trkpt>
      <trkpt lat="47.27584" lon="-2.25619">
        <ele>33.599998474121</ele>
        <time>2020-10-22T09:07:13.000Z</time>
      </trkpt>
      <trkpt lat="47.27594" lon="-2.25619">
        <ele>33.599998474121</ele>
        <time>2020-10-22T09:07:17.000Z</time>
      </trkpt>
      <trkpt lat="47.27603" lon="-2.25625">
        <ele>33.599998474121</ele>
        <time>2020-10-22T09:07:21.000Z</time>
      </trkpt>
      <trkpt lat="47.27615" lon="-2.25637">
        <ele>33.599998474121</ele>
        <time>2020-10-22T09:07:26.000Z</time>
      </trkpt>
      <trkpt lat="47.27631" lon="-2.25644">
        <ele>33.599998474121</ele>
        <time>2020-10-22T09:07:32.000Z</time>
      </trkpt>
      <trkpt lat="47.27644" lon="-2.2566">
        <ele>33.599998474121</ele>
        <time>2020-10-22T09:07:38.000Z</time>
      </trkpt>
      <trkpt lat="47.27647" lon="-2.2567">
        <ele>33.599998474121</ele>
        <time>2020-10-22T09:07:42.000Z</time>
      </trkpt>
      <trkpt lat="47.27652" lon="-2.25689">
        <ele>33.599998474121</ele>
        <time>2020-10-22T09:07:47.000Z</time>
      </trkpt>
      <trkpt lat="47.27657" lon="-2.2572">
        <ele>33.599998474121</ele>
        <time>2020-10-22T09:07:53.000Z</time>
      </trkpt>
      <trkpt lat="47.27658" lon="-2.25726">
        <ele>33.599998474121</ele>
        <time>2020-10-22T09:07:55.000Z</time>
      </trkpt>
      <trkpt lat="47.27661" lon="-2.25733">
        <ele>33.599998474121</ele>
        <time>2020-10-22T09:07:57.000Z</time>
      </trkpt>
      <trkpt lat="47.27661" lon="-2.25743">
        <ele>33.599998474121</ele>
        <time>2020-10-22T09:08:01.000Z</time>
      </trkpt>
      <trkpt lat="47.27663" lon="-2.25749">
        <ele>33.599998474121</ele>
        <time>2020-10-22T09:08:03.000Z</time>
      </trkpt>
      <trkpt lat="47.27666" lon="-2.25761">
        <ele>33.599998474121</ele>
        <time>2020-10-22T09:08:06.000Z</time>
      </trkpt>
      <trkpt lat="47.27665" lon="-2.25772">
        <ele>33.599998474121</ele>
        <time>2020-10-22T09:08:09.000Z</time>
      </trkpt>
      <trkpt lat="47.27666" lon="-2.25774">
        <ele>33.599998474121</ele>
        <time>2020-10-22T09:08:10.000Z</time>
      </trkpt>
      <trkpt lat="47.27666" lon="-2.25776">
        <ele>33.599998474121</ele>
        <time>2020-10-22T09:08:11.000Z</time>
      </trkpt>
      <trkpt lat="47.27667" lon="-2.25782">
        <ele>33.599998474121</ele>
        <time>2020-10-22T09:08:13.000Z</time>
      </trkpt>
      <trkpt lat="47.27668" lon="-2.25791">
        <ele>33.599998474121</ele>
        <time>2020-10-22T09:08:16.000Z</time>
      </trkpt>
      <trkpt lat="47.27671" lon="-2.258">
        <ele>33.599998474121</ele>
        <time>2020-10-22T09:08:20.000Z</time>
      </trkpt>
      <trkpt lat="47.27671" lon="-2.25805">
        <ele>33.599998474121</ele>
        <time>2020-10-22T09:08:22.000Z</time>
      </trkpt>
      <trkpt lat="47.27671" lon="-2.25809">
        <ele>33.599998474121</ele>
        <time>2020-10-22T09:08:24.000Z</time>
      </trkpt>
      <trkpt lat="47.27674" lon="-2.25814">
        <ele>33.599998474121</ele>
        <time>2020-10-22T09:08:26.000Z</time>
      </trkpt>
      <trkpt lat="47.27682" lon="-2.25811">
        <ele>33.599998474121</ele>
        <time>2020-10-22T09:08:30.000Z</time>
      </trkpt>
      <trkpt lat="47.27693" lon="-2.25807">
        <ele>33.599998474121</ele>
        <time>2020-10-22T09:08:34.000Z</time>
      </trkpt>
      <trkpt lat="47.27698" lon="-2.25795">
        <ele>33.599998474121</ele>
        <time>2020-10-22T09:08:37.000Z</time>
      </trkpt>
      <trkpt lat="47.27695" lon="-2.25785">
        <ele>33.599998474121</ele>
        <time>2020-10-22T09:08:40.000Z</time>
      </trkpt>
      <trkpt lat="47.27691" lon="-2.25784">
        <ele>33.599998474121</ele>
        <time>2020-10-22T09:08:42.000Z</time>
      </trkpt>
      <trkpt lat="47.2769" lon="-2.25784">
        <ele>33.599998474121</ele>
        <time>2020-10-22T09:08:43.000Z</time>
      </trkpt>
      <trkpt lat="47.27688" lon="-2.25785">
        <ele>33.599998474121</ele>
        <time>2020-10-22T09:08:44.000Z</time>
      </trkpt>
      <trkpt lat="47.27684" lon="-2.25792">
        <ele>33.599998474121</ele>
        <time>2020-10-22T09:08:46.000Z</time>
      </trkpt>
      <trkpt lat="47.27686" lon="-2.25806">
        <ele>33.599998474121</ele>
        <time>2020-10-22T09:08:50.000Z</time>
      </trkpt>
      <trkpt lat="47.27694" lon="-2.25828">
        <ele>33.599998474121</ele>
        <time>2020-10-22T09:08:58.000Z</time>
      </trkpt>
      <trkpt lat="47.27703" lon="-2.25839">
        <ele>33.599998474121</ele>
        <time>2020-10-22T09:09:03.000Z</time>
      </trkpt>
      <trkpt lat="47.27715" lon="-2.25848">
        <ele>33.599998474121</ele>
        <time>2020-10-22T09:09:08.000Z</time>
      </trkpt>
      <trkpt lat="47.27737" lon="-2.25855">
        <ele>33.599998474121</ele>
        <time>2020-10-22T09:09:14.000Z</time>
      </trkpt>
      <trkpt lat="47.2775" lon="-2.25864">
        <ele>33.599998474121</ele>
        <time>2020-10-22T09:09:18.000Z</time>
      </trkpt>
      <trkpt lat="47.2776" lon="-2.25883">
        <ele>33.599998474121</ele>
        <time>2020-10-22T09:09:22.000Z</time>
      </trkpt>
      <trkpt lat="47.27779" lon="-2.2592">
        <ele>33.599998474121</ele>
        <time>2020-10-22T09:09:30.000Z</time>
      </trkpt>
      <trkpt lat="47.27786" lon="-2.2594">
        <ele>33.599998474121</ele>
        <time>2020-10-22T09:09:34.000Z</time>
      </trkpt>
      <trkpt lat="47.27796" lon="-2.2597">
        <ele>33.599998474121</ele>
        <time>2020-10-22T09:09:40.000Z</time>
      </trkpt>
      <trkpt lat="47.27796" lon="-2.25977">
        <ele>33.599998474121</ele>
        <time>2020-10-22T09:09:44.000Z</time>
      </trkpt>
      <trkpt lat="47.27795" lon="-2.25978">
        <ele>33.599998474121</ele>
        <time>2020-10-22T09:09:45.000Z</time>
      </trkpt>
      <trkpt lat="47.27791" lon="-2.25982">
        <ele>33.599998474121</ele>
        <time>2020-10-22T09:09:49.000Z</time>
      </trkpt>
      <trkpt lat="47.27782" lon="-2.25993">
        <ele>33.599998474121</ele>
        <time>2020-10-22T09:09:54.000Z</time>
      </trkpt>
      <trkpt lat="47.27771" lon="-2.26">
        <ele>33.599998474121</ele>
        <time>2020-10-22T09:09:59.000Z</time>
      </trkpt>
      <trkpt lat="47.2776" lon="-2.26021">
        <ele>33.599998474121</ele>
        <time>2020-10-22T09:10:04.000Z</time>
      </trkpt>
      <trkpt lat="47.27747" lon="-2.26052">
        <ele>33.599998474121</ele>
        <time>2020-10-22T09:10:10.000Z</time>
      </trkpt>
      <trkpt lat="47.27733" lon="-2.26078">
        <ele>33.599998474121</ele>
        <time>2020-10-22T09:10:16.000Z</time>
      </trkpt>
      <trkpt lat="47.27717" lon="-2.26087">
        <ele>33.599998474121</ele>
        <time>2020-10-22T09:10:20.000Z</time>
      </trkpt>
      <trkpt lat="47.27704" lon="-2.26105">
        <ele>33.599998474121</ele>
        <time>2020-10-22T09:10:25.000Z</time>
      </trkpt>
      <trkpt lat="47.27687" lon="-2.2612">
        <ele>33.599998474121</ele>
        <time>2020-10-22T09:10:31.000Z</time>
      </trkpt>
      <trkpt lat="47.27671" lon="-2.26141">
        <ele>33.599998474121</ele>
        <time>2020-10-22T09:10:38.000Z</time>
      </trkpt>
      <trkpt lat="47.27656" lon="-2.26154">
        <ele>33.599998474121</ele>
        <time>2020-10-22T09:10:43.000Z</time>
      </trkpt>
      <trkpt lat="47.27643" lon="-2.26164">
        <ele>33.599998474121</ele>
        <time>2020-10-22T09:10:47.000Z</time>
      </trkpt>
      <trkpt lat="47.27627" lon="-2.26171">
        <ele>33.599998474121</ele>
        <time>2020-10-22T09:10:52.000Z</time>
      </trkpt>
      <trkpt lat="47.27618" lon="-2.26175">
        <ele>33.599998474121</ele>
        <time>2020-10-22T09:10:56.000Z</time>
      </trkpt>
      <trkpt lat="47.27615" lon="-2.26178">
        <ele>33.599998474121</ele>
        <time>2020-10-22T09:10:58.000Z</time>
      </trkpt>
      <trkpt lat="47.27606" lon="-2.26186">
        <ele>33.599998474121</ele>
        <time>2020-10-22T09:11:04.000Z</time>
      </trkpt>
      <trkpt lat="47.27593" lon="-2.26198">
        <ele>33.599998474121</ele>
        <time>2020-10-22T09:11:10.000Z</time>
      </trkpt>
      <trkpt lat="47.27587" lon="-2.26212">
        <ele>33.599998474121</ele>
        <time>2020-10-22T09:11:14.000Z</time>
      </trkpt>
      <trkpt lat="47.27578" lon="-2.26218">
        <ele>33.599998474121</ele>
        <time>2020-10-22T09:11:17.000Z</time>
      </trkpt>
      <trkpt lat="47.27575" lon="-2.26219">
        <ele>33.599998474121</ele>
        <time>2020-10-22T09:11:18.000Z</time>
      </trkpt>
      <trkpt lat="47.2756" lon="-2.26227">
        <ele>33.599998474121</ele>
        <time>2020-10-22T09:11:22.000Z</time>
      </trkpt>
      <trkpt lat="47.27556" lon="-2.2623">
        <ele>33.599998474121</ele>
        <time>2020-10-22T09:11:23.000Z</time>
      </trkpt>
      <trkpt lat="47.2755" lon="-2.26237">
        <ele>33.599998474121</ele>
        <time>2020-10-22T09:11:26.000Z</time>
      </trkpt>
      <trkpt lat="47.2755" lon="-2.26239">
        <ele>33.599998474121</ele>
        <time>2020-10-22T09:11:27.000Z</time>
      </trkpt>
      <trkpt lat="47.27545" lon="-2.2625">
        <ele>33.599998474121</ele>
        <time>2020-10-22T09:11:32.000Z</time>
      </trkpt>
      <trkpt lat="47.27544" lon="-2.26252">
        <ele>33.599998474121</ele>
        <time>2020-10-22T09:11:33.000Z</time>
      </trkpt>
      <trkpt lat="47.27541" lon="-2.26255">
        <ele>33.599998474121</ele>
        <time>2020-10-22T09:11:36.000Z</time>
      </trkpt>
      <trkpt lat="47.27539" lon="-2.26264">
        <ele>33.599998474121</ele>
        <time>2020-10-22T09:12:34.000Z</time>
      </trkpt>
      <trkpt lat="47.27541" lon="-2.26265">
        <ele>33.599998474121</ele>
        <time>2020-10-22T09:12:35.000Z</time>
      </trkpt>
      <trkpt lat="47.27556" lon="-2.26265">
        <ele>33.599998474121</ele>
        <time>2020-10-22T09:12:40.000Z</time>
      </trkpt>
      <trkpt lat="47.27565" lon="-2.26267">
        <ele>33.599998474121</ele>
        <time>2020-10-22T09:12:42.000Z</time>
      </trkpt>
      <trkpt lat="47.27581" lon="-2.26269">
        <ele>33.599998474121</ele>
        <time>2020-10-22T09:12:45.000Z</time>
      </trkpt>
      <trkpt lat="47.27593" lon="-2.26274">
        <ele>33.599998474121</ele>
        <time>2020-10-22T09:12:47.000Z</time>
      </trkpt>
      <trkpt lat="47.27612" lon="-2.26284">
        <ele>33.599998474121</ele>
        <time>2020-10-22T09:12:50.000Z</time>
      </trkpt>
      <trkpt lat="47.27628" lon="-2.26299">
        <ele>33.599998474121</ele>
        <time>2020-10-22T09:12:53.000Z</time>
      </trkpt>
      <trkpt lat="47.27639" lon="-2.26312">
        <ele>33.599998474121</ele>
        <time>2020-10-22T09:12:55.000Z</time>
      </trkpt>
      <trkpt lat="47.27662" lon="-2.26349">
        <ele>33.599998474121</ele>
        <time>2020-10-22T09:13:00.000Z</time>
      </trkpt>
      <trkpt lat="47.27666" lon="-2.26357">
        <ele>33.599998474121</ele>
        <time>2020-10-22T09:13:01.000Z</time>
      </trkpt>
      <trkpt lat="47.27675" lon="-2.26382">
        <ele>33.599998474121</ele>
        <time>2020-10-22T09:13:04.000Z</time>
      </trkpt>
      <trkpt lat="47.27684" lon="-2.26406">
        <ele>33.599998474121</ele>
        <time>2020-10-22T09:13:07.000Z</time>
      </trkpt>
      <trkpt lat="47.27687" lon="-2.26413">
        <ele>33.599998474121</ele>
        <time>2020-10-22T09:13:08.000Z</time>
      </trkpt>
      <trkpt lat="47.27693" lon="-2.26427">
        <ele>33.599998474121</ele>
        <time>2020-10-22T09:13:10.000Z</time>
      </trkpt>
      <trkpt lat="47.27698" lon="-2.26442">
        <ele>33.599998474121</ele>
        <time>2020-10-22T09:13:12.000Z</time>
      </trkpt>
      <trkpt lat="47.27709" lon="-2.26471">
        <ele>33.599998474121</ele>
        <time>2020-10-22T09:13:16.000Z</time>
      </trkpt>
      <trkpt lat="47.27716" lon="-2.26484">
        <ele>33.599998474121</ele>
        <time>2020-10-22T09:13:18.000Z</time>
      </trkpt>
      <trkpt lat="47.27719" lon="-2.26491">
        <ele>33.599998474121</ele>
        <time>2020-10-22T09:13:19.000Z</time>
      </trkpt>
      <trkpt lat="47.27727" lon="-2.2651">
        <ele>33.599998474121</ele>
        <time>2020-10-22T09:13:22.000Z</time>
      </trkpt>
      <trkpt lat="47.27731" lon="-2.26514">
        <ele>33.599998474121</ele>
        <time>2020-10-22T09:13:23.000Z</time>
      </trkpt>
      <trkpt lat="47.27742" lon="-2.26514">
        <ele>33.599998474121</ele>
        <time>2020-10-22T09:13:26.000Z</time>
      </trkpt>
      <trkpt lat="47.27748" lon="-2.26511">
        <ele>33.599998474121</ele>
        <time>2020-10-22T09:13:28.000Z</time>
      </trkpt>
      <trkpt lat="47.27761" lon="-2.26503">
        <ele>33.599998474121</ele>
        <time>2020-10-22T09:13:32.000Z</time>
      </trkpt>
      <trkpt lat="47.27767" lon="-2.26494">
        <ele>33.599998474121</ele>
        <time>2020-10-22T09:13:34.000Z</time>
      </trkpt>
      <trkpt lat="47.27774" lon="-2.26482">
        <ele>33.599998474121</ele>
        <time>2020-10-22T09:13:36.000Z</time>
      </trkpt>
      <trkpt lat="47.27778" lon="-2.26477">
        <ele>33.599998474121</ele>
        <time>2020-10-22T09:13:37.000Z</time>
      </trkpt>
      <trkpt lat="47.27792" lon="-2.26462">
        <ele>33.599998474121</ele>
        <time>2020-10-22T09:13:40.000Z</time>
      </trkpt>
      <trkpt lat="47.27796" lon="-2.26456">
        <ele>33.599998474121</ele>
        <time>2020-10-22T09:13:41.000Z</time>
      </trkpt>
      <trkpt lat="47.27814" lon="-2.26427">
        <ele>33.599998474121</ele>
        <time>2020-10-22T09:13:47.000Z</time>
      </trkpt>
      <trkpt lat="47.27827" lon="-2.26404">
        <ele>33.599998474121</ele>
        <time>2020-10-22T09:13:51.000Z</time>
      </trkpt>
      <trkpt lat="47.27841" lon="-2.26381">
        <ele>33.599998474121</ele>
        <time>2020-10-22T09:13:54.000Z</time>
      </trkpt>
      <trkpt lat="47.2787" lon="-2.26329">
        <ele>33.599998474121</ele>
        <time>2020-10-22T09:14:01.000Z</time>
      </trkpt>
      <trkpt lat="47.279" lon="-2.26282">
        <ele>33.599998474121</ele>
        <time>2020-10-22T09:14:08.000Z</time>
      </trkpt>
      <trkpt lat="47.27924" lon="-2.26253">
        <ele>33.599998474121</ele>
        <time>2020-10-22T09:14:14.000Z</time>
      </trkpt>
      <trkpt lat="47.27931" lon="-2.26246">
        <ele>33.599998474121</ele>
        <time>2020-10-22T09:14:17.000Z</time>
      </trkpt>
      <trkpt lat="47.27944" lon="-2.26246">
        <ele>33.599998474121</ele>
        <time>2020-10-22T09:14:21.000Z</time>
      </trkpt>
      <trkpt lat="47.27945" lon="-2.26245">
        <ele>33.599998474121</ele>
        <time>2020-10-22T09:14:22.000Z</time>
      </trkpt>
      <trkpt lat="47.27946" lon="-2.26245">
        <ele>33.599998474121</ele>
        <time>2020-10-22T09:14:24.000Z</time>
      </trkpt>
      <trkpt lat="47.27948" lon="-2.26241">
        <ele>33.599998474121</ele>
        <time>2020-10-22T09:14:39.000Z</time>
      </trkpt>
      <trkpt lat="47.2795" lon="-2.26239">
        <ele>33.599998474121</ele>
        <time>2020-10-22T09:14:40.000Z</time>
      </trkpt>
      <trkpt lat="47.27957" lon="-2.26218">
        <ele>33.599998474121</ele>
        <time>2020-10-22T09:14:44.000Z</time>
      </trkpt>
      <trkpt lat="47.27963" lon="-2.2619">
        <ele>33.599998474121</ele>
        <time>2020-10-22T09:14:50.000Z</time>
      </trkpt>
      <trkpt lat="47.27965" lon="-2.26188">
        <ele>33.599998474121</ele>
        <time>2020-10-22T09:14:52.000Z</time>
      </trkpt>
      <trkpt lat="47.27968" lon="-2.26189">
        <ele>33.599998474121</ele>
        <time>2020-10-22T09:14:54.000Z</time>
      </trkpt>
      <trkpt lat="47.27981" lon="-2.26198">
        <ele>33.599998474121</ele>
        <time>2020-10-22T09:14:58.000Z</time>
      </trkpt>
      <trkpt lat="47.28011" lon="-2.26218">
        <ele>33.599998474121</ele>
        <time>2020-10-22T09:15:05.000Z</time>
      </trkpt>
      <trkpt lat="47.2804" lon="-2.26239">
        <ele>33.599998474121</ele>
        <time>2020-10-22T09:15:12.000Z</time>
      </trkpt>
      <trkpt lat="47.28067" lon="-2.26262">
        <ele>33.599998474121</ele>
        <time>2020-10-22T09:15:18.000Z</time>
      </trkpt>
      <trkpt lat="47.28075" lon="-2.2627">
        <ele>34</ele>
        <time>2020-10-22T09:15:20.000Z</time>
      </trkpt>
      <trkpt lat="47.28079" lon="-2.26273">
        <ele>34.400001525879</ele>
        <time>2020-10-22T09:15:21.000Z</time>
      </trkpt>
      <trkpt lat="47.28083" lon="-2.26276">
        <ele>34.799999237061</ele>
        <time>2020-10-22T09:15:22.000Z</time>
      </trkpt>
      <trkpt lat="47.28086" lon="-2.2628">
        <ele>35.200000762939</ele>
        <time>2020-10-22T09:15:23.000Z</time>
      </trkpt>
      <trkpt lat="47.28089" lon="-2.26283">
        <ele>35.599998474121</ele>
        <time>2020-10-22T09:15:24.000Z</time>
      </trkpt>
      <trkpt lat="47.28111" lon="-2.26313">
        <ele>35.599998474121</ele>
        <time>2020-10-22T09:15:30.000Z</time>
      </trkpt>
      <trkpt lat="47.28114" lon="-2.26317">
        <ele>36</ele>
        <time>2020-10-22T09:15:31.000Z</time>
      </trkpt>
      <trkpt lat="47.28118" lon="-2.26322">
        <ele>36.400001525879</ele>
        <time>2020-10-22T09:15:32.000Z</time>
      </trkpt>
      <trkpt lat="47.2812" lon="-2.26327">
        <ele>37</ele>
        <time>2020-10-22T09:15:33.000Z</time>
      </trkpt>
      <trkpt lat="47.28123" lon="-2.26332">
        <ele>37.400001525879</ele>
        <time>2020-10-22T09:15:34.000Z</time>
      </trkpt>
      <trkpt lat="47.28125" lon="-2.26337">
        <ele>37.799999237061</ele>
        <time>2020-10-22T09:15:35.000Z</time>
      </trkpt>
      <trkpt lat="47.28127" lon="-2.26342">
        <ele>37.799999237061</ele>
        <time>2020-10-22T09:15:36.000Z</time>
      </trkpt>
      <trkpt lat="47.28138" lon="-2.26361">
        <ele>37.799999237061</ele>
        <time>2020-10-22T09:15:41.000Z</time>
      </trkpt>
      <trkpt lat="47.28152" lon="-2.26385">
        <ele>37.799999237061</ele>
        <time>2020-10-22T09:15:47.000Z</time>
      </trkpt>
      <trkpt lat="47.28159" lon="-2.26396">
        <ele>38.200000762939</ele>
        <time>2020-10-22T09:15:50.000Z</time>
      </trkpt>
      <trkpt lat="47.28161" lon="-2.264">
        <ele>38.599998474121</ele>
        <time>2020-10-22T09:15:51.000Z</time>
      </trkpt>
      <trkpt lat="47.28162" lon="-2.26404">
        <ele>39</ele>
        <time>2020-10-22T09:15:52.000Z</time>
      </trkpt>
      <trkpt lat="47.28163" lon="-2.26408">
        <ele>39.400001525879</ele>
        <time>2020-10-22T09:15:53.000Z</time>
      </trkpt>
      <trkpt lat="47.28164" lon="-2.26412">
        <ele>39.799999237061</ele>
        <time>2020-10-22T09:15:54.000Z</time>
      </trkpt>
      <trkpt lat="47.2817" lon="-2.26425">
        <ele>39.799999237061</ele>
        <time>2020-10-22T09:15:57.000Z</time>
      </trkpt>
      <trkpt lat="47.28187" lon="-2.26452">
        <ele>39.799999237061</ele>
        <time>2020-10-22T09:16:03.000Z</time>
      </trkpt>
      <trkpt lat="47.28199" lon="-2.26473">
        <ele>40.400001525879</ele>
        <time>2020-10-22T09:16:07.000Z</time>
      </trkpt>
      <trkpt lat="47.28202" lon="-2.26477">
        <ele>40.799999237061</ele>
        <time>2020-10-22T09:16:08.000Z</time>
      </trkpt>
      <trkpt lat="47.28206" lon="-2.26482">
        <ele>41.200000762939</ele>
        <time>2020-10-22T09:16:09.000Z</time>
      </trkpt>
      <trkpt lat="47.28209" lon="-2.26486">
        <ele>41.599998474121</ele>
        <time>2020-10-22T09:16:10.000Z</time>
      </trkpt>
      <trkpt lat="47.28212" lon="-2.2649">
        <ele>42</ele>
        <time>2020-10-22T09:16:11.000Z</time>
      </trkpt>
      <trkpt lat="47.28224" lon="-2.26506">
        <ele>42</ele>
        <time>2020-10-22T09:16:15.000Z</time>
      </trkpt>
      <trkpt lat="47.28238" lon="-2.26529">
        <ele>42</ele>
        <time>2020-10-22T09:16:22.000Z</time>
      </trkpt>
      <trkpt lat="47.28243" lon="-2.26533">
        <ele>42</ele>
        <time>2020-10-22T09:16:24.000Z</time>
      </trkpt>
      <trkpt lat="47.28249" lon="-2.26536">
        <ele>42</ele>
        <time>2020-10-22T09:16:26.000Z</time>
      </trkpt>
      <trkpt lat="47.28252" lon="-2.26539">
        <ele>42.400001525879</ele>
        <time>2020-10-22T09:16:27.000Z</time>
      </trkpt>
      <trkpt lat="47.28255" lon="-2.26544">
        <ele>43.200000762939</ele>
        <time>2020-10-22T09:16:28.000Z</time>
      </trkpt>
      <trkpt lat="47.28257" lon="-2.26548">
        <ele>43.599998474121</ele>
        <time>2020-10-22T09:16:29.000Z</time>
      </trkpt>
      <trkpt lat="47.2826" lon="-2.26552">
        <ele>44</ele>
        <time>2020-10-22T09:16:30.000Z</time>
      </trkpt>
      <trkpt lat="47.28263" lon="-2.26556">
        <ele>44</ele>
        <time>2020-10-22T09:16:31.000Z</time>
      </trkpt>
      <trkpt lat="47.28277" lon="-2.26581">
        <ele>44</ele>
        <time>2020-10-22T09:16:37.000Z</time>
      </trkpt>
      <trkpt lat="47.28281" lon="-2.2661">
        <ele>44</ele>
        <time>2020-10-22T09:16:43.000Z</time>
      </trkpt>
      <trkpt lat="47.28283" lon="-2.26612">
        <ele>44</ele>
        <time>2020-10-22T09:16:44.000Z</time>
      </trkpt>
      <trkpt lat="47.28288" lon="-2.26613">
        <ele>44</ele>
        <time>2020-10-22T09:16:46.000Z</time>
      </trkpt>
      <trkpt lat="47.28295" lon="-2.26605">
        <ele>44</ele>
        <time>2020-10-22T09:16:51.000Z</time>
      </trkpt>
      <trkpt lat="47.28299" lon="-2.26601">
        <ele>44</ele>
        <time>2020-10-22T09:16:54.000Z</time>
      </trkpt>
      <trkpt lat="47.28303" lon="-2.26595">
        <ele>44.400001525879</ele>
        <time>2020-10-22T09:16:57.000Z</time>
      </trkpt>
      <trkpt lat="47.28304" lon="-2.26593">
        <ele>44.799999237061</ele>
        <time>2020-10-22T09:16:58.000Z</time>
      </trkpt>
      <trkpt lat="47.28305" lon="-2.26591">
        <ele>45.200000762939</ele>
        <time>2020-10-22T09:16:59.000Z</time>
      </trkpt>
      <trkpt lat="47.28306" lon="-2.26588">
        <ele>45.799999237061</ele>
        <time>2020-10-22T09:17:00.000Z</time>
      </trkpt>
      <trkpt lat="47.28306" lon="-2.26585">
        <ele>46.200000762939</ele>
        <time>2020-10-22T09:17:01.000Z</time>
      </trkpt>
      <trkpt lat="47.28304" lon="-2.26583">
        <ele>46.200000762939</ele>
        <time>2020-10-22T09:17:03.000Z</time>
      </trkpt>
      <trkpt lat="47.28304" lon="-2.26587">
        <ele>46.200000762939</ele>
        <time>2020-10-22T09:17:07.000Z</time>
      </trkpt>
      <trkpt lat="47.28304" lon="-2.26587">
        <ele>46.200000762939</ele>
        <time>2020-10-22T09:17:08.000Z</time>
      </trkpt>
      <trkpt lat="47.28305" lon="-2.26589">
        <ele>46.200000762939</ele>
        <time>2020-10-22T09:17:33.000Z</time>
      </trkpt>
      <trkpt lat="47.28308" lon="-2.26589">
        <ele>46.200000762939</ele>
        <time>2020-10-22T09:17:34.000Z</time>
      </trkpt>
      <trkpt lat="47.28315" lon="-2.26598">
        <ele>46.200000762939</ele>
        <time>2020-10-22T09:17:37.000Z</time>
      </trkpt>
      <trkpt lat="47.28316" lon="-2.26619">
        <ele>46.200000762939</ele>
        <time>2020-10-22T09:17:40.000Z</time>
      </trkpt>
      <trkpt lat="47.28322" lon="-2.26667">
        <ele>46.200000762939</ele>
        <time>2020-10-22T09:17:46.000Z</time>
      </trkpt>
      <trkpt lat="47.28333" lon="-2.26712">
        <ele>46.200000762939</ele>
        <time>2020-10-22T09:17:52.000Z</time>
      </trkpt>
      <trkpt lat="47.28348" lon="-2.26766">
        <ele>46.200000762939</ele>
        <time>2020-10-22T09:17:59.000Z</time>
      </trkpt>
      <trkpt lat="47.28351" lon="-2.26773">
        <ele>46.599998474121</ele>
        <time>2020-10-22T09:18:00.000Z</time>
      </trkpt>
      <trkpt lat="47.28353" lon="-2.26781">
        <ele>47</ele>
        <time>2020-10-22T09:18:01.000Z</time>
      </trkpt>
      <trkpt lat="47.28356" lon="-2.26788">
        <ele>47.400001525879</ele>
        <time>2020-10-22T09:18:02.000Z</time>
      </trkpt>
      <trkpt lat="47.28357" lon="-2.26796">
        <ele>47.799999237061</ele>
        <time>2020-10-22T09:18:03.000Z</time>
      </trkpt>
      <trkpt lat="47.28359" lon="-2.26803">
        <ele>48.200000762939</ele>
        <time>2020-10-22T09:18:04.000Z</time>
      </trkpt>
      <trkpt lat="47.28363" lon="-2.26816">
        <ele>48.200000762939</ele>
        <time>2020-10-22T09:18:06.000Z</time>
      </trkpt>
      <trkpt lat="47.28376" lon="-2.26868">
        <ele>48.200000762939</ele>
        <time>2020-10-22T09:18:14.000Z</time>
      </trkpt>
      <trkpt lat="47.28391" lon="-2.26914">
        <ele>48.200000762939</ele>
        <time>2020-10-22T09:18:21.000Z</time>
      </trkpt>
      <trkpt lat="47.2841" lon="-2.26949">
        <ele>48.200000762939</ele>
        <time>2020-10-22T09:18:26.000Z</time>
      </trkpt>
      <trkpt lat="47.2842" lon="-2.26967">
        <ele>48.200000762939</ele>
        <time>2020-10-22T09:18:28.000Z</time>
      </trkpt>
      <trkpt lat="47.28432" lon="-2.26983">
        <ele>47.799999237061</ele>
        <time>2020-10-22T09:18:30.000Z</time>
      </trkpt>
      <trkpt lat="47.2844" lon="-2.26992">
        <ele>47</ele>
        <time>2020-10-22T09:18:31.000Z</time>
      </trkpt>
      <trkpt lat="47.28448" lon="-2.26999">
        <ele>46.599998474121</ele>
        <time>2020-10-22T09:18:32.000Z</time>
      </trkpt>
      <trkpt lat="47.28456" lon="-2.27004">
        <ele>46</ele>
        <time>2020-10-22T09:18:33.000Z</time>
      </trkpt>
      <trkpt lat="47.28465" lon="-2.2701">
        <ele>45.400001525879</ele>
        <time>2020-10-22T09:18:34.000Z</time>
      </trkpt>
      <trkpt lat="47.28474" lon="-2.27016">
        <ele>44.799999237061</ele>
        <time>2020-10-22T09:18:35.000Z</time>
      </trkpt>
      <trkpt lat="47.28482" lon="-2.2702">
        <ele>44.200000762939</ele>
        <time>2020-10-22T09:18:36.000Z</time>
      </trkpt>
      <trkpt lat="47.2849" lon="-2.27023">
        <ele>43.599998474121</ele>
        <time>2020-10-22T09:18:37.000Z</time>
      </trkpt>
      <trkpt lat="47.28506" lon="-2.27028">
        <ele>43.599998474121</ele>
        <time>2020-10-22T09:18:39.000Z</time>
      </trkpt>
      <trkpt lat="47.28513" lon="-2.2703">
        <ele>43.599998474121</ele>
        <time>2020-10-22T09:18:40.000Z</time>
      </trkpt>
      <trkpt lat="47.28525" lon="-2.27026">
        <ele>43.599998474121</ele>
        <time>2020-10-22T09:18:42.000Z</time>
      </trkpt>
      <trkpt lat="47.28538" lon="-2.27004">
        <ele>43.599998474121</ele>
        <time>2020-10-22T09:18:45.000Z</time>
      </trkpt>
      <trkpt lat="47.28543" lon="-2.26976">
        <ele>43.599998474121</ele>
        <time>2020-10-22T09:18:48.000Z</time>
      </trkpt>
      <trkpt lat="47.28544" lon="-2.26967">
        <ele>43.599998474121</ele>
        <time>2020-10-22T09:18:49.000Z</time>
      </trkpt>
      <trkpt lat="47.28551" lon="-2.26902">
        <ele>43.599998474121</ele>
        <time>2020-10-22T09:18:56.000Z</time>
      </trkpt>
      <trkpt lat="47.28564" lon="-2.26819">
        <ele>43.599998474121</ele>
        <time>2020-10-22T09:19:05.000Z</time>
      </trkpt>
      <trkpt lat="47.28578" lon="-2.26782">
        <ele>43.599998474121</ele>
        <time>2020-10-22T09:19:10.000Z</time>
      </trkpt>
      <trkpt lat="47.28582" lon="-2.26776">
        <ele>43.599998474121</ele>
        <time>2020-10-22T09:19:11.000Z</time>
      </trkpt>
      <trkpt lat="47.28594" lon="-2.26759">
        <ele>43.599998474121</ele>
        <time>2020-10-22T09:19:14.000Z</time>
      </trkpt>
      <trkpt lat="47.28599" lon="-2.26754">
        <ele>43.599998474121</ele>
        <time>2020-10-22T09:19:15.000Z</time>
      </trkpt>
      <trkpt lat="47.28608" lon="-2.26745">
        <ele>43.599998474121</ele>
        <time>2020-10-22T09:19:17.000Z</time>
      </trkpt>
      <trkpt lat="47.28623" lon="-2.26739">
        <ele>43.599998474121</ele>
        <time>2020-10-22T09:19:20.000Z</time>
      </trkpt>
      <trkpt lat="47.28643" lon="-2.26733">
        <ele>43.599998474121</ele>
        <time>2020-10-22T09:19:24.000Z</time>
      </trkpt>
      <trkpt lat="47.28654" lon="-2.26729">
        <ele>43.599998474121</ele>
        <time>2020-10-22T09:19:26.000Z</time>
      </trkpt>
      <trkpt lat="47.28681" lon="-2.26716">
        <ele>43.599998474121</ele>
        <time>2020-10-22T09:19:32.000Z</time>
      </trkpt>
      <trkpt lat="47.28712" lon="-2.26706">
        <ele>43.599998474121</ele>
        <time>2020-10-22T09:19:38.000Z</time>
      </trkpt>
      <trkpt lat="47.2873" lon="-2.26701">
        <ele>44</ele>
        <time>2020-10-22T09:19:42.000Z</time>
      </trkpt>
      <trkpt lat="47.28735" lon="-2.267">
        <ele>44.400001525879</ele>
        <time>2020-10-22T09:19:43.000Z</time>
      </trkpt>
      <trkpt lat="47.2874" lon="-2.267">
        <ele>44.799999237061</ele>
        <time>2020-10-22T09:19:44.000Z</time>
      </trkpt>
      <trkpt lat="47.28744" lon="-2.267">
        <ele>45.599998474121</ele>
        <time>2020-10-22T09:19:45.000Z</time>
      </trkpt>
      <trkpt lat="47.2877" lon="-2.26694">
        <ele>46</ele>
        <time>2020-10-22T09:19:50.000Z</time>
      </trkpt>
      <trkpt lat="47.28775" lon="-2.26693">
        <ele>46.400001525879</ele>
        <time>2020-10-22T09:19:51.000Z</time>
      </trkpt>
      <trkpt lat="47.28781" lon="-2.26693">
        <ele>46.799999237061</ele>
        <time>2020-10-22T09:19:52.000Z</time>
      </trkpt>
      <trkpt lat="47.28787" lon="-2.26692">
        <ele>47.200000762939</ele>
        <time>2020-10-22T09:19:53.000Z</time>
      </trkpt>
      <trkpt lat="47.28792" lon="-2.2669">
        <ele>47.599998474121</ele>
        <time>2020-10-22T09:19:54.000Z</time>
      </trkpt>
      <trkpt lat="47.28809" lon="-2.26687">
        <ele>47.599998474121</ele>
        <time>2020-10-22T09:19:57.000Z</time>
      </trkpt>
      <trkpt lat="47.28845" lon="-2.26672">
        <ele>47.599998474121</ele>
        <time>2020-10-22T09:20:04.000Z</time>
      </trkpt>
      <trkpt lat="47.28885" lon="-2.26649">
        <ele>47.599998474121</ele>
        <time>2020-10-22T09:20:12.000Z</time>
      </trkpt>
      <trkpt lat="47.28923" lon="-2.26625">
        <ele>47.599998474121</ele>
        <time>2020-10-22T09:20:19.000Z</time>
      </trkpt>
      <trkpt lat="47.28928" lon="-2.26621">
        <ele>47.599998474121</ele>
        <time>2020-10-22T09:20:20.000Z</time>
      </trkpt>
      <trkpt lat="47.28946" lon="-2.26612">
        <ele>47.599998474121</ele>
        <time>2020-10-22T09:20:23.000Z</time>
      </trkpt>
      <trkpt lat="47.28967" lon="-2.26604">
        <ele>47.599998474121</ele>
        <time>2020-10-22T09:20:26.000Z</time>
      </trkpt>
      <trkpt lat="47.29005" lon="-2.26592">
        <ele>47.200000762939</ele>
        <time>2020-10-22T09:20:31.000Z</time>
      </trkpt>
      <trkpt lat="47.29013" lon="-2.2659">
        <ele>46.799999237061</ele>
        <time>2020-10-22T09:20:32.000Z</time>
      </trkpt>
      <trkpt lat="47.29021" lon="-2.26588">
        <ele>46.400001525879</ele>
        <time>2020-10-22T09:20:33.000Z</time>
      </trkpt>
      <trkpt lat="47.29029" lon="-2.26586">
        <ele>46</ele>
        <time>2020-10-22T09:20:34.000Z</time>
      </trkpt>
      <trkpt lat="47.29035" lon="-2.26585">
        <ele>45.200000762939</ele>
        <time>2020-10-22T09:20:35.000Z</time>
      </trkpt>
      <trkpt lat="47.2904" lon="-2.26587">
        <ele>44.799999237061</ele>
        <time>2020-10-22T09:20:36.000Z</time>
      </trkpt>
      <trkpt lat="47.29044" lon="-2.2659">
        <ele>44.200000762939</ele>
        <time>2020-10-22T09:20:37.000Z</time>
      </trkpt>
      <trkpt lat="47.29048" lon="-2.26596">
        <ele>43.799999237061</ele>
        <time>2020-10-22T09:20:38.000Z</time>
      </trkpt>
      <trkpt lat="47.2905" lon="-2.26601">
        <ele>43.400001525879</ele>
        <time>2020-10-22T09:20:39.000Z</time>
      </trkpt>
      <trkpt lat="47.29051" lon="-2.26608">
        <ele>43.400001525879</ele>
        <time>2020-10-22T09:20:40.000Z</time>
      </trkpt>
      <trkpt lat="47.29052" lon="-2.26615">
        <ele>43.400001525879</ele>
        <time>2020-10-22T09:20:41.000Z</time>
      </trkpt>
      <trkpt lat="47.29053" lon="-2.26622">
        <ele>43</ele>
        <time>2020-10-22T09:20:42.000Z</time>
      </trkpt>
      <trkpt lat="47.29053" lon="-2.26631">
        <ele>42.599998474121</ele>
        <time>2020-10-22T09:20:43.000Z</time>
      </trkpt>
      <trkpt lat="47.29053" lon="-2.2664">
        <ele>42.200000762939</ele>
        <time>2020-10-22T09:20:44.000Z</time>
      </trkpt>
      <trkpt lat="47.29053" lon="-2.26649">
        <ele>41.799999237061</ele>
        <time>2020-10-22T09:20:45.000Z</time>
      </trkpt>
      <trkpt lat="47.29053" lon="-2.26659">
        <ele>41.400001525879</ele>
        <time>2020-10-22T09:20:46.000Z</time>
      </trkpt>
      <trkpt lat="47.29058" lon="-2.26712">
        <ele>40.799999237061</ele>
        <time>2020-10-22T09:20:51.000Z</time>
      </trkpt>
      <trkpt lat="47.2906" lon="-2.26724">
        <ele>40.400001525879</ele>
        <time>2020-10-22T09:20:52.000Z</time>
      </trkpt>
      <trkpt lat="47.29062" lon="-2.26737">
        <ele>40</ele>
        <time>2020-10-22T09:20:53.000Z</time>
      </trkpt>
      <trkpt lat="47.29064" lon="-2.26749">
        <ele>39.599998474121</ele>
        <time>2020-10-22T09:20:54.000Z</time>
      </trkpt>
      <trkpt lat="47.29066" lon="-2.26761">
        <ele>39</ele>
        <time>2020-10-22T09:20:55.000Z</time>
      </trkpt>
      <trkpt lat="47.29069" lon="-2.26787">
        <ele>38.599998474121</ele>
        <time>2020-10-22T09:20:57.000Z</time>
      </trkpt>
      <trkpt lat="47.29069" lon="-2.268">
        <ele>38.200000762939</ele>
        <time>2020-10-22T09:20:58.000Z</time>
      </trkpt>
      <trkpt lat="47.29069" lon="-2.26812">
        <ele>37.200000762939</ele>
        <time>2020-10-22T09:20:59.000Z</time>
      </trkpt>
      <trkpt lat="47.29069" lon="-2.26824">
        <ele>36.799999237061</ele>
        <time>2020-10-22T09:21:00.000Z</time>
      </trkpt>
      <trkpt lat="47.29068" lon="-2.2685">
        <ele>36.799999237061</ele>
        <time>2020-10-22T09:21:02.000Z</time>
      </trkpt>
      <trkpt lat="47.29064" lon="-2.26877">
        <ele>36.400001525879</ele>
        <time>2020-10-22T09:21:05.000Z</time>
      </trkpt>
      <trkpt lat="47.29063" lon="-2.26882">
        <ele>36</ele>
        <time>2020-10-22T09:21:06.000Z</time>
      </trkpt>
      <trkpt lat="47.29063" lon="-2.26886">
        <ele>35.599998474121</ele>
        <time>2020-10-22T09:21:07.000Z</time>
      </trkpt>
      <trkpt lat="47.29063" lon="-2.26889">
        <ele>35.200000762939</ele>
        <time>2020-10-22T09:21:08.000Z</time>
      </trkpt>
      <trkpt lat="47.29064" lon="-2.26891">
        <ele>34.799999237061</ele>
        <time>2020-10-22T09:21:09.000Z</time>
      </trkpt>
      <trkpt lat="47.29065" lon="-2.26894">
        <ele>34.799999237061</ele>
        <time>2020-10-22T09:21:10.000Z</time>
      </trkpt>
      <trkpt lat="47.29068" lon="-2.26897">
        <ele>34.799999237061</ele>
        <time>2020-10-22T09:21:12.000Z</time>
      </trkpt>
      <trkpt lat="47.29074" lon="-2.26909">
        <ele>34.799999237061</ele>
        <time>2020-10-22T09:21:18.000Z</time>
      </trkpt>
      <trkpt lat="47.29078" lon="-2.26921">
        <ele>34.799999237061</ele>
        <time>2020-10-22T09:21:23.000Z</time>
      </trkpt>
      <trkpt lat="47.29076" lon="-2.26934">
        <ele>34.799999237061</ele>
        <time>2020-10-22T09:21:27.000Z</time>
      </trkpt>
      <trkpt lat="47.29076" lon="-2.26947">
        <ele>34.799999237061</ele>
        <time>2020-10-22T09:21:31.000Z</time>
      </trkpt>
      <trkpt lat="47.29074" lon="-2.26971">
        <ele>34.799999237061</ele>
        <time>2020-10-22T09:21:35.000Z</time>
      </trkpt>
      <trkpt lat="47.29075" lon="-2.26976">
        <ele>34.799999237061</ele>
        <time>2020-10-22T09:21:36.000Z</time>
      </trkpt>
      <trkpt lat="47.29075" lon="-2.27">
        <ele>34.799999237061</ele>
        <time>2020-10-22T09:21:41.000Z</time>
      </trkpt>
      <trkpt lat="47.29077" lon="-2.27015">
        <ele>34.799999237061</ele>
        <time>2020-10-22T09:21:45.000Z</time>
      </trkpt>
      <trkpt lat="47.29075" lon="-2.27037">
        <ele>34.799999237061</ele>
        <time>2020-10-22T09:21:49.000Z</time>
      </trkpt>
      <trkpt lat="47.2907" lon="-2.27063">
        <ele>34.799999237061</ele>
        <time>2020-10-22T09:21:54.000Z</time>
      </trkpt>
      <trkpt lat="47.29066" lon="-2.27077">
        <ele>34.799999237061</ele>
        <time>2020-10-22T09:21:59.000Z</time>
      </trkpt>
      <trkpt lat="47.29056" lon="-2.27083">
        <ele>34.799999237061</ele>
        <time>2020-10-22T09:22:05.000Z</time>
      </trkpt>
      <trkpt lat="47.29045" lon="-2.27093">
        <ele>34.799999237061</ele>
        <time>2020-10-22T09:22:10.000Z</time>
      </trkpt>
      <trkpt lat="47.29032" lon="-2.27099">
        <ele>34.799999237061</ele>
        <time>2020-10-22T09:22:15.000Z</time>
      </trkpt>
      <trkpt lat="47.2903" lon="-2.27114">
        <ele>34.799999237061</ele>
        <time>2020-10-22T09:22:19.000Z</time>
      </trkpt>
      <trkpt lat="47.29036" lon="-2.27126">
        <ele>34.799999237061</ele>
        <time>2020-10-22T09:22:23.000Z</time>
      </trkpt>
      <trkpt lat="47.29041" lon="-2.27129">
        <ele>34.799999237061</ele>
        <time>2020-10-22T09:22:25.000Z</time>
      </trkpt>
      <trkpt lat="47.29054" lon="-2.27141">
        <ele>34.799999237061</ele>
        <time>2020-10-22T09:22:29.000Z</time>
      </trkpt>
      <trkpt lat="47.29064" lon="-2.27162">
        <ele>34.799999237061</ele>
        <time>2020-10-22T09:22:34.000Z</time>
      </trkpt>
      <trkpt lat="47.29073" lon="-2.2718">
        <ele>34.799999237061</ele>
        <time>2020-10-22T09:22:38.000Z</time>
      </trkpt>
      <trkpt lat="47.29078" lon="-2.27183">
        <ele>34.799999237061</ele>
        <time>2020-10-22T09:22:39.000Z</time>
      </trkpt>
      <trkpt lat="47.29094" lon="-2.2719">
        <ele>34.799999237061</ele>
        <time>2020-10-22T09:22:43.000Z</time>
      </trkpt>
      <trkpt lat="47.29101" lon="-2.27192">
        <ele>34.799999237061</ele>
        <time>2020-10-22T09:22:45.000Z</time>
      </trkpt>
      <trkpt lat="47.29108" lon="-2.27194">
        <ele>34.799999237061</ele>
        <time>2020-10-22T09:22:48.000Z</time>
      </trkpt>
      <trkpt lat="47.29109" lon="-2.27195">
        <ele>34.799999237061</ele>
        <time>2020-10-22T09:22:52.000Z</time>
      </trkpt>
      <trkpt lat="47.29112" lon="-2.27201">
        <ele>34.799999237061</ele>
        <time>2020-10-22T09:22:57.000Z</time>
      </trkpt>
      <trkpt lat="47.29112" lon="-2.27202">
        <ele>34.799999237061</ele>
        <time>2020-10-22T09:22:58.000Z</time>
      </trkpt>
      <trkpt lat="47.29113" lon="-2.27204">
        <ele>34.799999237061</ele>
        <time>2020-10-22T09:23:00.000Z</time>
      </trkpt>
      <trkpt lat="47.29115" lon="-2.27211">
        <ele>34.799999237061</ele>
        <time>2020-10-22T09:23:03.000Z</time>
      </trkpt>
      <trkpt lat="47.29114" lon="-2.27213">
        <ele>34.799999237061</ele>
        <time>2020-10-22T09:23:04.000Z</time>
      </trkpt>
      <trkpt lat="47.29113" lon="-2.27225">
        <ele>34.799999237061</ele>
        <time>2020-10-22T09:23:07.000Z</time>
      </trkpt>
      <trkpt lat="47.29113" lon="-2.27231">
        <ele>34.799999237061</ele>
        <time>2020-10-22T09:23:08.000Z</time>
      </trkpt>
      <trkpt lat="47.29109" lon="-2.27258">
        <ele>34.799999237061</ele>
        <time>2020-10-22T09:23:13.000Z</time>
      </trkpt>
      <trkpt lat="47.29102" lon="-2.27293">
        <ele>34.799999237061</ele>
        <time>2020-10-22T09:23:19.000Z</time>
      </trkpt>
      <trkpt lat="47.29098" lon="-2.27305">
        <ele>34.799999237061</ele>
        <time>2020-10-22T09:23:21.000Z</time>
      </trkpt>
      <trkpt lat="47.29094" lon="-2.27322">
        <ele>34.799999237061</ele>
        <time>2020-10-22T09:23:24.000Z</time>
      </trkpt>
      <trkpt lat="47.29093" lon="-2.27327">
        <ele>34.799999237061</ele>
        <time>2020-10-22T09:23:25.000Z</time>
      </trkpt>
      <trkpt lat="47.29091" lon="-2.27341">
        <ele>34.799999237061</ele>
        <time>2020-10-22T09:23:28.000Z</time>
      </trkpt>
      <trkpt lat="47.29094" lon="-2.27347">
        <ele>34.799999237061</ele>
        <time>2020-10-22T09:23:31.000Z</time>
      </trkpt>
      <trkpt lat="47.29095" lon="-2.27351">
        <ele>34.799999237061</ele>
        <time>2020-10-22T09:23:32.000Z</time>
      </trkpt>
      <trkpt lat="47.29097" lon="-2.27363">
        <ele>34.799999237061</ele>
        <time>2020-10-22T09:23:36.000Z</time>
      </trkpt>
      <trkpt lat="47.29097" lon="-2.27365">
        <ele>34.799999237061</ele>
        <time>2020-10-22T09:23:37.000Z</time>
      </trkpt>
      <trkpt lat="47.291" lon="-2.27376">
        <ele>34.799999237061</ele>
        <time>2020-10-22T09:23:41.000Z</time>
      </trkpt>
      <trkpt lat="47.29103" lon="-2.27383">
        <ele>34.799999237061</ele>
        <time>2020-10-22T09:23:43.000Z</time>
      </trkpt>
      <trkpt lat="47.29105" lon="-2.2739">
        <ele>34.799999237061</ele>
        <time>2020-10-22T09:23:45.000Z</time>
      </trkpt>
      <trkpt lat="47.29109" lon="-2.27407">
        <ele>34.799999237061</ele>
        <time>2020-10-22T09:23:49.000Z</time>
      </trkpt>
      <trkpt lat="47.29109" lon="-2.27443">
        <ele>34.799999237061</ele>
        <time>2020-10-22T09:23:55.000Z</time>
      </trkpt>
      <trkpt lat="47.29107" lon="-2.27482">
        <ele>34.799999237061</ele>
        <time>2020-10-22T09:24:01.000Z</time>
      </trkpt>
      <trkpt lat="47.29104" lon="-2.27512">
        <ele>34.799999237061</ele>
        <time>2020-10-22T09:24:07.000Z</time>
      </trkpt>
      <trkpt lat="47.29105" lon="-2.27516">
        <ele>34.799999237061</ele>
        <time>2020-10-22T09:24:10.000Z</time>
      </trkpt>
      <trkpt lat="47.29103" lon="-2.27522">
        <ele>34.799999237061</ele>
        <time>2020-10-22T09:24:30.000Z</time>
      </trkpt>
      <trkpt lat="47.29093" lon="-2.27526">
        <ele>34.799999237061</ele>
        <time>2020-10-22T09:24:33.000Z</time>
      </trkpt>
      <trkpt lat="47.29088" lon="-2.27526">
        <ele>34.799999237061</ele>
        <time>2020-10-22T09:24:34.000Z</time>
      </trkpt>
      <trkpt lat="47.29079" lon="-2.27525">
        <ele>34.799999237061</ele>
        <time>2020-10-22T09:24:36.000Z</time>
      </trkpt>
      <trkpt lat="47.29069" lon="-2.27523">
        <ele>34.799999237061</ele>
        <time>2020-10-22T09:24:38.000Z</time>
      </trkpt>
      <trkpt lat="47.29033" lon="-2.27521">
        <ele>34.799999237061</ele>
        <time>2020-10-22T09:24:45.000Z</time>
      </trkpt>
      <trkpt lat="47.28996" lon="-2.27521">
        <ele>34.799999237061</ele>
        <time>2020-10-22T09:24:52.000Z</time>
      </trkpt>
      <trkpt lat="47.28957" lon="-2.27522">
        <ele>34.799999237061</ele>
        <time>2020-10-22T09:24:59.000Z</time>
      </trkpt>
      <trkpt lat="47.28908" lon="-2.27525">
        <ele>34.799999237061</ele>
        <time>2020-10-22T09:25:07.000Z</time>
      </trkpt>
      <trkpt lat="47.28861" lon="-2.27533">
        <ele>34.799999237061</ele>
        <time>2020-10-22T09:25:15.000Z</time>
      </trkpt>
      <trkpt lat="47.28818" lon="-2.27541">
        <ele>34.799999237061</ele>
        <time>2020-10-22T09:25:22.000Z</time>
      </trkpt>
      <trkpt lat="47.28812" lon="-2.27544">
        <ele>34.799999237061</ele>
        <time>2020-10-22T09:25:23.000Z</time>
      </trkpt>
      <trkpt lat="47.28797" lon="-2.2756">
        <ele>34.799999237061</ele>
        <time>2020-10-22T09:25:26.000Z</time>
      </trkpt>
      <trkpt lat="47.28792" lon="-2.27566">
        <ele>34.799999237061</ele>
        <time>2020-10-22T09:25:27.000Z</time>
      </trkpt>
      <trkpt lat="47.28758" lon="-2.27606">
        <ele>34.799999237061</ele>
        <time>2020-10-22T09:25:34.000Z</time>
      </trkpt>
      <trkpt lat="47.28726" lon="-2.27651">
        <ele>34.799999237061</ele>
        <time>2020-10-22T09:25:41.000Z</time>
      </trkpt>
      <trkpt lat="47.28701" lon="-2.27692">
        <ele>35.200000762939</ele>
        <time>2020-10-22T09:25:47.000Z</time>
      </trkpt>
      <trkpt lat="47.28697" lon="-2.27699">
        <ele>35.599998474121</ele>
        <time>2020-10-22T09:25:48.000Z</time>
      </trkpt>
      <trkpt lat="47.28693" lon="-2.27706">
        <ele>36</ele>
        <time>2020-10-22T09:25:49.000Z</time>
      </trkpt>
      <trkpt lat="47.28689" lon="-2.27712">
        <ele>36.400001525879</ele>
        <time>2020-10-22T09:25:50.000Z</time>
      </trkpt>
      <trkpt lat="47.28686" lon="-2.27719">
        <ele>36.799999237061</ele>
        <time>2020-10-22T09:25:51.000Z</time>
      </trkpt>
      <trkpt lat="47.28668" lon="-2.27752">
        <ele>36.799999237061</ele>
        <time>2020-10-22T09:25:56.000Z</time>
      </trkpt>
      <trkpt lat="47.28658" lon="-2.27776">
        <ele>36.799999237061</ele>
        <time>2020-10-22T09:25:59.000Z</time>
      </trkpt>
      <trkpt lat="47.28654" lon="-2.27793">
        <ele>36.799999237061</ele>
        <time>2020-10-22T09:26:01.000Z</time>
      </trkpt>
      <trkpt lat="47.28643" lon="-2.27852">
        <ele>36.799999237061</ele>
        <time>2020-10-22T09:26:08.000Z</time>
      </trkpt>
      <trkpt lat="47.28633" lon="-2.27903">
        <ele>36.799999237061</ele>
        <time>2020-10-22T09:26:15.000Z</time>
      </trkpt>
      <trkpt lat="47.28622" lon="-2.27948">
        <ele>36.799999237061</ele>
        <time>2020-10-22T09:26:22.000Z</time>
      </trkpt>
      <trkpt lat="47.28611" lon="-2.27973">
        <ele>36.799999237061</ele>
        <time>2020-10-22T09:26:26.000Z</time>
      </trkpt>
      <trkpt lat="47.2861" lon="-2.27979">
        <ele>36.799999237061</ele>
        <time>2020-10-22T09:26:27.000Z</time>
      </trkpt>
      <trkpt lat="47.28608" lon="-2.27997">
        <ele>36.799999237061</ele>
        <time>2020-10-22T09:26:30.000Z</time>
      </trkpt>
      <trkpt lat="47.28597" lon="-2.2802">
        <ele>36.799999237061</ele>
        <time>2020-10-22T09:26:35.000Z</time>
      </trkpt>
      <trkpt lat="47.28586" lon="-2.28033">
        <ele>36.799999237061</ele>
        <time>2020-10-22T09:26:39.000Z</time>
      </trkpt>
      <trkpt lat="47.28574" lon="-2.2805">
        <ele>37.599998474121</ele>
        <time>2020-10-22T09:26:45.000Z</time>
      </trkpt>
      <trkpt lat="47.28571" lon="-2.28051">
        <ele>38</ele>
        <time>2020-10-22T09:26:46.000Z</time>
      </trkpt>
      <trkpt lat="47.28567" lon="-2.2805">
        <ele>38.599998474121</ele>
        <time>2020-10-22T09:26:47.000Z</time>
      </trkpt>
      <trkpt lat="47.28565" lon="-2.28052">
        <ele>39</ele>
        <time>2020-10-22T09:26:48.000Z</time>
      </trkpt>
      <trkpt lat="47.28552" lon="-2.28054">
        <ele>39</ele>
        <time>2020-10-22T09:26:53.000Z</time>
      </trkpt>
      <trkpt lat="47.28545" lon="-2.28051">
        <ele>39</ele>
        <time>2020-10-22T09:26:57.000Z</time>
      </trkpt>
      <trkpt lat="47.28543" lon="-2.28051">
        <ele>39</ele>
        <time>2020-10-22T09:26:58.000Z</time>
      </trkpt>
      <trkpt lat="47.28538" lon="-2.2805">
        <ele>39.400001525879</ele>
        <time>2020-10-22T09:27:01.000Z</time>
      </trkpt>
      <trkpt lat="47.28536" lon="-2.2805">
        <ele>39.799999237061</ele>
        <time>2020-10-22T09:27:02.000Z</time>
      </trkpt>
      <trkpt lat="47.28535" lon="-2.28049">
        <ele>40.200000762939</ele>
        <time>2020-10-22T09:27:03.000Z</time>
      </trkpt>
      <trkpt lat="47.28533" lon="-2.28049">
        <ele>40.599998474121</ele>
        <time>2020-10-22T09:27:04.000Z</time>
      </trkpt>
      <trkpt lat="47.2853" lon="-2.28049">
        <ele>41</ele>
        <time>2020-10-22T09:27:05.000Z</time>
      </trkpt>
      <trkpt lat="47.28524" lon="-2.28049">
        <ele>41.799999237061</ele>
        <time>2020-10-22T09:27:09.000Z</time>
      </trkpt>
      <trkpt lat="47.28522" lon="-2.28048">
        <ele>42.400001525879</ele>
        <time>2020-10-22T09:27:10.000Z</time>
      </trkpt>
      <trkpt lat="47.2852" lon="-2.28048">
        <ele>42.799999237061</ele>
        <time>2020-10-22T09:27:11.000Z</time>
      </trkpt>
      <trkpt lat="47.28518" lon="-2.28047">
        <ele>43.200000762939</ele>
        <time>2020-10-22T09:27:12.000Z</time>
      </trkpt>
      <trkpt lat="47.28511" lon="-2.28043">
        <ele>43.200000762939</ele>
        <time>2020-10-22T09:27:16.000Z</time>
      </trkpt>
      <trkpt lat="47.28507" lon="-2.28037">
        <ele>43.599998474121</ele>
        <time>2020-10-22T09:27:20.000Z</time>
      </trkpt>
      <trkpt lat="47.28506" lon="-2.28035">
        <ele>44</ele>
        <time>2020-10-22T09:27:21.000Z</time>
      </trkpt>
      <trkpt lat="47.28504" lon="-2.28034">
        <ele>44.599998474121</ele>
        <time>2020-10-22T09:27:22.000Z</time>
      </trkpt>
      <trkpt lat="47.28501" lon="-2.28033">
        <ele>45</ele>
        <time>2020-10-22T09:27:23.000Z</time>
      </trkpt>
      <trkpt lat="47.28499" lon="-2.28033">
        <ele>45.400001525879</ele>
        <time>2020-10-22T09:27:24.000Z</time>
      </trkpt>
      <trkpt lat="47.28497" lon="-2.28034">
        <ele>45.400001525879</ele>
        <time>2020-10-22T09:27:25.000Z</time>
      </trkpt>
      <trkpt lat="47.28484" lon="-2.28045">
        <ele>45.400001525879</ele>
        <time>2020-10-22T09:27:30.000Z</time>
      </trkpt>
      <trkpt lat="47.28483" lon="-2.28059">
        <ele>45.400001525879</ele>
        <time>2020-10-22T09:27:34.000Z</time>
      </trkpt>
      <trkpt lat="47.28484" lon="-2.28063">
        <ele>45.400001525879</ele>
        <time>2020-10-22T09:27:35.000Z</time>
      </trkpt>
      <trkpt lat="47.28485" lon="-2.28066">
        <ele>45.400001525879</ele>
        <time>2020-10-22T09:27:36.000Z</time>
      </trkpt>
      <trkpt lat="47.28489" lon="-2.28074">
        <ele>45.400001525879</ele>
        <time>2020-10-22T09:27:39.000Z</time>
      </trkpt>
      <trkpt lat="47.28489" lon="-2.28081">
        <ele>45.400001525879</ele>
        <time>2020-10-22T09:27:42.000Z</time>
      </trkpt>
      <trkpt lat="47.28487" lon="-2.28083">
        <ele>45.400001525879</ele>
        <time>2020-10-22T09:27:43.000Z</time>
      </trkpt>
      <trkpt lat="47.28474" lon="-2.28091">
        <ele>45.400001525879</ele>
        <time>2020-10-22T09:27:47.000Z</time>
      </trkpt>
      <trkpt lat="47.2847" lon="-2.28093">
        <ele>45</ele>
        <time>2020-10-22T09:27:48.000Z</time>
      </trkpt>
      <trkpt lat="47.28466" lon="-2.28093">
        <ele>44.400001525879</ele>
        <time>2020-10-22T09:27:49.000Z</time>
      </trkpt>
      <trkpt lat="47.28463" lon="-2.28092">
        <ele>44</ele>
        <time>2020-10-22T09:27:50.000Z</time>
      </trkpt>
      <trkpt lat="47.2846" lon="-2.2809">
        <ele>43.599998474121</ele>
        <time>2020-10-22T09:27:51.000Z</time>
      </trkpt>
      <trkpt lat="47.28458" lon="-2.28089">
        <ele>43.200000762939</ele>
        <time>2020-10-22T09:27:52.000Z</time>
      </trkpt>
      <trkpt lat="47.28447" lon="-2.28084">
        <ele>43.200000762939</ele>
        <time>2020-10-22T09:27:57.000Z</time>
      </trkpt>
      <trkpt lat="47.28439" lon="-2.28086">
        <ele>43.200000762939</ele>
        <time>2020-10-22T09:28:01.000Z</time>
      </trkpt>
      <trkpt lat="47.28431" lon="-2.28082">
        <ele>43.200000762939</ele>
        <time>2020-10-22T09:28:04.000Z</time>
      </trkpt>
      <trkpt lat="47.28428" lon="-2.28083">
        <ele>43.200000762939</ele>
        <time>2020-10-22T09:28:05.000Z</time>
      </trkpt>
      <trkpt lat="47.28418" lon="-2.28081">
        <ele>43.200000762939</ele>
        <time>2020-10-22T09:28:09.000Z</time>
      </trkpt>
      <trkpt lat="47.28404" lon="-2.28074">
        <ele>43.200000762939</ele>
        <time>2020-10-22T09:28:14.000Z</time>
      </trkpt>
      <trkpt lat="47.28391" lon="-2.28075">
        <ele>43.200000762939</ele>
        <time>2020-10-22T09:28:19.000Z</time>
      </trkpt>
      <trkpt lat="47.28378" lon="-2.28076">
        <ele>43.200000762939</ele>
        <time>2020-10-22T09:28:25.000Z</time>
      </trkpt>
      <trkpt lat="47.28377" lon="-2.2807">
        <ele>43.200000762939</ele>
        <time>2020-10-22T09:28:28.000Z</time>
      </trkpt>
      <trkpt lat="47.28378" lon="-2.28066">
        <ele>43.200000762939</ele>
        <time>2020-10-22T09:28:30.000Z</time>
      </trkpt>
      <trkpt lat="47.28377" lon="-2.28057">
        <ele>43.200000762939</ele>
        <time>2020-10-22T09:28:34.000Z</time>
      </trkpt>
      <trkpt lat="47.28375" lon="-2.28057">
        <ele>43.200000762939</ele>
        <time>2020-10-22T09:28:36.000Z</time>
      </trkpt>
      <trkpt lat="47.28374" lon="-2.28059">
        <ele>43.200000762939</ele>
        <time>2020-10-22T09:28:37.000Z</time>
      </trkpt>
      <trkpt lat="47.28372" lon="-2.28069">
        <ele>43.200000762939</ele>
        <time>2020-10-22T09:28:40.000Z</time>
      </trkpt>
      <trkpt lat="47.28372" lon="-2.28073">
        <ele>43.200000762939</ele>
        <time>2020-10-22T09:28:41.000Z</time>
      </trkpt>
      <trkpt lat="47.28366" lon="-2.28089">
        <ele>43.200000762939</ele>
        <time>2020-10-22T09:28:45.000Z</time>
      </trkpt>
      <trkpt lat="47.28364" lon="-2.28088">
        <ele>43.200000762939</ele>
        <time>2020-10-22T09:28:46.000Z</time>
      </trkpt>
      <trkpt lat="47.28363" lon="-2.28088">
        <ele>42.799999237061</ele>
        <time>2020-10-22T09:28:47.000Z</time>
      </trkpt>
      <trkpt lat="47.28362" lon="-2.28088">
        <ele>42</ele>
        <time>2020-10-22T09:28:48.000Z</time>
      </trkpt>
      <trkpt lat="47.28361" lon="-2.28088">
        <ele>41.599998474121</ele>
        <time>2020-10-22T09:28:49.000Z</time>
      </trkpt>
      <trkpt lat="47.28359" lon="-2.28088">
        <ele>41.200000762939</ele>
        <time>2020-10-22T09:28:50.000Z</time>
      </trkpt>
      <trkpt lat="47.28341" lon="-2.28101">
        <ele>41.200000762939</ele>
        <time>2020-10-22T09:28:57.000Z</time>
      </trkpt>
      <trkpt lat="47.2834" lon="-2.28107">
        <ele>41.200000762939</ele>
        <time>2020-10-22T09:28:58.000Z</time>
      </trkpt>
      <trkpt lat="47.28337" lon="-2.28127">
        <ele>41.200000762939</ele>
        <time>2020-10-22T09:29:01.000Z</time>
      </trkpt>
      <trkpt lat="47.28332" lon="-2.28151">
        <ele>41.599998474121</ele>
        <time>2020-10-22T09:29:05.000Z</time>
      </trkpt>
      <trkpt lat="47.28331" lon="-2.28157">
        <ele>42</ele>
        <time>2020-10-22T09:29:06.000Z</time>
      </trkpt>
      <trkpt lat="47.28331" lon="-2.28164">
        <ele>42.400001525879</ele>
        <time>2020-10-22T09:29:07.000Z</time>
      </trkpt>
      <trkpt lat="47.2833" lon="-2.2817">
        <ele>42.799999237061</ele>
        <time>2020-10-22T09:29:08.000Z</time>
      </trkpt>
      <trkpt lat="47.2833" lon="-2.28177">
        <ele>43.200000762939</ele>
        <time>2020-10-22T09:29:09.000Z</time>
      </trkpt>
      <trkpt lat="47.28327" lon="-2.28197">
        <ele>44.200000762939</ele>
        <time>2020-10-22T09:29:12.000Z</time>
      </trkpt>
      <trkpt lat="47.28327" lon="-2.28204">
        <ele>44.599998474121</ele>
        <time>2020-10-22T09:29:13.000Z</time>
      </trkpt>
      <trkpt lat="47.28327" lon="-2.28211">
        <ele>45</ele>
        <time>2020-10-22T09:29:14.000Z</time>
      </trkpt>
      <trkpt lat="47.28326" lon="-2.28218">
        <ele>45.599998474121</ele>
        <time>2020-10-22T09:29:15.000Z</time>
      </trkpt>
      <trkpt lat="47.28326" lon="-2.28252">
        <ele>46</ele>
        <time>2020-10-22T09:29:20.000Z</time>
      </trkpt>
      <trkpt lat="47.28326" lon="-2.28258">
        <ele>46.400001525879</ele>
        <time>2020-10-22T09:29:21.000Z</time>
      </trkpt>
      <trkpt lat="47.28326" lon="-2.28265">
        <ele>46.799999237061</ele>
        <time>2020-10-22T09:29:22.000Z</time>
      </trkpt>
      <trkpt lat="47.28326" lon="-2.28271">
        <ele>47.200000762939</ele>
        <time>2020-10-22T09:29:23.000Z</time>
      </trkpt>
      <trkpt lat="47.28325" lon="-2.28278">
        <ele>47.599998474121</ele>
        <time>2020-10-22T09:29:24.000Z</time>
      </trkpt>
      <trkpt lat="47.28323" lon="-2.28304">
        <ele>47.599998474121</ele>
        <time>2020-10-22T09:29:29.000Z</time>
      </trkpt>
      <trkpt lat="47.28323" lon="-2.28309">
        <ele>48</ele>
        <time>2020-10-22T09:29:30.000Z</time>
      </trkpt>
      <trkpt lat="47.28323" lon="-2.28314">
        <ele>48.400001525879</ele>
        <time>2020-10-22T09:29:31.000Z</time>
      </trkpt>
      <trkpt lat="47.28324" lon="-2.28319">
        <ele>49</ele>
        <time>2020-10-22T09:29:32.000Z</time>
      </trkpt>
      <trkpt lat="47.28325" lon="-2.28324">
        <ele>49.400001525879</ele>
        <time>2020-10-22T09:29:33.000Z</time>
      </trkpt>
      <trkpt lat="47.28325" lon="-2.2833">
        <ele>49.799999237061</ele>
        <time>2020-10-22T09:29:34.000Z</time>
      </trkpt>
      <trkpt lat="47.28325" lon="-2.28335">
        <ele>49.799999237061</ele>
        <time>2020-10-22T09:29:35.000Z</time>
      </trkpt>
      <trkpt lat="47.28323" lon="-2.28361">
        <ele>49.799999237061</ele>
        <time>2020-10-22T09:29:40.000Z</time>
      </trkpt>
      <trkpt lat="47.28317" lon="-2.28403">
        <ele>49.799999237061</ele>
        <time>2020-10-22T09:29:47.000Z</time>
      </trkpt>
      <trkpt lat="47.28309" lon="-2.28435">
        <ele>49.799999237061</ele>
        <time>2020-10-22T09:29:52.000Z</time>
      </trkpt>
      <trkpt lat="47.28304" lon="-2.28449">
        <ele>49.799999237061</ele>
        <time>2020-10-22T09:29:54.000Z</time>
      </trkpt>
      <trkpt lat="47.28296" lon="-2.28495">
        <ele>49.799999237061</ele>
        <time>2020-10-22T09:30:00.000Z</time>
      </trkpt>
      <trkpt lat="47.28286" lon="-2.28561">
        <ele>49.799999237061</ele>
        <time>2020-10-22T09:30:08.000Z</time>
      </trkpt>
      <trkpt lat="47.28282" lon="-2.28586">
        <ele>49.799999237061</ele>
        <time>2020-10-22T09:30:11.000Z</time>
      </trkpt>
      <trkpt lat="47.28276" lon="-2.28611">
        <ele>49.799999237061</ele>
        <time>2020-10-22T09:30:14.000Z</time>
      </trkpt>
      <trkpt lat="47.28258" lon="-2.2869">
        <ele>49.799999237061</ele>
        <time>2020-10-22T09:30:24.000Z</time>
      </trkpt>
      <trkpt lat="47.28248" lon="-2.28744">
        <ele>49.799999237061</ele>
        <time>2020-10-22T09:30:33.000Z</time>
      </trkpt>
      <trkpt lat="47.2824" lon="-2.28795">
        <ele>49.799999237061</ele>
        <time>2020-10-22T09:30:42.000Z</time>
      </trkpt>
      <trkpt lat="47.28233" lon="-2.28835">
        <ele>49.799999237061</ele>
        <time>2020-10-22T09:30:50.000Z</time>
      </trkpt>
      <trkpt lat="47.28224" lon="-2.28866">
        <ele>49.799999237061</ele>
        <time>2020-10-22T09:30:57.000Z</time>
      </trkpt>
      <trkpt lat="47.28214" lon="-2.28872">
        <ele>49.799999237061</ele>
        <time>2020-10-22T09:31:00.000Z</time>
      </trkpt>
      <trkpt lat="47.28211" lon="-2.28872">
        <ele>49.799999237061</ele>
        <time>2020-10-22T09:31:01.000Z</time>
      </trkpt>
      <trkpt lat="47.28197" lon="-2.28863">
        <ele>49.799999237061</ele>
        <time>2020-10-22T09:31:05.000Z</time>
      </trkpt>
      <trkpt lat="47.28169" lon="-2.28839">
        <ele>49.799999237061</ele>
        <time>2020-10-22T09:31:13.000Z</time>
      </trkpt>
      <trkpt lat="47.28148" lon="-2.28822">
        <ele>49.400001525879</ele>
        <time>2020-10-22T09:31:18.000Z</time>
      </trkpt>
      <trkpt lat="47.28144" lon="-2.28818">
        <ele>49</ele>
        <time>2020-10-22T09:31:19.000Z</time>
      </trkpt>
      <trkpt lat="47.28138" lon="-2.28814">
        <ele>48.599998474121</ele>
        <time>2020-10-22T09:31:20.000Z</time>
      </trkpt>
      <trkpt lat="47.28134" lon="-2.2881">
        <ele>48.200000762939</ele>
        <time>2020-10-22T09:31:21.000Z</time>
      </trkpt>
      <trkpt lat="47.28129" lon="-2.28806">
        <ele>47.799999237061</ele>
        <time>2020-10-22T09:31:22.000Z</time>
      </trkpt>
      <trkpt lat="47.28113" lon="-2.28795">
        <ele>47.799999237061</ele>
        <time>2020-10-22T09:31:25.000Z</time>
      </trkpt>
      <trkpt lat="47.28085" lon="-2.28778">
        <ele>47.400001525879</ele>
        <time>2020-10-22T09:31:30.000Z</time>
      </trkpt>
      <trkpt lat="47.2808" lon="-2.28775">
        <ele>47</ele>
        <time>2020-10-22T09:31:31.000Z</time>
      </trkpt>
      <trkpt lat="47.28074" lon="-2.28771">
        <ele>46.599998474121</ele>
        <time>2020-10-22T09:31:32.000Z</time>
      </trkpt>
      <trkpt lat="47.28069" lon="-2.28768">
        <ele>46.200000762939</ele>
        <time>2020-10-22T09:31:33.000Z</time>
      </trkpt>
      <trkpt lat="47.28063" lon="-2.28765">
        <ele>45.799999237061</ele>
        <time>2020-10-22T09:31:34.000Z</time>
      </trkpt>
      <trkpt lat="47.28057" lon="-2.28763">
        <ele>45.799999237061</ele>
        <time>2020-10-22T09:31:35.000Z</time>
      </trkpt>
      <trkpt lat="47.28039" lon="-2.28758">
        <ele>45.799999237061</ele>
        <time>2020-10-22T09:31:38.000Z</time>
      </trkpt>
      <trkpt lat="47.27991" lon="-2.28749">
        <ele>45.799999237061</ele>
        <time>2020-10-22T09:31:46.000Z</time>
      </trkpt>
      <trkpt lat="47.27965" lon="-2.28747">
        <ele>45.200000762939</ele>
        <time>2020-10-22T09:31:50.000Z</time>
      </trkpt>
      <trkpt lat="47.27959" lon="-2.28748">
        <ele>44.799999237061</ele>
        <time>2020-10-22T09:31:51.000Z</time>
      </trkpt>
      <trkpt lat="47.27953" lon="-2.2875">
        <ele>44.400001525879</ele>
        <time>2020-10-22T09:31:52.000Z</time>
      </trkpt>
      <trkpt lat="47.27947" lon="-2.28751">
        <ele>44</ele>
        <time>2020-10-22T09:31:53.000Z</time>
      </trkpt>
      <trkpt lat="47.27942" lon="-2.28753">
        <ele>43.599998474121</ele>
        <time>2020-10-22T09:31:54.000Z</time>
      </trkpt>
      <trkpt lat="47.2792" lon="-2.28761">
        <ele>43.599998474121</ele>
        <time>2020-10-22T09:31:58.000Z</time>
      </trkpt>
      <trkpt lat="47.27887" lon="-2.28771">
        <ele>43.599998474121</ele>
        <time>2020-10-22T09:32:05.000Z</time>
      </trkpt>
      <trkpt lat="47.27876" lon="-2.28781">
        <ele>43.599998474121</ele>
        <time>2020-10-22T09:32:09.000Z</time>
      </trkpt>
      <trkpt lat="47.27867" lon="-2.28811">
        <ele>43.599998474121</ele>
        <time>2020-10-22T09:32:15.000Z</time>
      </trkpt>
      <trkpt lat="47.27864" lon="-2.28814">
        <ele>43.599998474121</ele>
        <time>2020-10-22T09:32:16.000Z</time>
      </trkpt>
      <trkpt lat="47.27857" lon="-2.28812">
        <ele>43.599998474121</ele>
        <time>2020-10-22T09:32:18.000Z</time>
      </trkpt>
      <trkpt lat="47.27848" lon="-2.28805">
        <ele>43.599998474121</ele>
        <time>2020-10-22T09:32:20.000Z</time>
      </trkpt>
      <trkpt lat="47.2784" lon="-2.28799">
        <ele>43.599998474121</ele>
        <time>2020-10-22T09:32:22.000Z</time>
      </trkpt>
      <trkpt lat="47.27834" lon="-2.28796">
        <ele>43.599998474121</ele>
        <time>2020-10-22T09:32:23.000Z</time>
      </trkpt>
      <trkpt lat="47.27819" lon="-2.28793">
        <ele>43.599998474121</ele>
        <time>2020-10-22T09:32:26.000Z</time>
      </trkpt>
      <trkpt lat="47.27809" lon="-2.28792">
        <ele>43.599998474121</ele>
        <time>2020-10-22T09:32:28.000Z</time>
      </trkpt>
      <trkpt lat="47.27791" lon="-2.28804">
        <ele>43.599998474121</ele>
        <time>2020-10-22T09:32:32.000Z</time>
      </trkpt>
      <trkpt lat="47.27788" lon="-2.28809">
        <ele>43.599998474121</ele>
        <time>2020-10-22T09:32:33.000Z</time>
      </trkpt>
      <trkpt lat="47.27785" lon="-2.28815">
        <ele>43.599998474121</ele>
        <time>2020-10-22T09:32:34.000Z</time>
      </trkpt>
      <trkpt lat="47.27777" lon="-2.28834">
        <ele>43.599998474121</ele>
        <time>2020-10-22T09:32:37.000Z</time>
      </trkpt>
      <trkpt lat="47.27755" lon="-2.28876">
        <ele>43.599998474121</ele>
        <time>2020-10-22T09:32:44.000Z</time>
      </trkpt>
      <trkpt lat="47.27725" lon="-2.28924">
        <ele>43.599998474121</ele>
        <time>2020-10-22T09:32:52.000Z</time>
      </trkpt>
      <trkpt lat="47.27712" lon="-2.28948">
        <ele>43.599998474121</ele>
        <time>2020-10-22T09:32:56.000Z</time>
      </trkpt>
      <trkpt lat="47.27707" lon="-2.28961">
        <ele>43.599998474121</ele>
        <time>2020-10-22T09:32:58.000Z</time>
      </trkpt>
      <trkpt lat="47.27687" lon="-2.29013">
        <ele>43.599998474121</ele>
        <time>2020-10-22T09:33:06.000Z</time>
      </trkpt>
      <trkpt lat="47.27665" lon="-2.29053">
        <ele>43.599998474121</ele>
        <time>2020-10-22T09:33:13.000Z</time>
      </trkpt>
      <trkpt lat="47.27644" lon="-2.29094">
        <ele>43.599998474121</ele>
        <time>2020-10-22T09:33:21.000Z</time>
      </trkpt>
      <trkpt lat="47.27625" lon="-2.29129">
        <ele>43.599998474121</ele>
        <time>2020-10-22T09:33:29.000Z</time>
      </trkpt>
      <trkpt lat="47.27615" lon="-2.29149">
        <ele>43.599998474121</ele>
        <time>2020-10-22T09:33:33.000Z</time>
      </trkpt>
      <trkpt lat="47.27603" lon="-2.29162">
        <ele>43.599998474121</ele>
        <time>2020-10-22T09:33:36.000Z</time>
      </trkpt>
      <trkpt lat="47.27574" lon="-2.29195">
        <ele>43.599998474121</ele>
        <time>2020-10-22T09:33:42.000Z</time>
      </trkpt>
      <trkpt lat="47.27546" lon="-2.29232">
        <ele>43.599998474121</ele>
        <time>2020-10-22T09:33:48.000Z</time>
      </trkpt>
      <trkpt lat="47.27521" lon="-2.29264">
        <ele>43.599998474121</ele>
        <time>2020-10-22T09:33:54.000Z</time>
      </trkpt>
      <trkpt lat="47.27497" lon="-2.29289">
        <ele>43.599998474121</ele>
        <time>2020-10-22T09:34:00.000Z</time>
      </trkpt>
      <trkpt lat="47.27494" lon="-2.29293">
        <ele>43.599998474121</ele>
        <time>2020-10-22T09:34:01.000Z</time>
      </trkpt>
      <trkpt lat="47.27486" lon="-2.29308">
        <ele>44</ele>
        <time>2020-10-22T09:34:05.000Z</time>
      </trkpt>
      <trkpt lat="47.27486" lon="-2.29311">
        <ele>44.400001525879</ele>
        <time>2020-10-22T09:34:06.000Z</time>
      </trkpt>
      <trkpt lat="47.27486" lon="-2.29314">
        <ele>44.799999237061</ele>
        <time>2020-10-22T09:34:07.000Z</time>
      </trkpt>
      <trkpt lat="47.27488" lon="-2.29316">
        <ele>45.799999237061</ele>
        <time>2020-10-22T09:34:08.000Z</time>
      </trkpt>
      <trkpt lat="47.27489" lon="-2.29318">
        <ele>45.799999237061</ele>
        <time>2020-10-22T09:34:09.000Z</time>
      </trkpt>
      <trkpt lat="47.27496" lon="-2.29324">
        <ele>45.799999237061</ele>
        <time>2020-10-22T09:34:12.000Z</time>
      </trkpt>
      <trkpt lat="47.27499" lon="-2.29327">
        <ele>45.799999237061</ele>
        <time>2020-10-22T09:34:13.000Z</time>
      </trkpt>
      <trkpt lat="47.2752" lon="-2.29345">
        <ele>45.799999237061</ele>
        <time>2020-10-22T09:34:19.000Z</time>
      </trkpt>
      <trkpt lat="47.27546" lon="-2.29367">
        <ele>45.799999237061</ele>
        <time>2020-10-22T09:34:27.000Z</time>
      </trkpt>
      <trkpt lat="47.27568" lon="-2.2939">
        <ele>45.799999237061</ele>
        <time>2020-10-22T09:34:34.000Z</time>
      </trkpt>
      <trkpt lat="47.27588" lon="-2.29406">
        <ele>45.799999237061</ele>
        <time>2020-10-22T09:34:40.000Z</time>
      </trkpt>
      <trkpt lat="47.27607" lon="-2.29425">
        <ele>45.799999237061</ele>
        <time>2020-10-22T09:34:47.000Z</time>
      </trkpt>
      <trkpt lat="47.27622" lon="-2.29443">
        <ele>45.799999237061</ele>
        <time>2020-10-22T09:34:55.000Z</time>
      </trkpt>
      <trkpt lat="47.27625" lon="-2.29449">
        <ele>45.799999237061</ele>
        <time>2020-10-22T09:34:59.000Z</time>
      </trkpt>
      <trkpt lat="47.27627" lon="-2.2945">
        <ele>45.799999237061</ele>
        <time>2020-10-22T09:35:05.000Z</time>
      </trkpt>
      <trkpt lat="47.27637" lon="-2.29453">
        <ele>45.799999237061</ele>
        <time>2020-10-22T09:35:10.000Z</time>
      </trkpt>
      <trkpt lat="47.27639" lon="-2.29455">
        <ele>45.799999237061</ele>
        <time>2020-10-22T09:35:11.000Z</time>
      </trkpt>
      <trkpt lat="47.27656" lon="-2.29468">
        <ele>45.799999237061</ele>
        <time>2020-10-22T09:35:18.000Z</time>
      </trkpt>
      <trkpt lat="47.27674" lon="-2.29483">
        <ele>45.799999237061</ele>
        <time>2020-10-22T09:35:24.000Z</time>
      </trkpt>
      <trkpt lat="47.27698" lon="-2.29506">
        <ele>45.799999237061</ele>
        <time>2020-10-22T09:35:33.000Z</time>
      </trkpt>
      <trkpt lat="47.2771" lon="-2.29516">
        <ele>45.799999237061</ele>
        <time>2020-10-22T09:35:39.000Z</time>
      </trkpt>
      <trkpt lat="47.27726" lon="-2.2953">
        <ele>45.799999237061</ele>
        <time>2020-10-22T09:35:46.000Z</time>
      </trkpt>
      <trkpt lat="47.27735" lon="-2.29537">
        <ele>46.200000762939</ele>
        <time>2020-10-22T09:35:50.000Z</time>
      </trkpt>
      <trkpt lat="47.27737" lon="-2.29539">
        <ele>46.599998474121</ele>
        <time>2020-10-22T09:35:51.000Z</time>
      </trkpt>
      <trkpt lat="47.2774" lon="-2.29541">
        <ele>47</ele>
        <time>2020-10-22T09:35:52.000Z</time>
      </trkpt>
      <trkpt lat="47.27742" lon="-2.29544">
        <ele>47.400001525879</ele>
        <time>2020-10-22T09:35:53.000Z</time>
      </trkpt>
      <trkpt lat="47.27745" lon="-2.29546">
        <ele>47.799999237061</ele>
        <time>2020-10-22T09:35:54.000Z</time>
      </trkpt>
      <trkpt lat="47.27755" lon="-2.29563">
        <ele>47.799999237061</ele>
        <time>2020-10-22T09:35:59.000Z</time>
      </trkpt>
      <trkpt lat="47.2777" lon="-2.29585">
        <ele>47.799999237061</ele>
        <time>2020-10-22T09:36:06.000Z</time>
      </trkpt>
      <trkpt lat="47.2779" lon="-2.29588">
        <ele>47.799999237061</ele>
        <time>2020-10-22T09:36:12.000Z</time>
      </trkpt>
      <trkpt lat="47.27816" lon="-2.29589">
        <ele>47.799999237061</ele>
        <time>2020-10-22T09:36:19.000Z</time>
      </trkpt>
      <trkpt lat="47.27843" lon="-2.29588">
        <ele>47.799999237061</ele>
        <time>2020-10-22T09:36:27.000Z</time>
      </trkpt>
      <trkpt lat="47.27843" lon="-2.29588">
        <ele>47.799999237061</ele>
        <time>2020-10-22T09:36:28.000Z</time>
      </trkpt>
      <trkpt lat="47.27843" lon="-2.29588">
        <ele>47.799999237061</ele>
        <time>2020-10-22T09:36:44.000Z</time>
      </trkpt>
      <trkpt lat="47.27845" lon="-2.29588">
        <ele>47.799999237061</ele>
        <time>2020-10-22T09:36:45.000Z</time>
      </trkpt>
      <trkpt lat="47.27854" lon="-2.29599">
        <ele>48.200000762939</ele>
        <time>2020-10-22T09:36:49.000Z</time>
      </trkpt>
      <trkpt lat="47.27856" lon="-2.29604">
        <ele>48.599998474121</ele>
        <time>2020-10-22T09:36:50.000Z</time>
      </trkpt>
      <trkpt lat="47.27857" lon="-2.29609">
        <ele>49</ele>
        <time>2020-10-22T09:36:51.000Z</time>
      </trkpt>
      <trkpt lat="47.27859" lon="-2.29615">
        <ele>49.400001525879</ele>
        <time>2020-10-22T09:36:52.000Z</time>
      </trkpt>
      <trkpt lat="47.2786" lon="-2.2962">
        <ele>49.799999237061</ele>
        <time>2020-10-22T09:36:53.000Z</time>
      </trkpt>
      <trkpt lat="47.27861" lon="-2.29626">
        <ele>49.799999237061</ele>
        <time>2020-10-22T09:36:54.000Z</time>
      </trkpt>
      <trkpt lat="47.27869" lon="-2.29675">
        <ele>49.799999237061</ele>
        <time>2020-10-22T09:37:02.000Z</time>
      </trkpt>
      <trkpt lat="47.27877" lon="-2.29723">
        <ele>49.799999237061</ele>
        <time>2020-10-22T09:37:09.000Z</time>
      </trkpt>
      <trkpt lat="47.27878" lon="-2.29731">
        <ele>49.799999237061</ele>
        <time>2020-10-22T09:37:10.000Z</time>
      </trkpt>
      <trkpt lat="47.27886" lon="-2.29802">
        <ele>49.799999237061</ele>
        <time>2020-10-22T09:37:19.000Z</time>
      </trkpt>
      <trkpt lat="47.27888" lon="-2.29847">
        <ele>49.799999237061</ele>
        <time>2020-10-22T09:37:25.000Z</time>
      </trkpt>
      <trkpt lat="47.2789" lon="-2.29904">
        <ele>49.799999237061</ele>
        <time>2020-10-22T09:37:32.000Z</time>
      </trkpt>
      <trkpt lat="47.2789" lon="-2.29912">
        <ele>49.799999237061</ele>
        <time>2020-10-22T09:37:33.000Z</time>
      </trkpt>
      <trkpt lat="47.27891" lon="-2.29928">
        <ele>49.799999237061</ele>
        <time>2020-10-22T09:37:35.000Z</time>
      </trkpt>
      <trkpt lat="47.27889" lon="-2.29944">
        <ele>49.799999237061</ele>
        <time>2020-10-22T09:37:37.000Z</time>
      </trkpt>
      <trkpt lat="47.27889" lon="-2.29983">
        <ele>49.799999237061</ele>
        <time>2020-10-22T09:37:42.000Z</time>
      </trkpt>
      <trkpt lat="47.2789" lon="-2.30014">
        <ele>49.799999237061</ele>
        <time>2020-10-22T09:37:46.000Z</time>
      </trkpt>
      <trkpt lat="47.27889" lon="-2.30026">
        <ele>49.799999237061</ele>
        <time>2020-10-22T09:37:48.000Z</time>
      </trkpt>
      <trkpt lat="47.27882" lon="-2.30043">
        <ele>49.799999237061</ele>
        <time>2020-10-22T09:37:52.000Z</time>
      </trkpt>
      <trkpt lat="47.27874" lon="-2.30051">
        <ele>49.799999237061</ele>
        <time>2020-10-22T09:37:54.000Z</time>
      </trkpt>
      <trkpt lat="47.27865" lon="-2.30059">
        <ele>49.799999237061</ele>
        <time>2020-10-22T09:37:56.000Z</time>
      </trkpt>
      <trkpt lat="47.27834" lon="-2.3008">
        <ele>49.799999237061</ele>
        <time>2020-10-22T09:38:03.000Z</time>
      </trkpt>
      <trkpt lat="47.278" lon="-2.30103">
        <ele>49.799999237061</ele>
        <time>2020-10-22T09:38:09.000Z</time>
      </trkpt>
      <trkpt lat="47.27775" lon="-2.30116">
        <ele>49.400001525879</ele>
        <time>2020-10-22T09:38:13.000Z</time>
      </trkpt>
      <trkpt lat="47.27769" lon="-2.30119">
        <ele>49</ele>
        <time>2020-10-22T09:38:14.000Z</time>
      </trkpt>
      <trkpt lat="47.27762" lon="-2.30122">
        <ele>48.599998474121</ele>
        <time>2020-10-22T09:38:15.000Z</time>
      </trkpt>
      <trkpt lat="47.27756" lon="-2.30125">
        <ele>47.799999237061</ele>
        <time>2020-10-22T09:38:16.000Z</time>
      </trkpt>
      <trkpt lat="47.2775" lon="-2.30128">
        <ele>47.799999237061</ele>
        <time>2020-10-22T09:38:17.000Z</time>
      </trkpt>
      <trkpt lat="47.2772" lon="-2.3014">
        <ele>47.799999237061</ele>
        <time>2020-10-22T09:38:22.000Z</time>
      </trkpt>
      <trkpt lat="47.27714" lon="-2.30141">
        <ele>47.799999237061</ele>
        <time>2020-10-22T09:38:23.000Z</time>
      </trkpt>
      <trkpt lat="47.27697" lon="-2.30146">
        <ele>47.799999237061</ele>
        <time>2020-10-22T09:38:26.000Z</time>
      </trkpt>
      <trkpt lat="47.27686" lon="-2.3015">
        <ele>47.200000762939</ele>
        <time>2020-10-22T09:38:28.000Z</time>
      </trkpt>
      <trkpt lat="47.2768" lon="-2.30152">
        <ele>46.799999237061</ele>
        <time>2020-10-22T09:38:29.000Z</time>
      </trkpt>
      <trkpt lat="47.27675" lon="-2.30153">
        <ele>46.400001525879</ele>
        <time>2020-10-22T09:38:30.000Z</time>
      </trkpt>
      <trkpt lat="47.27669" lon="-2.30153">
        <ele>46</ele>
        <time>2020-10-22T09:38:31.000Z</time>
      </trkpt>
      <trkpt lat="47.27664" lon="-2.30153">
        <ele>45.599998474121</ele>
        <time>2020-10-22T09:38:32.000Z</time>
      </trkpt>
      <trkpt lat="47.27649" lon="-2.30142">
        <ele>45.599998474121</ele>
        <time>2020-10-22T09:38:35.000Z</time>
      </trkpt>
      <trkpt lat="47.27635" lon="-2.30123">
        <ele>45.599998474121</ele>
        <time>2020-10-22T09:38:39.000Z</time>
      </trkpt>
      <trkpt lat="47.27621" lon="-2.30122">
        <ele>45.599998474121</ele>
        <time>2020-10-22T09:38:42.000Z</time>
      </trkpt>
      <trkpt lat="47.27614" lon="-2.30125">
        <ele>45.599998474121</ele>
        <time>2020-10-22T09:38:44.000Z</time>
      </trkpt>
      <trkpt lat="47.27611" lon="-2.30128">
        <ele>45.599998474121</ele>
        <time>2020-10-22T09:38:45.000Z</time>
      </trkpt>
      <trkpt lat="47.27594" lon="-2.30138">
        <ele>45.599998474121</ele>
        <time>2020-10-22T09:38:50.000Z</time>
      </trkpt>
      <trkpt lat="47.27576" lon="-2.30146">
        <ele>45.599998474121</ele>
        <time>2020-10-22T09:38:54.000Z</time>
      </trkpt>
      <trkpt lat="47.27571" lon="-2.30148">
        <ele>45.599998474121</ele>
        <time>2020-10-22T09:38:55.000Z</time>
      </trkpt>
      <trkpt lat="47.27567" lon="-2.3015">
        <ele>45.599998474121</ele>
        <time>2020-10-22T09:38:56.000Z</time>
      </trkpt>
      <trkpt lat="47.27546" lon="-2.30161">
        <ele>45.599998474121</ele>
        <time>2020-10-22T09:39:01.000Z</time>
      </trkpt>
      <trkpt lat="47.27522" lon="-2.30178">
        <ele>45.599998474121</ele>
        <time>2020-10-22T09:39:07.000Z</time>
      </trkpt>
      <trkpt lat="47.27515" lon="-2.3019">
        <ele>45.599998474121</ele>
        <time>2020-10-22T09:39:10.000Z</time>
      </trkpt>
      <trkpt lat="47.27506" lon="-2.30194">
        <ele>45.599998474121</ele>
        <time>2020-10-22T09:39:12.000Z</time>
      </trkpt>
      <trkpt lat="47.27496" lon="-2.302">
        <ele>45.599998474121</ele>
        <time>2020-10-22T09:39:14.000Z</time>
      </trkpt>
      <trkpt lat="47.27473" lon="-2.3021">
        <ele>45.599998474121</ele>
        <time>2020-10-22T09:39:19.000Z</time>
      </trkpt>
      <trkpt lat="47.27459" lon="-2.30214">
        <ele>45.599998474121</ele>
        <time>2020-10-22T09:39:23.000Z</time>
      </trkpt>
      <trkpt lat="47.27441" lon="-2.30222">
        <ele>45.599998474121</ele>
        <time>2020-10-22T09:39:28.000Z</time>
      </trkpt>
      <trkpt lat="47.27425" lon="-2.30229">
        <ele>45.599998474121</ele>
        <time>2020-10-22T09:39:32.000Z</time>
      </trkpt>
      <trkpt lat="47.27418" lon="-2.30232">
        <ele>45.599998474121</ele>
        <time>2020-10-22T09:39:34.000Z</time>
      </trkpt>
      <trkpt lat="47.27405" lon="-2.30238">
        <ele>45.599998474121</ele>
        <time>2020-10-22T09:39:40.000Z</time>
      </trkpt>
      <trkpt lat="47.27389" lon="-2.30245">
        <ele>45.599998474121</ele>
        <time>2020-10-22T09:39:46.000Z</time>
      </trkpt>
      <trkpt lat="47.27369" lon="-2.30251">
        <ele>45.599998474121</ele>
        <time>2020-10-22T09:39:51.000Z</time>
      </trkpt>
      <trkpt lat="47.27345" lon="-2.30253">
        <ele>45.599998474121</ele>
        <time>2020-10-22T09:39:57.000Z</time>
      </trkpt>
      <trkpt lat="47.27333" lon="-2.30254">
        <ele>45.599998474121</ele>
        <time>2020-10-22T09:40:01.000Z</time>
      </trkpt>
      <trkpt lat="47.27312" lon="-2.30258">
        <ele>45.599998474121</ele>
        <time>2020-10-22T09:40:07.000Z</time>
      </trkpt>
      <trkpt lat="47.27287" lon="-2.30257">
        <ele>45.599998474121</ele>
        <time>2020-10-22T09:40:11.000Z</time>
      </trkpt>
      <trkpt lat="47.2728" lon="-2.30258">
        <ele>45.599998474121</ele>
        <time>2020-10-22T09:40:12.000Z</time>
      </trkpt>
      <trkpt lat="47.27267" lon="-2.3026">
        <ele>45.599998474121</ele>
        <time>2020-10-22T09:40:14.000Z</time>
      </trkpt>
      <trkpt lat="47.2726" lon="-2.30261">
        <ele>45</ele>
        <time>2020-10-22T09:40:15.000Z</time>
      </trkpt>
      <trkpt lat="47.27254" lon="-2.30263">
        <ele>44.599998474121</ele>
        <time>2020-10-22T09:40:16.000Z</time>
      </trkpt>
      <trkpt lat="47.27248" lon="-2.30265">
        <ele>44.200000762939</ele>
        <time>2020-10-22T09:40:17.000Z</time>
      </trkpt>
      <trkpt lat="47.27243" lon="-2.30265">
        <ele>43.799999237061</ele>
        <time>2020-10-22T09:40:18.000Z</time>
      </trkpt>
      <trkpt lat="47.27239" lon="-2.30264">
        <ele>43.400001525879</ele>
        <time>2020-10-22T09:40:19.000Z</time>
      </trkpt>
      <trkpt lat="47.27235" lon="-2.30262">
        <ele>43.400001525879</ele>
        <time>2020-10-22T09:40:20.000Z</time>
      </trkpt>
      <trkpt lat="47.27221" lon="-2.30266">
        <ele>43.400001525879</ele>
        <time>2020-10-22T09:40:24.000Z</time>
      </trkpt>
      <trkpt lat="47.27219" lon="-2.30269">
        <ele>43.400001525879</ele>
        <time>2020-10-22T09:40:25.000Z</time>
      </trkpt>
      <trkpt lat="47.27216" lon="-2.3028">
        <ele>43.400001525879</ele>
        <time>2020-10-22T09:40:28.000Z</time>
      </trkpt>
      <trkpt lat="47.27215" lon="-2.30282">
        <ele>43.400001525879</ele>
        <time>2020-10-22T09:40:29.000Z</time>
      </trkpt>
      <trkpt lat="47.2721" lon="-2.30284">
        <ele>43.400001525879</ele>
        <time>2020-10-22T09:40:32.000Z</time>
      </trkpt>
      <trkpt lat="47.27206" lon="-2.30283">
        <ele>43.400001525879</ele>
        <time>2020-10-22T09:40:34.000Z</time>
      </trkpt>
      <trkpt lat="47.27203" lon="-2.30278">
        <ele>43.400001525879</ele>
        <time>2020-10-22T09:40:36.000Z</time>
      </trkpt>
      <trkpt lat="47.27205" lon="-2.30263">
        <ele>43.400001525879</ele>
        <time>2020-10-22T09:40:41.000Z</time>
      </trkpt>
      <trkpt lat="47.27205" lon="-2.3026">
        <ele>43.400001525879</ele>
        <time>2020-10-22T09:40:42.000Z</time>
      </trkpt>
      <trkpt lat="47.27204" lon="-2.30258">
        <ele>43.400001525879</ele>
        <time>2020-10-22T09:40:43.000Z</time>
      </trkpt>
      <trkpt lat="47.27202" lon="-2.30258">
        <ele>43.400001525879</ele>
        <time>2020-10-22T09:40:45.000Z</time>
      </trkpt>
      <trkpt lat="47.27186" lon="-2.30265">
        <ele>43.400001525879</ele>
        <time>2020-10-22T09:40:50.000Z</time>
      </trkpt>
      <trkpt lat="47.27182" lon="-2.30263">
        <ele>43.400001525879</ele>
        <time>2020-10-22T09:40:51.000Z</time>
      </trkpt>
      <trkpt lat="47.27175" lon="-2.30257">
        <ele>43.400001525879</ele>
        <time>2020-10-22T09:40:53.000Z</time>
      </trkpt>
      <trkpt lat="47.27164" lon="-2.30246">
        <ele>43.400001525879</ele>
        <time>2020-10-22T09:40:57.000Z</time>
      </trkpt>
      <trkpt lat="47.27157" lon="-2.30236">
        <ele>43.400001525879</ele>
        <time>2020-10-22T09:41:01.000Z</time>
      </trkpt>
      <trkpt lat="47.27145" lon="-2.30241">
        <ele>43.400001525879</ele>
        <time>2020-10-22T09:41:05.000Z</time>
      </trkpt>
      <trkpt lat="47.27134" lon="-2.30247">
        <ele>43.400001525879</ele>
        <time>2020-10-22T09:41:09.000Z</time>
      </trkpt>
      <trkpt lat="47.27132" lon="-2.30248">
        <ele>43.400001525879</ele>
        <time>2020-10-22T09:41:10.000Z</time>
      </trkpt>
      <trkpt lat="47.27115" lon="-2.30253">
        <ele>43.400001525879</ele>
        <time>2020-10-22T09:41:15.000Z</time>
      </trkpt>
      <trkpt lat="47.27106" lon="-2.30255">
        <ele>43.400001525879</ele>
        <time>2020-10-22T09:41:17.000Z</time>
      </trkpt>
      <trkpt lat="47.27097" lon="-2.30261">
        <ele>43.400001525879</ele>
        <time>2020-10-22T09:41:19.000Z</time>
      </trkpt>
      <trkpt lat="47.27084" lon="-2.30277">
        <ele>43.799999237061</ele>
        <time>2020-10-22T09:41:22.000Z</time>
      </trkpt>
      <trkpt lat="47.27081" lon="-2.30284">
        <ele>44.400001525879</ele>
        <time>2020-10-22T09:41:23.000Z</time>
      </trkpt>
      <trkpt lat="47.27079" lon="-2.30291">
        <ele>44.799999237061</ele>
        <time>2020-10-22T09:41:24.000Z</time>
      </trkpt>
      <trkpt lat="47.27077" lon="-2.30298">
        <ele>45.200000762939</ele>
        <time>2020-10-22T09:41:25.000Z</time>
      </trkpt>
      <trkpt lat="47.27076" lon="-2.30306">
        <ele>45.599998474121</ele>
        <time>2020-10-22T09:41:26.000Z</time>
      </trkpt>
      <trkpt lat="47.27073" lon="-2.30321">
        <ele>45.599998474121</ele>
        <time>2020-10-22T09:41:28.000Z</time>
      </trkpt>
      <trkpt lat="47.27064" lon="-2.30365">
        <ele>45.599998474121</ele>
        <time>2020-10-22T09:41:33.000Z</time>
      </trkpt>
      <trkpt lat="47.27063" lon="-2.30374">
        <ele>45.599998474121</ele>
        <time>2020-10-22T09:41:34.000Z</time>
      </trkpt>
      <trkpt lat="47.27053" lon="-2.30436">
        <ele>45.599998474121</ele>
        <time>2020-10-22T09:41:41.000Z</time>
      </trkpt>
      <trkpt lat="47.27052" lon="-2.30444">
        <ele>45.599998474121</ele>
        <time>2020-10-22T09:41:42.000Z</time>
      </trkpt>
      <trkpt lat="47.2705" lon="-2.30463">
        <ele>45.599998474121</ele>
        <time>2020-10-22T09:41:45.000Z</time>
      </trkpt>
      <trkpt lat="47.27051" lon="-2.30465">
        <ele>45.599998474121</ele>
        <time>2020-10-22T09:41:46.000Z</time>
      </trkpt>
      <trkpt lat="47.27065" lon="-2.30478">
        <ele>45.599998474121</ele>
        <time>2020-10-22T09:41:52.000Z</time>
      </trkpt>
      <trkpt lat="47.27074" lon="-2.30481">
        <ele>45.599998474121</ele>
        <time>2020-10-22T09:41:54.000Z</time>
      </trkpt>
      <trkpt lat="47.27083" lon="-2.30483">
        <ele>45.599998474121</ele>
        <time>2020-10-22T09:41:56.000Z</time>
      </trkpt>
      <trkpt lat="47.27088" lon="-2.30484">
        <ele>45.599998474121</ele>
        <time>2020-10-22T09:41:57.000Z</time>
      </trkpt>
      <trkpt lat="47.27107" lon="-2.30489">
        <ele>45.200000762939</ele>
        <time>2020-10-22T09:42:01.000Z</time>
      </trkpt>
      <trkpt lat="47.2711" lon="-2.30492">
        <ele>44.799999237061</ele>
        <time>2020-10-22T09:42:02.000Z</time>
      </trkpt>
      <trkpt lat="47.27114" lon="-2.30494">
        <ele>44.400001525879</ele>
        <time>2020-10-22T09:42:03.000Z</time>
      </trkpt>
      <trkpt lat="47.27119" lon="-2.30496">
        <ele>44</ele>
        <time>2020-10-22T09:42:04.000Z</time>
      </trkpt>
      <trkpt lat="47.27123" lon="-2.30497">
        <ele>43.599998474121</ele>
        <time>2020-10-22T09:42:05.000Z</time>
      </trkpt>
      <trkpt lat="47.27133" lon="-2.30501">
        <ele>43.599998474121</ele>
        <time>2020-10-22T09:42:07.000Z</time>
      </trkpt>
      <trkpt lat="47.27138" lon="-2.30503">
        <ele>43.599998474121</ele>
        <time>2020-10-22T09:42:08.000Z</time>
      </trkpt>
      <trkpt lat="47.27154" lon="-2.30517">
        <ele>43.599998474121</ele>
        <time>2020-10-22T09:42:12.000Z</time>
      </trkpt>
      <trkpt lat="47.27158" lon="-2.3052">
        <ele>43.200000762939</ele>
        <time>2020-10-22T09:42:13.000Z</time>
      </trkpt>
      <trkpt lat="47.27162" lon="-2.30524">
        <ele>42.799999237061</ele>
        <time>2020-10-22T09:42:14.000Z</time>
      </trkpt>
      <trkpt lat="47.27167" lon="-2.30526">
        <ele>42.200000762939</ele>
        <time>2020-10-22T09:42:15.000Z</time>
      </trkpt>
      <trkpt lat="47.27172" lon="-2.30528">
        <ele>41.799999237061</ele>
        <time>2020-10-22T09:42:16.000Z</time>
      </trkpt>
      <trkpt lat="47.27176" lon="-2.30531">
        <ele>41.400001525879</ele>
        <time>2020-10-22T09:42:17.000Z</time>
      </trkpt>
      <trkpt lat="47.27197" lon="-2.3054">
        <ele>41.400001525879</ele>
        <time>2020-10-22T09:42:23.000Z</time>
      </trkpt>
      <trkpt lat="47.27211" lon="-2.30542">
        <ele>41</ele>
        <time>2020-10-22T09:42:28.000Z</time>
      </trkpt>
      <trkpt lat="47.27215" lon="-2.30542">
        <ele>40.599998474121</ele>
        <time>2020-10-22T09:42:29.000Z</time>
      </trkpt>
      <trkpt lat="47.27219" lon="-2.30542">
        <ele>40.200000762939</ele>
        <time>2020-10-22T09:42:30.000Z</time>
      </trkpt>
      <trkpt lat="47.27223" lon="-2.30542">
        <ele>39.799999237061</ele>
        <time>2020-10-22T09:42:31.000Z</time>
      </trkpt>
      <trkpt lat="47.27228" lon="-2.30542">
        <ele>39.400001525879</ele>
        <time>2020-10-22T09:42:32.000Z</time>
      </trkpt>
      <trkpt lat="47.27235" lon="-2.30541">
        <ele>39.400001525879</ele>
        <time>2020-10-22T09:42:34.000Z</time>
      </trkpt>
      <trkpt lat="47.27253" lon="-2.30544">
        <ele>39.400001525879</ele>
        <time>2020-10-22T09:42:39.000Z</time>
      </trkpt>
      <trkpt lat="47.27273" lon="-2.30542">
        <ele>39.400001525879</ele>
        <time>2020-10-22T09:42:44.000Z</time>
      </trkpt>
      <trkpt lat="47.27291" lon="-2.30532">
        <ele>39.400001525879</ele>
        <time>2020-10-22T09:42:49.000Z</time>
      </trkpt>
      <trkpt lat="47.27294" lon="-2.30529">
        <ele>39.400001525879</ele>
        <time>2020-10-22T09:42:50.000Z</time>
      </trkpt>
      <trkpt lat="47.2731" lon="-2.3052">
        <ele>39.400001525879</ele>
        <time>2020-10-22T09:42:55.000Z</time>
      </trkpt>
      <trkpt lat="47.27332" lon="-2.30515">
        <ele>39.400001525879</ele>
        <time>2020-10-22T09:43:01.000Z</time>
      </trkpt>
      <trkpt lat="47.27339" lon="-2.30514">
        <ele>39</ele>
        <time>2020-10-22T09:43:03.000Z</time>
      </trkpt>
      <trkpt lat="47.27341" lon="-2.30513">
        <ele>38.599998474121</ele>
        <time>2020-10-22T09:43:04.000Z</time>
      </trkpt>
      <trkpt lat="47.27343" lon="-2.30512">
        <ele>38</ele>
        <time>2020-10-22T09:43:05.000Z</time>
      </trkpt>
      <trkpt lat="47.27346" lon="-2.3051">
        <ele>37.599998474121</ele>
        <time>2020-10-22T09:43:06.000Z</time>
      </trkpt>
      <trkpt lat="47.27348" lon="-2.30509">
        <ele>37.200000762939</ele>
        <time>2020-10-22T09:43:07.000Z</time>
      </trkpt>
      <trkpt lat="47.27359" lon="-2.30502">
        <ele>37.200000762939</ele>
        <time>2020-10-22T09:43:10.000Z</time>
      </trkpt>
      <trkpt lat="47.27363" lon="-2.30499">
        <ele>37.200000762939</ele>
        <time>2020-10-22T09:43:11.000Z</time>
      </trkpt>
      <trkpt lat="47.27385" lon="-2.30481">
        <ele>37.200000762939</ele>
        <time>2020-10-22T09:43:17.000Z</time>
      </trkpt>
      <trkpt lat="47.274" lon="-2.30469">
        <ele>37.200000762939</ele>
        <time>2020-10-22T09:43:22.000Z</time>
      </trkpt>
      <trkpt lat="47.27405" lon="-2.30466">
        <ele>37.599998474121</ele>
        <time>2020-10-22T09:43:25.000Z</time>
      </trkpt>
      <trkpt lat="47.27406" lon="-2.30466">
        <ele>38</ele>
        <time>2020-10-22T09:43:26.000Z</time>
      </trkpt>
      <trkpt lat="47.27408" lon="-2.30465">
        <ele>38.400001525879</ele>
        <time>2020-10-22T09:43:27.000Z</time>
      </trkpt>
      <trkpt lat="47.27409" lon="-2.30464">
        <ele>38.799999237061</ele>
        <time>2020-10-22T09:43:28.000Z</time>
      </trkpt>
      <trkpt lat="47.2741" lon="-2.30463">
        <ele>39.200000762939</ele>
        <time>2020-10-22T09:43:29.000Z</time>
      </trkpt>
      <trkpt lat="47.27416" lon="-2.30457">
        <ele>39.200000762939</ele>
        <time>2020-10-22T09:43:32.000Z</time>
      </trkpt>
      <trkpt lat="47.27427" lon="-2.30456">
        <ele>39.200000762939</ele>
        <time>2020-10-22T09:43:35.000Z</time>
      </trkpt>
      <trkpt lat="47.27432" lon="-2.30456">
        <ele>39.200000762939</ele>
        <time>2020-10-22T09:43:36.000Z</time>
      </trkpt>
      <trkpt lat="47.27451" lon="-2.30455">
        <ele>39.200000762939</ele>
        <time>2020-10-22T09:43:40.000Z</time>
      </trkpt>
      <trkpt lat="47.27461" lon="-2.30453">
        <ele>39.200000762939</ele>
        <time>2020-10-22T09:43:42.000Z</time>
      </trkpt>
      <trkpt lat="47.27478" lon="-2.30448">
        <ele>39.200000762939</ele>
        <time>2020-10-22T09:43:45.000Z</time>
      </trkpt>
      <trkpt lat="47.27492" lon="-2.30442">
        <ele>39.200000762939</ele>
        <time>2020-10-22T09:43:48.000Z</time>
      </trkpt>
      <trkpt lat="47.27504" lon="-2.30451">
        <ele>39.200000762939</ele>
        <time>2020-10-22T09:43:51.000Z</time>
      </trkpt>
      <trkpt lat="47.27513" lon="-2.30477">
        <ele>39.200000762939</ele>
        <time>2020-10-22T09:43:55.000Z</time>
      </trkpt>
      <trkpt lat="47.27523" lon="-2.30523">
        <ele>39.200000762939</ele>
        <time>2020-10-22T09:44:01.000Z</time>
      </trkpt>
      <trkpt lat="47.27539" lon="-2.30571">
        <ele>39.200000762939</ele>
        <time>2020-10-22T09:44:08.000Z</time>
      </trkpt>
      <trkpt lat="47.27546" lon="-2.30598">
        <ele>39.200000762939</ele>
        <time>2020-10-22T09:44:13.000Z</time>
      </trkpt>
      <trkpt lat="47.27548" lon="-2.30616">
        <ele>39.200000762939</ele>
        <time>2020-10-22T09:44:19.000Z</time>
      </trkpt>
      <trkpt lat="47.27555" lon="-2.30632">
        <ele>39.200000762939</ele>
        <time>2020-10-22T09:44:23.000Z</time>
      </trkpt>
      <trkpt lat="47.27557" lon="-2.30638">
        <ele>39.200000762939</ele>
        <time>2020-10-22T09:44:24.000Z</time>
      </trkpt>
      <trkpt lat="47.27562" lon="-2.30667">
        <ele>39.200000762939</ele>
        <time>2020-10-22T09:44:28.000Z</time>
      </trkpt>
      <trkpt lat="47.27572" lon="-2.30714">
        <ele>39.200000762939</ele>
        <time>2020-10-22T09:44:34.000Z</time>
      </trkpt>
      <trkpt lat="47.27574" lon="-2.30722">
        <ele>39.200000762939</ele>
        <time>2020-10-22T09:44:35.000Z</time>
      </trkpt>
      <trkpt lat="47.27584" lon="-2.30758">
        <ele>39.200000762939</ele>
        <time>2020-10-22T09:44:40.000Z</time>
      </trkpt>
      <trkpt lat="47.2759" lon="-2.30773">
        <ele>39.200000762939</ele>
        <time>2020-10-22T09:44:42.000Z</time>
      </trkpt>
      <trkpt lat="47.27602" lon="-2.30802">
        <ele>39.200000762939</ele>
        <time>2020-10-22T09:44:46.000Z</time>
      </trkpt>
      <trkpt lat="47.27618" lon="-2.30838">
        <ele>39.200000762939</ele>
        <time>2020-10-22T09:44:51.000Z</time>
      </trkpt>
      <trkpt lat="47.2764" lon="-2.3089">
        <ele>39.200000762939</ele>
        <time>2020-10-22T09:44:58.000Z</time>
      </trkpt>
      <trkpt lat="47.27662" lon="-2.30936">
        <ele>39.200000762939</ele>
        <time>2020-10-22T09:45:04.000Z</time>
      </trkpt>
      <trkpt lat="47.27679" lon="-2.30983">
        <ele>39.200000762939</ele>
        <time>2020-10-22T09:45:10.000Z</time>
      </trkpt>
      <trkpt lat="47.27697" lon="-2.31026">
        <ele>39.200000762939</ele>
        <time>2020-10-22T09:45:16.000Z</time>
      </trkpt>
      <trkpt lat="47.27711" lon="-2.31066">
        <ele>39.200000762939</ele>
        <time>2020-10-22T09:45:22.000Z</time>
      </trkpt>
      <trkpt lat="47.27715" lon="-2.31082">
        <ele>39.200000762939</ele>
        <time>2020-10-22T09:45:25.000Z</time>
      </trkpt>
      <trkpt lat="47.27714" lon="-2.31089">
        <ele>39.200000762939</ele>
        <time>2020-10-22T09:45:26.000Z</time>
      </trkpt>
      <trkpt lat="47.27707" lon="-2.31114">
        <ele>39.200000762939</ele>
        <time>2020-10-22T09:45:30.000Z</time>
      </trkpt>
      <trkpt lat="47.27698" lon="-2.31143">
        <ele>39.200000762939</ele>
        <time>2020-10-22T09:45:34.000Z</time>
      </trkpt>
      <trkpt lat="47.27696" lon="-2.31151">
        <ele>39.200000762939</ele>
        <time>2020-10-22T09:45:35.000Z</time>
      </trkpt>
      <trkpt lat="47.27689" lon="-2.31185">
        <ele>39.200000762939</ele>
        <time>2020-10-22T09:45:39.000Z</time>
      </trkpt>
      <trkpt lat="47.27681" lon="-2.31223">
        <ele>39.200000762939</ele>
        <time>2020-10-22T09:45:43.000Z</time>
      </trkpt>
      <trkpt lat="47.27679" lon="-2.31233">
        <ele>39.200000762939</ele>
        <time>2020-10-22T09:45:44.000Z</time>
      </trkpt>
      <trkpt lat="47.27665" lon="-2.31284">
        <ele>38.799999237061</ele>
        <time>2020-10-22T09:45:49.000Z</time>
      </trkpt>
      <trkpt lat="47.27662" lon="-2.31295">
        <ele>38.400001525879</ele>
        <time>2020-10-22T09:45:50.000Z</time>
      </trkpt>
      <trkpt lat="47.27659" lon="-2.31305">
        <ele>38</ele>
        <time>2020-10-22T09:45:51.000Z</time>
      </trkpt>
      <trkpt lat="47.27656" lon="-2.31315">
        <ele>37.599998474121</ele>
        <time>2020-10-22T09:45:52.000Z</time>
      </trkpt>
      <trkpt lat="47.27653" lon="-2.31324">
        <ele>37.200000762939</ele>
        <time>2020-10-22T09:45:53.000Z</time>
      </trkpt>
      <trkpt lat="47.2764" lon="-2.31366">
        <ele>37.200000762939</ele>
        <time>2020-10-22T09:45:57.000Z</time>
      </trkpt>
      <trkpt lat="47.2763" lon="-2.314">
        <ele>36.799999237061</ele>
        <time>2020-10-22T09:46:00.000Z</time>
      </trkpt>
      <trkpt lat="47.27627" lon="-2.31412">
        <ele>36.400001525879</ele>
        <time>2020-10-22T09:46:01.000Z</time>
      </trkpt>
      <trkpt lat="47.27624" lon="-2.31424">
        <ele>36</ele>
        <time>2020-10-22T09:46:02.000Z</time>
      </trkpt>
      <trkpt lat="47.27621" lon="-2.31438">
        <ele>35.599998474121</ele>
        <time>2020-10-22T09:46:03.000Z</time>
      </trkpt>
      <trkpt lat="47.27617" lon="-2.3145">
        <ele>35.200000762939</ele>
        <time>2020-10-22T09:46:04.000Z</time>
      </trkpt>
      <trkpt lat="47.27611" lon="-2.31474">
        <ele>34.599998474121</ele>
        <time>2020-10-22T09:46:06.000Z</time>
      </trkpt>
      <trkpt lat="47.27608" lon="-2.31485">
        <ele>34.200000762939</ele>
        <time>2020-10-22T09:46:07.000Z</time>
      </trkpt>
      <trkpt lat="47.27605" lon="-2.31496">
        <ele>33.799999237061</ele>
        <time>2020-10-22T09:46:08.000Z</time>
      </trkpt>
      <trkpt lat="47.27602" lon="-2.31507">
        <ele>33.200000762939</ele>
        <time>2020-10-22T09:46:09.000Z</time>
      </trkpt>
      <trkpt lat="47.27599" lon="-2.31518">
        <ele>32.799999237061</ele>
        <time>2020-10-22T09:46:10.000Z</time>
      </trkpt>
      <trkpt lat="47.27597" lon="-2.31529">
        <ele>32.799999237061</ele>
        <time>2020-10-22T09:46:11.000Z</time>
      </trkpt>
      <trkpt lat="47.27584" lon="-2.31568">
        <ele>32.799999237061</ele>
        <time>2020-10-22T09:46:15.000Z</time>
      </trkpt>
      <trkpt lat="47.27573" lon="-2.31598">
        <ele>32.799999237061</ele>
        <time>2020-10-22T09:46:18.000Z</time>
      </trkpt>
      <trkpt lat="47.27564" lon="-2.31627">
        <ele>32.799999237061</ele>
        <time>2020-10-22T09:46:21.000Z</time>
      </trkpt>
      <trkpt lat="47.27547" lon="-2.31694">
        <ele>32.799999237061</ele>
        <time>2020-10-22T09:46:28.000Z</time>
      </trkpt>
      <trkpt lat="47.27545" lon="-2.31705">
        <ele>32.400001525879</ele>
        <time>2020-10-22T09:46:29.000Z</time>
      </trkpt>
      <trkpt lat="47.27542" lon="-2.31716">
        <ele>32</ele>
        <time>2020-10-22T09:46:30.000Z</time>
      </trkpt>
      <trkpt lat="47.27539" lon="-2.31728">
        <ele>31.60000038147</ele>
        <time>2020-10-22T09:46:31.000Z</time>
      </trkpt>
      <trkpt lat="47.27536" lon="-2.3174">
        <ele>31.200000762939</ele>
        <time>2020-10-22T09:46:32.000Z</time>
      </trkpt>
      <trkpt lat="47.27534" lon="-2.31752">
        <ele>30.799999237061</ele>
        <time>2020-10-22T09:46:33.000Z</time>
      </trkpt>
      <trkpt lat="47.27531" lon="-2.31764">
        <ele>30.799999237061</ele>
        <time>2020-10-22T09:46:34.000Z</time>
      </trkpt>
      <trkpt lat="47.27513" lon="-2.3183">
        <ele>30.39999961853</ele>
        <time>2020-10-22T09:46:40.000Z</time>
      </trkpt>
      <trkpt lat="47.2751" lon="-2.31842">
        <ele>30</ele>
        <time>2020-10-22T09:46:41.000Z</time>
      </trkpt>
      <trkpt lat="47.27506" lon="-2.31853">
        <ele>29.60000038147</ele>
        <time>2020-10-22T09:46:42.000Z</time>
      </trkpt>
      <trkpt lat="47.27502" lon="-2.31864">
        <ele>29.200000762939</ele>
        <time>2020-10-22T09:46:43.000Z</time>
      </trkpt>
      <trkpt lat="47.27498" lon="-2.31875">
        <ele>28.799999237061</ele>
        <time>2020-10-22T09:46:44.000Z</time>
      </trkpt>
      <trkpt lat="47.2749" lon="-2.31896">
        <ele>28.799999237061</ele>
        <time>2020-10-22T09:46:46.000Z</time>
      </trkpt>
      <trkpt lat="47.27468" lon="-2.31946">
        <ele>28.799999237061</ele>
        <time>2020-10-22T09:46:51.000Z</time>
      </trkpt>
      <trkpt lat="47.27463" lon="-2.31956">
        <ele>28.799999237061</ele>
        <time>2020-10-22T09:46:52.000Z</time>
      </trkpt>
      <trkpt lat="47.27437" lon="-2.32017">
        <ele>28.799999237061</ele>
        <time>2020-10-22T09:46:59.000Z</time>
      </trkpt>
      <trkpt lat="47.27434" lon="-2.32025">
        <ele>28.200000762939</ele>
        <time>2020-10-22T09:47:00.000Z</time>
      </trkpt>
      <trkpt lat="47.27431" lon="-2.32032">
        <ele>27.799999237061</ele>
        <time>2020-10-22T09:47:01.000Z</time>
      </trkpt>
      <trkpt lat="47.27427" lon="-2.32038">
        <ele>27.39999961853</ele>
        <time>2020-10-22T09:47:02.000Z</time>
      </trkpt>
      <trkpt lat="47.27422" lon="-2.32044">
        <ele>27</ele>
        <time>2020-10-22T09:47:03.000Z</time>
      </trkpt>
      <trkpt lat="47.27417" lon="-2.32047">
        <ele>26.60000038147</ele>
        <time>2020-10-22T09:47:04.000Z</time>
      </trkpt>
      <trkpt lat="47.27406" lon="-2.32047">
        <ele>26.60000038147</ele>
        <time>2020-10-22T09:47:06.000Z</time>
      </trkpt>
      <trkpt lat="47.27384" lon="-2.32027">
        <ele>26.60000038147</ele>
        <time>2020-10-22T09:47:10.000Z</time>
      </trkpt>
      <trkpt lat="47.27374" lon="-2.32018">
        <ele>26.60000038147</ele>
        <time>2020-10-22T09:47:12.000Z</time>
      </trkpt>
      <trkpt lat="47.27351" lon="-2.31996">
        <ele>26.60000038147</ele>
        <time>2020-10-22T09:47:17.000Z</time>
      </trkpt>
      <trkpt lat="47.27334" lon="-2.31982">
        <ele>26.60000038147</ele>
        <time>2020-10-22T09:47:21.000Z</time>
      </trkpt>
      <trkpt lat="47.27324" lon="-2.31979">
        <ele>26.60000038147</ele>
        <time>2020-10-22T09:47:23.000Z</time>
      </trkpt>
      <trkpt lat="47.27304" lon="-2.31961">
        <ele>26.60000038147</ele>
        <time>2020-10-22T09:47:28.000Z</time>
      </trkpt>
      <trkpt lat="47.273" lon="-2.31958">
        <ele>26.60000038147</ele>
        <time>2020-10-22T09:47:29.000Z</time>
      </trkpt>
      <trkpt lat="47.2728" lon="-2.31945">
        <ele>26.60000038147</ele>
        <time>2020-10-22T09:47:34.000Z</time>
      </trkpt>
      <trkpt lat="47.27263" lon="-2.31937">
        <ele>26.60000038147</ele>
        <time>2020-10-22T09:47:38.000Z</time>
      </trkpt>
      <trkpt lat="47.27232" lon="-2.31926">
        <ele>26.60000038147</ele>
        <time>2020-10-22T09:47:45.000Z</time>
      </trkpt>
      <trkpt lat="47.27209" lon="-2.31916">
        <ele>27</ele>
        <time>2020-10-22T09:47:50.000Z</time>
      </trkpt>
      <trkpt lat="47.27205" lon="-2.31912">
        <ele>27.39999961853</ele>
        <time>2020-10-22T09:47:51.000Z</time>
      </trkpt>
      <trkpt lat="47.272" lon="-2.31908">
        <ele>27.799999237061</ele>
        <time>2020-10-22T09:47:52.000Z</time>
      </trkpt>
      <trkpt lat="47.27196" lon="-2.31903">
        <ele>28.200000762939</ele>
        <time>2020-10-22T09:47:53.000Z</time>
      </trkpt>
      <trkpt lat="47.27192" lon="-2.31899">
        <ele>28.60000038147</ele>
        <time>2020-10-22T09:47:54.000Z</time>
      </trkpt>
      <trkpt lat="47.27178" lon="-2.31883">
        <ele>28.60000038147</ele>
        <time>2020-10-22T09:47:58.000Z</time>
      </trkpt>
      <trkpt lat="47.27164" lon="-2.31863">
        <ele>28.60000038147</ele>
        <time>2020-10-22T09:48:04.000Z</time>
      </trkpt>
      <trkpt lat="47.27156" lon="-2.31847">
        <ele>28.60000038147</ele>
        <time>2020-10-22T09:48:08.000Z</time>
      </trkpt>
      <trkpt lat="47.27141" lon="-2.31827">
        <ele>28.60000038147</ele>
        <time>2020-10-22T09:48:14.000Z</time>
      </trkpt>
      <trkpt lat="47.2712" lon="-2.31801">
        <ele>29</ele>
        <time>2020-10-22T09:48:20.000Z</time>
      </trkpt>
      <trkpt lat="47.27116" lon="-2.31795">
        <ele>29.39999961853</ele>
        <time>2020-10-22T09:48:21.000Z</time>
      </trkpt>
      <trkpt lat="47.27112" lon="-2.31791">
        <ele>29.799999237061</ele>
        <time>2020-10-22T09:48:22.000Z</time>
      </trkpt>
      <trkpt lat="47.27109" lon="-2.31786">
        <ele>30.200000762939</ele>
        <time>2020-10-22T09:48:23.000Z</time>
      </trkpt>
      <trkpt lat="47.27105" lon="-2.31781">
        <ele>30.60000038147</ele>
        <time>2020-10-22T09:48:24.000Z</time>
      </trkpt>
      <trkpt lat="47.27098" lon="-2.31772">
        <ele>30.60000038147</ele>
        <time>2020-10-22T09:48:26.000Z</time>
      </trkpt>
      <trkpt lat="47.27074" lon="-2.3175">
        <ele>30.60000038147</ele>
        <time>2020-10-22T09:48:32.000Z</time>
      </trkpt>
      <trkpt lat="47.27063" lon="-2.31742">
        <ele>30.60000038147</ele>
        <time>2020-10-22T09:48:36.000Z</time>
      </trkpt>
      <trkpt lat="47.27058" lon="-2.31738">
        <ele>30.60000038147</ele>
        <time>2020-10-22T09:48:41.000Z</time>
      </trkpt>
      <trkpt lat="47.27057" lon="-2.3174">
        <ele>30.60000038147</ele>
        <time>2020-10-22T09:48:42.000Z</time>
      </trkpt>
      <trkpt lat="47.27054" lon="-2.3175">
        <ele>30.60000038147</ele>
        <time>2020-10-22T09:48:46.000Z</time>
      </trkpt>
      <trkpt lat="47.27053" lon="-2.31753">
        <ele>31</ele>
        <time>2020-10-22T09:48:47.000Z</time>
      </trkpt>
      <trkpt lat="47.27053" lon="-2.31757">
        <ele>31.60000038147</ele>
        <time>2020-10-22T09:48:48.000Z</time>
      </trkpt>
      <trkpt lat="47.27054" lon="-2.3176">
        <ele>32</ele>
        <time>2020-10-22T09:48:49.000Z</time>
      </trkpt>
      <trkpt lat="47.27054" lon="-2.31765">
        <ele>32.400001525879</ele>
        <time>2020-10-22T09:48:50.000Z</time>
      </trkpt>
      <trkpt lat="47.27055" lon="-2.31769">
        <ele>32.799999237061</ele>
        <time>2020-10-22T09:48:51.000Z</time>
      </trkpt>
      <trkpt lat="47.27058" lon="-2.31803">
        <ele>32.799999237061</ele>
        <time>2020-10-22T09:48:57.000Z</time>
      </trkpt>
      <trkpt lat="47.27059" lon="-2.31816">
        <ele>32.799999237061</ele>
        <time>2020-10-22T09:48:59.000Z</time>
      </trkpt>
      <trkpt lat="47.27061" lon="-2.3184">
        <ele>32.400001525879</ele>
        <time>2020-10-22T09:49:03.000Z</time>
      </trkpt>
      <trkpt lat="47.27062" lon="-2.31845">
        <ele>32</ele>
        <time>2020-10-22T09:49:04.000Z</time>
      </trkpt>
      <trkpt lat="47.27064" lon="-2.31849">
        <ele>31.60000038147</ele>
        <time>2020-10-22T09:49:05.000Z</time>
      </trkpt>
      <trkpt lat="47.27065" lon="-2.31852">
        <ele>31.200000762939</ele>
        <time>2020-10-22T09:49:06.000Z</time>
      </trkpt>
      <trkpt lat="47.27068" lon="-2.31855">
        <ele>30.799999237061</ele>
        <time>2020-10-22T09:49:07.000Z</time>
      </trkpt>
      <trkpt lat="47.27075" lon="-2.31865">
        <ele>30.799999237061</ele>
        <time>2020-10-22T09:49:11.000Z</time>
      </trkpt>
      <trkpt lat="47.27073" lon="-2.31876">
        <ele>30.799999237061</ele>
        <time>2020-10-22T09:49:15.000Z</time>
      </trkpt>
      <trkpt lat="47.27071" lon="-2.319">
        <ele>30.799999237061</ele>
        <time>2020-10-22T09:49:21.000Z</time>
      </trkpt>
      <trkpt lat="47.27072" lon="-2.31905">
        <ele>29.799999237061</ele>
        <time>2020-10-22T09:49:22.000Z</time>
      </trkpt>
      <trkpt lat="47.27073" lon="-2.3191">
        <ele>29.39999961853</ele>
        <time>2020-10-22T09:49:23.000Z</time>
      </trkpt>
      <trkpt lat="47.27074" lon="-2.31914">
        <ele>29</ele>
        <time>2020-10-22T09:49:24.000Z</time>
      </trkpt>
      <trkpt lat="47.27074" lon="-2.31919">
        <ele>28.60000038147</ele>
        <time>2020-10-22T09:49:25.000Z</time>
      </trkpt>
      <trkpt lat="47.27075" lon="-2.31928">
        <ele>28.60000038147</ele>
        <time>2020-10-22T09:49:27.000Z</time>
      </trkpt>
      <trkpt lat="47.27075" lon="-2.31941">
        <ele>28.60000038147</ele>
        <time>2020-10-22T09:49:31.000Z</time>
      </trkpt>
      <trkpt lat="47.27074" lon="-2.31942">
        <ele>28.60000038147</ele>
        <time>2020-10-22T09:49:32.000Z</time>
      </trkpt>
      <trkpt lat="47.27072" lon="-2.31944">
        <ele>28.60000038147</ele>
        <time>2020-10-22T09:49:33.000Z</time>
      </trkpt>
      <trkpt lat="47.27064" lon="-2.31946">
        <ele>28.60000038147</ele>
        <time>2020-10-22T09:49:35.000Z</time>
      </trkpt>
      <trkpt lat="47.27046" lon="-2.31948">
        <ele>28.60000038147</ele>
        <time>2020-10-22T09:49:40.000Z</time>
      </trkpt>
      <trkpt lat="47.27027" lon="-2.31961">
        <ele>28.60000038147</ele>
        <time>2020-10-22T09:49:45.000Z</time>
      </trkpt>
      <trkpt lat="47.27013" lon="-2.31971">
        <ele>28.60000038147</ele>
        <time>2020-10-22T09:49:48.000Z</time>
      </trkpt>
      <trkpt lat="47.27008" lon="-2.31983">
        <ele>28.60000038147</ele>
        <time>2020-10-22T09:49:50.000Z</time>
      </trkpt>
      <trkpt lat="47.27009" lon="-2.32002">
        <ele>28.60000038147</ele>
        <time>2020-10-22T09:49:53.000Z</time>
      </trkpt>
      <trkpt lat="47.27011" lon="-2.32009">
        <ele>28.60000038147</ele>
        <time>2020-10-22T09:49:54.000Z</time>
      </trkpt>
      <trkpt lat="47.27017" lon="-2.32032">
        <ele>28.60000038147</ele>
        <time>2020-10-22T09:49:57.000Z</time>
      </trkpt>
      <trkpt lat="47.27019" lon="-2.3204">
        <ele>28.60000038147</ele>
        <time>2020-10-22T09:49:58.000Z</time>
      </trkpt>
      <trkpt lat="47.2702" lon="-2.32057">
        <ele>28.60000038147</ele>
        <time>2020-10-22T09:50:00.000Z</time>
      </trkpt>
      <trkpt lat="47.2702" lon="-2.32066">
        <ele>28.60000038147</ele>
        <time>2020-10-22T09:50:01.000Z</time>
      </trkpt>
      <trkpt lat="47.27019" lon="-2.32075">
        <ele>28.200000762939</ele>
        <time>2020-10-22T09:50:02.000Z</time>
      </trkpt>
      <trkpt lat="47.27019" lon="-2.32083">
        <ele>27.799999237061</ele>
        <time>2020-10-22T09:50:03.000Z</time>
      </trkpt>
      <trkpt lat="47.27018" lon="-2.32092">
        <ele>27.39999961853</ele>
        <time>2020-10-22T09:50:04.000Z</time>
      </trkpt>
      <trkpt lat="47.27016" lon="-2.321">
        <ele>27</ele>
        <time>2020-10-22T09:50:05.000Z</time>
      </trkpt>
      <trkpt lat="47.27014" lon="-2.32106">
        <ele>26.39999961853</ele>
        <time>2020-10-22T09:50:06.000Z</time>
      </trkpt>
      <trkpt lat="47.27011" lon="-2.32111">
        <ele>26.39999961853</ele>
        <time>2020-10-22T09:50:07.000Z</time>
      </trkpt>
      <trkpt lat="47.26994" lon="-2.32134">
        <ele>26</ele>
        <time>2020-10-22T09:50:11.000Z</time>
      </trkpt>
      <trkpt lat="47.26995" lon="-2.32141">
        <ele>25.200000762939</ele>
        <time>2020-10-22T09:50:12.000Z</time>
      </trkpt>
      <trkpt lat="47.26997" lon="-2.32147">
        <ele>24.799999237061</ele>
        <time>2020-10-22T09:50:13.000Z</time>
      </trkpt>
      <trkpt lat="47.27" lon="-2.32153">
        <ele>24.39999961853</ele>
        <time>2020-10-22T09:50:14.000Z</time>
      </trkpt>
      <trkpt lat="47.27004" lon="-2.32159">
        <ele>24.39999961853</ele>
        <time>2020-10-22T09:50:15.000Z</time>
      </trkpt>
      <trkpt lat="47.27011" lon="-2.32172">
        <ele>24.39999961853</ele>
        <time>2020-10-22T09:50:17.000Z</time>
      </trkpt>
      <trkpt lat="47.27018" lon="-2.32187">
        <ele>24.39999961853</ele>
        <time>2020-10-22T09:50:19.000Z</time>
      </trkpt>
      <trkpt lat="47.27026" lon="-2.3221">
        <ele>24.39999961853</ele>
        <time>2020-10-22T09:50:22.000Z</time>
      </trkpt>
      <trkpt lat="47.2703" lon="-2.32224">
        <ele>24.39999961853</ele>
        <time>2020-10-22T09:50:24.000Z</time>
      </trkpt>
      <trkpt lat="47.27031" lon="-2.32239">
        <ele>24.39999961853</ele>
        <time>2020-10-22T09:50:26.000Z</time>
      </trkpt>
      <trkpt lat="47.27031" lon="-2.32293">
        <ele>24.39999961853</ele>
        <time>2020-10-22T09:50:32.000Z</time>
      </trkpt>
      <trkpt lat="47.2703" lon="-2.32338">
        <ele>24.39999961853</ele>
        <time>2020-10-22T09:50:37.000Z</time>
      </trkpt>
      <trkpt lat="47.2703" lon="-2.32347">
        <ele>24.39999961853</ele>
        <time>2020-10-22T09:50:38.000Z</time>
      </trkpt>
      <trkpt lat="47.27035" lon="-2.32395">
        <ele>24.39999961853</ele>
        <time>2020-10-22T09:50:44.000Z</time>
      </trkpt>
      <trkpt lat="47.27038" lon="-2.32451">
        <ele>24.39999961853</ele>
        <time>2020-10-22T09:50:50.000Z</time>
      </trkpt>
      <trkpt lat="47.27037" lon="-2.32468">
        <ele>24.39999961853</ele>
        <time>2020-10-22T09:50:52.000Z</time>
      </trkpt>
      <trkpt lat="47.27028" lon="-2.3249">
        <ele>24.39999961853</ele>
        <time>2020-10-22T09:50:55.000Z</time>
      </trkpt>
      <trkpt lat="47.27012" lon="-2.32499">
        <ele>24.39999961853</ele>
        <time>2020-10-22T09:50:58.000Z</time>
      </trkpt>
      <trkpt lat="47.26999" lon="-2.3249">
        <ele>24.39999961853</ele>
        <time>2020-10-22T09:51:01.000Z</time>
      </trkpt>
      <trkpt lat="47.26996" lon="-2.32485">
        <ele>24.39999961853</ele>
        <time>2020-10-22T09:51:02.000Z</time>
      </trkpt>
      <trkpt lat="47.26981" lon="-2.32457">
        <ele>24.39999961853</ele>
        <time>2020-10-22T09:51:07.000Z</time>
      </trkpt>
      <trkpt lat="47.26977" lon="-2.32451">
        <ele>24.39999961853</ele>
        <time>2020-10-22T09:51:08.000Z</time>
      </trkpt>
      <trkpt lat="47.26958" lon="-2.32426">
        <ele>24.39999961853</ele>
        <time>2020-10-22T09:51:13.000Z</time>
      </trkpt>
      <trkpt lat="47.26955" lon="-2.3242">
        <ele>24.39999961853</ele>
        <time>2020-10-22T09:51:14.000Z</time>
      </trkpt>
      <trkpt lat="47.26952" lon="-2.32414">
        <ele>24.39999961853</ele>
        <time>2020-10-22T09:51:15.000Z</time>
      </trkpt>
      <trkpt lat="47.26947" lon="-2.32402">
        <ele>24.39999961853</ele>
        <time>2020-10-22T09:51:17.000Z</time>
      </trkpt>
      <trkpt lat="47.26942" lon="-2.32381">
        <ele>24.39999961853</ele>
        <time>2020-10-22T09:51:20.000Z</time>
      </trkpt>
      <trkpt lat="47.26937" lon="-2.32359">
        <ele>24.39999961853</ele>
        <time>2020-10-22T09:51:23.000Z</time>
      </trkpt>
      <trkpt lat="47.26929" lon="-2.32342">
        <ele>24.799999237061</ele>
        <time>2020-10-22T09:51:26.000Z</time>
      </trkpt>
      <trkpt lat="47.26925" lon="-2.32338">
        <ele>25.200000762939</ele>
        <time>2020-10-22T09:51:27.000Z</time>
      </trkpt>
      <trkpt lat="47.26923" lon="-2.32333">
        <ele>25.60000038147</ele>
        <time>2020-10-22T09:51:28.000Z</time>
      </trkpt>
      <trkpt lat="47.26921" lon="-2.32329">
        <ele>26</ele>
        <time>2020-10-22T09:51:29.000Z</time>
      </trkpt>
      <trkpt lat="47.26919" lon="-2.32321">
        <ele>26.39999961853</ele>
        <time>2020-10-22T09:51:30.000Z</time>
      </trkpt>
      <trkpt lat="47.2691" lon="-2.32296">
        <ele>26.39999961853</ele>
        <time>2020-10-22T09:51:34.000Z</time>
      </trkpt>
      <trkpt lat="47.26897" lon="-2.32267">
        <ele>26.39999961853</ele>
        <time>2020-10-22T09:51:39.000Z</time>
      </trkpt>
      <trkpt lat="47.26894" lon="-2.32261">
        <ele>26.39999961853</ele>
        <time>2020-10-22T09:51:40.000Z</time>
      </trkpt>
      <trkpt lat="47.26888" lon="-2.3225">
        <ele>27</ele>
        <time>2020-10-22T09:51:42.000Z</time>
      </trkpt>
      <trkpt lat="47.26886" lon="-2.32245">
        <ele>27.39999961853</ele>
        <time>2020-10-22T09:51:43.000Z</time>
      </trkpt>
      <trkpt lat="47.26883" lon="-2.3224">
        <ele>27.799999237061</ele>
        <time>2020-10-22T09:51:44.000Z</time>
      </trkpt>
      <trkpt lat="47.2688" lon="-2.32235">
        <ele>28.200000762939</ele>
        <time>2020-10-22T09:51:45.000Z</time>
      </trkpt>
      <trkpt lat="47.26877" lon="-2.32229">
        <ele>28.60000038147</ele>
        <time>2020-10-22T09:51:46.000Z</time>
      </trkpt>
      <trkpt lat="47.26875" lon="-2.32224">
        <ele>28.60000038147</ele>
        <time>2020-10-22T09:51:47.000Z</time>
      </trkpt>
      <trkpt lat="47.26867" lon="-2.32207">
        <ele>28.60000038147</ele>
        <time>2020-10-22T09:51:50.000Z</time>
      </trkpt>
      <trkpt lat="47.26865" lon="-2.32201">
        <ele>29.39999961853</ele>
        <time>2020-10-22T09:51:51.000Z</time>
      </trkpt>
      <trkpt lat="47.26862" lon="-2.32195">
        <ele>30</ele>
        <time>2020-10-22T09:51:52.000Z</time>
      </trkpt>
      <trkpt lat="47.26861" lon="-2.3219">
        <ele>30.39999961853</ele>
        <time>2020-10-22T09:51:53.000Z</time>
      </trkpt>
      <trkpt lat="47.26858" lon="-2.32184">
        <ele>30.799999237061</ele>
        <time>2020-10-22T09:51:54.000Z</time>
      </trkpt>
      <trkpt lat="47.26853" lon="-2.32172">
        <ele>30.799999237061</ele>
        <time>2020-10-22T09:51:56.000Z</time>
      </trkpt>
      <trkpt lat="47.26841" lon="-2.3214">
        <ele>30.799999237061</ele>
        <time>2020-10-22T09:52:01.000Z</time>
      </trkpt>
      <trkpt lat="47.26837" lon="-2.32126">
        <ele>30.799999237061</ele>
        <time>2020-10-22T09:52:03.000Z</time>
      </trkpt>
      <trkpt lat="47.26833" lon="-2.32112">
        <ele>30.799999237061</ele>
        <time>2020-10-22T09:52:05.000Z</time>
      </trkpt>
      <trkpt lat="47.26828" lon="-2.32093">
        <ele>30.799999237061</ele>
        <time>2020-10-22T09:52:08.000Z</time>
      </trkpt>
      <trkpt lat="47.26826" lon="-2.32086">
        <ele>31.200000762939</ele>
        <time>2020-10-22T09:52:09.000Z</time>
      </trkpt>
      <trkpt lat="47.26825" lon="-2.32079">
        <ele>31.60000038147</ele>
        <time>2020-10-22T09:52:10.000Z</time>
      </trkpt>
      <trkpt lat="47.26823" lon="-2.32073">
        <ele>32</ele>
        <time>2020-10-22T09:52:11.000Z</time>
      </trkpt>
      <trkpt lat="47.26821" lon="-2.32066">
        <ele>32.400001525879</ele>
        <time>2020-10-22T09:52:12.000Z</time>
      </trkpt>
      <trkpt lat="47.26818" lon="-2.32059">
        <ele>32.799999237061</ele>
        <time>2020-10-22T09:52:13.000Z</time>
      </trkpt>
      <trkpt lat="47.26817" lon="-2.32053">
        <ele>32.799999237061</ele>
        <time>2020-10-22T09:52:14.000Z</time>
      </trkpt>
      <trkpt lat="47.26813" lon="-2.3204">
        <ele>32.799999237061</ele>
        <time>2020-10-22T09:52:16.000Z</time>
      </trkpt>
      <trkpt lat="47.2681" lon="-2.32027">
        <ele>32.799999237061</ele>
        <time>2020-10-22T09:52:18.000Z</time>
      </trkpt>
      <trkpt lat="47.26792" lon="-2.3199">
        <ele>32.799999237061</ele>
        <time>2020-10-22T09:52:25.000Z</time>
      </trkpt>
      <trkpt lat="47.26787" lon="-2.3198">
        <ele>33.200000762939</ele>
        <time>2020-10-22T09:52:27.000Z</time>
      </trkpt>
      <trkpt lat="47.26784" lon="-2.31975">
        <ele>33.599998474121</ele>
        <time>2020-10-22T09:52:28.000Z</time>
      </trkpt>
      <trkpt lat="47.26781" lon="-2.31972">
        <ele>34.200000762939</ele>
        <time>2020-10-22T09:52:29.000Z</time>
      </trkpt>
      <trkpt lat="47.26778" lon="-2.31968">
        <ele>34.599998474121</ele>
        <time>2020-10-22T09:52:30.000Z</time>
      </trkpt>
      <trkpt lat="47.26776" lon="-2.31964">
        <ele>35</ele>
        <time>2020-10-22T09:52:31.000Z</time>
      </trkpt>
      <trkpt lat="47.26768" lon="-2.31952">
        <ele>35.400001525879</ele>
        <time>2020-10-22T09:52:34.000Z</time>
      </trkpt>
      <trkpt lat="47.26766" lon="-2.31949">
        <ele>35.799999237061</ele>
        <time>2020-10-22T09:52:35.000Z</time>
      </trkpt>
      <trkpt lat="47.26763" lon="-2.31947">
        <ele>36.200000762939</ele>
        <time>2020-10-22T09:52:36.000Z</time>
      </trkpt>
      <trkpt lat="47.2676" lon="-2.31948">
        <ele>36.599998474121</ele>
        <time>2020-10-22T09:52:37.000Z</time>
      </trkpt>
      <trkpt lat="47.26758" lon="-2.31952">
        <ele>37</ele>
        <time>2020-10-22T09:52:38.000Z</time>
      </trkpt>
      <trkpt lat="47.26756" lon="-2.31956">
        <ele>37</ele>
        <time>2020-10-22T09:52:39.000Z</time>
      </trkpt>
      <trkpt lat="47.26744" lon="-2.31977">
        <ele>37</ele>
        <time>2020-10-22T09:52:45.000Z</time>
      </trkpt>
      <trkpt lat="47.26725" lon="-2.31993">
        <ele>37</ele>
        <time>2020-10-22T09:52:51.000Z</time>
      </trkpt>
      <trkpt lat="47.26701" lon="-2.32011">
        <ele>37.400001525879</ele>
        <time>2020-10-22T09:52:58.000Z</time>
      </trkpt>
      <trkpt lat="47.26699" lon="-2.32014">
        <ele>37.799999237061</ele>
        <time>2020-10-22T09:52:59.000Z</time>
      </trkpt>
      <trkpt lat="47.26697" lon="-2.32018">
        <ele>38.200000762939</ele>
        <time>2020-10-22T09:53:00.000Z</time>
      </trkpt>
      <trkpt lat="47.26695" lon="-2.32022">
        <ele>38.599998474121</ele>
        <time>2020-10-22T09:53:01.000Z</time>
      </trkpt>
      <trkpt lat="47.26693" lon="-2.32026">
        <ele>39.200000762939</ele>
        <time>2020-10-22T09:53:02.000Z</time>
      </trkpt>
      <trkpt lat="47.26691" lon="-2.32031">
        <ele>39.200000762939</ele>
        <time>2020-10-22T09:53:03.000Z</time>
      </trkpt>
      <trkpt lat="47.26686" lon="-2.32058">
        <ele>39.200000762939</ele>
        <time>2020-10-22T09:53:08.000Z</time>
      </trkpt>
      <trkpt lat="47.26684" lon="-2.3207">
        <ele>39.200000762939</ele>
        <time>2020-10-22T09:53:10.000Z</time>
      </trkpt>
      <trkpt lat="47.26684" lon="-2.32089">
        <ele>39.200000762939</ele>
        <time>2020-10-22T09:53:13.000Z</time>
      </trkpt>
      <trkpt lat="47.26681" lon="-2.32122">
        <ele>39.200000762939</ele>
        <time>2020-10-22T09:53:19.000Z</time>
      </trkpt>
      <trkpt lat="47.2668" lon="-2.32122">
        <ele>39.200000762939</ele>
        <time>2020-10-22T09:53:20.000Z</time>
      </trkpt>
      <trkpt lat="47.26675" lon="-2.32122">
        <ele>39.200000762939</ele>
        <time>2020-10-22T09:53:50.000Z</time>
      </trkpt>
      <trkpt lat="47.26674" lon="-2.3212">
        <ele>39.200000762939</ele>
        <time>2020-10-22T09:53:51.000Z</time>
      </trkpt>
      <trkpt lat="47.26671" lon="-2.32112">
        <ele>39.200000762939</ele>
        <time>2020-10-22T09:53:55.000Z</time>
      </trkpt>
      <trkpt lat="47.26669" lon="-2.32106">
        <ele>39.200000762939</ele>
        <time>2020-10-22T09:53:57.000Z</time>
      </trkpt>
      <trkpt lat="47.26663" lon="-2.32081">
        <ele>39.200000762939</ele>
        <time>2020-10-22T09:54:03.000Z</time>
      </trkpt>
      <trkpt lat="47.26651" lon="-2.3203">
        <ele>39.200000762939</ele>
        <time>2020-10-22T09:54:13.000Z</time>
      </trkpt>
      <trkpt lat="47.26642" lon="-2.32006">
        <ele>39.200000762939</ele>
        <time>2020-10-22T09:54:19.000Z</time>
      </trkpt>
      <trkpt lat="47.26639" lon="-2.32005">
        <ele>39.200000762939</ele>
        <time>2020-10-22T09:54:20.000Z</time>
      </trkpt>
      <trkpt lat="47.2663" lon="-2.3201">
        <ele>39.200000762939</ele>
        <time>2020-10-22T09:54:23.000Z</time>
      </trkpt>
      <trkpt lat="47.26626" lon="-2.32011">
        <ele>39.200000762939</ele>
        <time>2020-10-22T09:54:24.000Z</time>
      </trkpt>
      <trkpt lat="47.26597" lon="-2.3202">
        <ele>39.200000762939</ele>
        <time>2020-10-22T09:54:31.000Z</time>
      </trkpt>
      <trkpt lat="47.26559" lon="-2.32035">
        <ele>39.200000762939</ele>
        <time>2020-10-22T09:54:39.000Z</time>
      </trkpt>
      <trkpt lat="47.26544" lon="-2.3204">
        <ele>39.200000762939</ele>
        <time>2020-10-22T09:54:44.000Z</time>
      </trkpt>
      <trkpt lat="47.26541" lon="-2.32035">
        <ele>38.599998474121</ele>
        <time>2020-10-22T09:54:47.000Z</time>
      </trkpt>
      <trkpt lat="47.26541" lon="-2.32032">
        <ele>38.200000762939</ele>
        <time>2020-10-22T09:54:48.000Z</time>
      </trkpt>
      <trkpt lat="47.26541" lon="-2.32029">
        <ele>37.799999237061</ele>
        <time>2020-10-22T09:54:49.000Z</time>
      </trkpt>
      <trkpt lat="47.2654" lon="-2.32024">
        <ele>37.200000762939</ele>
        <time>2020-10-22T09:54:50.000Z</time>
      </trkpt>
      <trkpt lat="47.26539" lon="-2.3202">
        <ele>36.799999237061</ele>
        <time>2020-10-22T09:54:51.000Z</time>
      </trkpt>
      <trkpt lat="47.26537" lon="-2.32017">
        <ele>36.799999237061</ele>
        <time>2020-10-22T09:54:52.000Z</time>
      </trkpt>
      <trkpt lat="47.26526" lon="-2.32004">
        <ele>36.799999237061</ele>
        <time>2020-10-22T09:54:57.000Z</time>
      </trkpt>
      <trkpt lat="47.26509" lon="-2.32001">
        <ele>36.400001525879</ele>
        <time>2020-10-22T09:55:02.000Z</time>
      </trkpt>
      <trkpt lat="47.26504" lon="-2.32002">
        <ele>36</ele>
        <time>2020-10-22T09:55:03.000Z</time>
      </trkpt>
      <trkpt lat="47.26499" lon="-2.32003">
        <ele>35.400001525879</ele>
        <time>2020-10-22T09:55:04.000Z</time>
      </trkpt>
      <trkpt lat="47.26493" lon="-2.32004">
        <ele>35</ele>
        <time>2020-10-22T09:55:05.000Z</time>
      </trkpt>
      <trkpt lat="47.26488" lon="-2.32004">
        <ele>34.599998474121</ele>
        <time>2020-10-22T09:55:06.000Z</time>
      </trkpt>
      <trkpt lat="47.26476" lon="-2.32006">
        <ele>34.200000762939</ele>
        <time>2020-10-22T09:55:08.000Z</time>
      </trkpt>
      <trkpt lat="47.2647" lon="-2.32007">
        <ele>33.200000762939</ele>
        <time>2020-10-22T09:55:09.000Z</time>
      </trkpt>
      <trkpt lat="47.26464" lon="-2.32009">
        <ele>32.799999237061</ele>
        <time>2020-10-22T09:55:10.000Z</time>
      </trkpt>
      <trkpt lat="47.26458" lon="-2.32009">
        <ele>32.400001525879</ele>
        <time>2020-10-22T09:55:11.000Z</time>
      </trkpt>
      <trkpt lat="47.26451" lon="-2.32009">
        <ele>32.400001525879</ele>
        <time>2020-10-22T09:55:12.000Z</time>
      </trkpt>
      <trkpt lat="47.26438" lon="-2.32009">
        <ele>32</ele>
        <time>2020-10-22T09:55:14.000Z</time>
      </trkpt>
      <trkpt lat="47.26432" lon="-2.32008">
        <ele>31.60000038147</ele>
        <time>2020-10-22T09:55:15.000Z</time>
      </trkpt>
      <trkpt lat="47.26425" lon="-2.32007">
        <ele>31.200000762939</ele>
        <time>2020-10-22T09:55:16.000Z</time>
      </trkpt>
      <trkpt lat="47.26418" lon="-2.32006">
        <ele>30.799999237061</ele>
        <time>2020-10-22T09:55:17.000Z</time>
      </trkpt>
      <trkpt lat="47.26412" lon="-2.32005">
        <ele>30.39999961853</ele>
        <time>2020-10-22T09:55:18.000Z</time>
      </trkpt>
      <trkpt lat="47.26401" lon="-2.32002">
        <ele>29.799999237061</ele>
        <time>2020-10-22T09:55:20.000Z</time>
      </trkpt>
      <trkpt lat="47.26394" lon="-2.32">
        <ele>29.39999961853</ele>
        <time>2020-10-22T09:55:21.000Z</time>
      </trkpt>
      <trkpt lat="47.26388" lon="-2.31999">
        <ele>29</ele>
        <time>2020-10-22T09:55:22.000Z</time>
      </trkpt>
      <trkpt lat="47.26382" lon="-2.31998">
        <ele>28.39999961853</ele>
        <time>2020-10-22T09:55:23.000Z</time>
      </trkpt>
      <trkpt lat="47.26377" lon="-2.31997">
        <ele>28</ele>
        <time>2020-10-22T09:55:24.000Z</time>
      </trkpt>
      <trkpt lat="47.26372" lon="-2.31997">
        <ele>27.39999961853</ele>
        <time>2020-10-22T09:55:25.000Z</time>
      </trkpt>
      <trkpt lat="47.26368" lon="-2.31996">
        <ele>27</ele>
        <time>2020-10-22T09:55:26.000Z</time>
      </trkpt>
      <trkpt lat="47.26364" lon="-2.31994">
        <ele>26.39999961853</ele>
        <time>2020-10-22T09:55:27.000Z</time>
      </trkpt>
      <trkpt lat="47.26361" lon="-2.31988">
        <ele>25.799999237061</ele>
        <time>2020-10-22T09:55:28.000Z</time>
      </trkpt>
      <trkpt lat="47.26357" lon="-2.31971">
        <ele>25.799999237061</ele>
        <time>2020-10-22T09:55:30.000Z</time>
      </trkpt>
      <trkpt lat="47.26355" lon="-2.31964">
        <ele>25.39999961853</ele>
        <time>2020-10-22T09:55:31.000Z</time>
      </trkpt>
      <trkpt lat="47.26352" lon="-2.31956">
        <ele>25</ele>
        <time>2020-10-22T09:55:32.000Z</time>
      </trkpt>
      <trkpt lat="47.26349" lon="-2.31949">
        <ele>24.39999961853</ele>
        <time>2020-10-22T09:55:33.000Z</time>
      </trkpt>
      <trkpt lat="47.26345" lon="-2.31945">
        <ele>23.60000038147</ele>
        <time>2020-10-22T09:55:34.000Z</time>
      </trkpt>
      <trkpt lat="47.26343" lon="-2.31942">
        <ele>23.60000038147</ele>
        <time>2020-10-22T09:55:35.000Z</time>
      </trkpt>
      <trkpt lat="47.26327" lon="-2.31939">
        <ele>23.60000038147</ele>
        <time>2020-10-22T09:55:39.000Z</time>
      </trkpt>
      <trkpt lat="47.26319" lon="-2.31939">
        <ele>23.60000038147</ele>
        <time>2020-10-22T09:55:41.000Z</time>
      </trkpt>
      <trkpt lat="47.26311" lon="-2.31934">
        <ele>23.60000038147</ele>
        <time>2020-10-22T09:55:43.000Z</time>
      </trkpt>
      <trkpt lat="47.26308" lon="-2.31929">
        <ele>23.60000038147</ele>
        <time>2020-10-22T09:55:44.000Z</time>
      </trkpt>
      <trkpt lat="47.26304" lon="-2.31904">
        <ele>23.60000038147</ele>
        <time>2020-10-22T09:55:48.000Z</time>
      </trkpt>
      <trkpt lat="47.26303" lon="-2.3187">
        <ele>23.60000038147</ele>
        <time>2020-10-22T09:55:52.000Z</time>
      </trkpt>
      <trkpt lat="47.26303" lon="-2.31862">
        <ele>23.60000038147</ele>
        <time>2020-10-22T09:55:53.000Z</time>
      </trkpt>
      <trkpt lat="47.26305" lon="-2.31807">
        <ele>23.60000038147</ele>
        <time>2020-10-22T09:56:00.000Z</time>
      </trkpt>
      <trkpt lat="47.26301" lon="-2.31753">
        <ele>23.60000038147</ele>
        <time>2020-10-22T09:56:07.000Z</time>
      </trkpt>
      <trkpt lat="47.26296" lon="-2.31717">
        <ele>23.60000038147</ele>
        <time>2020-10-22T09:56:12.000Z</time>
      </trkpt>
      <trkpt lat="47.26293" lon="-2.31712">
        <ele>23.60000038147</ele>
        <time>2020-10-22T09:56:13.000Z</time>
      </trkpt>
      <trkpt lat="47.26274" lon="-2.31677">
        <ele>23.60000038147</ele>
        <time>2020-10-22T09:56:19.000Z</time>
      </trkpt>
      <trkpt lat="47.26261" lon="-2.31647">
        <ele>23.60000038147</ele>
        <time>2020-10-22T09:56:24.000Z</time>
      </trkpt>
      <trkpt lat="47.2625" lon="-2.31625">
        <ele>23.60000038147</ele>
        <time>2020-10-22T09:56:28.000Z</time>
      </trkpt>
      <trkpt lat="47.26239" lon="-2.31611">
        <ele>23.60000038147</ele>
        <time>2020-10-22T09:56:31.000Z</time>
      </trkpt>
      <trkpt lat="47.26235" lon="-2.31608">
        <ele>23.60000038147</ele>
        <time>2020-10-22T09:56:32.000Z</time>
      </trkpt>
      <trkpt lat="47.2622" lon="-2.31599">
        <ele>23.60000038147</ele>
        <time>2020-10-22T09:56:36.000Z</time>
      </trkpt>
      <trkpt lat="47.2621" lon="-2.31597">
        <ele>23.60000038147</ele>
        <time>2020-10-22T09:56:38.000Z</time>
      </trkpt>
      <trkpt lat="47.26193" lon="-2.316">
        <ele>23.60000038147</ele>
        <time>2020-10-22T09:56:41.000Z</time>
      </trkpt>
      <trkpt lat="47.26187" lon="-2.31601">
        <ele>23.60000038147</ele>
        <time>2020-10-22T09:56:42.000Z</time>
      </trkpt>
      <trkpt lat="47.26171" lon="-2.31605">
        <ele>23.60000038147</ele>
        <time>2020-10-22T09:56:45.000Z</time>
      </trkpt>
      <trkpt lat="47.26159" lon="-2.31608">
        <ele>23.60000038147</ele>
        <time>2020-10-22T09:56:47.000Z</time>
      </trkpt>
      <trkpt lat="47.26132" lon="-2.31617">
        <ele>23.60000038147</ele>
        <time>2020-10-22T09:56:52.000Z</time>
      </trkpt>
      <trkpt lat="47.26127" lon="-2.31616">
        <ele>23.60000038147</ele>
        <time>2020-10-22T09:56:53.000Z</time>
      </trkpt>
      <trkpt lat="47.26112" lon="-2.31615">
        <ele>23.60000038147</ele>
        <time>2020-10-22T09:56:56.000Z</time>
      </trkpt>
      <trkpt lat="47.26103" lon="-2.31611">
        <ele>23.60000038147</ele>
        <time>2020-10-22T09:56:58.000Z</time>
      </trkpt>
      <trkpt lat="47.26092" lon="-2.31602">
        <ele>23.60000038147</ele>
        <time>2020-10-22T09:57:01.000Z</time>
      </trkpt>
      <trkpt lat="47.26088" lon="-2.31593">
        <ele>23.60000038147</ele>
        <time>2020-10-22T09:57:03.000Z</time>
      </trkpt>
      <trkpt lat="47.26076" lon="-2.3158">
        <ele>23.60000038147</ele>
        <time>2020-10-22T09:57:08.000Z</time>
      </trkpt>
      <trkpt lat="47.26067" lon="-2.31564">
        <ele>23.60000038147</ele>
        <time>2020-10-22T09:57:13.000Z</time>
      </trkpt>
      <trkpt lat="47.26054" lon="-2.31535">
        <ele>23.60000038147</ele>
        <time>2020-10-22T09:57:19.000Z</time>
      </trkpt>
      <trkpt lat="47.26042" lon="-2.31531">
        <ele>23.60000038147</ele>
        <time>2020-10-22T09:57:23.000Z</time>
      </trkpt>
      <trkpt lat="47.26029" lon="-2.3154">
        <ele>23.60000038147</ele>
        <time>2020-10-22T09:57:28.000Z</time>
      </trkpt>
      <trkpt lat="47.2602" lon="-2.31557">
        <ele>24</ele>
        <time>2020-10-22T09:57:31.000Z</time>
      </trkpt>
      <trkpt lat="47.26017" lon="-2.31562">
        <ele>24.39999961853</ele>
        <time>2020-10-22T09:57:32.000Z</time>
      </trkpt>
      <trkpt lat="47.26013" lon="-2.31564">
        <ele>24.799999237061</ele>
        <time>2020-10-22T09:57:33.000Z</time>
      </trkpt>
      <trkpt lat="47.2601" lon="-2.31563">
        <ele>25.200000762939</ele>
        <time>2020-10-22T09:57:34.000Z</time>
      </trkpt>
      <trkpt lat="47.26006" lon="-2.31559">
        <ele>25.60000038147</ele>
        <time>2020-10-22T09:57:35.000Z</time>
      </trkpt>
      <trkpt lat="47.25993" lon="-2.31539">
        <ele>25.60000038147</ele>
        <time>2020-10-22T09:57:39.000Z</time>
      </trkpt>
      <trkpt lat="47.2599" lon="-2.31533">
        <ele>25.60000038147</ele>
        <time>2020-10-22T09:57:40.000Z</time>
      </trkpt>
      <trkpt lat="47.25975" lon="-2.31503">
        <ele>25.60000038147</ele>
        <time>2020-10-22T09:57:45.000Z</time>
      </trkpt>
      <trkpt lat="47.25961" lon="-2.31477">
        <ele>25.60000038147</ele>
        <time>2020-10-22T09:57:50.000Z</time>
      </trkpt>
      <trkpt lat="47.25953" lon="-2.3147">
        <ele>25.60000038147</ele>
        <time>2020-10-22T09:57:52.000Z</time>
      </trkpt>
      <trkpt lat="47.25942" lon="-2.31461">
        <ele>25.60000038147</ele>
        <time>2020-10-22T09:57:55.000Z</time>
      </trkpt>
      <trkpt lat="47.25938" lon="-2.31459">
        <ele>25.60000038147</ele>
        <time>2020-10-22T09:57:56.000Z</time>
      </trkpt>
      <trkpt lat="47.25928" lon="-2.31464">
        <ele>25.60000038147</ele>
        <time>2020-10-22T09:57:59.000Z</time>
      </trkpt>
      <trkpt lat="47.2592" lon="-2.31483">
        <ele>25.60000038147</ele>
        <time>2020-10-22T09:58:03.000Z</time>
      </trkpt>
      <trkpt lat="47.25915" lon="-2.31495">
        <ele>25.60000038147</ele>
        <time>2020-10-22T09:58:08.000Z</time>
      </trkpt>
      <trkpt lat="47.25912" lon="-2.31505">
        <ele>25.60000038147</ele>
        <time>2020-10-22T09:58:15.000Z</time>
      </trkpt>
      <trkpt lat="47.2591" lon="-2.31513">
        <ele>25.60000038147</ele>
        <time>2020-10-22T09:58:19.000Z</time>
      </trkpt>
      <trkpt lat="47.25901" lon="-2.31526">
        <ele>25.60000038147</ele>
        <time>2020-10-22T09:58:22.000Z</time>
      </trkpt>
      <trkpt lat="47.25897" lon="-2.31538">
        <ele>25.60000038147</ele>
        <time>2020-10-22T09:58:24.000Z</time>
      </trkpt>
      <trkpt lat="47.25888" lon="-2.31559">
        <ele>26</ele>
        <time>2020-10-22T09:58:27.000Z</time>
      </trkpt>
      <trkpt lat="47.25885" lon="-2.31565">
        <ele>26.39999961853</ele>
        <time>2020-10-22T09:58:28.000Z</time>
      </trkpt>
      <trkpt lat="47.25881" lon="-2.31572">
        <ele>27</ele>
        <time>2020-10-22T09:58:29.000Z</time>
      </trkpt>
      <trkpt lat="47.25878" lon="-2.31577">
        <ele>27.39999961853</ele>
        <time>2020-10-22T09:58:30.000Z</time>
      </trkpt>
      <trkpt lat="47.25873" lon="-2.31582">
        <ele>27.799999237061</ele>
        <time>2020-10-22T09:58:31.000Z</time>
      </trkpt>
      <trkpt lat="47.25869" lon="-2.31586">
        <ele>27.799999237061</ele>
        <time>2020-10-22T09:58:32.000Z</time>
      </trkpt>
      <trkpt lat="47.25843" lon="-2.31612">
        <ele>28.200000762939</ele>
        <time>2020-10-22T09:58:38.000Z</time>
      </trkpt>
      <trkpt lat="47.25838" lon="-2.31615">
        <ele>28.799999237061</ele>
        <time>2020-10-22T09:58:39.000Z</time>
      </trkpt>
      <trkpt lat="47.25834" lon="-2.31619">
        <ele>29.200000762939</ele>
        <time>2020-10-22T09:58:40.000Z</time>
      </trkpt>
      <trkpt lat="47.2583" lon="-2.31622">
        <ele>29.60000038147</ele>
        <time>2020-10-22T09:58:41.000Z</time>
      </trkpt>
      <trkpt lat="47.25826" lon="-2.31625">
        <ele>30.200000762939</ele>
        <time>2020-10-22T09:58:42.000Z</time>
      </trkpt>
      <trkpt lat="47.2581" lon="-2.31639">
        <ele>30.200000762939</ele>
        <time>2020-10-22T09:58:46.000Z</time>
      </trkpt>
      <trkpt lat="47.25768" lon="-2.3167">
        <ele>30.200000762939</ele>
        <time>2020-10-22T09:58:56.000Z</time>
      </trkpt>
      <trkpt lat="47.25734" lon="-2.31695">
        <ele>30.200000762939</ele>
        <time>2020-10-22T09:59:03.000Z</time>
      </trkpt>
      <trkpt lat="47.25725" lon="-2.31699">
        <ele>30.200000762939</ele>
        <time>2020-10-22T09:59:05.000Z</time>
      </trkpt>
      <trkpt lat="47.25715" lon="-2.31696">
        <ele>30.200000762939</ele>
        <time>2020-10-22T09:59:07.000Z</time>
      </trkpt>
      <trkpt lat="47.25708" lon="-2.31692">
        <ele>30.200000762939</ele>
        <time>2020-10-22T09:59:09.000Z</time>
      </trkpt>
      <trkpt lat="47.25695" lon="-2.31685">
        <ele>30.200000762939</ele>
        <time>2020-10-22T09:59:12.000Z</time>
      </trkpt>
      <trkpt lat="47.25672" lon="-2.31681">
        <ele>30.200000762939</ele>
        <time>2020-10-22T09:59:18.000Z</time>
      </trkpt>
      <trkpt lat="47.25652" lon="-2.31697">
        <ele>30.200000762939</ele>
        <time>2020-10-22T09:59:24.000Z</time>
      </trkpt>
      <trkpt lat="47.2564" lon="-2.31713">
        <ele>30.60000038147</ele>
        <time>2020-10-22T09:59:28.000Z</time>
      </trkpt>
      <trkpt lat="47.25637" lon="-2.31716">
        <ele>31</ele>
        <time>2020-10-22T09:59:29.000Z</time>
      </trkpt>
      <trkpt lat="47.25635" lon="-2.31718">
        <ele>31.39999961853</ele>
        <time>2020-10-22T09:59:30.000Z</time>
      </trkpt>
      <trkpt lat="47.25632" lon="-2.31721">
        <ele>31.799999237061</ele>
        <time>2020-10-22T09:59:31.000Z</time>
      </trkpt>
      <trkpt lat="47.2563" lon="-2.31725">
        <ele>32.400001525879</ele>
        <time>2020-10-22T09:59:32.000Z</time>
      </trkpt>
      <trkpt lat="47.25627" lon="-2.31735">
        <ele>32.400001525879</ele>
        <time>2020-10-22T09:59:34.000Z</time>
      </trkpt>
      <trkpt lat="47.25619" lon="-2.31761">
        <ele>32.400001525879</ele>
        <time>2020-10-22T09:59:38.000Z</time>
      </trkpt>
      <trkpt lat="47.25615" lon="-2.31765">
        <ele>32.400001525879</ele>
        <time>2020-10-22T09:59:39.000Z</time>
      </trkpt>
      <trkpt lat="47.2561" lon="-2.31767">
        <ele>32.799999237061</ele>
        <time>2020-10-22T09:59:40.000Z</time>
      </trkpt>
      <trkpt lat="47.25604" lon="-2.31769">
        <ele>33.200000762939</ele>
        <time>2020-10-22T09:59:41.000Z</time>
      </trkpt>
      <trkpt lat="47.25598" lon="-2.31768">
        <ele>33.599998474121</ele>
        <time>2020-10-22T09:59:42.000Z</time>
      </trkpt>
      <trkpt lat="47.25593" lon="-2.31769">
        <ele>34</ele>
        <time>2020-10-22T09:59:43.000Z</time>
      </trkpt>
      <trkpt lat="47.25588" lon="-2.31769">
        <ele>34.400001525879</ele>
        <time>2020-10-22T09:59:44.000Z</time>
      </trkpt>
      <trkpt lat="47.25583" lon="-2.31771">
        <ele>34.400001525879</ele>
        <time>2020-10-22T09:59:45.000Z</time>
      </trkpt>
      <trkpt lat="47.25571" lon="-2.31778">
        <ele>34.400001525879</ele>
        <time>2020-10-22T09:59:48.000Z</time>
      </trkpt>
      <trkpt lat="47.25561" lon="-2.31798">
        <ele>34.400001525879</ele>
        <time>2020-10-22T09:59:52.000Z</time>
      </trkpt>
      <trkpt lat="47.25547" lon="-2.3181">
        <ele>34.400001525879</ele>
        <time>2020-10-22T09:59:56.000Z</time>
      </trkpt>
      <trkpt lat="47.2554" lon="-2.31812">
        <ele>34.799999237061</ele>
        <time>2020-10-22T09:59:58.000Z</time>
      </trkpt>
      <trkpt lat="47.25537" lon="-2.31812">
        <ele>35.200000762939</ele>
        <time>2020-10-22T09:59:59.000Z</time>
      </trkpt>
      <trkpt lat="47.25534" lon="-2.31813">
        <ele>35.599998474121</ele>
        <time>2020-10-22T10:00:00.000Z</time>
      </trkpt>
      <trkpt lat="47.25531" lon="-2.31813">
        <ele>36</ele>
        <time>2020-10-22T10:00:01.000Z</time>
      </trkpt>
      <trkpt lat="47.25528" lon="-2.31814">
        <ele>36.400001525879</ele>
        <time>2020-10-22T10:00:02.000Z</time>
      </trkpt>
      <trkpt lat="47.25524" lon="-2.31817">
        <ele>36.400001525879</ele>
        <time>2020-10-22T10:00:04.000Z</time>
      </trkpt>
      <trkpt lat="47.25523" lon="-2.31821">
        <ele>36.400001525879</ele>
        <time>2020-10-22T10:00:06.000Z</time>
      </trkpt>
      <trkpt lat="47.2552" lon="-2.31824">
        <ele>36.400001525879</ele>
        <time>2020-10-22T10:00:08.000Z</time>
      </trkpt>
      <trkpt lat="47.25517" lon="-2.31828">
        <ele>36.400001525879</ele>
        <time>2020-10-22T10:00:11.000Z</time>
      </trkpt>
      <trkpt lat="47.25515" lon="-2.3183">
        <ele>36.400001525879</ele>
        <time>2020-10-22T10:00:13.000Z</time>
      </trkpt>
      <trkpt lat="47.25508" lon="-2.31837">
        <ele>36.400001525879</ele>
        <time>2020-10-22T10:00:20.000Z</time>
      </trkpt>
      <trkpt lat="47.25508" lon="-2.31837">
        <ele>36.400001525879</ele>
        <time>2020-10-22T10:00:22.000Z</time>
      </trkpt>
      <trkpt lat="47.25507" lon="-2.31839">
        <ele>38.400001525879</ele>
        <time>2020-10-22T10:15:50.000Z</time>
      </trkpt>
      <trkpt lat="47.25507" lon="-2.31838">
        <ele>38.400001525879</ele>
        <time>2020-10-22T10:15:51.000Z</time>
      </trkpt>
      <trkpt lat="47.25509" lon="-2.31826">
        <ele>38.400001525879</ele>
        <time>2020-10-22T10:15:56.000Z</time>
      </trkpt>
      <trkpt lat="47.25509" lon="-2.31823">
        <ele>38.400001525879</ele>
        <time>2020-10-22T10:15:58.000Z</time>
      </trkpt>
      <trkpt lat="47.25511" lon="-2.31816">
        <ele>38.400001525879</ele>
        <time>2020-10-22T10:16:02.000Z</time>
      </trkpt>
      <trkpt lat="47.25526" lon="-2.31806">
        <ele>38.400001525879</ele>
        <time>2020-10-22T10:16:08.000Z</time>
      </trkpt>
      <trkpt lat="47.2554" lon="-2.31802">
        <ele>38.400001525879</ele>
        <time>2020-10-22T10:16:13.000Z</time>
      </trkpt>
      <trkpt lat="47.25553" lon="-2.31795">
        <ele>38.400001525879</ele>
        <time>2020-10-22T10:16:18.000Z</time>
      </trkpt>
      <trkpt lat="47.25561" lon="-2.31786">
        <ele>38.400001525879</ele>
        <time>2020-10-22T10:16:21.000Z</time>
      </trkpt>
      <trkpt lat="47.25569" lon="-2.31772">
        <ele>38.400001525879</ele>
        <time>2020-10-22T10:16:24.000Z</time>
      </trkpt>
      <trkpt lat="47.25577" lon="-2.31764">
        <ele>38</ele>
        <time>2020-10-22T10:16:26.000Z</time>
      </trkpt>
      <trkpt lat="47.25581" lon="-2.3176">
        <ele>37.599998474121</ele>
        <time>2020-10-22T10:16:27.000Z</time>
      </trkpt>
      <trkpt lat="47.25584" lon="-2.31754">
        <ele>37.200000762939</ele>
        <time>2020-10-22T10:16:28.000Z</time>
      </trkpt>
      <trkpt lat="47.25588" lon="-2.31747">
        <ele>36.599998474121</ele>
        <time>2020-10-22T10:16:29.000Z</time>
      </trkpt>
      <trkpt lat="47.2559" lon="-2.31739">
        <ele>36.200000762939</ele>
        <time>2020-10-22T10:16:30.000Z</time>
      </trkpt>
      <trkpt lat="47.25593" lon="-2.31726">
        <ele>36.200000762939</ele>
        <time>2020-10-22T10:16:32.000Z</time>
      </trkpt>
      <trkpt lat="47.25599" lon="-2.31717">
        <ele>36.200000762939</ele>
        <time>2020-10-22T10:16:34.000Z</time>
      </trkpt>
      <trkpt lat="47.25616" lon="-2.31709">
        <ele>36.200000762939</ele>
        <time>2020-10-22T10:16:38.000Z</time>
      </trkpt>
      <trkpt lat="47.25622" lon="-2.31708">
        <ele>36.200000762939</ele>
        <time>2020-10-22T10:16:39.000Z</time>
      </trkpt>
      <trkpt lat="47.25632" lon="-2.31704">
        <ele>36.200000762939</ele>
        <time>2020-10-22T10:16:41.000Z</time>
      </trkpt>
      <trkpt lat="47.25643" lon="-2.31695">
        <ele>36.200000762939</ele>
        <time>2020-10-22T10:16:43.000Z</time>
      </trkpt>
      <trkpt lat="47.25648" lon="-2.31688">
        <ele>35.799999237061</ele>
        <time>2020-10-22T10:16:44.000Z</time>
      </trkpt>
      <trkpt lat="47.25652" lon="-2.31679">
        <ele>35.400001525879</ele>
        <time>2020-10-22T10:16:45.000Z</time>
      </trkpt>
      <trkpt lat="47.25656" lon="-2.31671">
        <ele>35</ele>
        <time>2020-10-22T10:16:46.000Z</time>
      </trkpt>
      <trkpt lat="47.25659" lon="-2.31664">
        <ele>34.400001525879</ele>
        <time>2020-10-22T10:16:47.000Z</time>
      </trkpt>
      <trkpt lat="47.25663" lon="-2.31661">
        <ele>34</ele>
        <time>2020-10-22T10:16:48.000Z</time>
      </trkpt>
      <trkpt lat="47.25668" lon="-2.31662">
        <ele>34</ele>
        <time>2020-10-22T10:16:49.000Z</time>
      </trkpt>
      <trkpt lat="47.25683" lon="-2.31674">
        <ele>34</ele>
        <time>2020-10-22T10:16:52.000Z</time>
      </trkpt>
      <trkpt lat="47.25688" lon="-2.31677">
        <ele>33.599998474121</ele>
        <time>2020-10-22T10:16:53.000Z</time>
      </trkpt>
      <trkpt lat="47.25694" lon="-2.3168">
        <ele>33.200000762939</ele>
        <time>2020-10-22T10:16:54.000Z</time>
      </trkpt>
      <trkpt lat="47.257" lon="-2.31683">
        <ele>32.200000762939</ele>
        <time>2020-10-22T10:16:55.000Z</time>
      </trkpt>
      <trkpt lat="47.25706" lon="-2.31686">
        <ele>31.799999237061</ele>
        <time>2020-10-22T10:16:56.000Z</time>
      </trkpt>
      <trkpt lat="47.25712" lon="-2.3169">
        <ele>31.799999237061</ele>
        <time>2020-10-22T10:16:57.000Z</time>
      </trkpt>
      <trkpt lat="47.25723" lon="-2.31697">
        <ele>31.799999237061</ele>
        <time>2020-10-22T10:16:59.000Z</time>
      </trkpt>
      <trkpt lat="47.25732" lon="-2.31696">
        <ele>31.799999237061</ele>
        <time>2020-10-22T10:17:01.000Z</time>
      </trkpt>
      <trkpt lat="47.25739" lon="-2.3169">
        <ele>31.799999237061</ele>
        <time>2020-10-22T10:17:03.000Z</time>
      </trkpt>
      <trkpt lat="47.25743" lon="-2.31687">
        <ele>31.39999961853</ele>
        <time>2020-10-22T10:17:04.000Z</time>
      </trkpt>
      <trkpt lat="47.25747" lon="-2.31683">
        <ele>31</ele>
        <time>2020-10-22T10:17:05.000Z</time>
      </trkpt>
      <trkpt lat="47.25751" lon="-2.3168">
        <ele>30.60000038147</ele>
        <time>2020-10-22T10:17:06.000Z</time>
      </trkpt>
      <trkpt lat="47.25755" lon="-2.31677">
        <ele>30.200000762939</ele>
        <time>2020-10-22T10:17:07.000Z</time>
      </trkpt>
      <trkpt lat="47.25759" lon="-2.31673">
        <ele>29.799999237061</ele>
        <time>2020-10-22T10:17:08.000Z</time>
      </trkpt>
      <trkpt lat="47.25779" lon="-2.31658">
        <ele>29.799999237061</ele>
        <time>2020-10-22T10:17:13.000Z</time>
      </trkpt>
      <trkpt lat="47.25802" lon="-2.3164">
        <ele>30.200000762939</ele>
        <time>2020-10-22T10:17:19.000Z</time>
      </trkpt>
      <trkpt lat="47.25806" lon="-2.31637">
        <ele>31</ele>
        <time>2020-10-22T10:17:20.000Z</time>
      </trkpt>
      <trkpt lat="47.2581" lon="-2.31634">
        <ele>31.39999961853</ele>
        <time>2020-10-22T10:17:21.000Z</time>
      </trkpt>
      <trkpt lat="47.25813" lon="-2.31631">
        <ele>31.799999237061</ele>
        <time>2020-10-22T10:17:22.000Z</time>
      </trkpt>
      <trkpt lat="47.25836" lon="-2.31613">
        <ele>31.799999237061</ele>
        <time>2020-10-22T10:17:28.000Z</time>
      </trkpt>
      <trkpt lat="47.25868" lon="-2.31583">
        <ele>31.799999237061</ele>
        <time>2020-10-22T10:17:35.000Z</time>
      </trkpt>
      <trkpt lat="47.25883" lon="-2.31567">
        <ele>31.799999237061</ele>
        <time>2020-10-22T10:17:38.000Z</time>
      </trkpt>
      <trkpt lat="47.25891" lon="-2.31551">
        <ele>31.799999237061</ele>
        <time>2020-10-22T10:17:40.000Z</time>
      </trkpt>
      <trkpt lat="47.25901" lon="-2.31524">
        <ele>31.799999237061</ele>
        <time>2020-10-22T10:17:44.000Z</time>
      </trkpt>
      <trkpt lat="47.25904" lon="-2.31519">
        <ele>31.39999961853</ele>
        <time>2020-10-22T10:17:45.000Z</time>
      </trkpt>
      <trkpt lat="47.25907" lon="-2.31516">
        <ele>31</ele>
        <time>2020-10-22T10:17:46.000Z</time>
      </trkpt>
      <trkpt lat="47.25909" lon="-2.31513">
        <ele>30.60000038147</ele>
        <time>2020-10-22T10:17:47.000Z</time>
      </trkpt>
      <trkpt lat="47.25911" lon="-2.3151">
        <ele>30.200000762939</ele>
        <time>2020-10-22T10:17:48.000Z</time>
      </trkpt>
      <trkpt lat="47.25912" lon="-2.31508">
        <ele>29.60000038147</ele>
        <time>2020-10-22T10:17:49.000Z</time>
      </trkpt>
      <trkpt lat="47.25912" lon="-2.31505">
        <ele>29.60000038147</ele>
        <time>2020-10-22T10:17:52.000Z</time>
      </trkpt>
      <trkpt lat="47.25913" lon="-2.31501">
        <ele>29.60000038147</ele>
        <time>2020-10-22T10:17:55.000Z</time>
      </trkpt>
      <trkpt lat="47.25916" lon="-2.31492">
        <ele>29.60000038147</ele>
        <time>2020-10-22T10:17:57.000Z</time>
      </trkpt>
      <trkpt lat="47.25924" lon="-2.31469">
        <ele>29.60000038147</ele>
        <time>2020-10-22T10:18:01.000Z</time>
      </trkpt>
      <trkpt lat="47.2593" lon="-2.3146">
        <ele>29.60000038147</ele>
        <time>2020-10-22T10:18:03.000Z</time>
      </trkpt>
      <trkpt lat="47.25937" lon="-2.3146">
        <ele>29.200000762939</ele>
        <time>2020-10-22T10:18:05.000Z</time>
      </trkpt>
      <trkpt lat="47.25942" lon="-2.31463">
        <ele>28.799999237061</ele>
        <time>2020-10-22T10:18:06.000Z</time>
      </trkpt>
      <trkpt lat="47.25946" lon="-2.31466">
        <ele>28.39999961853</ele>
        <time>2020-10-22T10:18:07.000Z</time>
      </trkpt>
      <trkpt lat="47.25951" lon="-2.31469">
        <ele>28</ele>
        <time>2020-10-22T10:18:08.000Z</time>
      </trkpt>
      <trkpt lat="47.25955" lon="-2.31473">
        <ele>27.60000038147</ele>
        <time>2020-10-22T10:18:09.000Z</time>
      </trkpt>
      <trkpt lat="47.25963" lon="-2.31482">
        <ele>27.60000038147</ele>
        <time>2020-10-22T10:18:11.000Z</time>
      </trkpt>
      <trkpt lat="47.25967" lon="-2.31486">
        <ele>27.60000038147</ele>
        <time>2020-10-22T10:18:12.000Z</time>
      </trkpt>
      <trkpt lat="47.25975" lon="-2.31505">
        <ele>27.60000038147</ele>
        <time>2020-10-22T10:18:15.000Z</time>
      </trkpt>
      <trkpt lat="47.2598" lon="-2.31517">
        <ele>27.60000038147</ele>
        <time>2020-10-22T10:18:17.000Z</time>
      </trkpt>
      <trkpt lat="47.2599" lon="-2.31533">
        <ele>27.60000038147</ele>
        <time>2020-10-22T10:18:20.000Z</time>
      </trkpt>
      <trkpt lat="47.25999" lon="-2.31547">
        <ele>27.60000038147</ele>
        <time>2020-10-22T10:18:23.000Z</time>
      </trkpt>
      <trkpt lat="47.2601" lon="-2.31562">
        <ele>27.60000038147</ele>
        <time>2020-10-22T10:18:27.000Z</time>
      </trkpt>
      <trkpt lat="47.26013" lon="-2.31563">
        <ele>27.60000038147</ele>
        <time>2020-10-22T10:18:28.000Z</time>
      </trkpt>
      <trkpt lat="47.2602" lon="-2.31558">
        <ele>27.60000038147</ele>
        <time>2020-10-22T10:18:30.000Z</time>
      </trkpt>
      <trkpt lat="47.26025" lon="-2.31549">
        <ele>27.60000038147</ele>
        <time>2020-10-22T10:18:32.000Z</time>
      </trkpt>
      <trkpt lat="47.26033" lon="-2.31539">
        <ele>27.60000038147</ele>
        <time>2020-10-22T10:18:35.000Z</time>
      </trkpt>
      <trkpt lat="47.26047" lon="-2.31533">
        <ele>27.60000038147</ele>
        <time>2020-10-22T10:18:39.000Z</time>
      </trkpt>
      <trkpt lat="47.26051" lon="-2.31534">
        <ele>27.200000762939</ele>
        <time>2020-10-22T10:18:40.000Z</time>
      </trkpt>
      <trkpt lat="47.26055" lon="-2.31536">
        <ele>26.799999237061</ele>
        <time>2020-10-22T10:18:41.000Z</time>
      </trkpt>
      <trkpt lat="47.26058" lon="-2.3154">
        <ele>26.200000762939</ele>
        <time>2020-10-22T10:18:42.000Z</time>
      </trkpt>
      <trkpt lat="47.2606" lon="-2.31544">
        <ele>25.799999237061</ele>
        <time>2020-10-22T10:18:43.000Z</time>
      </trkpt>
      <trkpt lat="47.26063" lon="-2.31549">
        <ele>25.39999961853</ele>
        <time>2020-10-22T10:18:44.000Z</time>
      </trkpt>
      <trkpt lat="47.26069" lon="-2.3156">
        <ele>25.39999961853</ele>
        <time>2020-10-22T10:18:46.000Z</time>
      </trkpt>
      <trkpt lat="47.26075" lon="-2.31577">
        <ele>25.39999961853</ele>
        <time>2020-10-22T10:18:49.000Z</time>
      </trkpt>
      <trkpt lat="47.26077" lon="-2.31579">
        <ele>25.39999961853</ele>
        <time>2020-10-22T10:18:50.000Z</time>
      </trkpt>
      <trkpt lat="47.26084" lon="-2.31581">
        <ele>25.39999961853</ele>
        <time>2020-10-22T10:18:52.000Z</time>
      </trkpt>
      <trkpt lat="47.26093" lon="-2.31592">
        <ele>25.39999961853</ele>
        <time>2020-10-22T10:18:55.000Z</time>
      </trkpt>
      <trkpt lat="47.26106" lon="-2.31613">
        <ele>25.39999961853</ele>
        <time>2020-10-22T10:18:59.000Z</time>
      </trkpt>
      <trkpt lat="47.26115" lon="-2.31617">
        <ele>25.39999961853</ele>
        <time>2020-10-22T10:19:01.000Z</time>
      </trkpt>
      <trkpt lat="47.26124" lon="-2.31616">
        <ele>25.39999961853</ele>
        <time>2020-10-22T10:19:03.000Z</time>
      </trkpt>
      <trkpt lat="47.26138" lon="-2.31614">
        <ele>25.39999961853</ele>
        <time>2020-10-22T10:19:06.000Z</time>
      </trkpt>
      <trkpt lat="47.26165" lon="-2.31603">
        <ele>25.39999961853</ele>
        <time>2020-10-22T10:19:12.000Z</time>
      </trkpt>
      <trkpt lat="47.26202" lon="-2.3159">
        <ele>25.39999961853</ele>
        <time>2020-10-22T10:19:20.000Z</time>
      </trkpt>
      <trkpt lat="47.26212" lon="-2.31589">
        <ele>25.39999961853</ele>
        <time>2020-10-22T10:19:22.000Z</time>
      </trkpt>
      <trkpt lat="47.26225" lon="-2.31595">
        <ele>25.39999961853</ele>
        <time>2020-10-22T10:19:25.000Z</time>
      </trkpt>
      <trkpt lat="47.26236" lon="-2.31605">
        <ele>25.39999961853</ele>
        <time>2020-10-22T10:19:28.000Z</time>
      </trkpt>
      <trkpt lat="47.2624" lon="-2.31609">
        <ele>25.39999961853</ele>
        <time>2020-10-22T10:19:29.000Z</time>
      </trkpt>
      <trkpt lat="47.26248" lon="-2.31618">
        <ele>25.39999961853</ele>
        <time>2020-10-22T10:19:31.000Z</time>
      </trkpt>
      <trkpt lat="47.26251" lon="-2.31622">
        <ele>25.39999961853</ele>
        <time>2020-10-22T10:19:32.000Z</time>
      </trkpt>
      <trkpt lat="47.26261" lon="-2.31642">
        <ele>25.39999961853</ele>
        <time>2020-10-22T10:19:36.000Z</time>
      </trkpt>
      <trkpt lat="47.26264" lon="-2.31648">
        <ele>25.39999961853</ele>
        <time>2020-10-22T10:19:37.000Z</time>
      </trkpt>
      <trkpt lat="47.26274" lon="-2.31669">
        <ele>25.39999961853</ele>
        <time>2020-10-22T10:19:41.000Z</time>
      </trkpt>
      <trkpt lat="47.26277" lon="-2.31673">
        <ele>25.39999961853</ele>
        <time>2020-10-22T10:19:42.000Z</time>
      </trkpt>
      <trkpt lat="47.26291" lon="-2.31699">
        <ele>25.39999961853</ele>
        <time>2020-10-22T10:19:47.000Z</time>
      </trkpt>
      <trkpt lat="47.26298" lon="-2.31709">
        <ele>25.39999961853</ele>
        <time>2020-10-22T10:19:49.000Z</time>
      </trkpt>
      <trkpt lat="47.2631" lon="-2.31712">
        <ele>25.39999961853</ele>
        <time>2020-10-22T10:19:52.000Z</time>
      </trkpt>
      <trkpt lat="47.26318" lon="-2.31708">
        <ele>25.39999961853</ele>
        <time>2020-10-22T10:19:54.000Z</time>
      </trkpt>
      <trkpt lat="47.26331" lon="-2.317">
        <ele>25.39999961853</ele>
        <time>2020-10-22T10:19:58.000Z</time>
      </trkpt>
      <trkpt lat="47.26338" lon="-2.3169">
        <ele>25.39999961853</ele>
        <time>2020-10-22T10:20:01.000Z</time>
      </trkpt>
      <trkpt lat="47.2634" lon="-2.31688">
        <ele>25.39999961853</ele>
        <time>2020-10-22T10:20:02.000Z</time>
      </trkpt>
      <trkpt lat="47.26359" lon="-2.31678">
        <ele>25.39999961853</ele>
        <time>2020-10-22T10:20:08.000Z</time>
      </trkpt>
      <trkpt lat="47.26362" lon="-2.31676">
        <ele>25.799999237061</ele>
        <time>2020-10-22T10:20:09.000Z</time>
      </trkpt>
      <trkpt lat="47.26366" lon="-2.31675">
        <ele>26.39999961853</ele>
        <time>2020-10-22T10:20:10.000Z</time>
      </trkpt>
      <trkpt lat="47.26369" lon="-2.31673">
        <ele>26.799999237061</ele>
        <time>2020-10-22T10:20:11.000Z</time>
      </trkpt>
      <trkpt lat="47.26373" lon="-2.31672">
        <ele>27.200000762939</ele>
        <time>2020-10-22T10:20:12.000Z</time>
      </trkpt>
      <trkpt lat="47.26376" lon="-2.31671">
        <ele>27.60000038147</ele>
        <time>2020-10-22T10:20:13.000Z</time>
      </trkpt>
      <trkpt lat="47.2638" lon="-2.31669">
        <ele>27.60000038147</ele>
        <time>2020-10-22T10:20:14.000Z</time>
      </trkpt>
      <trkpt lat="47.26402" lon="-2.31656">
        <ele>27.60000038147</ele>
        <time>2020-10-22T10:20:21.000Z</time>
      </trkpt>
      <trkpt lat="47.2641" lon="-2.31648">
        <ele>27.60000038147</ele>
        <time>2020-10-22T10:20:24.000Z</time>
      </trkpt>
      <trkpt lat="47.2641" lon="-2.31644">
        <ele>27.60000038147</ele>
        <time>2020-10-22T10:20:25.000Z</time>
      </trkpt>
      <trkpt lat="47.2641" lon="-2.3163">
        <ele>27.60000038147</ele>
        <time>2020-10-22T10:20:28.000Z</time>
      </trkpt>
      <trkpt lat="47.2641" lon="-2.31616">
        <ele>27.60000038147</ele>
        <time>2020-10-22T10:20:31.000Z</time>
      </trkpt>
      <trkpt lat="47.2641" lon="-2.31593">
        <ele>27.60000038147</ele>
        <time>2020-10-22T10:20:36.000Z</time>
      </trkpt>
      <trkpt lat="47.2641" lon="-2.3157">
        <ele>27.60000038147</ele>
        <time>2020-10-22T10:20:41.000Z</time>
      </trkpt>
      <trkpt lat="47.26411" lon="-2.31556">
        <ele>27.60000038147</ele>
        <time>2020-10-22T10:20:45.000Z</time>
      </trkpt>
      <trkpt lat="47.26413" lon="-2.31554">
        <ele>27.60000038147</ele>
        <time>2020-10-22T10:20:46.000Z</time>
      </trkpt>
      <trkpt lat="47.26415" lon="-2.31554">
        <ele>28</ele>
        <time>2020-10-22T10:20:47.000Z</time>
      </trkpt>
      <trkpt lat="47.26416" lon="-2.31554">
        <ele>28.39999961853</ele>
        <time>2020-10-22T10:20:48.000Z</time>
      </trkpt>
      <trkpt lat="47.26416" lon="-2.31554">
        <ele>28.799999237061</ele>
        <time>2020-10-22T10:20:49.000Z</time>
      </trkpt>
      <trkpt lat="47.26417" lon="-2.31555">
        <ele>29.200000762939</ele>
        <time>2020-10-22T10:20:50.000Z</time>
      </trkpt>
    </trkseg>
  </trk>
</gpx>